<?xml version="1.0" encoding="UTF-8" standalone="no" ?>
<gpx xmlns="http://www.topografix.com/GPX/1/1" xmlns:xsi="http://www.w3.org/2001/XMLSchema-instance" xsi:schemaLocation="http://www.topografix.com/GPX/1/1 http://www.topografix.com/GPX/1/1/gpx.xsd" version="1.1" creator="VisuGPX - https://www.visugpx.com">
  <metadata>
    <name>Plateau de Siou Blanc</name>
    <desc><![CDATA[Très beau parcours.]]></desc>
  </metadata>
  <trk>
    <name><![CDATA[Plateau de Siou Blanc_1]]></name>
    <trkseg>
      <trkpt lat="43.17237" lon="5.83127">
        <ele>148.8</ele>
        <time>2021-05-29T07:27:34Z</time>
      </trkpt>
      <trkpt lat="43.17236" lon="5.83127">
        <ele>148.8</ele>
        <time>2021-05-29T07:27:35Z</time>
      </trkpt>
      <trkpt lat="43.17235" lon="5.83128">
        <ele>148.8</ele>
        <time>2021-05-29T07:27:41Z</time>
      </trkpt>
      <trkpt lat="43.17232" lon="5.83126">
        <ele>148.8</ele>
        <time>2021-05-29T07:27:43Z</time>
      </trkpt>
      <trkpt lat="43.17231" lon="5.83119">
        <ele>148.8</ele>
        <time>2021-05-29T07:27:45Z</time>
      </trkpt>
      <trkpt lat="43.17226" lon="5.83098">
        <ele>148.4</ele>
        <time>2021-05-29T07:27:49Z</time>
      </trkpt>
      <trkpt lat="43.17225" lon="5.83091">
        <ele>148.4</ele>
        <time>2021-05-29T07:27:50Z</time>
      </trkpt>
      <trkpt lat="43.17223" lon="5.83076">
        <ele>148.4</ele>
        <time>2021-05-29T07:27:52Z</time>
      </trkpt>
      <trkpt lat="43.17223" lon="5.83067">
        <ele>148.2</ele>
        <time>2021-05-29T07:27:53Z</time>
      </trkpt>
      <trkpt lat="43.17222" lon="5.83059">
        <ele>148</ele>
        <time>2021-05-29T07:27:54Z</time>
      </trkpt>
      <trkpt lat="43.17222" lon="5.8305">
        <ele>148</ele>
        <time>2021-05-29T07:27:55Z</time>
      </trkpt>
      <trkpt lat="43.17221" lon="5.83042">
        <ele>147.6</ele>
        <time>2021-05-29T07:27:56Z</time>
      </trkpt>
      <trkpt lat="43.17219" lon="5.83028">
        <ele>147.2</ele>
        <time>2021-05-29T07:27:58Z</time>
      </trkpt>
      <trkpt lat="43.17219" lon="5.83022">
        <ele>147</ele>
        <time>2021-05-29T07:27:59Z</time>
      </trkpt>
      <trkpt lat="43.17221" lon="5.83018">
        <ele>146.8</ele>
        <time>2021-05-29T07:28:00Z</time>
      </trkpt>
      <trkpt lat="43.17224" lon="5.83016">
        <ele>146.4</ele>
        <time>2021-05-29T07:28:01Z</time>
      </trkpt>
      <trkpt lat="43.17231" lon="5.83014">
        <ele>145.6</ele>
        <time>2021-05-29T07:28:03Z</time>
      </trkpt>
      <trkpt lat="43.17235" lon="5.83014">
        <ele>145.4</ele>
        <time>2021-05-29T07:28:04Z</time>
      </trkpt>
      <trkpt lat="43.17238" lon="5.83013">
        <ele>145</ele>
        <time>2021-05-29T07:28:05Z</time>
      </trkpt>
      <trkpt lat="43.17248" lon="5.83011">
        <ele>144.8</ele>
        <time>2021-05-29T07:28:08Z</time>
      </trkpt>
      <trkpt lat="43.17251" lon="5.83011">
        <ele>144.8</ele>
        <time>2021-05-29T07:28:09Z</time>
      </trkpt>
      <trkpt lat="43.17261" lon="5.8301">
        <ele>145</ele>
        <time>2021-05-29T07:28:12Z</time>
      </trkpt>
      <trkpt lat="43.17265" lon="5.8301">
        <ele>145</ele>
        <time>2021-05-29T07:28:13Z</time>
      </trkpt>
      <trkpt lat="43.1727" lon="5.8301">
        <ele>145.2</ele>
        <time>2021-05-29T07:28:14Z</time>
      </trkpt>
      <trkpt lat="43.17274" lon="5.8301">
        <ele>145.2</ele>
        <time>2021-05-29T07:28:15Z</time>
      </trkpt>
      <trkpt lat="43.1729" lon="5.83012">
        <ele>145.6</ele>
        <time>2021-05-29T07:28:19Z</time>
      </trkpt>
      <trkpt lat="43.17299" lon="5.83015">
        <ele>145.8</ele>
        <time>2021-05-29T07:28:21Z</time>
      </trkpt>
      <trkpt lat="43.17311" lon="5.8302">
        <ele>146</ele>
        <time>2021-05-29T07:28:24Z</time>
      </trkpt>
      <trkpt lat="43.17316" lon="5.8302">
        <ele>146</ele>
        <time>2021-05-29T07:28:25Z</time>
      </trkpt>
      <trkpt lat="43.1732" lon="5.83019">
        <ele>146</ele>
        <time>2021-05-29T07:28:26Z</time>
      </trkpt>
      <trkpt lat="43.17327" lon="5.8301">
        <ele>146.2</ele>
        <time>2021-05-29T07:28:28Z</time>
      </trkpt>
      <trkpt lat="43.17329" lon="5.83003">
        <ele>146.2</ele>
        <time>2021-05-29T07:28:29Z</time>
      </trkpt>
      <trkpt lat="43.1733" lon="5.82992">
        <ele>146.4</ele>
        <time>2021-05-29T07:28:31Z</time>
      </trkpt>
      <trkpt lat="43.17332" lon="5.82989">
        <ele>146.4</ele>
        <time>2021-05-29T07:28:32Z</time>
      </trkpt>
      <trkpt lat="43.17344" lon="5.82986">
        <ele>146.6</ele>
        <time>2021-05-29T07:28:35Z</time>
      </trkpt>
      <trkpt lat="43.17357" lon="5.8298">
        <ele>147</ele>
        <time>2021-05-29T07:28:38Z</time>
      </trkpt>
      <trkpt lat="43.1737" lon="5.82972">
        <ele>147.2</ele>
        <time>2021-05-29T07:28:41Z</time>
      </trkpt>
      <trkpt lat="43.17377" lon="5.82967">
        <ele>147.4</ele>
        <time>2021-05-29T07:28:43Z</time>
      </trkpt>
      <trkpt lat="43.17396" lon="5.82954">
        <ele>148</ele>
        <time>2021-05-29T07:28:48Z</time>
      </trkpt>
      <trkpt lat="43.17404" lon="5.82947">
        <ele>148.6</ele>
        <time>2021-05-29T07:28:51Z</time>
      </trkpt>
      <trkpt lat="43.17407" lon="5.82945">
        <ele>148.8</ele>
        <time>2021-05-29T07:28:52Z</time>
      </trkpt>
      <trkpt lat="43.1742" lon="5.8294">
        <ele>149.6</ele>
        <time>2021-05-29T07:28:56Z</time>
      </trkpt>
      <trkpt lat="43.17423" lon="5.82939">
        <ele>149.6</ele>
        <time>2021-05-29T07:28:57Z</time>
      </trkpt>
      <trkpt lat="43.17449" lon="5.82928">
        <ele>150.2</ele>
        <time>2021-05-29T07:29:04Z</time>
      </trkpt>
      <trkpt lat="43.17481" lon="5.82911">
        <ele>150.4</ele>
        <time>2021-05-29T07:29:12Z</time>
      </trkpt>
      <trkpt lat="43.17489" lon="5.82907">
        <ele>150.4</ele>
        <time>2021-05-29T07:29:14Z</time>
      </trkpt>
      <trkpt lat="43.17506" lon="5.82899">
        <ele>150.6</ele>
        <time>2021-05-29T07:29:18Z</time>
      </trkpt>
      <trkpt lat="43.1751" lon="5.82897">
        <ele>150.8</ele>
        <time>2021-05-29T07:29:19Z</time>
      </trkpt>
      <trkpt lat="43.17515" lon="5.82894">
        <ele>150.8</ele>
        <time>2021-05-29T07:29:20Z</time>
      </trkpt>
      <trkpt lat="43.17523" lon="5.8289">
        <ele>150.8</ele>
        <time>2021-05-29T07:29:22Z</time>
      </trkpt>
      <trkpt lat="43.17549" lon="5.82877">
        <ele>151</ele>
        <time>2021-05-29T07:29:28Z</time>
      </trkpt>
      <trkpt lat="43.17557" lon="5.82873">
        <ele>151</ele>
        <time>2021-05-29T07:29:30Z</time>
      </trkpt>
      <trkpt lat="43.17578" lon="5.82868">
        <ele>151.2</ele>
        <time>2021-05-29T07:29:35Z</time>
      </trkpt>
      <trkpt lat="43.17592" lon="5.82866">
        <ele>151.4</ele>
        <time>2021-05-29T07:29:38Z</time>
      </trkpt>
      <trkpt lat="43.17603" lon="5.82863">
        <ele>151.6</ele>
        <time>2021-05-29T07:29:40Z</time>
      </trkpt>
      <trkpt lat="43.17608" lon="5.82862">
        <ele>151.6</ele>
        <time>2021-05-29T07:29:41Z</time>
      </trkpt>
      <trkpt lat="43.17613" lon="5.82861">
        <ele>151.8</ele>
        <time>2021-05-29T07:29:42Z</time>
      </trkpt>
      <trkpt lat="43.17634" lon="5.82859">
        <ele>152</ele>
        <time>2021-05-29T07:29:46Z</time>
      </trkpt>
      <trkpt lat="43.17639" lon="5.8286">
        <ele>152</ele>
        <time>2021-05-29T07:29:47Z</time>
      </trkpt>
      <trkpt lat="43.17678" lon="5.82855">
        <ele>152.2</ele>
        <time>2021-05-29T07:29:54Z</time>
      </trkpt>
      <trkpt lat="43.17716" lon="5.82843">
        <ele>152.4</ele>
        <time>2021-05-29T07:30:02Z</time>
      </trkpt>
      <trkpt lat="43.17729" lon="5.82836">
        <ele>152.8</ele>
        <time>2021-05-29T07:30:05Z</time>
      </trkpt>
      <trkpt lat="43.17756" lon="5.8282">
        <ele>153</ele>
        <time>2021-05-29T07:30:11Z</time>
      </trkpt>
      <trkpt lat="43.17797" lon="5.82793">
        <ele>153.4</ele>
        <time>2021-05-29T07:30:20Z</time>
      </trkpt>
      <trkpt lat="43.1783" lon="5.82771">
        <ele>153.8</ele>
        <time>2021-05-29T07:30:28Z</time>
      </trkpt>
      <trkpt lat="43.17857" lon="5.82758">
        <ele>154.4</ele>
        <time>2021-05-29T07:30:34Z</time>
      </trkpt>
      <trkpt lat="43.17861" lon="5.82756">
        <ele>154.6</ele>
        <time>2021-05-29T07:30:35Z</time>
      </trkpt>
      <trkpt lat="43.1787" lon="5.82752">
        <ele>154.6</ele>
        <time>2021-05-29T07:30:37Z</time>
      </trkpt>
      <trkpt lat="43.17878" lon="5.82747">
        <ele>155</ele>
        <time>2021-05-29T07:30:39Z</time>
      </trkpt>
      <trkpt lat="43.17883" lon="5.82744">
        <ele>155</ele>
        <time>2021-05-29T07:30:40Z</time>
      </trkpt>
      <trkpt lat="43.17887" lon="5.8274">
        <ele>155.2</ele>
        <time>2021-05-29T07:30:41Z</time>
      </trkpt>
      <trkpt lat="43.17891" lon="5.82736">
        <ele>155.2</ele>
        <time>2021-05-29T07:30:42Z</time>
      </trkpt>
      <trkpt lat="43.17894" lon="5.82731">
        <ele>155.2</ele>
        <time>2021-05-29T07:30:43Z</time>
      </trkpt>
      <trkpt lat="43.17898" lon="5.82727">
        <ele>155.4</ele>
        <time>2021-05-29T07:30:44Z</time>
      </trkpt>
      <trkpt lat="43.17901" lon="5.82724">
        <ele>155.4</ele>
        <time>2021-05-29T07:30:45Z</time>
      </trkpt>
      <trkpt lat="43.17905" lon="5.82721">
        <ele>155.6</ele>
        <time>2021-05-29T07:30:46Z</time>
      </trkpt>
      <trkpt lat="43.17908" lon="5.82719">
        <ele>155.6</ele>
        <time>2021-05-29T07:30:47Z</time>
      </trkpt>
      <trkpt lat="43.17911" lon="5.82716">
        <ele>155.8</ele>
        <time>2021-05-29T07:30:48Z</time>
      </trkpt>
      <trkpt lat="43.17918" lon="5.82711">
        <ele>156</ele>
        <time>2021-05-29T07:30:50Z</time>
      </trkpt>
      <trkpt lat="43.1794" lon="5.82692">
        <ele>157.4</ele>
        <time>2021-05-29T07:30:57Z</time>
      </trkpt>
      <trkpt lat="43.17956" lon="5.82679">
        <ele>158.6</ele>
        <time>2021-05-29T07:31:02Z</time>
      </trkpt>
      <trkpt lat="43.17962" lon="5.82674">
        <ele>159</ele>
        <time>2021-05-29T07:31:04Z</time>
      </trkpt>
      <trkpt lat="43.17968" lon="5.82668">
        <ele>159.2</ele>
        <time>2021-05-29T07:31:06Z</time>
      </trkpt>
      <trkpt lat="43.17978" lon="5.8266">
        <ele>159.6</ele>
        <time>2021-05-29T07:31:09Z</time>
      </trkpt>
      <trkpt lat="43.17988" lon="5.82653">
        <ele>159.8</ele>
        <time>2021-05-29T07:31:12Z</time>
      </trkpt>
      <trkpt lat="43.18006" lon="5.8264">
        <ele>160.6</ele>
        <time>2021-05-29T07:31:18Z</time>
      </trkpt>
      <trkpt lat="43.18009" lon="5.82638">
        <ele>160.8</ele>
        <time>2021-05-29T07:31:19Z</time>
      </trkpt>
      <trkpt lat="43.1802" lon="5.82632">
        <ele>161</ele>
        <time>2021-05-29T07:31:22Z</time>
      </trkpt>
      <trkpt lat="43.18035" lon="5.82624">
        <ele>161.4</ele>
        <time>2021-05-29T07:31:26Z</time>
      </trkpt>
      <trkpt lat="43.18038" lon="5.82622">
        <ele>161.6</ele>
        <time>2021-05-29T07:31:27Z</time>
      </trkpt>
      <trkpt lat="43.18042" lon="5.8262">
        <ele>161.6</ele>
        <time>2021-05-29T07:31:28Z</time>
      </trkpt>
      <trkpt lat="43.18046" lon="5.82617">
        <ele>161.6</ele>
        <time>2021-05-29T07:31:29Z</time>
      </trkpt>
      <trkpt lat="43.18049" lon="5.82615">
        <ele>161.6</ele>
        <time>2021-05-29T07:31:30Z</time>
      </trkpt>
      <trkpt lat="43.18069" lon="5.82603">
        <ele>162</ele>
        <time>2021-05-29T07:31:35Z</time>
      </trkpt>
      <trkpt lat="43.18073" lon="5.82601">
        <ele>162</ele>
        <time>2021-05-29T07:31:36Z</time>
      </trkpt>
      <trkpt lat="43.18083" lon="5.82592">
        <ele>162.2</ele>
        <time>2021-05-29T07:31:39Z</time>
      </trkpt>
      <trkpt lat="43.18108" lon="5.82568">
        <ele>162.8</ele>
        <time>2021-05-29T07:31:46Z</time>
      </trkpt>
      <trkpt lat="43.18111" lon="5.82565">
        <ele>162.8</ele>
        <time>2021-05-29T07:31:47Z</time>
      </trkpt>
      <trkpt lat="43.18114" lon="5.82562">
        <ele>162.8</ele>
        <time>2021-05-29T07:31:48Z</time>
      </trkpt>
      <trkpt lat="43.18121" lon="5.82556">
        <ele>163</ele>
        <time>2021-05-29T07:31:50Z</time>
      </trkpt>
      <trkpt lat="43.18124" lon="5.82553">
        <ele>163.2</ele>
        <time>2021-05-29T07:31:51Z</time>
      </trkpt>
      <trkpt lat="43.18127" lon="5.82549">
        <ele>163.2</ele>
        <time>2021-05-29T07:31:52Z</time>
      </trkpt>
      <trkpt lat="43.18131" lon="5.82546">
        <ele>163.4</ele>
        <time>2021-05-29T07:31:53Z</time>
      </trkpt>
      <trkpt lat="43.18134" lon="5.82542">
        <ele>163.4</ele>
        <time>2021-05-29T07:31:54Z</time>
      </trkpt>
      <trkpt lat="43.18137" lon="5.82538">
        <ele>163.6</ele>
        <time>2021-05-29T07:31:55Z</time>
      </trkpt>
      <trkpt lat="43.1814" lon="5.82534">
        <ele>163.6</ele>
        <time>2021-05-29T07:31:56Z</time>
      </trkpt>
      <trkpt lat="43.18143" lon="5.82531">
        <ele>163.8</ele>
        <time>2021-05-29T07:31:57Z</time>
      </trkpt>
      <trkpt lat="43.18146" lon="5.82527">
        <ele>163.8</ele>
        <time>2021-05-29T07:31:58Z</time>
      </trkpt>
      <trkpt lat="43.1817" lon="5.82492">
        <ele>164.2</ele>
        <time>2021-05-29T07:32:06Z</time>
      </trkpt>
      <trkpt lat="43.18188" lon="5.82468">
        <ele>164.6</ele>
        <time>2021-05-29T07:32:12Z</time>
      </trkpt>
      <trkpt lat="43.18191" lon="5.82464">
        <ele>164.8</ele>
        <time>2021-05-29T07:32:13Z</time>
      </trkpt>
      <trkpt lat="43.18197" lon="5.82457">
        <ele>164.8</ele>
        <time>2021-05-29T07:32:15Z</time>
      </trkpt>
      <trkpt lat="43.18211" lon="5.82444">
        <ele>165.2</ele>
        <time>2021-05-29T07:32:19Z</time>
      </trkpt>
      <trkpt lat="43.18222" lon="5.82435">
        <ele>165.2</ele>
        <time>2021-05-29T07:32:22Z</time>
      </trkpt>
      <trkpt lat="43.18225" lon="5.82433">
        <ele>165.4</ele>
        <time>2021-05-29T07:32:23Z</time>
      </trkpt>
      <trkpt lat="43.18229" lon="5.8243">
        <ele>165.4</ele>
        <time>2021-05-29T07:32:24Z</time>
      </trkpt>
      <trkpt lat="43.18243" lon="5.82418">
        <ele>165.8</ele>
        <time>2021-05-29T07:32:28Z</time>
      </trkpt>
      <trkpt lat="43.18247" lon="5.82415">
        <ele>165.8</ele>
        <time>2021-05-29T07:32:29Z</time>
      </trkpt>
      <trkpt lat="43.18251" lon="5.82412">
        <ele>166</ele>
        <time>2021-05-29T07:32:30Z</time>
      </trkpt>
      <trkpt lat="43.18254" lon="5.82409">
        <ele>166.2</ele>
        <time>2021-05-29T07:32:31Z</time>
      </trkpt>
      <trkpt lat="43.18258" lon="5.82406">
        <ele>166.2</ele>
        <time>2021-05-29T07:32:32Z</time>
      </trkpt>
      <trkpt lat="43.18262" lon="5.82403">
        <ele>166.2</ele>
        <time>2021-05-29T07:32:33Z</time>
      </trkpt>
      <trkpt lat="43.18265" lon="5.824">
        <ele>166.4</ele>
        <time>2021-05-29T07:32:34Z</time>
      </trkpt>
      <trkpt lat="43.18275" lon="5.8239">
        <ele>166.4</ele>
        <time>2021-05-29T07:32:37Z</time>
      </trkpt>
      <trkpt lat="43.18279" lon="5.82387">
        <ele>166.6</ele>
        <time>2021-05-29T07:32:38Z</time>
      </trkpt>
      <trkpt lat="43.18282" lon="5.82384">
        <ele>166.6</ele>
        <time>2021-05-29T07:32:39Z</time>
      </trkpt>
      <trkpt lat="43.18295" lon="5.82371">
        <ele>166.8</ele>
        <time>2021-05-29T07:32:43Z</time>
      </trkpt>
      <trkpt lat="43.18323" lon="5.82342">
        <ele>167.6</ele>
        <time>2021-05-29T07:32:52Z</time>
      </trkpt>
      <trkpt lat="43.18333" lon="5.82332">
        <ele>168</ele>
        <time>2021-05-29T07:32:55Z</time>
      </trkpt>
      <trkpt lat="43.18347" lon="5.82319">
        <ele>168.4</ele>
        <time>2021-05-29T07:32:59Z</time>
      </trkpt>
      <trkpt lat="43.1835" lon="5.82316">
        <ele>168.4</ele>
        <time>2021-05-29T07:33:00Z</time>
      </trkpt>
      <trkpt lat="43.18356" lon="5.8231">
        <ele>168.6</ele>
        <time>2021-05-29T07:33:02Z</time>
      </trkpt>
      <trkpt lat="43.18381" lon="5.8229">
        <ele>169.2</ele>
        <time>2021-05-29T07:33:09Z</time>
      </trkpt>
      <trkpt lat="43.18388" lon="5.82284">
        <ele>169.2</ele>
        <time>2021-05-29T07:33:11Z</time>
      </trkpt>
      <trkpt lat="43.18417" lon="5.82263">
        <ele>169.8</ele>
        <time>2021-05-29T07:33:19Z</time>
      </trkpt>
      <trkpt lat="43.18431" lon="5.82249">
        <ele>170.2</ele>
        <time>2021-05-29T07:33:23Z</time>
      </trkpt>
      <trkpt lat="43.18447" lon="5.82233">
        <ele>170.4</ele>
        <time>2021-05-29T07:33:28Z</time>
      </trkpt>
      <trkpt lat="43.18451" lon="5.8223">
        <ele>170.4</ele>
        <time>2021-05-29T07:33:29Z</time>
      </trkpt>
      <trkpt lat="43.18455" lon="5.82227">
        <ele>170.6</ele>
        <time>2021-05-29T07:33:30Z</time>
      </trkpt>
      <trkpt lat="43.18458" lon="5.82224">
        <ele>170.6</ele>
        <time>2021-05-29T07:33:31Z</time>
      </trkpt>
      <trkpt lat="43.18466" lon="5.82219">
        <ele>170.6</ele>
        <time>2021-05-29T07:33:33Z</time>
      </trkpt>
      <trkpt lat="43.18481" lon="5.82209">
        <ele>171</ele>
        <time>2021-05-29T07:33:37Z</time>
      </trkpt>
      <trkpt lat="43.18485" lon="5.82207">
        <ele>171.2</ele>
        <time>2021-05-29T07:33:38Z</time>
      </trkpt>
      <trkpt lat="43.18489" lon="5.82204">
        <ele>171.2</ele>
        <time>2021-05-29T07:33:39Z</time>
      </trkpt>
      <trkpt lat="43.18516" lon="5.82188">
        <ele>172</ele>
        <time>2021-05-29T07:33:46Z</time>
      </trkpt>
      <trkpt lat="43.18519" lon="5.82185">
        <ele>172.2</ele>
        <time>2021-05-29T07:33:47Z</time>
      </trkpt>
      <trkpt lat="43.18527" lon="5.82181">
        <ele>172.2</ele>
        <time>2021-05-29T07:33:49Z</time>
      </trkpt>
      <trkpt lat="43.18538" lon="5.82174">
        <ele>172.8</ele>
        <time>2021-05-29T07:33:52Z</time>
      </trkpt>
      <trkpt lat="43.18557" lon="5.82159">
        <ele>173.2</ele>
        <time>2021-05-29T07:33:57Z</time>
      </trkpt>
      <trkpt lat="43.18564" lon="5.82153">
        <ele>173.4</ele>
        <time>2021-05-29T07:33:59Z</time>
      </trkpt>
      <trkpt lat="43.18576" lon="5.82143">
        <ele>173.4</ele>
        <time>2021-05-29T07:34:02Z</time>
      </trkpt>
      <trkpt lat="43.18596" lon="5.82124">
        <ele>173.6</ele>
        <time>2021-05-29T07:34:07Z</time>
      </trkpt>
      <trkpt lat="43.18622" lon="5.82099">
        <ele>173.4</ele>
        <time>2021-05-29T07:34:14Z</time>
      </trkpt>
      <trkpt lat="43.18637" lon="5.8209">
        <ele>173.2</ele>
        <time>2021-05-29T07:34:19Z</time>
      </trkpt>
      <trkpt lat="43.18641" lon="5.82086">
        <ele>173.2</ele>
        <time>2021-05-29T07:34:20Z</time>
      </trkpt>
      <trkpt lat="43.18666" lon="5.82061">
        <ele>173.2</ele>
        <time>2021-05-29T07:34:26Z</time>
      </trkpt>
      <trkpt lat="43.18707" lon="5.82021">
        <ele>173</ele>
        <time>2021-05-29T07:34:35Z</time>
      </trkpt>
      <trkpt lat="43.18729" lon="5.81997">
        <ele>173</ele>
        <time>2021-05-29T07:34:40Z</time>
      </trkpt>
      <trkpt lat="43.18733" lon="5.81993">
        <ele>173</ele>
        <time>2021-05-29T07:34:41Z</time>
      </trkpt>
      <trkpt lat="43.1874" lon="5.81988">
        <ele>173</ele>
        <time>2021-05-29T07:34:43Z</time>
      </trkpt>
      <trkpt lat="43.18744" lon="5.81987">
        <ele>173</ele>
        <time>2021-05-29T07:34:44Z</time>
      </trkpt>
      <trkpt lat="43.18749" lon="5.81989">
        <ele>173</ele>
        <time>2021-05-29T07:34:45Z</time>
      </trkpt>
      <trkpt lat="43.18753" lon="5.81992">
        <ele>173</ele>
        <time>2021-05-29T07:34:46Z</time>
      </trkpt>
      <trkpt lat="43.18757" lon="5.81997">
        <ele>172.8</ele>
        <time>2021-05-29T07:34:47Z</time>
      </trkpt>
      <trkpt lat="43.18771" lon="5.82013">
        <ele>172.8</ele>
        <time>2021-05-29T07:34:50Z</time>
      </trkpt>
      <trkpt lat="43.18798" lon="5.82044">
        <ele>172.4</ele>
        <time>2021-05-29T07:34:55Z</time>
      </trkpt>
      <trkpt lat="43.1881" lon="5.82056">
        <ele>172.2</ele>
        <time>2021-05-29T07:34:57Z</time>
      </trkpt>
      <trkpt lat="43.18817" lon="5.82062">
        <ele>172.2</ele>
        <time>2021-05-29T07:34:58Z</time>
      </trkpt>
      <trkpt lat="43.18823" lon="5.82069">
        <ele>171.8</ele>
        <time>2021-05-29T07:34:59Z</time>
      </trkpt>
      <trkpt lat="43.18829" lon="5.82076">
        <ele>171.8</ele>
        <time>2021-05-29T07:35:00Z</time>
      </trkpt>
      <trkpt lat="43.18835" lon="5.82082">
        <ele>171.6</ele>
        <time>2021-05-29T07:35:01Z</time>
      </trkpt>
      <trkpt lat="43.18857" lon="5.82096">
        <ele>171</ele>
        <time>2021-05-29T07:35:04Z</time>
      </trkpt>
      <trkpt lat="43.18865" lon="5.82098">
        <ele>171</ele>
        <time>2021-05-29T07:35:05Z</time>
      </trkpt>
      <trkpt lat="43.18912" lon="5.8211">
        <ele>170</ele>
        <time>2021-05-29T07:35:11Z</time>
      </trkpt>
      <trkpt lat="43.18936" lon="5.82115">
        <ele>169.8</ele>
        <time>2021-05-29T07:35:14Z</time>
      </trkpt>
      <trkpt lat="43.18967" lon="5.82119">
        <ele>169.2</ele>
        <time>2021-05-29T07:35:18Z</time>
      </trkpt>
      <trkpt lat="43.18975" lon="5.82119">
        <ele>169</ele>
        <time>2021-05-29T07:35:19Z</time>
      </trkpt>
      <trkpt lat="43.18983" lon="5.82119">
        <ele>168.8</ele>
        <time>2021-05-29T07:35:20Z</time>
      </trkpt>
      <trkpt lat="43.19022" lon="5.82114">
        <ele>168.2</ele>
        <time>2021-05-29T07:35:25Z</time>
      </trkpt>
      <trkpt lat="43.1903" lon="5.82113">
        <ele>168.2</ele>
        <time>2021-05-29T07:35:26Z</time>
      </trkpt>
      <trkpt lat="43.19052" lon="5.82102">
        <ele>168</ele>
        <time>2021-05-29T07:35:29Z</time>
      </trkpt>
      <trkpt lat="43.19059" lon="5.82097">
        <ele>167.8</ele>
        <time>2021-05-29T07:35:30Z</time>
      </trkpt>
      <trkpt lat="43.19086" lon="5.82079">
        <ele>167.4</ele>
        <time>2021-05-29T07:35:34Z</time>
      </trkpt>
      <trkpt lat="43.19115" lon="5.82061">
        <ele>167.2</ele>
        <time>2021-05-29T07:35:38Z</time>
      </trkpt>
      <trkpt lat="43.19145" lon="5.82057">
        <ele>167.2</ele>
        <time>2021-05-29T07:35:42Z</time>
      </trkpt>
      <trkpt lat="43.19159" lon="5.82049">
        <ele>167</ele>
        <time>2021-05-29T07:35:44Z</time>
      </trkpt>
      <trkpt lat="43.19165" lon="5.82042">
        <ele>166.8</ele>
        <time>2021-05-29T07:35:45Z</time>
      </trkpt>
      <trkpt lat="43.1917" lon="5.82034">
        <ele>166.8</ele>
        <time>2021-05-29T07:35:46Z</time>
      </trkpt>
      <trkpt lat="43.19177" lon="5.82028">
        <ele>166.8</ele>
        <time>2021-05-29T07:35:47Z</time>
      </trkpt>
      <trkpt lat="43.1919" lon="5.82017">
        <ele>166.4</ele>
        <time>2021-05-29T07:35:49Z</time>
      </trkpt>
      <trkpt lat="43.19232" lon="5.81991">
        <ele>166</ele>
        <time>2021-05-29T07:35:55Z</time>
      </trkpt>
      <trkpt lat="43.19252" lon="5.81976">
        <ele>166</ele>
        <time>2021-05-29T07:35:58Z</time>
      </trkpt>
      <trkpt lat="43.19265" lon="5.81966">
        <ele>166.2</ele>
        <time>2021-05-29T07:36:00Z</time>
      </trkpt>
      <trkpt lat="43.19282" lon="5.81943">
        <ele>165.8</ele>
        <time>2021-05-29T07:36:03Z</time>
      </trkpt>
      <trkpt lat="43.19287" lon="5.81934">
        <ele>165.8</ele>
        <time>2021-05-29T07:36:04Z</time>
      </trkpt>
      <trkpt lat="43.19307" lon="5.8189">
        <ele>165.2</ele>
        <time>2021-05-29T07:36:09Z</time>
      </trkpt>
      <trkpt lat="43.19311" lon="5.81881">
        <ele>165.2</ele>
        <time>2021-05-29T07:36:10Z</time>
      </trkpt>
      <trkpt lat="43.19329" lon="5.81826">
        <ele>164.8</ele>
        <time>2021-05-29T07:36:16Z</time>
      </trkpt>
      <trkpt lat="43.19333" lon="5.81808">
        <ele>165</ele>
        <time>2021-05-29T07:36:18Z</time>
      </trkpt>
      <trkpt lat="43.19344" lon="5.81775">
        <ele>164.8</ele>
        <time>2021-05-29T07:36:22Z</time>
      </trkpt>
      <trkpt lat="43.1936" lon="5.81727">
        <ele>164.2</ele>
        <time>2021-05-29T07:36:28Z</time>
      </trkpt>
      <trkpt lat="43.19361" lon="5.81719">
        <ele>164.2</ele>
        <time>2021-05-29T07:36:29Z</time>
      </trkpt>
      <trkpt lat="43.19364" lon="5.81712">
        <ele>164</ele>
        <time>2021-05-29T07:36:30Z</time>
      </trkpt>
      <trkpt lat="43.19371" lon="5.81702">
        <ele>164</ele>
        <time>2021-05-29T07:36:32Z</time>
      </trkpt>
      <trkpt lat="43.19387" lon="5.81693">
        <ele>164</ele>
        <time>2021-05-29T07:36:35Z</time>
      </trkpt>
      <trkpt lat="43.19396" lon="5.81682">
        <ele>164</ele>
        <time>2021-05-29T07:36:37Z</time>
      </trkpt>
      <trkpt lat="43.194" lon="5.81675">
        <ele>164</ele>
        <time>2021-05-29T07:36:38Z</time>
      </trkpt>
      <trkpt lat="43.19404" lon="5.81667">
        <ele>163.8</ele>
        <time>2021-05-29T07:36:39Z</time>
      </trkpt>
      <trkpt lat="43.19407" lon="5.8166">
        <ele>163.6</ele>
        <time>2021-05-29T07:36:40Z</time>
      </trkpt>
      <trkpt lat="43.19411" lon="5.81652">
        <ele>163.6</ele>
        <time>2021-05-29T07:36:41Z</time>
      </trkpt>
      <trkpt lat="43.1942" lon="5.81639">
        <ele>163.4</ele>
        <time>2021-05-29T07:36:43Z</time>
      </trkpt>
      <trkpt lat="43.19435" lon="5.81618">
        <ele>163.2</ele>
        <time>2021-05-29T07:36:46Z</time>
      </trkpt>
      <trkpt lat="43.19445" lon="5.81604">
        <ele>163</ele>
        <time>2021-05-29T07:36:48Z</time>
      </trkpt>
      <trkpt lat="43.1945" lon="5.81598">
        <ele>162.8</ele>
        <time>2021-05-29T07:36:49Z</time>
      </trkpt>
      <trkpt lat="43.19465" lon="5.81579">
        <ele>162.8</ele>
        <time>2021-05-29T07:36:52Z</time>
      </trkpt>
      <trkpt lat="43.1947" lon="5.81573">
        <ele>162.6</ele>
        <time>2021-05-29T07:36:53Z</time>
      </trkpt>
      <trkpt lat="43.19474" lon="5.81565">
        <ele>162.6</ele>
        <time>2021-05-29T07:36:54Z</time>
      </trkpt>
      <trkpt lat="43.19477" lon="5.81557">
        <ele>162.6</ele>
        <time>2021-05-29T07:36:55Z</time>
      </trkpt>
      <trkpt lat="43.19481" lon="5.81519">
        <ele>162.4</ele>
        <time>2021-05-29T07:36:59Z</time>
      </trkpt>
      <trkpt lat="43.19488" lon="5.81452">
        <ele>162</ele>
        <time>2021-05-29T07:37:06Z</time>
      </trkpt>
      <trkpt lat="43.19489" lon="5.81443">
        <ele>162</ele>
        <time>2021-05-29T07:37:07Z</time>
      </trkpt>
      <trkpt lat="43.19495" lon="5.81427">
        <ele>161.6</ele>
        <time>2021-05-29T07:37:09Z</time>
      </trkpt>
      <trkpt lat="43.19499" lon="5.8142">
        <ele>161.6</ele>
        <time>2021-05-29T07:37:10Z</time>
      </trkpt>
      <trkpt lat="43.19507" lon="5.81408">
        <ele>161.4</ele>
        <time>2021-05-29T07:37:12Z</time>
      </trkpt>
      <trkpt lat="43.19517" lon="5.81398">
        <ele>161.2</ele>
        <time>2021-05-29T07:37:14Z</time>
      </trkpt>
      <trkpt lat="43.19529" lon="5.81392">
        <ele>161</ele>
        <time>2021-05-29T07:37:16Z</time>
      </trkpt>
      <trkpt lat="43.19546" lon="5.81384">
        <ele>160.8</ele>
        <time>2021-05-29T07:37:19Z</time>
      </trkpt>
      <trkpt lat="43.19567" lon="5.81367">
        <ele>160.6</ele>
        <time>2021-05-29T07:37:23Z</time>
      </trkpt>
      <trkpt lat="43.19585" lon="5.81355">
        <ele>160.4</ele>
        <time>2021-05-29T07:37:26Z</time>
      </trkpt>
      <trkpt lat="43.19603" lon="5.81343">
        <ele>160.2</ele>
        <time>2021-05-29T07:37:29Z</time>
      </trkpt>
      <trkpt lat="43.1962" lon="5.81328">
        <ele>160.2</ele>
        <time>2021-05-29T07:37:32Z</time>
      </trkpt>
      <trkpt lat="43.19642" lon="5.8131">
        <ele>160</ele>
        <time>2021-05-29T07:37:36Z</time>
      </trkpt>
      <trkpt lat="43.19653" lon="5.81304">
        <ele>159.8</ele>
        <time>2021-05-29T07:37:38Z</time>
      </trkpt>
      <trkpt lat="43.19659" lon="5.81301">
        <ele>159.8</ele>
        <time>2021-05-29T07:37:39Z</time>
      </trkpt>
      <trkpt lat="43.19665" lon="5.81301">
        <ele>159.8</ele>
        <time>2021-05-29T07:37:40Z</time>
      </trkpt>
      <trkpt lat="43.19676" lon="5.81305">
        <ele>159.8</ele>
        <time>2021-05-29T07:37:42Z</time>
      </trkpt>
      <trkpt lat="43.19684" lon="5.81316">
        <ele>159.6</ele>
        <time>2021-05-29T07:37:44Z</time>
      </trkpt>
      <trkpt lat="43.19693" lon="5.81329">
        <ele>159.6</ele>
        <time>2021-05-29T07:37:46Z</time>
      </trkpt>
      <trkpt lat="43.19715" lon="5.81357">
        <ele>159.6</ele>
        <time>2021-05-29T07:37:51Z</time>
      </trkpt>
      <trkpt lat="43.19726" lon="5.81374">
        <ele>159.8</ele>
        <time>2021-05-29T07:37:54Z</time>
      </trkpt>
      <trkpt lat="43.1973" lon="5.81379">
        <ele>159.8</ele>
        <time>2021-05-29T07:37:55Z</time>
      </trkpt>
      <trkpt lat="43.19743" lon="5.81391">
        <ele>160</ele>
        <time>2021-05-29T07:37:58Z</time>
      </trkpt>
      <trkpt lat="43.19747" lon="5.81395">
        <ele>160.2</ele>
        <time>2021-05-29T07:37:59Z</time>
      </trkpt>
      <trkpt lat="43.19752" lon="5.81398">
        <ele>160.2</ele>
        <time>2021-05-29T07:38:00Z</time>
      </trkpt>
      <trkpt lat="43.19764" lon="5.8141">
        <ele>160.6</ele>
        <time>2021-05-29T07:38:03Z</time>
      </trkpt>
      <trkpt lat="43.19772" lon="5.81417">
        <ele>160.8</ele>
        <time>2021-05-29T07:38:05Z</time>
      </trkpt>
      <trkpt lat="43.19784" lon="5.81428">
        <ele>161</ele>
        <time>2021-05-29T07:38:08Z</time>
      </trkpt>
      <trkpt lat="43.19795" lon="5.81441">
        <ele>161.4</ele>
        <time>2021-05-29T07:38:11Z</time>
      </trkpt>
      <trkpt lat="43.19805" lon="5.81454">
        <ele>161.8</ele>
        <time>2021-05-29T07:38:14Z</time>
      </trkpt>
      <trkpt lat="43.19814" lon="5.81468">
        <ele>162</ele>
        <time>2021-05-29T07:38:17Z</time>
      </trkpt>
      <trkpt lat="43.19817" lon="5.81473">
        <ele>162</ele>
        <time>2021-05-29T07:38:18Z</time>
      </trkpt>
      <trkpt lat="43.19838" lon="5.81504">
        <ele>163</ele>
        <time>2021-05-29T07:38:25Z</time>
      </trkpt>
      <trkpt lat="43.19841" lon="5.81508">
        <ele>162.8</ele>
        <time>2021-05-29T07:38:26Z</time>
      </trkpt>
      <trkpt lat="43.19871" lon="5.81541">
        <ele>163.8</ele>
        <time>2021-05-29T07:38:35Z</time>
      </trkpt>
      <trkpt lat="43.19874" lon="5.81544">
        <ele>164</ele>
        <time>2021-05-29T07:38:36Z</time>
      </trkpt>
      <trkpt lat="43.19877" lon="5.81548">
        <ele>163.8</ele>
        <time>2021-05-29T07:38:37Z</time>
      </trkpt>
      <trkpt lat="43.19889" lon="5.81569">
        <ele>164.6</ele>
        <time>2021-05-29T07:38:42Z</time>
      </trkpt>
      <trkpt lat="43.19891" lon="5.81574">
        <ele>164.8</ele>
        <time>2021-05-29T07:38:43Z</time>
      </trkpt>
      <trkpt lat="43.19893" lon="5.81578">
        <ele>164.8</ele>
        <time>2021-05-29T07:38:44Z</time>
      </trkpt>
      <trkpt lat="43.19897" lon="5.81591">
        <ele>165.2</ele>
        <time>2021-05-29T07:38:47Z</time>
      </trkpt>
      <trkpt lat="43.19899" lon="5.81599">
        <ele>165.4</ele>
        <time>2021-05-29T07:38:49Z</time>
      </trkpt>
      <trkpt lat="43.19905" lon="5.81614">
        <ele>166</ele>
        <time>2021-05-29T07:38:54Z</time>
      </trkpt>
      <trkpt lat="43.19906" lon="5.81616">
        <ele>166</ele>
        <time>2021-05-29T07:38:55Z</time>
      </trkpt>
      <trkpt lat="43.19907" lon="5.81618">
        <ele>166.4</ele>
        <time>2021-05-29T07:38:56Z</time>
      </trkpt>
      <trkpt lat="43.19908" lon="5.81624">
        <ele>166.8</ele>
        <time>2021-05-29T07:38:58Z</time>
      </trkpt>
      <trkpt lat="43.19909" lon="5.81629">
        <ele>167</ele>
        <time>2021-05-29T07:39:00Z</time>
      </trkpt>
      <trkpt lat="43.1991" lon="5.81633">
        <ele>167.4</ele>
        <time>2021-05-29T07:39:02Z</time>
      </trkpt>
      <trkpt lat="43.19911" lon="5.81636">
        <ele>167.6</ele>
        <time>2021-05-29T07:39:03Z</time>
      </trkpt>
      <trkpt lat="43.19913" lon="5.81642">
        <ele>168.2</ele>
        <time>2021-05-29T07:39:06Z</time>
      </trkpt>
      <trkpt lat="43.19914" lon="5.81644">
        <ele>168.6</ele>
        <time>2021-05-29T07:39:07Z</time>
      </trkpt>
      <trkpt lat="43.19915" lon="5.81647">
        <ele>168.8</ele>
        <time>2021-05-29T07:39:08Z</time>
      </trkpt>
      <trkpt lat="43.19916" lon="5.81652">
        <ele>169.4</ele>
        <time>2021-05-29T07:39:10Z</time>
      </trkpt>
      <trkpt lat="43.19918" lon="5.81658">
        <ele>169.8</ele>
        <time>2021-05-29T07:39:13Z</time>
      </trkpt>
      <trkpt lat="43.19919" lon="5.8166">
        <ele>170</ele>
        <time>2021-05-29T07:39:14Z</time>
      </trkpt>
      <trkpt lat="43.19921" lon="5.81662">
        <ele>170.6</ele>
        <time>2021-05-29T07:39:15Z</time>
      </trkpt>
      <trkpt lat="43.19922" lon="5.81664">
        <ele>170.6</ele>
        <time>2021-05-29T07:39:16Z</time>
      </trkpt>
      <trkpt lat="43.19923" lon="5.81666">
        <ele>171</ele>
        <time>2021-05-29T07:39:17Z</time>
      </trkpt>
      <trkpt lat="43.19924" lon="5.81668">
        <ele>171</ele>
        <time>2021-05-29T07:39:18Z</time>
      </trkpt>
      <trkpt lat="43.19925" lon="5.81671">
        <ele>171.2</ele>
        <time>2021-05-29T07:39:19Z</time>
      </trkpt>
      <trkpt lat="43.19926" lon="5.81673">
        <ele>171.4</ele>
        <time>2021-05-29T07:39:20Z</time>
      </trkpt>
      <trkpt lat="43.19927" lon="5.81675">
        <ele>171.6</ele>
        <time>2021-05-29T07:39:21Z</time>
      </trkpt>
      <trkpt lat="43.19928" lon="5.81677">
        <ele>172</ele>
        <time>2021-05-29T07:39:22Z</time>
      </trkpt>
      <trkpt lat="43.19932" lon="5.81683">
        <ele>172.6</ele>
        <time>2021-05-29T07:39:25Z</time>
      </trkpt>
      <trkpt lat="43.19934" lon="5.81685">
        <ele>172.8</ele>
        <time>2021-05-29T07:39:26Z</time>
      </trkpt>
      <trkpt lat="43.19936" lon="5.81689">
        <ele>173.4</ele>
        <time>2021-05-29T07:39:28Z</time>
      </trkpt>
      <trkpt lat="43.19938" lon="5.81691">
        <ele>173.6</ele>
        <time>2021-05-29T07:39:29Z</time>
      </trkpt>
      <trkpt lat="43.1994" lon="5.81693">
        <ele>174</ele>
        <time>2021-05-29T07:39:31Z</time>
      </trkpt>
      <trkpt lat="43.19943" lon="5.81696">
        <ele>174.4</ele>
        <time>2021-05-29T07:39:33Z</time>
      </trkpt>
      <trkpt lat="43.19947" lon="5.81699">
        <ele>175</ele>
        <time>2021-05-29T07:39:35Z</time>
      </trkpt>
      <trkpt lat="43.19948" lon="5.81701">
        <ele>175.2</ele>
        <time>2021-05-29T07:39:36Z</time>
      </trkpt>
      <trkpt lat="43.19954" lon="5.81705">
        <ele>175.8</ele>
        <time>2021-05-29T07:39:39Z</time>
      </trkpt>
      <trkpt lat="43.19958" lon="5.81709">
        <ele>176</ele>
        <time>2021-05-29T07:39:41Z</time>
      </trkpt>
      <trkpt lat="43.19959" lon="5.81711">
        <ele>176.4</ele>
        <time>2021-05-29T07:39:42Z</time>
      </trkpt>
      <trkpt lat="43.19965" lon="5.81723">
        <ele>177.2</ele>
        <time>2021-05-29T07:39:46Z</time>
      </trkpt>
      <trkpt lat="43.19967" lon="5.81728">
        <ele>177.4</ele>
        <time>2021-05-29T07:39:48Z</time>
      </trkpt>
      <trkpt lat="43.19972" lon="5.8174">
        <ele>178.2</ele>
        <time>2021-05-29T07:39:52Z</time>
      </trkpt>
      <trkpt lat="43.19973" lon="5.81743">
        <ele>178.2</ele>
        <time>2021-05-29T07:39:53Z</time>
      </trkpt>
      <trkpt lat="43.19976" lon="5.81754">
        <ele>178.8</ele>
        <time>2021-05-29T07:39:57Z</time>
      </trkpt>
      <trkpt lat="43.19978" lon="5.81759">
        <ele>179.4</ele>
        <time>2021-05-29T07:39:59Z</time>
      </trkpt>
      <trkpt lat="43.1998" lon="5.81765">
        <ele>179.6</ele>
        <time>2021-05-29T07:40:01Z</time>
      </trkpt>
      <trkpt lat="43.19983" lon="5.81772">
        <ele>179.8</ele>
        <time>2021-05-29T07:40:03Z</time>
      </trkpt>
      <trkpt lat="43.19984" lon="5.81775">
        <ele>180</ele>
        <time>2021-05-29T07:40:04Z</time>
      </trkpt>
      <trkpt lat="43.19987" lon="5.81783">
        <ele>180.2</ele>
        <time>2021-05-29T07:40:06Z</time>
      </trkpt>
      <trkpt lat="43.19989" lon="5.81787">
        <ele>180.4</ele>
        <time>2021-05-29T07:40:07Z</time>
      </trkpt>
      <trkpt lat="43.1999" lon="5.81791">
        <ele>180.4</ele>
        <time>2021-05-29T07:40:08Z</time>
      </trkpt>
      <trkpt lat="43.19991" lon="5.81795">
        <ele>180.4</ele>
        <time>2021-05-29T07:40:09Z</time>
      </trkpt>
      <trkpt lat="43.19994" lon="5.81803">
        <ele>180.4</ele>
        <time>2021-05-29T07:40:11Z</time>
      </trkpt>
      <trkpt lat="43.19996" lon="5.8181">
        <ele>180.4</ele>
        <time>2021-05-29T07:40:13Z</time>
      </trkpt>
      <trkpt lat="43.19999" lon="5.81818">
        <ele>180.4</ele>
        <time>2021-05-29T07:40:15Z</time>
      </trkpt>
      <trkpt lat="43.20004" lon="5.81829">
        <ele>180.8</ele>
        <time>2021-05-29T07:40:18Z</time>
      </trkpt>
      <trkpt lat="43.20018" lon="5.8184">
        <ele>181.2</ele>
        <time>2021-05-29T07:40:24Z</time>
      </trkpt>
      <trkpt lat="43.20021" lon="5.81843">
        <ele>181.4</ele>
        <time>2021-05-29T07:40:26Z</time>
      </trkpt>
      <trkpt lat="43.20023" lon="5.81845">
        <ele>181.6</ele>
        <time>2021-05-29T07:40:27Z</time>
      </trkpt>
      <trkpt lat="43.20025" lon="5.81846">
        <ele>181.6</ele>
        <time>2021-05-29T07:40:28Z</time>
      </trkpt>
      <trkpt lat="43.20031" lon="5.8185">
        <ele>182</ele>
        <time>2021-05-29T07:40:31Z</time>
      </trkpt>
      <trkpt lat="43.20034" lon="5.81853">
        <ele>182.4</ele>
        <time>2021-05-29T07:40:33Z</time>
      </trkpt>
      <trkpt lat="43.20035" lon="5.81855">
        <ele>182.8</ele>
        <time>2021-05-29T07:40:34Z</time>
      </trkpt>
      <trkpt lat="43.2004" lon="5.81858">
        <ele>183.2</ele>
        <time>2021-05-29T07:40:37Z</time>
      </trkpt>
      <trkpt lat="43.20041" lon="5.8186">
        <ele>183.6</ele>
        <time>2021-05-29T07:40:38Z</time>
      </trkpt>
      <trkpt lat="43.20043" lon="5.81861">
        <ele>184</ele>
        <time>2021-05-29T07:40:39Z</time>
      </trkpt>
      <trkpt lat="43.20046" lon="5.81864">
        <ele>184.2</ele>
        <time>2021-05-29T07:40:41Z</time>
      </trkpt>
      <trkpt lat="43.20052" lon="5.81868">
        <ele>185.2</ele>
        <time>2021-05-29T07:40:45Z</time>
      </trkpt>
      <trkpt lat="43.20053" lon="5.81869">
        <ele>185.4</ele>
        <time>2021-05-29T07:40:46Z</time>
      </trkpt>
      <trkpt lat="43.2006" lon="5.81873">
        <ele>186.4</ele>
        <time>2021-05-29T07:40:50Z</time>
      </trkpt>
      <trkpt lat="43.20061" lon="5.81873">
        <ele>186.4</ele>
        <time>2021-05-29T07:40:51Z</time>
      </trkpt>
      <trkpt lat="43.20064" lon="5.81877">
        <ele>187</ele>
        <time>2021-05-29T07:40:53Z</time>
      </trkpt>
      <trkpt lat="43.20067" lon="5.8188">
        <ele>187.2</ele>
        <time>2021-05-29T07:40:55Z</time>
      </trkpt>
      <trkpt lat="43.20069" lon="5.81881">
        <ele>187.4</ele>
        <time>2021-05-29T07:40:56Z</time>
      </trkpt>
      <trkpt lat="43.20072" lon="5.81883">
        <ele>187.8</ele>
        <time>2021-05-29T07:40:58Z</time>
      </trkpt>
      <trkpt lat="43.20073" lon="5.81884">
        <ele>187.8</ele>
        <time>2021-05-29T07:40:59Z</time>
      </trkpt>
      <trkpt lat="43.20077" lon="5.81886">
        <ele>188</ele>
        <time>2021-05-29T07:41:01Z</time>
      </trkpt>
      <trkpt lat="43.20081" lon="5.81891">
        <ele>188.6</ele>
        <time>2021-05-29T07:41:04Z</time>
      </trkpt>
      <trkpt lat="43.20092" lon="5.819">
        <ele>189.8</ele>
        <time>2021-05-29T07:41:11Z</time>
      </trkpt>
      <trkpt lat="43.20095" lon="5.81903">
        <ele>190</ele>
        <time>2021-05-29T07:41:13Z</time>
      </trkpt>
      <trkpt lat="43.20099" lon="5.81905">
        <ele>190.4</ele>
        <time>2021-05-29T07:41:15Z</time>
      </trkpt>
      <trkpt lat="43.20104" lon="5.81909">
        <ele>191</ele>
        <time>2021-05-29T07:41:18Z</time>
      </trkpt>
      <trkpt lat="43.20108" lon="5.81912">
        <ele>191.4</ele>
        <time>2021-05-29T07:41:20Z</time>
      </trkpt>
      <trkpt lat="43.20114" lon="5.81919">
        <ele>192</ele>
        <time>2021-05-29T07:41:24Z</time>
      </trkpt>
      <trkpt lat="43.20124" lon="5.81925">
        <ele>192.4</ele>
        <time>2021-05-29T07:41:29Z</time>
      </trkpt>
      <trkpt lat="43.20136" lon="5.81938">
        <ele>193.2</ele>
        <time>2021-05-29T07:41:36Z</time>
      </trkpt>
      <trkpt lat="43.2014" lon="5.81942">
        <ele>193.4</ele>
        <time>2021-05-29T07:41:38Z</time>
      </trkpt>
      <trkpt lat="43.20148" lon="5.81957">
        <ele>193.8</ele>
        <time>2021-05-29T07:41:45Z</time>
      </trkpt>
      <trkpt lat="43.20153" lon="5.81966">
        <ele>194.2</ele>
        <time>2021-05-29T07:41:49Z</time>
      </trkpt>
      <trkpt lat="43.20158" lon="5.81973">
        <ele>194.6</ele>
        <time>2021-05-29T07:41:52Z</time>
      </trkpt>
      <trkpt lat="43.20167" lon="5.81986">
        <ele>195.4</ele>
        <time>2021-05-29T07:41:58Z</time>
      </trkpt>
      <trkpt lat="43.20169" lon="5.81988">
        <ele>195.6</ele>
        <time>2021-05-29T07:41:59Z</time>
      </trkpt>
      <trkpt lat="43.20181" lon="5.82007">
        <ele>196.4</ele>
        <time>2021-05-29T07:42:07Z</time>
      </trkpt>
      <trkpt lat="43.20188" lon="5.82014">
        <ele>197</ele>
        <time>2021-05-29T07:42:11Z</time>
      </trkpt>
      <trkpt lat="43.20194" lon="5.82022">
        <ele>197.6</ele>
        <time>2021-05-29T07:42:15Z</time>
      </trkpt>
      <trkpt lat="43.202" lon="5.82027">
        <ele>198</ele>
        <time>2021-05-29T07:42:18Z</time>
      </trkpt>
      <trkpt lat="43.20203" lon="5.82031">
        <ele>198.2</ele>
        <time>2021-05-29T07:42:20Z</time>
      </trkpt>
      <trkpt lat="43.20206" lon="5.82034">
        <ele>198.6</ele>
        <time>2021-05-29T07:42:22Z</time>
      </trkpt>
      <trkpt lat="43.20209" lon="5.82039">
        <ele>199.2</ele>
        <time>2021-05-29T07:42:24Z</time>
      </trkpt>
      <trkpt lat="43.20217" lon="5.82048">
        <ele>199.8</ele>
        <time>2021-05-29T07:42:29Z</time>
      </trkpt>
      <trkpt lat="43.20223" lon="5.82052">
        <ele>200</ele>
        <time>2021-05-29T07:42:32Z</time>
      </trkpt>
      <trkpt lat="43.20232" lon="5.82064">
        <ele>200.6</ele>
        <time>2021-05-29T07:42:38Z</time>
      </trkpt>
      <trkpt lat="43.20235" lon="5.82068">
        <ele>200.8</ele>
        <time>2021-05-29T07:42:40Z</time>
      </trkpt>
      <trkpt lat="43.20237" lon="5.8207">
        <ele>201</ele>
        <time>2021-05-29T07:42:41Z</time>
      </trkpt>
      <trkpt lat="43.20241" lon="5.82076">
        <ele>201.2</ele>
        <time>2021-05-29T07:42:44Z</time>
      </trkpt>
      <trkpt lat="43.20246" lon="5.82082">
        <ele>201.4</ele>
        <time>2021-05-29T07:42:47Z</time>
      </trkpt>
      <trkpt lat="43.20251" lon="5.82088">
        <ele>201.8</ele>
        <time>2021-05-29T07:42:50Z</time>
      </trkpt>
      <trkpt lat="43.20253" lon="5.82093">
        <ele>202</ele>
        <time>2021-05-29T07:42:52Z</time>
      </trkpt>
      <trkpt lat="43.20254" lon="5.82096">
        <ele>202</ele>
        <time>2021-05-29T07:42:53Z</time>
      </trkpt>
      <trkpt lat="43.2026" lon="5.82105">
        <ele>202.8</ele>
        <time>2021-05-29T07:42:57Z</time>
      </trkpt>
      <trkpt lat="43.20263" lon="5.8211">
        <ele>203.2</ele>
        <time>2021-05-29T07:42:59Z</time>
      </trkpt>
      <trkpt lat="43.20273" lon="5.82128">
        <ele>204.2</ele>
        <time>2021-05-29T07:43:06Z</time>
      </trkpt>
      <trkpt lat="43.20275" lon="5.82133">
        <ele>204.4</ele>
        <time>2021-05-29T07:43:08Z</time>
      </trkpt>
      <trkpt lat="43.20277" lon="5.8214">
        <ele>204.6</ele>
        <time>2021-05-29T07:43:11Z</time>
      </trkpt>
      <trkpt lat="43.20283" lon="5.8215">
        <ele>205</ele>
        <time>2021-05-29T07:43:15Z</time>
      </trkpt>
      <trkpt lat="43.20288" lon="5.82156">
        <ele>205.4</ele>
        <time>2021-05-29T07:43:18Z</time>
      </trkpt>
      <trkpt lat="43.20295" lon="5.82165">
        <ele>206.2</ele>
        <time>2021-05-29T07:43:23Z</time>
      </trkpt>
      <trkpt lat="43.20297" lon="5.82166">
        <ele>206.4</ele>
        <time>2021-05-29T07:43:24Z</time>
      </trkpt>
      <trkpt lat="43.20298" lon="5.82168">
        <ele>206.6</ele>
        <time>2021-05-29T07:43:25Z</time>
      </trkpt>
      <trkpt lat="43.2031" lon="5.82179">
        <ele>207.4</ele>
        <time>2021-05-29T07:43:31Z</time>
      </trkpt>
      <trkpt lat="43.20312" lon="5.82182">
        <ele>207.6</ele>
        <time>2021-05-29T07:43:32Z</time>
      </trkpt>
      <trkpt lat="43.20321" lon="5.82194">
        <ele>208.2</ele>
        <time>2021-05-29T07:43:37Z</time>
      </trkpt>
      <trkpt lat="43.20325" lon="5.82198">
        <ele>208.6</ele>
        <time>2021-05-29T07:43:39Z</time>
      </trkpt>
      <trkpt lat="43.20333" lon="5.82205">
        <ele>209.4</ele>
        <time>2021-05-29T07:43:43Z</time>
      </trkpt>
      <trkpt lat="43.20335" lon="5.82207">
        <ele>209.6</ele>
        <time>2021-05-29T07:43:44Z</time>
      </trkpt>
      <trkpt lat="43.20336" lon="5.8221">
        <ele>209.6</ele>
        <time>2021-05-29T07:43:45Z</time>
      </trkpt>
      <trkpt lat="43.20337" lon="5.82211">
        <ele>209.8</ele>
        <time>2021-05-29T07:43:46Z</time>
      </trkpt>
      <trkpt lat="43.20343" lon="5.82214">
        <ele>210.4</ele>
        <time>2021-05-29T07:43:49Z</time>
      </trkpt>
      <trkpt lat="43.20344" lon="5.82216">
        <ele>210.6</ele>
        <time>2021-05-29T07:43:50Z</time>
      </trkpt>
      <trkpt lat="43.20348" lon="5.82216">
        <ele>210.6</ele>
        <time>2021-05-29T07:43:52Z</time>
      </trkpt>
      <trkpt lat="43.2035" lon="5.82217">
        <ele>210.8</ele>
        <time>2021-05-29T07:43:53Z</time>
      </trkpt>
      <trkpt lat="43.20355" lon="5.82221">
        <ele>211.4</ele>
        <time>2021-05-29T07:43:56Z</time>
      </trkpt>
      <trkpt lat="43.2036" lon="5.82225">
        <ele>211.6</ele>
        <time>2021-05-29T07:43:59Z</time>
      </trkpt>
      <trkpt lat="43.20362" lon="5.82226">
        <ele>211.8</ele>
        <time>2021-05-29T07:44:00Z</time>
      </trkpt>
      <trkpt lat="43.20373" lon="5.82237">
        <ele>212.6</ele>
        <time>2021-05-29T07:44:07Z</time>
      </trkpt>
      <trkpt lat="43.20374" lon="5.82239">
        <ele>212.8</ele>
        <time>2021-05-29T07:44:08Z</time>
      </trkpt>
      <trkpt lat="43.20379" lon="5.82243">
        <ele>213.2</ele>
        <time>2021-05-29T07:44:11Z</time>
      </trkpt>
      <trkpt lat="43.20386" lon="5.82251">
        <ele>213.6</ele>
        <time>2021-05-29T07:44:15Z</time>
      </trkpt>
      <trkpt lat="43.20389" lon="5.82256">
        <ele>213.8</ele>
        <time>2021-05-29T07:44:17Z</time>
      </trkpt>
      <trkpt lat="43.204" lon="5.82276">
        <ele>214.2</ele>
        <time>2021-05-29T07:44:24Z</time>
      </trkpt>
      <trkpt lat="43.20408" lon="5.82287">
        <ele>214.4</ele>
        <time>2021-05-29T07:44:29Z</time>
      </trkpt>
      <trkpt lat="43.20417" lon="5.82301">
        <ele>214.8</ele>
        <time>2021-05-29T07:44:35Z</time>
      </trkpt>
      <trkpt lat="43.20422" lon="5.82308">
        <ele>215.4</ele>
        <time>2021-05-29T07:44:38Z</time>
      </trkpt>
      <trkpt lat="43.20427" lon="5.82316">
        <ele>215.6</ele>
        <time>2021-05-29T07:44:41Z</time>
      </trkpt>
      <trkpt lat="43.20433" lon="5.82327">
        <ele>215.8</ele>
        <time>2021-05-29T07:44:45Z</time>
      </trkpt>
      <trkpt lat="43.20438" lon="5.82334">
        <ele>216</ele>
        <time>2021-05-29T07:44:48Z</time>
      </trkpt>
      <trkpt lat="43.20447" lon="5.82343">
        <ele>216.4</ele>
        <time>2021-05-29T07:44:53Z</time>
      </trkpt>
      <trkpt lat="43.20449" lon="5.82344">
        <ele>216.6</ele>
        <time>2021-05-29T07:44:54Z</time>
      </trkpt>
      <trkpt lat="43.2045" lon="5.82345">
        <ele>216.6</ele>
        <time>2021-05-29T07:44:55Z</time>
      </trkpt>
      <trkpt lat="43.20453" lon="5.82349">
        <ele>216.8</ele>
        <time>2021-05-29T07:44:57Z</time>
      </trkpt>
      <trkpt lat="43.20454" lon="5.82352">
        <ele>217</ele>
        <time>2021-05-29T07:44:58Z</time>
      </trkpt>
      <trkpt lat="43.20455" lon="5.82356">
        <ele>217.2</ele>
        <time>2021-05-29T07:45:00Z</time>
      </trkpt>
      <trkpt lat="43.20456" lon="5.82357">
        <ele>217.2</ele>
        <time>2021-05-29T07:45:01Z</time>
      </trkpt>
      <trkpt lat="43.20459" lon="5.82359">
        <ele>217.4</ele>
        <time>2021-05-29T07:45:03Z</time>
      </trkpt>
      <trkpt lat="43.20461" lon="5.82363">
        <ele>217.8</ele>
        <time>2021-05-29T07:45:05Z</time>
      </trkpt>
      <trkpt lat="43.20462" lon="5.82365">
        <ele>218</ele>
        <time>2021-05-29T07:45:06Z</time>
      </trkpt>
      <trkpt lat="43.20463" lon="5.82369">
        <ele>218.4</ele>
        <time>2021-05-29T07:45:08Z</time>
      </trkpt>
      <trkpt lat="43.20466" lon="5.82373">
        <ele>219</ele>
        <time>2021-05-29T07:45:10Z</time>
      </trkpt>
      <trkpt lat="43.20468" lon="5.82375">
        <ele>219.2</ele>
        <time>2021-05-29T07:45:11Z</time>
      </trkpt>
      <trkpt lat="43.20468" lon="5.82378">
        <ele>219.4</ele>
        <time>2021-05-29T07:45:13Z</time>
      </trkpt>
      <trkpt lat="43.2047" lon="5.82386">
        <ele>220</ele>
        <time>2021-05-29T07:45:17Z</time>
      </trkpt>
      <trkpt lat="43.20469" lon="5.82388">
        <ele>220.4</ele>
        <time>2021-05-29T07:45:18Z</time>
      </trkpt>
      <trkpt lat="43.20468" lon="5.82392">
        <ele>221.2</ele>
        <time>2021-05-29T07:45:20Z</time>
      </trkpt>
      <trkpt lat="43.20469" lon="5.82394">
        <ele>221.4</ele>
        <time>2021-05-29T07:45:21Z</time>
      </trkpt>
      <trkpt lat="43.2047" lon="5.82395">
        <ele>221.8</ele>
        <time>2021-05-29T07:45:22Z</time>
      </trkpt>
      <trkpt lat="43.20471" lon="5.82397">
        <ele>222</ele>
        <time>2021-05-29T07:45:23Z</time>
      </trkpt>
      <trkpt lat="43.20473" lon="5.82404">
        <ele>222.6</ele>
        <time>2021-05-29T07:45:27Z</time>
      </trkpt>
      <trkpt lat="43.20473" lon="5.82405">
        <ele>222.8</ele>
        <time>2021-05-29T07:45:28Z</time>
      </trkpt>
      <trkpt lat="43.20474" lon="5.82407">
        <ele>222.8</ele>
        <time>2021-05-29T07:45:29Z</time>
      </trkpt>
      <trkpt lat="43.20476" lon="5.8241">
        <ele>223.2</ele>
        <time>2021-05-29T07:45:31Z</time>
      </trkpt>
      <trkpt lat="43.20476" lon="5.82412">
        <ele>223.4</ele>
        <time>2021-05-29T07:45:32Z</time>
      </trkpt>
      <trkpt lat="43.20477" lon="5.82413">
        <ele>223.4</ele>
        <time>2021-05-29T07:45:33Z</time>
      </trkpt>
      <trkpt lat="43.20478" lon="5.82414">
        <ele>223.6</ele>
        <time>2021-05-29T07:45:34Z</time>
      </trkpt>
      <trkpt lat="43.20479" lon="5.82415">
        <ele>223.8</ele>
        <time>2021-05-29T07:45:35Z</time>
      </trkpt>
      <trkpt lat="43.20479" lon="5.82416">
        <ele>223.8</ele>
        <time>2021-05-29T07:45:36Z</time>
      </trkpt>
      <trkpt lat="43.2048" lon="5.82418">
        <ele>224</ele>
        <time>2021-05-29T07:45:37Z</time>
      </trkpt>
      <trkpt lat="43.2048" lon="5.82419">
        <ele>224.2</ele>
        <time>2021-05-29T07:45:38Z</time>
      </trkpt>
      <trkpt lat="43.20482" lon="5.82423">
        <ele>224.8</ele>
        <time>2021-05-29T07:45:41Z</time>
      </trkpt>
      <trkpt lat="43.20482" lon="5.82424">
        <ele>225.2</ele>
        <time>2021-05-29T07:45:42Z</time>
      </trkpt>
      <trkpt lat="43.20483" lon="5.82425">
        <ele>225.6</ele>
        <time>2021-05-29T07:45:43Z</time>
      </trkpt>
      <trkpt lat="43.20483" lon="5.82426">
        <ele>226</ele>
        <time>2021-05-29T07:45:44Z</time>
      </trkpt>
      <trkpt lat="43.20484" lon="5.82427">
        <ele>226</ele>
        <time>2021-05-29T07:45:45Z</time>
      </trkpt>
      <trkpt lat="43.20485" lon="5.82428">
        <ele>226.2</ele>
        <time>2021-05-29T07:45:46Z</time>
      </trkpt>
      <trkpt lat="43.20486" lon="5.82428">
        <ele>226.2</ele>
        <time>2021-05-29T07:45:47Z</time>
      </trkpt>
      <trkpt lat="43.20486" lon="5.8243">
        <ele>226.4</ele>
        <time>2021-05-29T07:45:48Z</time>
      </trkpt>
      <trkpt lat="43.20488" lon="5.82432">
        <ele>226.6</ele>
        <time>2021-05-29T07:45:50Z</time>
      </trkpt>
      <trkpt lat="43.20488" lon="5.82434">
        <ele>227</ele>
        <time>2021-05-29T07:45:51Z</time>
      </trkpt>
      <trkpt lat="43.20489" lon="5.82436">
        <ele>227</ele>
        <time>2021-05-29T07:45:52Z</time>
      </trkpt>
      <trkpt lat="43.2049" lon="5.82437">
        <ele>227.2</ele>
        <time>2021-05-29T07:45:53Z</time>
      </trkpt>
      <trkpt lat="43.20494" lon="5.82442">
        <ele>228</ele>
        <time>2021-05-29T07:45:58Z</time>
      </trkpt>
      <trkpt lat="43.20494" lon="5.82444">
        <ele>228.2</ele>
        <time>2021-05-29T07:45:59Z</time>
      </trkpt>
      <trkpt lat="43.20495" lon="5.82446">
        <ele>228.6</ele>
        <time>2021-05-29T07:46:01Z</time>
      </trkpt>
      <trkpt lat="43.20498" lon="5.82453">
        <ele>229</ele>
        <time>2021-05-29T07:46:05Z</time>
      </trkpt>
      <trkpt lat="43.20499" lon="5.82454">
        <ele>229.2</ele>
        <time>2021-05-29T07:46:06Z</time>
      </trkpt>
      <trkpt lat="43.20504" lon="5.82464">
        <ele>230.2</ele>
        <time>2021-05-29T07:46:13Z</time>
      </trkpt>
      <trkpt lat="43.20505" lon="5.82467">
        <ele>230.4</ele>
        <time>2021-05-29T07:46:15Z</time>
      </trkpt>
      <trkpt lat="43.20508" lon="5.82474">
        <ele>231.2</ele>
        <time>2021-05-29T07:46:19Z</time>
      </trkpt>
      <trkpt lat="43.20514" lon="5.82482">
        <ele>232</ele>
        <time>2021-05-29T07:46:24Z</time>
      </trkpt>
      <trkpt lat="43.20514" lon="5.82486">
        <ele>232.2</ele>
        <time>2021-05-29T07:46:26Z</time>
      </trkpt>
      <trkpt lat="43.20514" lon="5.8249">
        <ele>232.6</ele>
        <time>2021-05-29T07:46:29Z</time>
      </trkpt>
      <trkpt lat="43.20515" lon="5.82492">
        <ele>232.6</ele>
        <time>2021-05-29T07:46:30Z</time>
      </trkpt>
      <trkpt lat="43.20519" lon="5.82495">
        <ele>233</ele>
        <time>2021-05-29T07:46:33Z</time>
      </trkpt>
      <trkpt lat="43.20519" lon="5.82496">
        <ele>233.2</ele>
        <time>2021-05-29T07:46:34Z</time>
      </trkpt>
      <trkpt lat="43.20521" lon="5.825">
        <ele>233.6</ele>
        <time>2021-05-29T07:46:37Z</time>
      </trkpt>
      <trkpt lat="43.20522" lon="5.82501">
        <ele>233.8</ele>
        <time>2021-05-29T07:46:38Z</time>
      </trkpt>
      <trkpt lat="43.20524" lon="5.82503">
        <ele>234.2</ele>
        <time>2021-05-29T07:46:40Z</time>
      </trkpt>
      <trkpt lat="43.20525" lon="5.82505">
        <ele>234.4</ele>
        <time>2021-05-29T07:46:41Z</time>
      </trkpt>
      <trkpt lat="43.20525" lon="5.82506">
        <ele>234.4</ele>
        <time>2021-05-29T07:46:42Z</time>
      </trkpt>
      <trkpt lat="43.20526" lon="5.82508">
        <ele>234.6</ele>
        <time>2021-05-29T07:46:43Z</time>
      </trkpt>
      <trkpt lat="43.20528" lon="5.82511">
        <ele>235</ele>
        <time>2021-05-29T07:46:45Z</time>
      </trkpt>
      <trkpt lat="43.2053" lon="5.82513">
        <ele>235.4</ele>
        <time>2021-05-29T07:46:47Z</time>
      </trkpt>
      <trkpt lat="43.20536" lon="5.82517">
        <ele>236.6</ele>
        <time>2021-05-29T07:46:52Z</time>
      </trkpt>
      <trkpt lat="43.20541" lon="5.82527">
        <ele>237.2</ele>
        <time>2021-05-29T07:46:57Z</time>
      </trkpt>
      <trkpt lat="43.20543" lon="5.82532">
        <ele>237.4</ele>
        <time>2021-05-29T07:47:00Z</time>
      </trkpt>
      <trkpt lat="43.20546" lon="5.82535">
        <ele>237.6</ele>
        <time>2021-05-29T07:47:02Z</time>
      </trkpt>
      <trkpt lat="43.20548" lon="5.8254">
        <ele>238</ele>
        <time>2021-05-29T07:47:05Z</time>
      </trkpt>
      <trkpt lat="43.2055" lon="5.82544">
        <ele>238.4</ele>
        <time>2021-05-29T07:47:07Z</time>
      </trkpt>
      <trkpt lat="43.20552" lon="5.82551">
        <ele>238.6</ele>
        <time>2021-05-29T07:47:10Z</time>
      </trkpt>
      <trkpt lat="43.20555" lon="5.82558">
        <ele>239.2</ele>
        <time>2021-05-29T07:47:13Z</time>
      </trkpt>
      <trkpt lat="43.2056" lon="5.82566">
        <ele>239.8</ele>
        <time>2021-05-29T07:47:17Z</time>
      </trkpt>
      <trkpt lat="43.20567" lon="5.82585">
        <ele>240.6</ele>
        <time>2021-05-29T07:47:25Z</time>
      </trkpt>
      <trkpt lat="43.20571" lon="5.82594">
        <ele>240.8</ele>
        <time>2021-05-29T07:47:28Z</time>
      </trkpt>
      <trkpt lat="43.20574" lon="5.82596">
        <ele>240.8</ele>
        <time>2021-05-29T07:47:29Z</time>
      </trkpt>
      <trkpt lat="43.20577" lon="5.82598">
        <ele>240.8</ele>
        <time>2021-05-29T07:47:30Z</time>
      </trkpt>
      <trkpt lat="43.20592" lon="5.82608">
        <ele>241.8</ele>
        <time>2021-05-29T07:47:39Z</time>
      </trkpt>
      <trkpt lat="43.20595" lon="5.8261">
        <ele>241.8</ele>
        <time>2021-05-29T07:47:40Z</time>
      </trkpt>
      <trkpt lat="43.20605" lon="5.82616">
        <ele>242.2</ele>
        <time>2021-05-29T07:47:45Z</time>
      </trkpt>
      <trkpt lat="43.20613" lon="5.82624">
        <ele>242.4</ele>
        <time>2021-05-29T07:47:49Z</time>
      </trkpt>
      <trkpt lat="43.20621" lon="5.82632">
        <ele>242.4</ele>
        <time>2021-05-29T07:47:51Z</time>
      </trkpt>
      <trkpt lat="43.20637" lon="5.82646">
        <ele>242.6</ele>
        <time>2021-05-29T07:47:57Z</time>
      </trkpt>
      <trkpt lat="43.20644" lon="5.82655">
        <ele>242.6</ele>
        <time>2021-05-29T07:48:00Z</time>
      </trkpt>
      <trkpt lat="43.20652" lon="5.82662">
        <ele>242.6</ele>
        <time>2021-05-29T07:48:03Z</time>
      </trkpt>
      <trkpt lat="43.20657" lon="5.8267">
        <ele>242.6</ele>
        <time>2021-05-29T07:48:05Z</time>
      </trkpt>
      <trkpt lat="43.20667" lon="5.82689">
        <ele>242.4</ele>
        <time>2021-05-29T07:48:09Z</time>
      </trkpt>
      <trkpt lat="43.2067" lon="5.82693">
        <ele>242.4</ele>
        <time>2021-05-29T07:48:10Z</time>
      </trkpt>
      <trkpt lat="43.20681" lon="5.82705">
        <ele>242.2</ele>
        <time>2021-05-29T07:48:13Z</time>
      </trkpt>
      <trkpt lat="43.20689" lon="5.82712">
        <ele>242.2</ele>
        <time>2021-05-29T07:48:15Z</time>
      </trkpt>
      <trkpt lat="43.20693" lon="5.82715">
        <ele>242.2</ele>
        <time>2021-05-29T07:48:16Z</time>
      </trkpt>
      <trkpt lat="43.20697" lon="5.82718">
        <ele>242.2</ele>
        <time>2021-05-29T07:48:17Z</time>
      </trkpt>
      <trkpt lat="43.207" lon="5.8272">
        <ele>242.2</ele>
        <time>2021-05-29T07:48:18Z</time>
      </trkpt>
      <trkpt lat="43.20704" lon="5.82722">
        <ele>242.2</ele>
        <time>2021-05-29T07:48:19Z</time>
      </trkpt>
      <trkpt lat="43.2071" lon="5.82725">
        <ele>242.2</ele>
        <time>2021-05-29T07:48:21Z</time>
      </trkpt>
      <trkpt lat="43.20722" lon="5.82733">
        <ele>242.4</ele>
        <time>2021-05-29T07:48:26Z</time>
      </trkpt>
      <trkpt lat="43.20733" lon="5.82737">
        <ele>242.6</ele>
        <time>2021-05-29T07:48:30Z</time>
      </trkpt>
      <trkpt lat="43.20742" lon="5.82737">
        <ele>242.8</ele>
        <time>2021-05-29T07:48:33Z</time>
      </trkpt>
      <trkpt lat="43.20752" lon="5.82741">
        <ele>243.2</ele>
        <time>2021-05-29T07:48:36Z</time>
      </trkpt>
      <trkpt lat="43.20757" lon="5.82742">
        <ele>243.4</ele>
        <time>2021-05-29T07:48:37Z</time>
      </trkpt>
      <trkpt lat="43.20772" lon="5.82755">
        <ele>243.8</ele>
        <time>2021-05-29T07:48:43Z</time>
      </trkpt>
      <trkpt lat="43.20773" lon="5.82757">
        <ele>244</ele>
        <time>2021-05-29T07:48:44Z</time>
      </trkpt>
      <trkpt lat="43.2078" lon="5.8277">
        <ele>244.8</ele>
        <time>2021-05-29T07:48:51Z</time>
      </trkpt>
      <trkpt lat="43.20781" lon="5.82771">
        <ele>245</ele>
        <time>2021-05-29T07:48:52Z</time>
      </trkpt>
      <trkpt lat="43.20785" lon="5.82783">
        <ele>245.8</ele>
        <time>2021-05-29T07:48:58Z</time>
      </trkpt>
      <trkpt lat="43.20786" lon="5.82788">
        <ele>246</ele>
        <time>2021-05-29T07:49:00Z</time>
      </trkpt>
      <trkpt lat="43.20789" lon="5.82796">
        <ele>246.6</ele>
        <time>2021-05-29T07:49:04Z</time>
      </trkpt>
      <trkpt lat="43.20789" lon="5.82799">
        <ele>246.8</ele>
        <time>2021-05-29T07:49:05Z</time>
      </trkpt>
      <trkpt lat="43.2079" lon="5.82806">
        <ele>247.2</ele>
        <time>2021-05-29T07:49:08Z</time>
      </trkpt>
      <trkpt lat="43.20792" lon="5.82813">
        <ele>247.4</ele>
        <time>2021-05-29T07:49:11Z</time>
      </trkpt>
      <trkpt lat="43.20796" lon="5.82826">
        <ele>248.2</ele>
        <time>2021-05-29T07:49:17Z</time>
      </trkpt>
      <trkpt lat="43.20797" lon="5.82828">
        <ele>248.6</ele>
        <time>2021-05-29T07:49:18Z</time>
      </trkpt>
      <trkpt lat="43.20799" lon="5.82835">
        <ele>249</ele>
        <time>2021-05-29T07:49:22Z</time>
      </trkpt>
      <trkpt lat="43.20801" lon="5.82837">
        <ele>249.4</ele>
        <time>2021-05-29T07:49:24Z</time>
      </trkpt>
      <trkpt lat="43.20803" lon="5.82838">
        <ele>249.6</ele>
        <time>2021-05-29T07:49:25Z</time>
      </trkpt>
      <trkpt lat="43.20806" lon="5.82842">
        <ele>250.2</ele>
        <time>2021-05-29T07:49:29Z</time>
      </trkpt>
      <trkpt lat="43.20807" lon="5.82843">
        <ele>250.4</ele>
        <time>2021-05-29T07:49:30Z</time>
      </trkpt>
      <trkpt lat="43.20808" lon="5.82844">
        <ele>250.6</ele>
        <time>2021-05-29T07:49:31Z</time>
      </trkpt>
      <trkpt lat="43.2081" lon="5.82848">
        <ele>250.6</ele>
        <time>2021-05-29T07:49:34Z</time>
      </trkpt>
      <trkpt lat="43.20813" lon="5.82851">
        <ele>251.2</ele>
        <time>2021-05-29T07:49:37Z</time>
      </trkpt>
      <trkpt lat="43.20815" lon="5.82852">
        <ele>251.4</ele>
        <time>2021-05-29T07:49:39Z</time>
      </trkpt>
      <trkpt lat="43.2082" lon="5.82857">
        <ele>252.4</ele>
        <time>2021-05-29T07:49:45Z</time>
      </trkpt>
      <trkpt lat="43.20821" lon="5.82858">
        <ele>252.4</ele>
        <time>2021-05-29T07:49:46Z</time>
      </trkpt>
      <trkpt lat="43.20825" lon="5.82859">
        <ele>252.8</ele>
        <time>2021-05-29T07:49:49Z</time>
      </trkpt>
      <trkpt lat="43.2083" lon="5.82862">
        <ele>253.2</ele>
        <time>2021-05-29T07:49:53Z</time>
      </trkpt>
      <trkpt lat="43.20832" lon="5.82862">
        <ele>253.4</ele>
        <time>2021-05-29T07:49:54Z</time>
      </trkpt>
      <trkpt lat="43.20836" lon="5.82862">
        <ele>253.8</ele>
        <time>2021-05-29T07:49:57Z</time>
      </trkpt>
      <trkpt lat="43.20838" lon="5.82867">
        <ele>254.4</ele>
        <time>2021-05-29T07:50:00Z</time>
      </trkpt>
      <trkpt lat="43.20839" lon="5.82868">
        <ele>254.4</ele>
        <time>2021-05-29T07:50:01Z</time>
      </trkpt>
      <trkpt lat="43.20845" lon="5.82873">
        <ele>255.4</ele>
        <time>2021-05-29T07:50:08Z</time>
      </trkpt>
      <trkpt lat="43.20847" lon="5.82874">
        <ele>255.6</ele>
        <time>2021-05-29T07:50:09Z</time>
      </trkpt>
      <trkpt lat="43.20851" lon="5.82875">
        <ele>256</ele>
        <time>2021-05-29T07:50:13Z</time>
      </trkpt>
      <trkpt lat="43.20851" lon="5.82876">
        <ele>256.2</ele>
        <time>2021-05-29T07:50:14Z</time>
      </trkpt>
      <trkpt lat="43.20852" lon="5.82878">
        <ele>256.4</ele>
        <time>2021-05-29T07:50:16Z</time>
      </trkpt>
      <trkpt lat="43.20853" lon="5.82878">
        <ele>256.8</ele>
        <time>2021-05-29T07:50:17Z</time>
      </trkpt>
      <trkpt lat="43.20855" lon="5.82879">
        <ele>257</ele>
        <time>2021-05-29T07:50:20Z</time>
      </trkpt>
      <trkpt lat="43.20858" lon="5.82881">
        <ele>257.8</ele>
        <time>2021-05-29T07:50:24Z</time>
      </trkpt>
      <trkpt lat="43.2086" lon="5.82882">
        <ele>258.2</ele>
        <time>2021-05-29T07:50:26Z</time>
      </trkpt>
      <trkpt lat="43.20861" lon="5.82882">
        <ele>258.4</ele>
        <time>2021-05-29T07:50:27Z</time>
      </trkpt>
      <trkpt lat="43.20863" lon="5.82886">
        <ele>258.8</ele>
        <time>2021-05-29T07:50:30Z</time>
      </trkpt>
      <trkpt lat="43.20865" lon="5.82887">
        <ele>259.2</ele>
        <time>2021-05-29T07:50:32Z</time>
      </trkpt>
      <trkpt lat="43.20871" lon="5.82892">
        <ele>260</ele>
        <time>2021-05-29T07:50:38Z</time>
      </trkpt>
      <trkpt lat="43.20879" lon="5.82899">
        <ele>261</ele>
        <time>2021-05-29T07:50:45Z</time>
      </trkpt>
      <trkpt lat="43.2088" lon="5.829">
        <ele>261.2</ele>
        <time>2021-05-29T07:50:46Z</time>
      </trkpt>
      <trkpt lat="43.20884" lon="5.82905">
        <ele>261.6</ele>
        <time>2021-05-29T07:50:50Z</time>
      </trkpt>
      <trkpt lat="43.20886" lon="5.82906">
        <ele>262</ele>
        <time>2021-05-29T07:50:52Z</time>
      </trkpt>
      <trkpt lat="43.20887" lon="5.82907">
        <ele>262.2</ele>
        <time>2021-05-29T07:50:53Z</time>
      </trkpt>
      <trkpt lat="43.20889" lon="5.8291">
        <ele>263</ele>
        <time>2021-05-29T07:50:57Z</time>
      </trkpt>
      <trkpt lat="43.20891" lon="5.82911">
        <ele>263.4</ele>
        <time>2021-05-29T07:50:59Z</time>
      </trkpt>
      <trkpt lat="43.20897" lon="5.82914">
        <ele>263.8</ele>
        <time>2021-05-29T07:51:03Z</time>
      </trkpt>
      <trkpt lat="43.20899" lon="5.82916">
        <ele>264</ele>
        <time>2021-05-29T07:51:05Z</time>
      </trkpt>
      <trkpt lat="43.209" lon="5.82917">
        <ele>264.4</ele>
        <time>2021-05-29T07:51:06Z</time>
      </trkpt>
      <trkpt lat="43.20901" lon="5.82918">
        <ele>264.6</ele>
        <time>2021-05-29T07:51:07Z</time>
      </trkpt>
      <trkpt lat="43.20902" lon="5.82919">
        <ele>264.8</ele>
        <time>2021-05-29T07:51:08Z</time>
      </trkpt>
      <trkpt lat="43.20902" lon="5.8292">
        <ele>264.8</ele>
        <time>2021-05-29T07:51:09Z</time>
      </trkpt>
      <trkpt lat="43.20904" lon="5.82921">
        <ele>265</ele>
        <time>2021-05-29T07:51:11Z</time>
      </trkpt>
      <trkpt lat="43.20907" lon="5.82923">
        <ele>265.4</ele>
        <time>2021-05-29T07:51:14Z</time>
      </trkpt>
      <trkpt lat="43.20911" lon="5.82927">
        <ele>266</ele>
        <time>2021-05-29T07:51:18Z</time>
      </trkpt>
      <trkpt lat="43.20917" lon="5.82932">
        <ele>266.4</ele>
        <time>2021-05-29T07:51:23Z</time>
      </trkpt>
      <trkpt lat="43.20918" lon="5.82933">
        <ele>266.4</ele>
        <time>2021-05-29T07:51:24Z</time>
      </trkpt>
      <trkpt lat="43.20922" lon="5.82935">
        <ele>267</ele>
        <time>2021-05-29T07:51:28Z</time>
      </trkpt>
      <trkpt lat="43.20923" lon="5.82937">
        <ele>267.4</ele>
        <time>2021-05-29T07:51:30Z</time>
      </trkpt>
      <trkpt lat="43.20925" lon="5.82939">
        <ele>267.6</ele>
        <time>2021-05-29T07:51:32Z</time>
      </trkpt>
      <trkpt lat="43.20932" lon="5.82944">
        <ele>268.6</ele>
        <time>2021-05-29T07:51:38Z</time>
      </trkpt>
      <trkpt lat="43.20932" lon="5.82945">
        <ele>268.6</ele>
        <time>2021-05-29T07:51:39Z</time>
      </trkpt>
      <trkpt lat="43.20937" lon="5.8295">
        <ele>269.6</ele>
        <time>2021-05-29T07:51:46Z</time>
      </trkpt>
      <trkpt lat="43.20938" lon="5.82951">
        <ele>269.8</ele>
        <time>2021-05-29T07:51:47Z</time>
      </trkpt>
      <trkpt lat="43.2094" lon="5.82952">
        <ele>270</ele>
        <time>2021-05-29T07:51:49Z</time>
      </trkpt>
      <trkpt lat="43.20944" lon="5.82955">
        <ele>270.4</ele>
        <time>2021-05-29T07:51:53Z</time>
      </trkpt>
      <trkpt lat="43.20945" lon="5.82957">
        <ele>270.6</ele>
        <time>2021-05-29T07:51:55Z</time>
      </trkpt>
      <trkpt lat="43.20946" lon="5.82958">
        <ele>270.8</ele>
        <time>2021-05-29T07:51:56Z</time>
      </trkpt>
      <trkpt lat="43.20949" lon="5.82961">
        <ele>271.4</ele>
        <time>2021-05-29T07:51:59Z</time>
      </trkpt>
      <trkpt lat="43.2095" lon="5.82962">
        <ele>271.6</ele>
        <time>2021-05-29T07:52:01Z</time>
      </trkpt>
      <trkpt lat="43.20951" lon="5.82963">
        <ele>271.8</ele>
        <time>2021-05-29T07:52:02Z</time>
      </trkpt>
      <trkpt lat="43.20954" lon="5.82966">
        <ele>272.2</ele>
        <time>2021-05-29T07:52:05Z</time>
      </trkpt>
      <trkpt lat="43.2096" lon="5.82968">
        <ele>272.8</ele>
        <time>2021-05-29T07:52:09Z</time>
      </trkpt>
      <trkpt lat="43.20962" lon="5.82971">
        <ele>273.2</ele>
        <time>2021-05-29T07:52:11Z</time>
      </trkpt>
      <trkpt lat="43.20964" lon="5.82975">
        <ele>273.4</ele>
        <time>2021-05-29T07:52:14Z</time>
      </trkpt>
      <trkpt lat="43.20969" lon="5.82978">
        <ele>274</ele>
        <time>2021-05-29T07:52:18Z</time>
      </trkpt>
      <trkpt lat="43.20971" lon="5.8298">
        <ele>274.4</ele>
        <time>2021-05-29T07:52:20Z</time>
      </trkpt>
      <trkpt lat="43.20974" lon="5.82983">
        <ele>275</ele>
        <time>2021-05-29T07:52:24Z</time>
      </trkpt>
      <trkpt lat="43.20975" lon="5.82984">
        <ele>275.2</ele>
        <time>2021-05-29T07:52:25Z</time>
      </trkpt>
      <trkpt lat="43.20983" lon="5.82993">
        <ele>276.2</ele>
        <time>2021-05-29T07:52:34Z</time>
      </trkpt>
      <trkpt lat="43.20984" lon="5.82995">
        <ele>276.4</ele>
        <time>2021-05-29T07:52:35Z</time>
      </trkpt>
      <trkpt lat="43.20987" lon="5.82999">
        <ele>277</ele>
        <time>2021-05-29T07:52:39Z</time>
      </trkpt>
      <trkpt lat="43.2099" lon="5.82999">
        <ele>277.2</ele>
        <time>2021-05-29T07:52:41Z</time>
      </trkpt>
      <trkpt lat="43.20993" lon="5.83001">
        <ele>277.4</ele>
        <time>2021-05-29T07:52:43Z</time>
      </trkpt>
      <trkpt lat="43.20998" lon="5.83004">
        <ele>278</ele>
        <time>2021-05-29T07:52:47Z</time>
      </trkpt>
      <trkpt lat="43.21001" lon="5.83005">
        <ele>278.2</ele>
        <time>2021-05-29T07:52:49Z</time>
      </trkpt>
      <trkpt lat="43.21003" lon="5.83005">
        <ele>278.4</ele>
        <time>2021-05-29T07:52:50Z</time>
      </trkpt>
      <trkpt lat="43.21004" lon="5.83005">
        <ele>278.4</ele>
        <time>2021-05-29T07:52:51Z</time>
      </trkpt>
      <trkpt lat="43.21005" lon="5.83006">
        <ele>278.6</ele>
        <time>2021-05-29T07:52:52Z</time>
      </trkpt>
      <trkpt lat="43.21008" lon="5.83008">
        <ele>278.8</ele>
        <time>2021-05-29T07:52:54Z</time>
      </trkpt>
      <trkpt lat="43.21011" lon="5.83007">
        <ele>279.2</ele>
        <time>2021-05-29T07:52:56Z</time>
      </trkpt>
      <trkpt lat="43.21017" lon="5.83009">
        <ele>279.4</ele>
        <time>2021-05-29T07:53:00Z</time>
      </trkpt>
      <trkpt lat="43.21019" lon="5.83009">
        <ele>279.4</ele>
        <time>2021-05-29T07:53:01Z</time>
      </trkpt>
      <trkpt lat="43.2102" lon="5.83011">
        <ele>280</ele>
        <time>2021-05-29T07:53:03Z</time>
      </trkpt>
      <trkpt lat="43.21022" lon="5.83012">
        <ele>280.2</ele>
        <time>2021-05-29T07:53:05Z</time>
      </trkpt>
      <trkpt lat="43.21024" lon="5.83013">
        <ele>280.4</ele>
        <time>2021-05-29T07:53:06Z</time>
      </trkpt>
      <trkpt lat="43.21025" lon="5.83014">
        <ele>280.4</ele>
        <time>2021-05-29T07:53:07Z</time>
      </trkpt>
      <trkpt lat="43.21027" lon="5.83016">
        <ele>280.8</ele>
        <time>2021-05-29T07:53:09Z</time>
      </trkpt>
      <trkpt lat="43.21029" lon="5.83018">
        <ele>281</ele>
        <time>2021-05-29T07:53:11Z</time>
      </trkpt>
      <trkpt lat="43.2103" lon="5.83019">
        <ele>281.2</ele>
        <time>2021-05-29T07:53:12Z</time>
      </trkpt>
      <trkpt lat="43.21032" lon="5.83019">
        <ele>281.4</ele>
        <time>2021-05-29T07:53:14Z</time>
      </trkpt>
      <trkpt lat="43.21034" lon="5.8302">
        <ele>281.6</ele>
        <time>2021-05-29T07:53:15Z</time>
      </trkpt>
      <trkpt lat="43.21039" lon="5.83022">
        <ele>282</ele>
        <time>2021-05-29T07:53:20Z</time>
      </trkpt>
      <trkpt lat="43.2104" lon="5.83022">
        <ele>282.2</ele>
        <time>2021-05-29T07:53:21Z</time>
      </trkpt>
      <trkpt lat="43.21045" lon="5.83026">
        <ele>282.6</ele>
        <time>2021-05-29T07:53:26Z</time>
      </trkpt>
      <trkpt lat="43.21046" lon="5.83027">
        <ele>282.8</ele>
        <time>2021-05-29T07:53:27Z</time>
      </trkpt>
      <trkpt lat="43.21048" lon="5.83027">
        <ele>283</ele>
        <time>2021-05-29T07:53:29Z</time>
      </trkpt>
      <trkpt lat="43.21052" lon="5.83028">
        <ele>283.4</ele>
        <time>2021-05-29T07:53:32Z</time>
      </trkpt>
      <trkpt lat="43.21056" lon="5.83032">
        <ele>283.8</ele>
        <time>2021-05-29T07:53:35Z</time>
      </trkpt>
      <trkpt lat="43.21064" lon="5.83032">
        <ele>284.2</ele>
        <time>2021-05-29T07:53:39Z</time>
      </trkpt>
      <trkpt lat="43.21069" lon="5.83032">
        <ele>284.4</ele>
        <time>2021-05-29T07:53:42Z</time>
      </trkpt>
      <trkpt lat="43.21073" lon="5.83034">
        <ele>284.6</ele>
        <time>2021-05-29T07:53:44Z</time>
      </trkpt>
      <trkpt lat="43.21077" lon="5.83035">
        <ele>284.8</ele>
        <time>2021-05-29T07:53:46Z</time>
      </trkpt>
      <trkpt lat="43.21079" lon="5.83036">
        <ele>285</ele>
        <time>2021-05-29T07:53:47Z</time>
      </trkpt>
      <trkpt lat="43.21081" lon="5.83036">
        <ele>285.4</ele>
        <time>2021-05-29T07:53:48Z</time>
      </trkpt>
      <trkpt lat="43.21083" lon="5.83036">
        <ele>285.4</ele>
        <time>2021-05-29T07:53:49Z</time>
      </trkpt>
      <trkpt lat="43.21085" lon="5.83035">
        <ele>285.6</ele>
        <time>2021-05-29T07:53:50Z</time>
      </trkpt>
      <trkpt lat="43.21087" lon="5.83034">
        <ele>285.6</ele>
        <time>2021-05-29T07:53:51Z</time>
      </trkpt>
      <trkpt lat="43.21089" lon="5.83035">
        <ele>285.8</ele>
        <time>2021-05-29T07:53:52Z</time>
      </trkpt>
      <trkpt lat="43.21093" lon="5.83034">
        <ele>286</ele>
        <time>2021-05-29T07:53:54Z</time>
      </trkpt>
      <trkpt lat="43.21097" lon="5.83036">
        <ele>286.2</ele>
        <time>2021-05-29T07:53:56Z</time>
      </trkpt>
      <trkpt lat="43.21116" lon="5.83035">
        <ele>287</ele>
        <time>2021-05-29T07:54:04Z</time>
      </trkpt>
      <trkpt lat="43.21121" lon="5.83036">
        <ele>287.2</ele>
        <time>2021-05-29T07:54:06Z</time>
      </trkpt>
      <trkpt lat="43.21122" lon="5.83036">
        <ele>287.4</ele>
        <time>2021-05-29T07:54:07Z</time>
      </trkpt>
      <trkpt lat="43.21128" lon="5.83036">
        <ele>287.6</ele>
        <time>2021-05-29T07:54:10Z</time>
      </trkpt>
      <trkpt lat="43.21132" lon="5.83039">
        <ele>287.6</ele>
        <time>2021-05-29T07:54:12Z</time>
      </trkpt>
      <trkpt lat="43.21139" lon="5.8304">
        <ele>288</ele>
        <time>2021-05-29T07:54:16Z</time>
      </trkpt>
      <trkpt lat="43.21143" lon="5.8304">
        <ele>288.2</ele>
        <time>2021-05-29T07:54:18Z</time>
      </trkpt>
      <trkpt lat="43.21157" lon="5.83043">
        <ele>288.8</ele>
        <time>2021-05-29T07:54:25Z</time>
      </trkpt>
      <trkpt lat="43.21173" lon="5.83043">
        <ele>289.2</ele>
        <time>2021-05-29T07:54:31Z</time>
      </trkpt>
      <trkpt lat="43.21178" lon="5.83043">
        <ele>289.2</ele>
        <time>2021-05-29T07:54:33Z</time>
      </trkpt>
      <trkpt lat="43.21183" lon="5.83044">
        <ele>289.2</ele>
        <time>2021-05-29T07:54:35Z</time>
      </trkpt>
      <trkpt lat="43.21185" lon="5.83043">
        <ele>289.4</ele>
        <time>2021-05-29T07:54:36Z</time>
      </trkpt>
      <trkpt lat="43.21206" lon="5.8304">
        <ele>290</ele>
        <time>2021-05-29T07:54:45Z</time>
      </trkpt>
      <trkpt lat="43.2121" lon="5.8304">
        <ele>290.2</ele>
        <time>2021-05-29T07:54:47Z</time>
      </trkpt>
      <trkpt lat="43.21221" lon="5.83038">
        <ele>290.8</ele>
        <time>2021-05-29T07:54:52Z</time>
      </trkpt>
      <trkpt lat="43.21231" lon="5.83036">
        <ele>291.4</ele>
        <time>2021-05-29T07:54:57Z</time>
      </trkpt>
      <trkpt lat="43.21238" lon="5.83034">
        <ele>291.4</ele>
        <time>2021-05-29T07:55:00Z</time>
      </trkpt>
      <trkpt lat="43.21251" lon="5.83029">
        <ele>292.2</ele>
        <time>2021-05-29T07:55:05Z</time>
      </trkpt>
      <trkpt lat="43.21259" lon="5.83025">
        <ele>292.4</ele>
        <time>2021-05-29T07:55:08Z</time>
      </trkpt>
      <trkpt lat="43.21277" lon="5.83017">
        <ele>293.2</ele>
        <time>2021-05-29T07:55:15Z</time>
      </trkpt>
      <trkpt lat="43.21281" lon="5.83016">
        <ele>293.2</ele>
        <time>2021-05-29T07:55:16Z</time>
      </trkpt>
      <trkpt lat="43.21297" lon="5.83009">
        <ele>293.6</ele>
        <time>2021-05-29T07:55:21Z</time>
      </trkpt>
      <trkpt lat="43.2131" lon="5.83001">
        <ele>293.8</ele>
        <time>2021-05-29T07:55:25Z</time>
      </trkpt>
      <trkpt lat="43.21319" lon="5.82996">
        <ele>293.8</ele>
        <time>2021-05-29T07:55:28Z</time>
      </trkpt>
      <trkpt lat="43.2134" lon="5.82986">
        <ele>294.2</ele>
        <time>2021-05-29T07:55:34Z</time>
      </trkpt>
      <trkpt lat="43.21367" lon="5.82971">
        <ele>294.4</ele>
        <time>2021-05-29T07:55:42Z</time>
      </trkpt>
      <trkpt lat="43.21391" lon="5.82953">
        <ele>294.4</ele>
        <time>2021-05-29T07:55:50Z</time>
      </trkpt>
      <trkpt lat="43.21412" lon="5.82938">
        <ele>294.6</ele>
        <time>2021-05-29T07:55:56Z</time>
      </trkpt>
      <trkpt lat="43.21416" lon="5.82934">
        <ele>294.6</ele>
        <time>2021-05-29T07:55:57Z</time>
      </trkpt>
      <trkpt lat="43.21421" lon="5.82929">
        <ele>294.6</ele>
        <time>2021-05-29T07:55:59Z</time>
      </trkpt>
      <trkpt lat="43.21432" lon="5.82921">
        <ele>294.6</ele>
        <time>2021-05-29T07:56:02Z</time>
      </trkpt>
      <trkpt lat="43.21439" lon="5.82915">
        <ele>294.6</ele>
        <time>2021-05-29T07:56:04Z</time>
      </trkpt>
      <trkpt lat="43.21457" lon="5.829">
        <ele>294.6</ele>
        <time>2021-05-29T07:56:09Z</time>
      </trkpt>
      <trkpt lat="43.21461" lon="5.82893">
        <ele>294.6</ele>
        <time>2021-05-29T07:56:11Z</time>
      </trkpt>
      <trkpt lat="43.21463" lon="5.82889">
        <ele>294.6</ele>
        <time>2021-05-29T07:56:12Z</time>
      </trkpt>
      <trkpt lat="43.21468" lon="5.82879">
        <ele>294.6</ele>
        <time>2021-05-29T07:56:14Z</time>
      </trkpt>
      <trkpt lat="43.21475" lon="5.8287">
        <ele>294.4</ele>
        <time>2021-05-29T07:56:16Z</time>
      </trkpt>
      <trkpt lat="43.21486" lon="5.82857">
        <ele>294.4</ele>
        <time>2021-05-29T07:56:19Z</time>
      </trkpt>
      <trkpt lat="43.21493" lon="5.82849">
        <ele>294.2</ele>
        <time>2021-05-29T07:56:21Z</time>
      </trkpt>
      <trkpt lat="43.2151" lon="5.82834">
        <ele>293.8</ele>
        <time>2021-05-29T07:56:25Z</time>
      </trkpt>
      <trkpt lat="43.21525" lon="5.82821">
        <ele>293.4</ele>
        <time>2021-05-29T07:56:29Z</time>
      </trkpt>
      <trkpt lat="43.21543" lon="5.82804">
        <ele>293.2</ele>
        <time>2021-05-29T07:56:34Z</time>
      </trkpt>
      <trkpt lat="43.21553" lon="5.82793">
        <ele>293</ele>
        <time>2021-05-29T07:56:37Z</time>
      </trkpt>
      <trkpt lat="43.21575" lon="5.82773">
        <ele>292.6</ele>
        <time>2021-05-29T07:56:44Z</time>
      </trkpt>
      <trkpt lat="43.21589" lon="5.82777">
        <ele>292.6</ele>
        <time>2021-05-29T07:56:48Z</time>
      </trkpt>
      <trkpt lat="43.21603" lon="5.82794">
        <ele>292.8</ele>
        <time>2021-05-29T07:56:53Z</time>
      </trkpt>
      <trkpt lat="43.2161" lon="5.82804">
        <ele>293</ele>
        <time>2021-05-29T07:56:56Z</time>
      </trkpt>
      <trkpt lat="43.21616" lon="5.8281">
        <ele>293.2</ele>
        <time>2021-05-29T07:56:59Z</time>
      </trkpt>
      <trkpt lat="43.2162" lon="5.82814">
        <ele>293.4</ele>
        <time>2021-05-29T07:57:01Z</time>
      </trkpt>
      <trkpt lat="43.21622" lon="5.82815">
        <ele>293.8</ele>
        <time>2021-05-29T07:57:02Z</time>
      </trkpt>
      <trkpt lat="43.21627" lon="5.82817">
        <ele>294</ele>
        <time>2021-05-29T07:57:04Z</time>
      </trkpt>
      <trkpt lat="43.21629" lon="5.82818">
        <ele>294</ele>
        <time>2021-05-29T07:57:05Z</time>
      </trkpt>
      <trkpt lat="43.21638" lon="5.82817">
        <ele>295.2</ele>
        <time>2021-05-29T07:57:10Z</time>
      </trkpt>
      <trkpt lat="43.21642" lon="5.82817">
        <ele>295.6</ele>
        <time>2021-05-29T07:57:12Z</time>
      </trkpt>
      <trkpt lat="43.21649" lon="5.82817">
        <ele>296.2</ele>
        <time>2021-05-29T07:57:16Z</time>
      </trkpt>
      <trkpt lat="43.21656" lon="5.82818">
        <ele>296.8</ele>
        <time>2021-05-29T07:57:20Z</time>
      </trkpt>
      <trkpt lat="43.2166" lon="5.82818">
        <ele>297.2</ele>
        <time>2021-05-29T07:57:23Z</time>
      </trkpt>
      <trkpt lat="43.21665" lon="5.82818">
        <ele>297.6</ele>
        <time>2021-05-29T07:57:26Z</time>
      </trkpt>
      <trkpt lat="43.21667" lon="5.82818">
        <ele>297.8</ele>
        <time>2021-05-29T07:57:27Z</time>
      </trkpt>
      <trkpt lat="43.21674" lon="5.82818">
        <ele>298</ele>
        <time>2021-05-29T07:57:31Z</time>
      </trkpt>
      <trkpt lat="43.21678" lon="5.82816">
        <ele>298.2</ele>
        <time>2021-05-29T07:57:33Z</time>
      </trkpt>
      <trkpt lat="43.2168" lon="5.82816">
        <ele>298.4</ele>
        <time>2021-05-29T07:57:34Z</time>
      </trkpt>
      <trkpt lat="43.21685" lon="5.82814">
        <ele>298.6</ele>
        <time>2021-05-29T07:57:36Z</time>
      </trkpt>
      <trkpt lat="43.21687" lon="5.82813">
        <ele>298.8</ele>
        <time>2021-05-29T07:57:37Z</time>
      </trkpt>
      <trkpt lat="43.2169" lon="5.8281">
        <ele>299</ele>
        <time>2021-05-29T07:57:39Z</time>
      </trkpt>
      <trkpt lat="43.21693" lon="5.82808">
        <ele>299.2</ele>
        <time>2021-05-29T07:57:40Z</time>
      </trkpt>
      <trkpt lat="43.21694" lon="5.82806">
        <ele>299.4</ele>
        <time>2021-05-29T07:57:41Z</time>
      </trkpt>
      <trkpt lat="43.21698" lon="5.82797">
        <ele>300.2</ele>
        <time>2021-05-29T07:57:45Z</time>
      </trkpt>
      <trkpt lat="43.21698" lon="5.82795">
        <ele>300.6</ele>
        <time>2021-05-29T07:57:46Z</time>
      </trkpt>
      <trkpt lat="43.21699" lon="5.82792">
        <ele>300.6</ele>
        <time>2021-05-29T07:57:47Z</time>
      </trkpt>
      <trkpt lat="43.21703" lon="5.82787">
        <ele>301</ele>
        <time>2021-05-29T07:57:50Z</time>
      </trkpt>
      <trkpt lat="43.21705" lon="5.82784">
        <ele>301.6</ele>
        <time>2021-05-29T07:57:52Z</time>
      </trkpt>
      <trkpt lat="43.21706" lon="5.82783">
        <ele>301.6</ele>
        <time>2021-05-29T07:57:53Z</time>
      </trkpt>
      <trkpt lat="43.21709" lon="5.82781">
        <ele>302</ele>
        <time>2021-05-29T07:57:55Z</time>
      </trkpt>
      <trkpt lat="43.21711" lon="5.8278">
        <ele>302.2</ele>
        <time>2021-05-29T07:57:57Z</time>
      </trkpt>
      <trkpt lat="43.21712" lon="5.8278">
        <ele>302.4</ele>
        <time>2021-05-29T07:57:58Z</time>
      </trkpt>
      <trkpt lat="43.21713" lon="5.82778">
        <ele>302.6</ele>
        <time>2021-05-29T07:57:59Z</time>
      </trkpt>
      <trkpt lat="43.21714" lon="5.82777">
        <ele>302.6</ele>
        <time>2021-05-29T07:58:00Z</time>
      </trkpt>
      <trkpt lat="43.21715" lon="5.82776">
        <ele>302.8</ele>
        <time>2021-05-29T07:58:01Z</time>
      </trkpt>
      <trkpt lat="43.21716" lon="5.82776">
        <ele>303</ele>
        <time>2021-05-29T07:58:02Z</time>
      </trkpt>
      <trkpt lat="43.21723" lon="5.82775">
        <ele>303.6</ele>
        <time>2021-05-29T07:58:07Z</time>
      </trkpt>
      <trkpt lat="43.21724" lon="5.82774">
        <ele>303.8</ele>
        <time>2021-05-29T07:58:08Z</time>
      </trkpt>
      <trkpt lat="43.2173" lon="5.82768">
        <ele>304.8</ele>
        <time>2021-05-29T07:58:13Z</time>
      </trkpt>
      <trkpt lat="43.21735" lon="5.82764">
        <ele>305.2</ele>
        <time>2021-05-29T07:58:17Z</time>
      </trkpt>
      <trkpt lat="43.21741" lon="5.82757">
        <ele>305.8</ele>
        <time>2021-05-29T07:58:22Z</time>
      </trkpt>
      <trkpt lat="43.21746" lon="5.82751">
        <ele>306.4</ele>
        <time>2021-05-29T07:58:26Z</time>
      </trkpt>
      <trkpt lat="43.21751" lon="5.82745">
        <ele>306.8</ele>
        <time>2021-05-29T07:58:30Z</time>
      </trkpt>
      <trkpt lat="43.21757" lon="5.82739">
        <ele>307.2</ele>
        <time>2021-05-29T07:58:34Z</time>
      </trkpt>
      <trkpt lat="43.21762" lon="5.82731">
        <ele>307.6</ele>
        <time>2021-05-29T07:58:39Z</time>
      </trkpt>
      <trkpt lat="43.21764" lon="5.82727">
        <ele>307.8</ele>
        <time>2021-05-29T07:58:41Z</time>
      </trkpt>
      <trkpt lat="43.21766" lon="5.82724">
        <ele>308.2</ele>
        <time>2021-05-29T07:58:43Z</time>
      </trkpt>
      <trkpt lat="43.21768" lon="5.8272">
        <ele>308.4</ele>
        <time>2021-05-29T07:58:45Z</time>
      </trkpt>
      <trkpt lat="43.21775" lon="5.82712">
        <ele>309</ele>
        <time>2021-05-29T07:58:50Z</time>
      </trkpt>
      <trkpt lat="43.21776" lon="5.8271">
        <ele>309.2</ele>
        <time>2021-05-29T07:58:51Z</time>
      </trkpt>
      <trkpt lat="43.2179" lon="5.82694">
        <ele>310</ele>
        <time>2021-05-29T07:58:59Z</time>
      </trkpt>
      <trkpt lat="43.21792" lon="5.82691">
        <ele>310</ele>
        <time>2021-05-29T07:59:00Z</time>
      </trkpt>
      <trkpt lat="43.21809" lon="5.82674">
        <ele>310</ele>
        <time>2021-05-29T07:59:05Z</time>
      </trkpt>
      <trkpt lat="43.21815" lon="5.82666">
        <ele>309.8</ele>
        <time>2021-05-29T07:59:07Z</time>
      </trkpt>
      <trkpt lat="43.21833" lon="5.82644">
        <ele>309.6</ele>
        <time>2021-05-29T07:59:13Z</time>
      </trkpt>
      <trkpt lat="43.21836" lon="5.8264">
        <ele>309.4</ele>
        <time>2021-05-29T07:59:14Z</time>
      </trkpt>
      <trkpt lat="43.21839" lon="5.82637">
        <ele>309.4</ele>
        <time>2021-05-29T07:59:15Z</time>
      </trkpt>
      <trkpt lat="43.21842" lon="5.82633">
        <ele>309.4</ele>
        <time>2021-05-29T07:59:16Z</time>
      </trkpt>
      <trkpt lat="43.21857" lon="5.82611">
        <ele>309.2</ele>
        <time>2021-05-29T07:59:21Z</time>
      </trkpt>
      <trkpt lat="43.21864" lon="5.82601">
        <ele>309</ele>
        <time>2021-05-29T07:59:23Z</time>
      </trkpt>
      <trkpt lat="43.21868" lon="5.82596">
        <ele>309</ele>
        <time>2021-05-29T07:59:24Z</time>
      </trkpt>
      <trkpt lat="43.21877" lon="5.82582">
        <ele>308.8</ele>
        <time>2021-05-29T07:59:27Z</time>
      </trkpt>
      <trkpt lat="43.21893" lon="5.82567">
        <ele>308.6</ele>
        <time>2021-05-29T07:59:32Z</time>
      </trkpt>
      <trkpt lat="43.21896" lon="5.82564">
        <ele>308.6</ele>
        <time>2021-05-29T07:59:33Z</time>
      </trkpt>
      <trkpt lat="43.21927" lon="5.82551">
        <ele>308.8</ele>
        <time>2021-05-29T07:59:40Z</time>
      </trkpt>
      <trkpt lat="43.21932" lon="5.82549">
        <ele>308.8</ele>
        <time>2021-05-29T07:59:41Z</time>
      </trkpt>
      <trkpt lat="43.21941" lon="5.82546">
        <ele>308.8</ele>
        <time>2021-05-29T07:59:43Z</time>
      </trkpt>
      <trkpt lat="43.21949" lon="5.82545">
        <ele>308.8</ele>
        <time>2021-05-29T07:59:45Z</time>
      </trkpt>
      <trkpt lat="43.21956" lon="5.82545">
        <ele>308.8</ele>
        <time>2021-05-29T07:59:47Z</time>
      </trkpt>
      <trkpt lat="43.21964" lon="5.82549">
        <ele>308.8</ele>
        <time>2021-05-29T07:59:49Z</time>
      </trkpt>
      <trkpt lat="43.21973" lon="5.82554">
        <ele>308.8</ele>
        <time>2021-05-29T07:59:51Z</time>
      </trkpt>
      <trkpt lat="43.21978" lon="5.82556">
        <ele>308.8</ele>
        <time>2021-05-29T07:59:52Z</time>
      </trkpt>
      <trkpt lat="43.21984" lon="5.82557">
        <ele>308.8</ele>
        <time>2021-05-29T07:59:53Z</time>
      </trkpt>
      <trkpt lat="43.22003" lon="5.82553">
        <ele>308.2</ele>
        <time>2021-05-29T07:59:56Z</time>
      </trkpt>
      <trkpt lat="43.22015" lon="5.82545">
        <ele>307.6</ele>
        <time>2021-05-29T07:59:58Z</time>
      </trkpt>
      <trkpt lat="43.22031" lon="5.82531">
        <ele>307.2</ele>
        <time>2021-05-29T08:00:01Z</time>
      </trkpt>
      <trkpt lat="43.2204" lon="5.82521">
        <ele>307</ele>
        <time>2021-05-29T08:00:03Z</time>
      </trkpt>
      <trkpt lat="43.22053" lon="5.82503">
        <ele>306.8</ele>
        <time>2021-05-29T08:00:06Z</time>
      </trkpt>
      <trkpt lat="43.22057" lon="5.82497">
        <ele>306.8</ele>
        <time>2021-05-29T08:00:07Z</time>
      </trkpt>
      <trkpt lat="43.22064" lon="5.82487">
        <ele>306.6</ele>
        <time>2021-05-29T08:00:09Z</time>
      </trkpt>
      <trkpt lat="43.22067" lon="5.82482">
        <ele>306.6</ele>
        <time>2021-05-29T08:00:10Z</time>
      </trkpt>
      <trkpt lat="43.22071" lon="5.82477">
        <ele>306.6</ele>
        <time>2021-05-29T08:00:11Z</time>
      </trkpt>
      <trkpt lat="43.22074" lon="5.82472">
        <ele>306.4</ele>
        <time>2021-05-29T08:00:12Z</time>
      </trkpt>
      <trkpt lat="43.22078" lon="5.82466">
        <ele>306.2</ele>
        <time>2021-05-29T08:00:13Z</time>
      </trkpt>
      <trkpt lat="43.22082" lon="5.8246">
        <ele>306.2</ele>
        <time>2021-05-29T08:00:14Z</time>
      </trkpt>
      <trkpt lat="43.22086" lon="5.82453">
        <ele>306.2</ele>
        <time>2021-05-29T08:00:15Z</time>
      </trkpt>
      <trkpt lat="43.22089" lon="5.82446">
        <ele>306.2</ele>
        <time>2021-05-29T08:00:16Z</time>
      </trkpt>
      <trkpt lat="43.22097" lon="5.82428">
        <ele>306.2</ele>
        <time>2021-05-29T08:00:19Z</time>
      </trkpt>
      <trkpt lat="43.22104" lon="5.82413">
        <ele>306.6</ele>
        <time>2021-05-29T08:00:22Z</time>
      </trkpt>
      <trkpt lat="43.22113" lon="5.82392">
        <ele>306.6</ele>
        <time>2021-05-29T08:00:26Z</time>
      </trkpt>
      <trkpt lat="43.22119" lon="5.82382">
        <ele>306.8</ele>
        <time>2021-05-29T08:00:28Z</time>
      </trkpt>
      <trkpt lat="43.22122" lon="5.82378">
        <ele>306.8</ele>
        <time>2021-05-29T08:00:29Z</time>
      </trkpt>
      <trkpt lat="43.22125" lon="5.82374">
        <ele>306.6</ele>
        <time>2021-05-29T08:00:30Z</time>
      </trkpt>
      <trkpt lat="43.22147" lon="5.82351">
        <ele>307</ele>
        <time>2021-05-29T08:00:37Z</time>
      </trkpt>
      <trkpt lat="43.2215" lon="5.82347">
        <ele>307</ele>
        <time>2021-05-29T08:00:38Z</time>
      </trkpt>
      <trkpt lat="43.22153" lon="5.82344">
        <ele>307</ele>
        <time>2021-05-29T08:00:39Z</time>
      </trkpt>
      <trkpt lat="43.22162" lon="5.82333">
        <ele>307</ele>
        <time>2021-05-29T08:00:42Z</time>
      </trkpt>
      <trkpt lat="43.22168" lon="5.82324">
        <ele>306.8</ele>
        <time>2021-05-29T08:00:44Z</time>
      </trkpt>
      <trkpt lat="43.22183" lon="5.82295">
        <ele>307.2</ele>
        <time>2021-05-29T08:00:50Z</time>
      </trkpt>
      <trkpt lat="43.22187" lon="5.82286">
        <ele>307.4</ele>
        <time>2021-05-29T08:00:52Z</time>
      </trkpt>
      <trkpt lat="43.22191" lon="5.82277">
        <ele>307.4</ele>
        <time>2021-05-29T08:00:54Z</time>
      </trkpt>
      <trkpt lat="43.22193" lon="5.82272">
        <ele>307.6</ele>
        <time>2021-05-29T08:00:55Z</time>
      </trkpt>
      <trkpt lat="43.22197" lon="5.82264">
        <ele>307.8</ele>
        <time>2021-05-29T08:00:57Z</time>
      </trkpt>
      <trkpt lat="43.22199" lon="5.8226">
        <ele>308</ele>
        <time>2021-05-29T08:00:58Z</time>
      </trkpt>
      <trkpt lat="43.22201" lon="5.82256">
        <ele>308</ele>
        <time>2021-05-29T08:00:59Z</time>
      </trkpt>
      <trkpt lat="43.22203" lon="5.82252">
        <ele>308.2</ele>
        <time>2021-05-29T08:01:00Z</time>
      </trkpt>
      <trkpt lat="43.22205" lon="5.82248">
        <ele>308.2</ele>
        <time>2021-05-29T08:01:01Z</time>
      </trkpt>
      <trkpt lat="43.22208" lon="5.82244">
        <ele>308.2</ele>
        <time>2021-05-29T08:01:02Z</time>
      </trkpt>
      <trkpt lat="43.2221" lon="5.8224">
        <ele>308.4</ele>
        <time>2021-05-29T08:01:03Z</time>
      </trkpt>
      <trkpt lat="43.22215" lon="5.82232">
        <ele>308.4</ele>
        <time>2021-05-29T08:01:05Z</time>
      </trkpt>
      <trkpt lat="43.2222" lon="5.82225">
        <ele>308.6</ele>
        <time>2021-05-29T08:01:07Z</time>
      </trkpt>
      <trkpt lat="43.22223" lon="5.82221">
        <ele>308.6</ele>
        <time>2021-05-29T08:01:08Z</time>
      </trkpt>
      <trkpt lat="43.22226" lon="5.82218">
        <ele>308.8</ele>
        <time>2021-05-29T08:01:09Z</time>
      </trkpt>
      <trkpt lat="43.22231" lon="5.82211">
        <ele>308.8</ele>
        <time>2021-05-29T08:01:11Z</time>
      </trkpt>
      <trkpt lat="43.22233" lon="5.82208">
        <ele>309</ele>
        <time>2021-05-29T08:01:12Z</time>
      </trkpt>
      <trkpt lat="43.22236" lon="5.82205">
        <ele>309</ele>
        <time>2021-05-29T08:01:13Z</time>
      </trkpt>
      <trkpt lat="43.22239" lon="5.82201">
        <ele>309.2</ele>
        <time>2021-05-29T08:01:14Z</time>
      </trkpt>
      <trkpt lat="43.22242" lon="5.82198">
        <ele>309.2</ele>
        <time>2021-05-29T08:01:15Z</time>
      </trkpt>
      <trkpt lat="43.22264" lon="5.8217">
        <ele>309.8</ele>
        <time>2021-05-29T08:01:24Z</time>
      </trkpt>
      <trkpt lat="43.22267" lon="5.82166">
        <ele>310</ele>
        <time>2021-05-29T08:01:25Z</time>
      </trkpt>
      <trkpt lat="43.22276" lon="5.82158">
        <ele>310.4</ele>
        <time>2021-05-29T08:01:28Z</time>
      </trkpt>
      <trkpt lat="43.22285" lon="5.82149">
        <ele>311</ele>
        <time>2021-05-29T08:01:32Z</time>
      </trkpt>
      <trkpt lat="43.22287" lon="5.82147">
        <ele>311</ele>
        <time>2021-05-29T08:01:33Z</time>
      </trkpt>
      <trkpt lat="43.22297" lon="5.82136">
        <ele>311.6</ele>
        <time>2021-05-29T08:01:37Z</time>
      </trkpt>
      <trkpt lat="43.22304" lon="5.82128">
        <ele>312</ele>
        <time>2021-05-29T08:01:40Z</time>
      </trkpt>
      <trkpt lat="43.22308" lon="5.82123">
        <ele>312</ele>
        <time>2021-05-29T08:01:42Z</time>
      </trkpt>
      <trkpt lat="43.22313" lon="5.82118">
        <ele>312.4</ele>
        <time>2021-05-29T08:01:44Z</time>
      </trkpt>
      <trkpt lat="43.22321" lon="5.8211">
        <ele>312.8</ele>
        <time>2021-05-29T08:01:47Z</time>
      </trkpt>
      <trkpt lat="43.22323" lon="5.82108">
        <ele>312.8</ele>
        <time>2021-05-29T08:01:48Z</time>
      </trkpt>
      <trkpt lat="43.22326" lon="5.82106">
        <ele>312.8</ele>
        <time>2021-05-29T08:01:49Z</time>
      </trkpt>
      <trkpt lat="43.22337" lon="5.82098">
        <ele>313.2</ele>
        <time>2021-05-29T08:01:53Z</time>
      </trkpt>
      <trkpt lat="43.22348" lon="5.8209">
        <ele>313.6</ele>
        <time>2021-05-29T08:01:57Z</time>
      </trkpt>
      <trkpt lat="43.22354" lon="5.82085">
        <ele>313.8</ele>
        <time>2021-05-29T08:01:59Z</time>
      </trkpt>
      <trkpt lat="43.22358" lon="5.82078">
        <ele>313.8</ele>
        <time>2021-05-29T08:02:01Z</time>
      </trkpt>
      <trkpt lat="43.22361" lon="5.82075">
        <ele>314</ele>
        <time>2021-05-29T08:02:02Z</time>
      </trkpt>
      <trkpt lat="43.22368" lon="5.82066">
        <ele>314</ele>
        <time>2021-05-29T08:02:05Z</time>
      </trkpt>
      <trkpt lat="43.22373" lon="5.8206">
        <ele>314.2</ele>
        <time>2021-05-29T08:02:07Z</time>
      </trkpt>
      <trkpt lat="43.22382" lon="5.82052">
        <ele>314.6</ele>
        <time>2021-05-29T08:02:10Z</time>
      </trkpt>
      <trkpt lat="43.22384" lon="5.82049">
        <ele>314.8</ele>
        <time>2021-05-29T08:02:11Z</time>
      </trkpt>
      <trkpt lat="43.22387" lon="5.82046">
        <ele>314.8</ele>
        <time>2021-05-29T08:02:12Z</time>
      </trkpt>
      <trkpt lat="43.22398" lon="5.82037">
        <ele>315.2</ele>
        <time>2021-05-29T08:02:16Z</time>
      </trkpt>
      <trkpt lat="43.224" lon="5.82035">
        <ele>315.4</ele>
        <time>2021-05-29T08:02:17Z</time>
      </trkpt>
      <trkpt lat="43.22408" lon="5.82027">
        <ele>315.6</ele>
        <time>2021-05-29T08:02:20Z</time>
      </trkpt>
      <trkpt lat="43.2242" lon="5.82016">
        <ele>316.2</ele>
        <time>2021-05-29T08:02:24Z</time>
      </trkpt>
      <trkpt lat="43.22423" lon="5.82013">
        <ele>316.2</ele>
        <time>2021-05-29T08:02:25Z</time>
      </trkpt>
      <trkpt lat="43.22432" lon="5.82004">
        <ele>316.4</ele>
        <time>2021-05-29T08:02:28Z</time>
      </trkpt>
      <trkpt lat="43.22452" lon="5.81988">
        <ele>317.4</ele>
        <time>2021-05-29T08:02:35Z</time>
      </trkpt>
      <trkpt lat="43.22475" lon="5.81974">
        <ele>318.2</ele>
        <time>2021-05-29T08:02:42Z</time>
      </trkpt>
      <trkpt lat="43.22478" lon="5.81971">
        <ele>318.4</ele>
        <time>2021-05-29T08:02:43Z</time>
      </trkpt>
      <trkpt lat="43.22497" lon="5.8195">
        <ele>318.6</ele>
        <time>2021-05-29T08:02:49Z</time>
      </trkpt>
      <trkpt lat="43.2251" lon="5.8193">
        <ele>318.6</ele>
        <time>2021-05-29T08:02:54Z</time>
      </trkpt>
      <trkpt lat="43.22519" lon="5.8192">
        <ele>319</ele>
        <time>2021-05-29T08:02:57Z</time>
      </trkpt>
      <trkpt lat="43.22527" lon="5.81909">
        <ele>319.2</ele>
        <time>2021-05-29T08:03:00Z</time>
      </trkpt>
      <trkpt lat="43.22538" lon="5.81894">
        <ele>319.4</ele>
        <time>2021-05-29T08:03:04Z</time>
      </trkpt>
      <trkpt lat="43.22544" lon="5.81886">
        <ele>319.6</ele>
        <time>2021-05-29T08:03:06Z</time>
      </trkpt>
      <trkpt lat="43.22553" lon="5.81875">
        <ele>319.6</ele>
        <time>2021-05-29T08:03:09Z</time>
      </trkpt>
      <trkpt lat="43.22569" lon="5.81855">
        <ele>319.4</ele>
        <time>2021-05-29T08:03:14Z</time>
      </trkpt>
      <trkpt lat="43.22572" lon="5.8185">
        <ele>319.4</ele>
        <time>2021-05-29T08:03:15Z</time>
      </trkpt>
      <trkpt lat="43.22576" lon="5.81846">
        <ele>319.2</ele>
        <time>2021-05-29T08:03:16Z</time>
      </trkpt>
      <trkpt lat="43.22592" lon="5.81833">
        <ele>319.2</ele>
        <time>2021-05-29T08:03:20Z</time>
      </trkpt>
      <trkpt lat="43.22616" lon="5.81814">
        <ele>319</ele>
        <time>2021-05-29T08:03:26Z</time>
      </trkpt>
      <trkpt lat="43.2262" lon="5.81811">
        <ele>319</ele>
        <time>2021-05-29T08:03:27Z</time>
      </trkpt>
      <trkpt lat="43.22627" lon="5.81807">
        <ele>319</ele>
        <time>2021-05-29T08:03:29Z</time>
      </trkpt>
      <trkpt lat="43.22649" lon="5.81793">
        <ele>318.8</ele>
        <time>2021-05-29T08:03:34Z</time>
      </trkpt>
      <trkpt lat="43.22662" lon="5.81782">
        <ele>318.8</ele>
        <time>2021-05-29T08:03:37Z</time>
      </trkpt>
      <trkpt lat="43.22699" lon="5.81749">
        <ele>318.6</ele>
        <time>2021-05-29T08:03:45Z</time>
      </trkpt>
      <trkpt lat="43.2271" lon="5.81743">
        <ele>318.4</ele>
        <time>2021-05-29T08:03:47Z</time>
      </trkpt>
      <trkpt lat="43.22726" lon="5.81737">
        <ele>318.2</ele>
        <time>2021-05-29T08:03:50Z</time>
      </trkpt>
      <trkpt lat="43.22742" lon="5.81732">
        <ele>318.2</ele>
        <time>2021-05-29T08:03:54Z</time>
      </trkpt>
      <trkpt lat="43.22758" lon="5.81731">
        <ele>319</ele>
        <time>2021-05-29T08:04:00Z</time>
      </trkpt>
      <trkpt lat="43.22762" lon="5.81731">
        <ele>319.4</ele>
        <time>2021-05-29T08:04:02Z</time>
      </trkpt>
      <trkpt lat="43.22764" lon="5.81731">
        <ele>319.6</ele>
        <time>2021-05-29T08:04:03Z</time>
      </trkpt>
      <trkpt lat="43.22771" lon="5.81731">
        <ele>320.6</ele>
        <time>2021-05-29T08:04:06Z</time>
      </trkpt>
      <trkpt lat="43.2278" lon="5.81734">
        <ele>321.6</ele>
        <time>2021-05-29T08:04:11Z</time>
      </trkpt>
      <trkpt lat="43.22788" lon="5.81737">
        <ele>322.4</ele>
        <time>2021-05-29T08:04:15Z</time>
      </trkpt>
      <trkpt lat="43.22792" lon="5.81737">
        <ele>322.6</ele>
        <time>2021-05-29T08:04:17Z</time>
      </trkpt>
      <trkpt lat="43.22796" lon="5.81738">
        <ele>322.6</ele>
        <time>2021-05-29T08:04:19Z</time>
      </trkpt>
      <trkpt lat="43.22804" lon="5.81738">
        <ele>323.4</ele>
        <time>2021-05-29T08:04:23Z</time>
      </trkpt>
      <trkpt lat="43.22808" lon="5.81739">
        <ele>323.8</ele>
        <time>2021-05-29T08:04:25Z</time>
      </trkpt>
      <trkpt lat="43.22818" lon="5.81742">
        <ele>324.2</ele>
        <time>2021-05-29T08:04:30Z</time>
      </trkpt>
      <trkpt lat="43.2283" lon="5.81743">
        <ele>324.6</ele>
        <time>2021-05-29T08:04:36Z</time>
      </trkpt>
      <trkpt lat="43.22834" lon="5.81743">
        <ele>324.8</ele>
        <time>2021-05-29T08:04:38Z</time>
      </trkpt>
      <trkpt lat="43.22842" lon="5.81743">
        <ele>325.2</ele>
        <time>2021-05-29T08:04:42Z</time>
      </trkpt>
      <trkpt lat="43.22854" lon="5.81744">
        <ele>325.8</ele>
        <time>2021-05-29T08:04:48Z</time>
      </trkpt>
      <trkpt lat="43.22856" lon="5.81744">
        <ele>325.8</ele>
        <time>2021-05-29T08:04:49Z</time>
      </trkpt>
      <trkpt lat="43.22857" lon="5.81744">
        <ele>326</ele>
        <time>2021-05-29T08:04:50Z</time>
      </trkpt>
      <trkpt lat="43.22866" lon="5.81745">
        <ele>326.8</ele>
        <time>2021-05-29T08:04:55Z</time>
      </trkpt>
      <trkpt lat="43.22867" lon="5.81745">
        <ele>327</ele>
        <time>2021-05-29T08:04:56Z</time>
      </trkpt>
      <trkpt lat="43.22868" lon="5.81745">
        <ele>327</ele>
        <time>2021-05-29T08:04:57Z</time>
      </trkpt>
      <trkpt lat="43.22875" lon="5.81747">
        <ele>327.6</ele>
        <time>2021-05-29T08:05:01Z</time>
      </trkpt>
      <trkpt lat="43.22879" lon="5.81748">
        <ele>328</ele>
        <time>2021-05-29T08:05:04Z</time>
      </trkpt>
      <trkpt lat="43.22884" lon="5.81748">
        <ele>328.8</ele>
        <time>2021-05-29T08:05:07Z</time>
      </trkpt>
      <trkpt lat="43.22889" lon="5.81749">
        <ele>329.2</ele>
        <time>2021-05-29T08:05:10Z</time>
      </trkpt>
      <trkpt lat="43.22891" lon="5.8175">
        <ele>329.4</ele>
        <time>2021-05-29T08:05:12Z</time>
      </trkpt>
      <trkpt lat="43.22893" lon="5.8175">
        <ele>329.4</ele>
        <time>2021-05-29T08:05:13Z</time>
      </trkpt>
      <trkpt lat="43.22899" lon="5.81749">
        <ele>330.2</ele>
        <time>2021-05-29T08:05:17Z</time>
      </trkpt>
      <trkpt lat="43.22901" lon="5.81751">
        <ele>330.4</ele>
        <time>2021-05-29T08:05:19Z</time>
      </trkpt>
      <trkpt lat="43.22903" lon="5.81751">
        <ele>330.6</ele>
        <time>2021-05-29T08:05:20Z</time>
      </trkpt>
      <trkpt lat="43.22909" lon="5.81753">
        <ele>331.2</ele>
        <time>2021-05-29T08:05:24Z</time>
      </trkpt>
      <trkpt lat="43.22911" lon="5.81753">
        <ele>331.4</ele>
        <time>2021-05-29T08:05:25Z</time>
      </trkpt>
      <trkpt lat="43.2292" lon="5.81755">
        <ele>332.2</ele>
        <time>2021-05-29T08:05:31Z</time>
      </trkpt>
      <trkpt lat="43.22925" lon="5.81755">
        <ele>332.6</ele>
        <time>2021-05-29T08:05:35Z</time>
      </trkpt>
      <trkpt lat="43.22935" lon="5.81755">
        <ele>333.4</ele>
        <time>2021-05-29T08:05:41Z</time>
      </trkpt>
      <trkpt lat="43.22939" lon="5.81756">
        <ele>333.6</ele>
        <time>2021-05-29T08:05:43Z</time>
      </trkpt>
      <trkpt lat="43.22952" lon="5.81756">
        <ele>334.2</ele>
        <time>2021-05-29T08:05:51Z</time>
      </trkpt>
      <trkpt lat="43.22955" lon="5.81757">
        <ele>334.4</ele>
        <time>2021-05-29T08:05:53Z</time>
      </trkpt>
      <trkpt lat="43.22962" lon="5.81755">
        <ele>334.8</ele>
        <time>2021-05-29T08:05:57Z</time>
      </trkpt>
      <trkpt lat="43.22968" lon="5.81755">
        <ele>335.4</ele>
        <time>2021-05-29T08:06:01Z</time>
      </trkpt>
      <trkpt lat="43.22976" lon="5.81754">
        <ele>336.2</ele>
        <time>2021-05-29T08:06:06Z</time>
      </trkpt>
      <trkpt lat="43.22978" lon="5.81754">
        <ele>336.2</ele>
        <time>2021-05-29T08:06:07Z</time>
      </trkpt>
      <trkpt lat="43.22983" lon="5.81755">
        <ele>336.6</ele>
        <time>2021-05-29T08:06:10Z</time>
      </trkpt>
      <trkpt lat="43.22984" lon="5.81755">
        <ele>336.8</ele>
        <time>2021-05-29T08:06:11Z</time>
      </trkpt>
      <trkpt lat="43.22989" lon="5.81752">
        <ele>337.2</ele>
        <time>2021-05-29T08:06:14Z</time>
      </trkpt>
      <trkpt lat="43.22992" lon="5.81752">
        <ele>337.4</ele>
        <time>2021-05-29T08:06:16Z</time>
      </trkpt>
      <trkpt lat="43.22993" lon="5.81753">
        <ele>337.6</ele>
        <time>2021-05-29T08:06:17Z</time>
      </trkpt>
      <trkpt lat="43.22996" lon="5.81754">
        <ele>337.6</ele>
        <time>2021-05-29T08:06:19Z</time>
      </trkpt>
      <trkpt lat="43.22998" lon="5.81753">
        <ele>338</ele>
        <time>2021-05-29T08:06:20Z</time>
      </trkpt>
      <trkpt lat="43.23001" lon="5.81751">
        <ele>338</ele>
        <time>2021-05-29T08:06:22Z</time>
      </trkpt>
      <trkpt lat="43.23004" lon="5.8175">
        <ele>338.4</ele>
        <time>2021-05-29T08:06:24Z</time>
      </trkpt>
      <trkpt lat="43.23008" lon="5.81752">
        <ele>338.8</ele>
        <time>2021-05-29T08:06:27Z</time>
      </trkpt>
      <trkpt lat="43.23011" lon="5.81751">
        <ele>339</ele>
        <time>2021-05-29T08:06:29Z</time>
      </trkpt>
      <trkpt lat="43.23015" lon="5.81751">
        <ele>339.2</ele>
        <time>2021-05-29T08:06:32Z</time>
      </trkpt>
      <trkpt lat="43.23022" lon="5.81752">
        <ele>339.6</ele>
        <time>2021-05-29T08:06:36Z</time>
      </trkpt>
      <trkpt lat="43.23024" lon="5.81751">
        <ele>339.8</ele>
        <time>2021-05-29T08:06:38Z</time>
      </trkpt>
      <trkpt lat="43.23026" lon="5.81751">
        <ele>340</ele>
        <time>2021-05-29T08:06:39Z</time>
      </trkpt>
      <trkpt lat="43.23038" lon="5.81747">
        <ele>340.6</ele>
        <time>2021-05-29T08:06:46Z</time>
      </trkpt>
      <trkpt lat="43.23043" lon="5.81746">
        <ele>341.2</ele>
        <time>2021-05-29T08:06:49Z</time>
      </trkpt>
      <trkpt lat="43.23055" lon="5.81744">
        <ele>341.8</ele>
        <time>2021-05-29T08:06:57Z</time>
      </trkpt>
      <trkpt lat="43.2306" lon="5.81742">
        <ele>342.2</ele>
        <time>2021-05-29T08:07:00Z</time>
      </trkpt>
      <trkpt lat="43.23068" lon="5.81738">
        <ele>342.6</ele>
        <time>2021-05-29T08:07:05Z</time>
      </trkpt>
      <trkpt lat="43.23074" lon="5.81735">
        <ele>343</ele>
        <time>2021-05-29T08:07:09Z</time>
      </trkpt>
      <trkpt lat="43.23078" lon="5.81732">
        <ele>343.4</ele>
        <time>2021-05-29T08:07:12Z</time>
      </trkpt>
      <trkpt lat="43.2309" lon="5.81726">
        <ele>344.2</ele>
        <time>2021-05-29T08:07:19Z</time>
      </trkpt>
      <trkpt lat="43.23092" lon="5.81726">
        <ele>344.4</ele>
        <time>2021-05-29T08:07:21Z</time>
      </trkpt>
      <trkpt lat="43.23104" lon="5.81718">
        <ele>345.2</ele>
        <time>2021-05-29T08:07:29Z</time>
      </trkpt>
      <trkpt lat="43.23108" lon="5.81715">
        <ele>345.6</ele>
        <time>2021-05-29T08:07:32Z</time>
      </trkpt>
      <trkpt lat="43.23115" lon="5.8171">
        <ele>346.2</ele>
        <time>2021-05-29T08:07:37Z</time>
      </trkpt>
      <trkpt lat="43.2312" lon="5.81707">
        <ele>346.6</ele>
        <time>2021-05-29T08:07:40Z</time>
      </trkpt>
      <trkpt lat="43.23121" lon="5.81706">
        <ele>346.8</ele>
        <time>2021-05-29T08:07:41Z</time>
      </trkpt>
      <trkpt lat="43.23126" lon="5.817">
        <ele>347.2</ele>
        <time>2021-05-29T08:07:45Z</time>
      </trkpt>
      <trkpt lat="43.23132" lon="5.81696">
        <ele>347.8</ele>
        <time>2021-05-29T08:07:49Z</time>
      </trkpt>
      <trkpt lat="43.23138" lon="5.8169">
        <ele>348.4</ele>
        <time>2021-05-29T08:07:53Z</time>
      </trkpt>
      <trkpt lat="43.23143" lon="5.81684">
        <ele>349</ele>
        <time>2021-05-29T08:07:57Z</time>
      </trkpt>
      <trkpt lat="43.2315" lon="5.81677">
        <ele>349.2</ele>
        <time>2021-05-29T08:08:02Z</time>
      </trkpt>
      <trkpt lat="43.23154" lon="5.81674">
        <ele>349.8</ele>
        <time>2021-05-29T08:08:05Z</time>
      </trkpt>
      <trkpt lat="43.23161" lon="5.8167">
        <ele>350.4</ele>
        <time>2021-05-29T08:08:09Z</time>
      </trkpt>
      <trkpt lat="43.23163" lon="5.81667">
        <ele>350.8</ele>
        <time>2021-05-29T08:08:11Z</time>
      </trkpt>
      <trkpt lat="43.2317" lon="5.81661">
        <ele>351.6</ele>
        <time>2021-05-29T08:08:16Z</time>
      </trkpt>
      <trkpt lat="43.23174" lon="5.81657">
        <ele>352.2</ele>
        <time>2021-05-29T08:08:19Z</time>
      </trkpt>
      <trkpt lat="43.23179" lon="5.81653">
        <ele>352.6</ele>
        <time>2021-05-29T08:08:22Z</time>
      </trkpt>
      <trkpt lat="43.23186" lon="5.81647">
        <ele>353.2</ele>
        <time>2021-05-29T08:08:27Z</time>
      </trkpt>
      <trkpt lat="43.23188" lon="5.81644">
        <ele>353.6</ele>
        <time>2021-05-29T08:08:29Z</time>
      </trkpt>
      <trkpt lat="43.23194" lon="5.81637">
        <ele>354.2</ele>
        <time>2021-05-29T08:08:34Z</time>
      </trkpt>
      <trkpt lat="43.23196" lon="5.81636">
        <ele>354.6</ele>
        <time>2021-05-29T08:08:35Z</time>
      </trkpt>
      <trkpt lat="43.23197" lon="5.81634">
        <ele>354.8</ele>
        <time>2021-05-29T08:08:36Z</time>
      </trkpt>
      <trkpt lat="43.23208" lon="5.81624">
        <ele>355.8</ele>
        <time>2021-05-29T08:08:44Z</time>
      </trkpt>
      <trkpt lat="43.2321" lon="5.81622">
        <ele>356</ele>
        <time>2021-05-29T08:08:46Z</time>
      </trkpt>
      <trkpt lat="43.23218" lon="5.81615">
        <ele>356.8</ele>
        <time>2021-05-29T08:08:52Z</time>
      </trkpt>
      <trkpt lat="43.23231" lon="5.81603">
        <ele>357.8</ele>
        <time>2021-05-29T08:09:01Z</time>
      </trkpt>
      <trkpt lat="43.23232" lon="5.81602">
        <ele>358</ele>
        <time>2021-05-29T08:09:02Z</time>
      </trkpt>
      <trkpt lat="43.23237" lon="5.81599">
        <ele>358.6</ele>
        <time>2021-05-29T08:09:05Z</time>
      </trkpt>
      <trkpt lat="43.23244" lon="5.81593">
        <ele>359</ele>
        <time>2021-05-29T08:09:10Z</time>
      </trkpt>
      <trkpt lat="43.23245" lon="5.81593">
        <ele>359.2</ele>
        <time>2021-05-29T08:09:11Z</time>
      </trkpt>
      <trkpt lat="43.23247" lon="5.81592">
        <ele>359.2</ele>
        <time>2021-05-29T08:09:12Z</time>
      </trkpt>
      <trkpt lat="43.23255" lon="5.81587">
        <ele>360.2</ele>
        <time>2021-05-29T08:09:18Z</time>
      </trkpt>
      <trkpt lat="43.23258" lon="5.81585">
        <ele>360.4</ele>
        <time>2021-05-29T08:09:20Z</time>
      </trkpt>
      <trkpt lat="43.23265" lon="5.81582">
        <ele>361.4</ele>
        <time>2021-05-29T08:09:25Z</time>
      </trkpt>
      <trkpt lat="43.23276" lon="5.81576">
        <ele>362.6</ele>
        <time>2021-05-29T08:09:32Z</time>
      </trkpt>
      <trkpt lat="43.23286" lon="5.81572">
        <ele>363.6</ele>
        <time>2021-05-29T08:09:39Z</time>
      </trkpt>
      <trkpt lat="43.23289" lon="5.81571">
        <ele>364</ele>
        <time>2021-05-29T08:09:41Z</time>
      </trkpt>
      <trkpt lat="43.23296" lon="5.81567">
        <ele>364.8</ele>
        <time>2021-05-29T08:09:46Z</time>
      </trkpt>
      <trkpt lat="43.23302" lon="5.81564">
        <ele>365.2</ele>
        <time>2021-05-29T08:09:50Z</time>
      </trkpt>
      <trkpt lat="43.23309" lon="5.81561">
        <ele>366</ele>
        <time>2021-05-29T08:09:55Z</time>
      </trkpt>
      <trkpt lat="43.23316" lon="5.81558">
        <ele>366.4</ele>
        <time>2021-05-29T08:09:59Z</time>
      </trkpt>
      <trkpt lat="43.23329" lon="5.81552">
        <ele>367</ele>
        <time>2021-05-29T08:10:06Z</time>
      </trkpt>
      <trkpt lat="43.23331" lon="5.81551">
        <ele>367</ele>
        <time>2021-05-29T08:10:07Z</time>
      </trkpt>
      <trkpt lat="43.23345" lon="5.81541">
        <ele>367.4</ele>
        <time>2021-05-29T08:10:13Z</time>
      </trkpt>
      <trkpt lat="43.23361" lon="5.81526">
        <ele>367.6</ele>
        <time>2021-05-29T08:10:18Z</time>
      </trkpt>
      <trkpt lat="43.23372" lon="5.81511">
        <ele>367.6</ele>
        <time>2021-05-29T08:10:22Z</time>
      </trkpt>
      <trkpt lat="43.23377" lon="5.81503">
        <ele>367.6</ele>
        <time>2021-05-29T08:10:24Z</time>
      </trkpt>
      <trkpt lat="43.23382" lon="5.81493">
        <ele>367.4</ele>
        <time>2021-05-29T08:10:26Z</time>
      </trkpt>
      <trkpt lat="43.23394" lon="5.81472">
        <ele>367</ele>
        <time>2021-05-29T08:10:30Z</time>
      </trkpt>
      <trkpt lat="43.23403" lon="5.8145">
        <ele>366.8</ele>
        <time>2021-05-29T08:10:34Z</time>
      </trkpt>
      <trkpt lat="43.2341" lon="5.81432">
        <ele>366.6</ele>
        <time>2021-05-29T08:10:37Z</time>
      </trkpt>
      <trkpt lat="43.23416" lon="5.81418">
        <ele>366.4</ele>
        <time>2021-05-29T08:10:39Z</time>
      </trkpt>
      <trkpt lat="43.23422" lon="5.81403">
        <ele>366.2</ele>
        <time>2021-05-29T08:10:41Z</time>
      </trkpt>
      <trkpt lat="43.23428" lon="5.81388">
        <ele>366</ele>
        <time>2021-05-29T08:10:43Z</time>
      </trkpt>
      <trkpt lat="43.23431" lon="5.8138">
        <ele>365.6</ele>
        <time>2021-05-29T08:10:44Z</time>
      </trkpt>
      <trkpt lat="43.23443" lon="5.81354">
        <ele>364.8</ele>
        <time>2021-05-29T08:10:47Z</time>
      </trkpt>
      <trkpt lat="43.23448" lon="5.81345">
        <ele>364.6</ele>
        <time>2021-05-29T08:10:48Z</time>
      </trkpt>
      <trkpt lat="43.23458" lon="5.81328">
        <ele>364</ele>
        <time>2021-05-29T08:10:50Z</time>
      </trkpt>
      <trkpt lat="43.23463" lon="5.8132">
        <ele>363.8</ele>
        <time>2021-05-29T08:10:51Z</time>
      </trkpt>
      <trkpt lat="43.23469" lon="5.81314">
        <ele>363.6</ele>
        <time>2021-05-29T08:10:52Z</time>
      </trkpt>
      <trkpt lat="43.2348" lon="5.81305">
        <ele>363</ele>
        <time>2021-05-29T08:10:54Z</time>
      </trkpt>
      <trkpt lat="43.23495" lon="5.81296">
        <ele>362.8</ele>
        <time>2021-05-29T08:10:57Z</time>
      </trkpt>
      <trkpt lat="43.23499" lon="5.81294">
        <ele>362.6</ele>
        <time>2021-05-29T08:10:58Z</time>
      </trkpt>
      <trkpt lat="43.23503" lon="5.81292">
        <ele>362.6</ele>
        <time>2021-05-29T08:10:59Z</time>
      </trkpt>
      <trkpt lat="43.23511" lon="5.81285">
        <ele>362.6</ele>
        <time>2021-05-29T08:11:01Z</time>
      </trkpt>
      <trkpt lat="43.23523" lon="5.81272">
        <ele>363</ele>
        <time>2021-05-29T08:11:05Z</time>
      </trkpt>
      <trkpt lat="43.23544" lon="5.81251">
        <ele>363.8</ele>
        <time>2021-05-29T08:11:12Z</time>
      </trkpt>
      <trkpt lat="43.23559" lon="5.81234">
        <ele>364</ele>
        <time>2021-05-29T08:11:18Z</time>
      </trkpt>
      <trkpt lat="43.23572" lon="5.81218">
        <ele>364.8</ele>
        <time>2021-05-29T08:11:24Z</time>
      </trkpt>
      <trkpt lat="43.2359" lon="5.81198">
        <ele>365.6</ele>
        <time>2021-05-29T08:11:32Z</time>
      </trkpt>
      <trkpt lat="43.23596" lon="5.81193">
        <ele>365.8</ele>
        <time>2021-05-29T08:11:35Z</time>
      </trkpt>
      <trkpt lat="43.23602" lon="5.81186">
        <ele>366.2</ele>
        <time>2021-05-29T08:11:38Z</time>
      </trkpt>
      <trkpt lat="43.23605" lon="5.81181">
        <ele>366.6</ele>
        <time>2021-05-29T08:11:40Z</time>
      </trkpt>
      <trkpt lat="43.2361" lon="5.81176">
        <ele>366.6</ele>
        <time>2021-05-29T08:11:42Z</time>
      </trkpt>
      <trkpt lat="43.23612" lon="5.81173">
        <ele>366.8</ele>
        <time>2021-05-29T08:11:43Z</time>
      </trkpt>
      <trkpt lat="43.23614" lon="5.8117">
        <ele>367</ele>
        <time>2021-05-29T08:11:44Z</time>
      </trkpt>
      <trkpt lat="43.23616" lon="5.81168">
        <ele>367</ele>
        <time>2021-05-29T08:11:45Z</time>
      </trkpt>
      <trkpt lat="43.23626" lon="5.81155">
        <ele>367.4</ele>
        <time>2021-05-29T08:11:50Z</time>
      </trkpt>
      <trkpt lat="43.23633" lon="5.81146">
        <ele>367.6</ele>
        <time>2021-05-29T08:11:53Z</time>
      </trkpt>
      <trkpt lat="43.23645" lon="5.81133">
        <ele>368</ele>
        <time>2021-05-29T08:11:58Z</time>
      </trkpt>
      <trkpt lat="43.23657" lon="5.81123">
        <ele>368.2</ele>
        <time>2021-05-29T08:12:02Z</time>
      </trkpt>
      <trkpt lat="43.23674" lon="5.81105">
        <ele>368.6</ele>
        <time>2021-05-29T08:12:09Z</time>
      </trkpt>
      <trkpt lat="43.23676" lon="5.81102">
        <ele>368.6</ele>
        <time>2021-05-29T08:12:10Z</time>
      </trkpt>
      <trkpt lat="43.23683" lon="5.81091">
        <ele>368.8</ele>
        <time>2021-05-29T08:12:14Z</time>
      </trkpt>
      <trkpt lat="43.23687" lon="5.81085">
        <ele>369</ele>
        <time>2021-05-29T08:12:16Z</time>
      </trkpt>
      <trkpt lat="43.23689" lon="5.81082">
        <ele>369</ele>
        <time>2021-05-29T08:12:17Z</time>
      </trkpt>
      <trkpt lat="43.23696" lon="5.81066">
        <ele>369.8</ele>
        <time>2021-05-29T08:12:22Z</time>
      </trkpt>
      <trkpt lat="43.23697" lon="5.81063">
        <ele>369.8</ele>
        <time>2021-05-29T08:12:23Z</time>
      </trkpt>
      <trkpt lat="43.23699" lon="5.8106">
        <ele>369.8</ele>
        <time>2021-05-29T08:12:24Z</time>
      </trkpt>
      <trkpt lat="43.237" lon="5.81056">
        <ele>370</ele>
        <time>2021-05-29T08:12:25Z</time>
      </trkpt>
      <trkpt lat="43.23709" lon="5.81037">
        <ele>370.4</ele>
        <time>2021-05-29T08:12:30Z</time>
      </trkpt>
      <trkpt lat="43.23713" lon="5.81028">
        <ele>370.6</ele>
        <time>2021-05-29T08:12:32Z</time>
      </trkpt>
      <trkpt lat="43.23719" lon="5.81014">
        <ele>371</ele>
        <time>2021-05-29T08:12:35Z</time>
      </trkpt>
      <trkpt lat="43.23721" lon="5.81008">
        <ele>371</ele>
        <time>2021-05-29T08:12:36Z</time>
      </trkpt>
      <trkpt lat="43.23732" lon="5.80982">
        <ele>370.8</ele>
        <time>2021-05-29T08:12:41Z</time>
      </trkpt>
      <trkpt lat="43.23747" lon="5.80948">
        <ele>370.2</ele>
        <time>2021-05-29T08:12:48Z</time>
      </trkpt>
      <trkpt lat="43.23771" lon="5.80903">
        <ele>370.4</ele>
        <time>2021-05-29T08:12:58Z</time>
      </trkpt>
      <trkpt lat="43.2379" lon="5.80881">
        <ele>371.4</ele>
        <time>2021-05-29T08:13:05Z</time>
      </trkpt>
      <trkpt lat="43.23793" lon="5.80878">
        <ele>371.6</ele>
        <time>2021-05-29T08:13:06Z</time>
      </trkpt>
      <trkpt lat="43.23816" lon="5.80858">
        <ele>371.8</ele>
        <time>2021-05-29T08:13:13Z</time>
      </trkpt>
      <trkpt lat="43.23825" lon="5.80848">
        <ele>371.8</ele>
        <time>2021-05-29T08:13:16Z</time>
      </trkpt>
      <trkpt lat="43.23844" lon="5.80829">
        <ele>372.6</ele>
        <time>2021-05-29T08:13:23Z</time>
      </trkpt>
      <trkpt lat="43.23855" lon="5.80823">
        <ele>372.8</ele>
        <time>2021-05-29T08:13:26Z</time>
      </trkpt>
      <trkpt lat="43.2387" lon="5.80816">
        <ele>373.2</ele>
        <time>2021-05-29T08:13:30Z</time>
      </trkpt>
      <trkpt lat="43.23884" lon="5.80797">
        <ele>373.2</ele>
        <time>2021-05-29T08:13:35Z</time>
      </trkpt>
      <trkpt lat="43.23887" lon="5.80792">
        <ele>373.2</ele>
        <time>2021-05-29T08:13:36Z</time>
      </trkpt>
      <trkpt lat="43.23892" lon="5.80783">
        <ele>373.4</ele>
        <time>2021-05-29T08:13:38Z</time>
      </trkpt>
      <trkpt lat="43.23908" lon="5.80756">
        <ele>373.6</ele>
        <time>2021-05-29T08:13:44Z</time>
      </trkpt>
      <trkpt lat="43.23912" lon="5.80747">
        <ele>373.6</ele>
        <time>2021-05-29T08:13:46Z</time>
      </trkpt>
      <trkpt lat="43.23922" lon="5.8073">
        <ele>374</ele>
        <time>2021-05-29T08:13:50Z</time>
      </trkpt>
      <trkpt lat="43.23927" lon="5.80722">
        <ele>374</ele>
        <time>2021-05-29T08:13:52Z</time>
      </trkpt>
      <trkpt lat="43.2393" lon="5.80716">
        <ele>374.2</ele>
        <time>2021-05-29T08:13:54Z</time>
      </trkpt>
      <trkpt lat="43.23936" lon="5.80707">
        <ele>374.6</ele>
        <time>2021-05-29T08:13:57Z</time>
      </trkpt>
      <trkpt lat="43.23939" lon="5.80704">
        <ele>374.8</ele>
        <time>2021-05-29T08:13:58Z</time>
      </trkpt>
      <trkpt lat="43.23941" lon="5.80701">
        <ele>375</ele>
        <time>2021-05-29T08:13:59Z</time>
      </trkpt>
      <trkpt lat="43.23954" lon="5.80685">
        <ele>375.6</ele>
        <time>2021-05-29T08:14:04Z</time>
      </trkpt>
      <trkpt lat="43.23956" lon="5.80682">
        <ele>375.6</ele>
        <time>2021-05-29T08:14:05Z</time>
      </trkpt>
      <trkpt lat="43.23959" lon="5.80679">
        <ele>375.8</ele>
        <time>2021-05-29T08:14:06Z</time>
      </trkpt>
      <trkpt lat="43.23967" lon="5.80671">
        <ele>376.2</ele>
        <time>2021-05-29T08:14:09Z</time>
      </trkpt>
      <trkpt lat="43.23969" lon="5.80668">
        <ele>376.4</ele>
        <time>2021-05-29T08:14:10Z</time>
      </trkpt>
      <trkpt lat="43.23997" lon="5.80635">
        <ele>377</ele>
        <time>2021-05-29T08:14:19Z</time>
      </trkpt>
      <trkpt lat="43.23999" lon="5.80631">
        <ele>377</ele>
        <time>2021-05-29T08:14:20Z</time>
      </trkpt>
      <trkpt lat="43.24015" lon="5.80608">
        <ele>376.4</ele>
        <time>2021-05-29T08:14:26Z</time>
      </trkpt>
      <trkpt lat="43.24031" lon="5.80584">
        <ele>376.4</ele>
        <time>2021-05-29T08:14:33Z</time>
      </trkpt>
      <trkpt lat="43.24044" lon="5.80563">
        <ele>376.4</ele>
        <time>2021-05-29T08:14:40Z</time>
      </trkpt>
      <trkpt lat="43.24058" lon="5.80538">
        <ele>376.4</ele>
        <time>2021-05-29T08:14:49Z</time>
      </trkpt>
      <trkpt lat="43.24063" lon="5.80528">
        <ele>376.4</ele>
        <time>2021-05-29T08:14:55Z</time>
      </trkpt>
      <trkpt lat="43.24063" lon="5.80531">
        <ele>376.6</ele>
        <time>2021-05-29T08:15:02Z</time>
      </trkpt>
      <trkpt lat="43.24072" lon="5.80501">
        <ele>376.2</ele>
        <time>2021-05-29T08:17:04Z</time>
      </trkpt>
      <trkpt lat="43.24073" lon="5.80498">
        <ele>376.4</ele>
        <time>2021-05-29T08:17:05Z</time>
      </trkpt>
      <trkpt lat="43.24075" lon="5.8049">
        <ele>376.8</ele>
        <time>2021-05-29T08:17:07Z</time>
      </trkpt>
      <trkpt lat="43.24076" lon="5.80482">
        <ele>376.8</ele>
        <time>2021-05-29T08:17:09Z</time>
      </trkpt>
      <trkpt lat="43.24077" lon="5.80479">
        <ele>377</ele>
        <time>2021-05-29T08:17:10Z</time>
      </trkpt>
      <trkpt lat="43.24078" lon="5.80475">
        <ele>377</ele>
        <time>2021-05-29T08:17:11Z</time>
      </trkpt>
      <trkpt lat="43.24079" lon="5.80472">
        <ele>377.2</ele>
        <time>2021-05-29T08:17:12Z</time>
      </trkpt>
      <trkpt lat="43.24082" lon="5.80461">
        <ele>377.6</ele>
        <time>2021-05-29T08:17:15Z</time>
      </trkpt>
      <trkpt lat="43.24083" lon="5.80457">
        <ele>377.6</ele>
        <time>2021-05-29T08:17:16Z</time>
      </trkpt>
      <trkpt lat="43.24085" lon="5.80449">
        <ele>377.6</ele>
        <time>2021-05-29T08:17:18Z</time>
      </trkpt>
      <trkpt lat="43.24085" lon="5.80445">
        <ele>377.6</ele>
        <time>2021-05-29T08:17:19Z</time>
      </trkpt>
      <trkpt lat="43.24093" lon="5.80416">
        <ele>378.2</ele>
        <time>2021-05-29T08:17:27Z</time>
      </trkpt>
      <trkpt lat="43.24097" lon="5.80401">
        <ele>378.6</ele>
        <time>2021-05-29T08:17:31Z</time>
      </trkpt>
      <trkpt lat="43.24099" lon="5.80393">
        <ele>378.8</ele>
        <time>2021-05-29T08:17:33Z</time>
      </trkpt>
      <trkpt lat="43.24101" lon="5.80367">
        <ele>379.2</ele>
        <time>2021-05-29T08:17:40Z</time>
      </trkpt>
      <trkpt lat="43.24098" lon="5.80335">
        <ele>379.8</ele>
        <time>2021-05-29T08:17:48Z</time>
      </trkpt>
      <trkpt lat="43.24096" lon="5.8031">
        <ele>380.4</ele>
        <time>2021-05-29T08:17:55Z</time>
      </trkpt>
      <trkpt lat="43.24098" lon="5.80293">
        <ele>381</ele>
        <time>2021-05-29T08:18:00Z</time>
      </trkpt>
      <trkpt lat="43.24099" lon="5.8029">
        <ele>381</ele>
        <time>2021-05-29T08:18:01Z</time>
      </trkpt>
      <trkpt lat="43.24108" lon="5.80269">
        <ele>381.8</ele>
        <time>2021-05-29T08:18:08Z</time>
      </trkpt>
      <trkpt lat="43.2411" lon="5.80267">
        <ele>382</ele>
        <time>2021-05-29T08:18:09Z</time>
      </trkpt>
      <trkpt lat="43.24122" lon="5.80262">
        <ele>382.6</ele>
        <time>2021-05-29T08:18:14Z</time>
      </trkpt>
      <trkpt lat="43.24134" lon="5.80264">
        <ele>383</ele>
        <time>2021-05-29T08:18:19Z</time>
      </trkpt>
      <trkpt lat="43.24135" lon="5.80265">
        <ele>383.2</ele>
        <time>2021-05-29T08:18:20Z</time>
      </trkpt>
      <trkpt lat="43.24137" lon="5.8027">
        <ele>383.6</ele>
        <time>2021-05-29T08:18:22Z</time>
      </trkpt>
      <trkpt lat="43.24138" lon="5.80279">
        <ele>384.2</ele>
        <time>2021-05-29T08:18:25Z</time>
      </trkpt>
      <trkpt lat="43.2414" lon="5.8029">
        <ele>384.6</ele>
        <time>2021-05-29T08:18:29Z</time>
      </trkpt>
      <trkpt lat="43.24142" lon="5.80298">
        <ele>385</ele>
        <time>2021-05-29T08:18:32Z</time>
      </trkpt>
      <trkpt lat="43.24142" lon="5.80301">
        <ele>385.2</ele>
        <time>2021-05-29T08:18:33Z</time>
      </trkpt>
      <trkpt lat="43.24145" lon="5.80323">
        <ele>386.2</ele>
        <time>2021-05-29T08:18:41Z</time>
      </trkpt>
      <trkpt lat="43.24146" lon="5.80326">
        <ele>386.4</ele>
        <time>2021-05-29T08:18:42Z</time>
      </trkpt>
      <trkpt lat="43.24149" lon="5.80349">
        <ele>387.2</ele>
        <time>2021-05-29T08:18:50Z</time>
      </trkpt>
      <trkpt lat="43.24149" lon="5.80358">
        <ele>387.6</ele>
        <time>2021-05-29T08:18:53Z</time>
      </trkpt>
      <trkpt lat="43.24151" lon="5.80375">
        <ele>388.2</ele>
        <time>2021-05-29T08:18:58Z</time>
      </trkpt>
      <trkpt lat="43.24153" lon="5.80387">
        <ele>388.8</ele>
        <time>2021-05-29T08:19:02Z</time>
      </trkpt>
      <trkpt lat="43.24153" lon="5.80396">
        <ele>389.4</ele>
        <time>2021-05-29T08:19:05Z</time>
      </trkpt>
      <trkpt lat="43.24154" lon="5.80419">
        <ele>390.4</ele>
        <time>2021-05-29T08:19:13Z</time>
      </trkpt>
      <trkpt lat="43.24154" lon="5.80421">
        <ele>390.4</ele>
        <time>2021-05-29T08:19:14Z</time>
      </trkpt>
      <trkpt lat="43.24153" lon="5.80438">
        <ele>391.6</ele>
        <time>2021-05-29T08:19:20Z</time>
      </trkpt>
      <trkpt lat="43.24153" lon="5.80441">
        <ele>391.6</ele>
        <time>2021-05-29T08:19:21Z</time>
      </trkpt>
      <trkpt lat="43.24151" lon="5.80462">
        <ele>392.6</ele>
        <time>2021-05-29T08:19:29Z</time>
      </trkpt>
      <trkpt lat="43.24147" lon="5.80487">
        <ele>393.8</ele>
        <time>2021-05-29T08:19:38Z</time>
      </trkpt>
      <trkpt lat="43.24146" lon="5.80493">
        <ele>394</ele>
        <time>2021-05-29T08:19:40Z</time>
      </trkpt>
      <trkpt lat="43.24144" lon="5.8051">
        <ele>394.8</ele>
        <time>2021-05-29T08:19:46Z</time>
      </trkpt>
      <trkpt lat="43.24142" lon="5.80519">
        <ele>395</ele>
        <time>2021-05-29T08:19:49Z</time>
      </trkpt>
      <trkpt lat="43.24139" lon="5.80539">
        <ele>396</ele>
        <time>2021-05-29T08:19:56Z</time>
      </trkpt>
      <trkpt lat="43.24137" lon="5.80547">
        <ele>396.4</ele>
        <time>2021-05-29T08:19:59Z</time>
      </trkpt>
      <trkpt lat="43.24134" lon="5.80561">
        <ele>397</ele>
        <time>2021-05-29T08:20:04Z</time>
      </trkpt>
      <trkpt lat="43.24132" lon="5.8057">
        <ele>397.6</ele>
        <time>2021-05-29T08:20:07Z</time>
      </trkpt>
      <trkpt lat="43.24128" lon="5.80585">
        <ele>398.2</ele>
        <time>2021-05-29T08:20:12Z</time>
      </trkpt>
      <trkpt lat="43.24126" lon="5.80596">
        <ele>398.6</ele>
        <time>2021-05-29T08:20:16Z</time>
      </trkpt>
      <trkpt lat="43.24123" lon="5.80605">
        <ele>399.2</ele>
        <time>2021-05-29T08:20:19Z</time>
      </trkpt>
      <trkpt lat="43.24119" lon="5.80625">
        <ele>400</ele>
        <time>2021-05-29T08:20:26Z</time>
      </trkpt>
      <trkpt lat="43.24118" lon="5.8063">
        <ele>400.2</ele>
        <time>2021-05-29T08:20:28Z</time>
      </trkpt>
      <trkpt lat="43.24115" lon="5.80647">
        <ele>401</ele>
        <time>2021-05-29T08:20:34Z</time>
      </trkpt>
      <trkpt lat="43.24114" lon="5.80656">
        <ele>401.4</ele>
        <time>2021-05-29T08:20:37Z</time>
      </trkpt>
      <trkpt lat="43.24113" lon="5.80673">
        <ele>402.2</ele>
        <time>2021-05-29T08:20:43Z</time>
      </trkpt>
      <trkpt lat="43.24112" lon="5.80676">
        <ele>402.4</ele>
        <time>2021-05-29T08:20:44Z</time>
      </trkpt>
      <trkpt lat="43.24112" lon="5.80679">
        <ele>402.6</ele>
        <time>2021-05-29T08:20:45Z</time>
      </trkpt>
      <trkpt lat="43.24113" lon="5.80703">
        <ele>403.6</ele>
        <time>2021-05-29T08:20:53Z</time>
      </trkpt>
      <trkpt lat="43.24114" lon="5.80706">
        <ele>403.8</ele>
        <time>2021-05-29T08:20:54Z</time>
      </trkpt>
      <trkpt lat="43.24118" lon="5.80725">
        <ele>405</ele>
        <time>2021-05-29T08:21:01Z</time>
      </trkpt>
      <trkpt lat="43.24124" lon="5.80744">
        <ele>406</ele>
        <time>2021-05-29T08:21:08Z</time>
      </trkpt>
      <trkpt lat="43.24125" lon="5.80746">
        <ele>406</ele>
        <time>2021-05-29T08:21:09Z</time>
      </trkpt>
      <trkpt lat="43.24138" lon="5.80767">
        <ele>407</ele>
        <time>2021-05-29T08:21:18Z</time>
      </trkpt>
      <trkpt lat="43.2414" lon="5.80769">
        <ele>407.2</ele>
        <time>2021-05-29T08:21:19Z</time>
      </trkpt>
      <trkpt lat="43.24151" lon="5.80778">
        <ele>408.4</ele>
        <time>2021-05-29T08:21:25Z</time>
      </trkpt>
      <trkpt lat="43.24153" lon="5.80779">
        <ele>408.4</ele>
        <time>2021-05-29T08:21:26Z</time>
      </trkpt>
      <trkpt lat="43.24162" lon="5.80785">
        <ele>409.4</ele>
        <time>2021-05-29T08:21:31Z</time>
      </trkpt>
      <trkpt lat="43.24165" lon="5.80786">
        <ele>409.8</ele>
        <time>2021-05-29T08:21:33Z</time>
      </trkpt>
      <trkpt lat="43.24175" lon="5.80786">
        <ele>410.4</ele>
        <time>2021-05-29T08:21:38Z</time>
      </trkpt>
      <trkpt lat="43.24185" lon="5.80786">
        <ele>411</ele>
        <time>2021-05-29T08:21:42Z</time>
      </trkpt>
      <trkpt lat="43.24193" lon="5.80784">
        <ele>411.6</ele>
        <time>2021-05-29T08:21:46Z</time>
      </trkpt>
      <trkpt lat="43.24205" lon="5.80779">
        <ele>412</ele>
        <time>2021-05-29T08:21:51Z</time>
      </trkpt>
      <trkpt lat="43.24213" lon="5.80775">
        <ele>412.8</ele>
        <time>2021-05-29T08:21:55Z</time>
      </trkpt>
      <trkpt lat="43.24222" lon="5.80769">
        <ele>413.2</ele>
        <time>2021-05-29T08:21:59Z</time>
      </trkpt>
      <trkpt lat="43.24229" lon="5.80763">
        <ele>413.8</ele>
        <time>2021-05-29T08:22:03Z</time>
      </trkpt>
      <trkpt lat="43.24234" lon="5.80758">
        <ele>414.2</ele>
        <time>2021-05-29T08:22:06Z</time>
      </trkpt>
      <trkpt lat="43.24235" lon="5.80756">
        <ele>414.2</ele>
        <time>2021-05-29T08:22:07Z</time>
      </trkpt>
      <trkpt lat="43.24243" lon="5.80747">
        <ele>415</ele>
        <time>2021-05-29T08:22:12Z</time>
      </trkpt>
      <trkpt lat="43.24259" lon="5.80728">
        <ele>416.2</ele>
        <time>2021-05-29T08:22:22Z</time>
      </trkpt>
      <trkpt lat="43.24274" lon="5.80705">
        <ele>417</ele>
        <time>2021-05-29T08:22:31Z</time>
      </trkpt>
      <trkpt lat="43.24278" lon="5.807">
        <ele>417.2</ele>
        <time>2021-05-29T08:22:33Z</time>
      </trkpt>
      <trkpt lat="43.24288" lon="5.80682">
        <ele>418</ele>
        <time>2021-05-29T08:22:40Z</time>
      </trkpt>
      <trkpt lat="43.2429" lon="5.80679">
        <ele>418.2</ele>
        <time>2021-05-29T08:22:41Z</time>
      </trkpt>
      <trkpt lat="43.24305" lon="5.8066">
        <ele>419.2</ele>
        <time>2021-05-29T08:22:49Z</time>
      </trkpt>
      <trkpt lat="43.24309" lon="5.80655">
        <ele>419.4</ele>
        <time>2021-05-29T08:22:51Z</time>
      </trkpt>
      <trkpt lat="43.24321" lon="5.80641">
        <ele>420.2</ele>
        <time>2021-05-29T08:22:57Z</time>
      </trkpt>
      <trkpt lat="43.24325" lon="5.80636">
        <ele>420.4</ele>
        <time>2021-05-29T08:22:59Z</time>
      </trkpt>
      <trkpt lat="43.24327" lon="5.80633">
        <ele>420.6</ele>
        <time>2021-05-29T08:23:00Z</time>
      </trkpt>
      <trkpt lat="43.24339" lon="5.80623">
        <ele>421.2</ele>
        <time>2021-05-29T08:23:05Z</time>
      </trkpt>
      <trkpt lat="43.24344" lon="5.8062">
        <ele>421.4</ele>
        <time>2021-05-29T08:23:07Z</time>
      </trkpt>
      <trkpt lat="43.24352" lon="5.80615">
        <ele>421.6</ele>
        <time>2021-05-29T08:23:10Z</time>
      </trkpt>
      <trkpt lat="43.24368" lon="5.80604">
        <ele>421.8</ele>
        <time>2021-05-29T08:23:16Z</time>
      </trkpt>
      <trkpt lat="43.24379" lon="5.806">
        <ele>422.2</ele>
        <time>2021-05-29T08:23:20Z</time>
      </trkpt>
      <trkpt lat="43.24388" lon="5.80597">
        <ele>422.4</ele>
        <time>2021-05-29T08:23:23Z</time>
      </trkpt>
      <trkpt lat="43.24403" lon="5.80594">
        <ele>422.8</ele>
        <time>2021-05-29T08:23:29Z</time>
      </trkpt>
      <trkpt lat="43.24418" lon="5.80596">
        <ele>423.2</ele>
        <time>2021-05-29T08:23:35Z</time>
      </trkpt>
      <trkpt lat="43.24424" lon="5.80596">
        <ele>423.4</ele>
        <time>2021-05-29T08:23:37Z</time>
      </trkpt>
      <trkpt lat="43.2444" lon="5.80597">
        <ele>423.8</ele>
        <time>2021-05-29T08:23:43Z</time>
      </trkpt>
      <trkpt lat="43.24454" lon="5.80599">
        <ele>424.4</ele>
        <time>2021-05-29T08:23:48Z</time>
      </trkpt>
      <trkpt lat="43.24467" lon="5.806">
        <ele>425</ele>
        <time>2021-05-29T08:23:52Z</time>
      </trkpt>
      <trkpt lat="43.24485" lon="5.80602">
        <ele>425.4</ele>
        <time>2021-05-29T08:23:58Z</time>
      </trkpt>
      <trkpt lat="43.24496" lon="5.80603">
        <ele>425.8</ele>
        <time>2021-05-29T08:24:01Z</time>
      </trkpt>
      <trkpt lat="43.24529" lon="5.80605">
        <ele>426.2</ele>
        <time>2021-05-29T08:24:10Z</time>
      </trkpt>
      <trkpt lat="43.24539" lon="5.80606">
        <ele>426.4</ele>
        <time>2021-05-29T08:24:13Z</time>
      </trkpt>
      <trkpt lat="43.24555" lon="5.80609">
        <ele>426.8</ele>
        <time>2021-05-29T08:24:18Z</time>
      </trkpt>
      <trkpt lat="43.2458" lon="5.80611">
        <ele>427.6</ele>
        <time>2021-05-29T08:24:26Z</time>
      </trkpt>
      <trkpt lat="43.24586" lon="5.80612">
        <ele>427.6</ele>
        <time>2021-05-29T08:24:28Z</time>
      </trkpt>
      <trkpt lat="43.24599" lon="5.80614">
        <ele>428</ele>
        <time>2021-05-29T08:24:32Z</time>
      </trkpt>
      <trkpt lat="43.24602" lon="5.80614">
        <ele>428.2</ele>
        <time>2021-05-29T08:24:33Z</time>
      </trkpt>
      <trkpt lat="43.24604" lon="5.80614">
        <ele>428.6</ele>
        <time>2021-05-29T08:24:34Z</time>
      </trkpt>
      <trkpt lat="43.24621" lon="5.80616">
        <ele>429.4</ele>
        <time>2021-05-29T08:24:40Z</time>
      </trkpt>
      <trkpt lat="43.2463" lon="5.80617">
        <ele>429.6</ele>
        <time>2021-05-29T08:24:43Z</time>
      </trkpt>
      <trkpt lat="43.24657" lon="5.8062">
        <ele>430.6</ele>
        <time>2021-05-29T08:24:52Z</time>
      </trkpt>
      <trkpt lat="43.24672" lon="5.80622">
        <ele>431.4</ele>
        <time>2021-05-29T08:24:57Z</time>
      </trkpt>
      <trkpt lat="43.24681" lon="5.80624">
        <ele>431.8</ele>
        <time>2021-05-29T08:25:00Z</time>
      </trkpt>
      <trkpt lat="43.24699" lon="5.80626">
        <ele>432.4</ele>
        <time>2021-05-29T08:25:06Z</time>
      </trkpt>
      <trkpt lat="43.24723" lon="5.80629">
        <ele>432.8</ele>
        <time>2021-05-29T08:25:13Z</time>
      </trkpt>
      <trkpt lat="43.24729" lon="5.80629">
        <ele>433</ele>
        <time>2021-05-29T08:25:15Z</time>
      </trkpt>
      <trkpt lat="43.24765" lon="5.80634">
        <ele>433.8</ele>
        <time>2021-05-29T08:25:25Z</time>
      </trkpt>
      <trkpt lat="43.24769" lon="5.80635">
        <ele>433.8</ele>
        <time>2021-05-29T08:25:26Z</time>
      </trkpt>
      <trkpt lat="43.24773" lon="5.80635">
        <ele>433.8</ele>
        <time>2021-05-29T08:25:27Z</time>
      </trkpt>
      <trkpt lat="43.2478" lon="5.80636">
        <ele>434</ele>
        <time>2021-05-29T08:25:29Z</time>
      </trkpt>
      <trkpt lat="43.24802" lon="5.80639">
        <ele>434.2</ele>
        <time>2021-05-29T08:25:35Z</time>
      </trkpt>
      <trkpt lat="43.24809" lon="5.80639">
        <ele>434.4</ele>
        <time>2021-05-29T08:25:37Z</time>
      </trkpt>
      <trkpt lat="43.24812" lon="5.8064">
        <ele>434.4</ele>
        <time>2021-05-29T08:25:38Z</time>
      </trkpt>
      <trkpt lat="43.24826" lon="5.80642">
        <ele>434.8</ele>
        <time>2021-05-29T08:25:42Z</time>
      </trkpt>
      <trkpt lat="43.24846" lon="5.80645">
        <ele>435.4</ele>
        <time>2021-05-29T08:25:47Z</time>
      </trkpt>
      <trkpt lat="43.2486" lon="5.80646">
        <ele>436</ele>
        <time>2021-05-29T08:25:52Z</time>
      </trkpt>
      <trkpt lat="43.2487" lon="5.80648">
        <ele>436.4</ele>
        <time>2021-05-29T08:25:54Z</time>
      </trkpt>
      <trkpt lat="43.24876" lon="5.80649">
        <ele>436.6</ele>
        <time>2021-05-29T08:25:56Z</time>
      </trkpt>
      <trkpt lat="43.24886" lon="5.8065">
        <ele>437</ele>
        <time>2021-05-29T08:25:59Z</time>
      </trkpt>
      <trkpt lat="43.24889" lon="5.8065">
        <ele>437.2</ele>
        <time>2021-05-29T08:26:00Z</time>
      </trkpt>
      <trkpt lat="43.24915" lon="5.80653">
        <ele>438.2</ele>
        <time>2021-05-29T08:26:08Z</time>
      </trkpt>
      <trkpt lat="43.24918" lon="5.80654">
        <ele>438.4</ele>
        <time>2021-05-29T08:26:09Z</time>
      </trkpt>
      <trkpt lat="43.2494" lon="5.80657">
        <ele>439.4</ele>
        <time>2021-05-29T08:26:16Z</time>
      </trkpt>
      <trkpt lat="43.24949" lon="5.80658">
        <ele>439.8</ele>
        <time>2021-05-29T08:26:19Z</time>
      </trkpt>
      <trkpt lat="43.24961" lon="5.80659">
        <ele>440.4</ele>
        <time>2021-05-29T08:26:23Z</time>
      </trkpt>
      <trkpt lat="43.24983" lon="5.80662">
        <ele>441.2</ele>
        <time>2021-05-29T08:26:30Z</time>
      </trkpt>
      <trkpt lat="43.24983" lon="5.80662">
        <ele>441.4</ele>
        <time>2021-05-29T08:26:31Z</time>
      </trkpt>
      <trkpt lat="43.24996" lon="5.80664">
        <ele>441.8</ele>
        <time>2021-05-29T08:26:34Z</time>
      </trkpt>
      <trkpt lat="43.25008" lon="5.80666">
        <ele>442.2</ele>
        <time>2021-05-29T08:26:38Z</time>
      </trkpt>
      <trkpt lat="43.25008" lon="5.80666">
        <ele>442.4</ele>
        <time>2021-05-29T08:26:39Z</time>
      </trkpt>
      <trkpt lat="43.25014" lon="5.80667">
        <ele>442.6</ele>
        <time>2021-05-29T08:26:40Z</time>
      </trkpt>
      <trkpt lat="43.25039" lon="5.8067">
        <ele>443.4</ele>
        <time>2021-05-29T08:26:47Z</time>
      </trkpt>
      <trkpt lat="43.25047" lon="5.80671">
        <ele>443.6</ele>
        <time>2021-05-29T08:26:49Z</time>
      </trkpt>
      <trkpt lat="43.25072" lon="5.80674">
        <ele>444</ele>
        <time>2021-05-29T08:26:56Z</time>
      </trkpt>
      <trkpt lat="43.2508" lon="5.80675">
        <ele>444</ele>
        <time>2021-05-29T08:26:58Z</time>
      </trkpt>
      <trkpt lat="43.25084" lon="5.80675">
        <ele>444</ele>
        <time>2021-05-29T08:26:59Z</time>
      </trkpt>
      <trkpt lat="43.25088" lon="5.80676">
        <ele>444</ele>
        <time>2021-05-29T08:27:00Z</time>
      </trkpt>
      <trkpt lat="43.25109" lon="5.80678">
        <ele>444.2</ele>
        <time>2021-05-29T08:27:05Z</time>
      </trkpt>
      <trkpt lat="43.25113" lon="5.80678">
        <ele>444.2</ele>
        <time>2021-05-29T08:27:06Z</time>
      </trkpt>
      <trkpt lat="43.25118" lon="5.80679">
        <ele>444.4</ele>
        <time>2021-05-29T08:27:07Z</time>
      </trkpt>
      <trkpt lat="43.25122" lon="5.80679">
        <ele>444.4</ele>
        <time>2021-05-29T08:27:08Z</time>
      </trkpt>
      <trkpt lat="43.2513" lon="5.8068">
        <ele>444.4</ele>
        <time>2021-05-29T08:27:10Z</time>
      </trkpt>
      <trkpt lat="43.2515" lon="5.80682">
        <ele>444.6</ele>
        <time>2021-05-29T08:27:15Z</time>
      </trkpt>
      <trkpt lat="43.2517" lon="5.80685">
        <ele>444.8</ele>
        <time>2021-05-29T08:27:20Z</time>
      </trkpt>
      <trkpt lat="43.2518" lon="5.80686">
        <ele>445</ele>
        <time>2021-05-29T08:27:23Z</time>
      </trkpt>
      <trkpt lat="43.25183" lon="5.80687">
        <ele>445</ele>
        <time>2021-05-29T08:27:24Z</time>
      </trkpt>
      <trkpt lat="43.25202" lon="5.80691">
        <ele>445.4</ele>
        <time>2021-05-29T08:27:30Z</time>
      </trkpt>
      <trkpt lat="43.25206" lon="5.80691">
        <ele>445.4</ele>
        <time>2021-05-29T08:27:31Z</time>
      </trkpt>
      <trkpt lat="43.25218" lon="5.80693">
        <ele>445.4</ele>
        <time>2021-05-29T08:27:34Z</time>
      </trkpt>
      <trkpt lat="43.25226" lon="5.80696">
        <ele>445.6</ele>
        <time>2021-05-29T08:27:37Z</time>
      </trkpt>
      <trkpt lat="43.25232" lon="5.80702">
        <ele>445.6</ele>
        <time>2021-05-29T08:27:38Z</time>
      </trkpt>
      <trkpt lat="43.25236" lon="5.80711">
        <ele>445.6</ele>
        <time>2021-05-29T08:27:40Z</time>
      </trkpt>
      <trkpt lat="43.25236" lon="5.80716">
        <ele>445.4</ele>
        <time>2021-05-29T08:27:41Z</time>
      </trkpt>
      <trkpt lat="43.25235" lon="5.80726">
        <ele>445.4</ele>
        <time>2021-05-29T08:27:43Z</time>
      </trkpt>
      <trkpt lat="43.25234" lon="5.80735">
        <ele>445.4</ele>
        <time>2021-05-29T08:27:45Z</time>
      </trkpt>
      <trkpt lat="43.25233" lon="5.8074">
        <ele>445.4</ele>
        <time>2021-05-29T08:27:46Z</time>
      </trkpt>
      <trkpt lat="43.25231" lon="5.80744">
        <ele>445.6</ele>
        <time>2021-05-29T08:27:47Z</time>
      </trkpt>
      <trkpt lat="43.25223" lon="5.80766">
        <ele>445.8</ele>
        <time>2021-05-29T08:27:52Z</time>
      </trkpt>
      <trkpt lat="43.25221" lon="5.80774">
        <ele>445.8</ele>
        <time>2021-05-29T08:27:54Z</time>
      </trkpt>
      <trkpt lat="43.25219" lon="5.80781">
        <ele>446.2</ele>
        <time>2021-05-29T08:27:56Z</time>
      </trkpt>
      <trkpt lat="43.25217" lon="5.80785">
        <ele>446.2</ele>
        <time>2021-05-29T08:27:57Z</time>
      </trkpt>
      <trkpt lat="43.25216" lon="5.80789">
        <ele>446.4</ele>
        <time>2021-05-29T08:27:58Z</time>
      </trkpt>
      <trkpt lat="43.25213" lon="5.80797">
        <ele>446.6</ele>
        <time>2021-05-29T08:28:00Z</time>
      </trkpt>
      <trkpt lat="43.25212" lon="5.80802">
        <ele>446.6</ele>
        <time>2021-05-29T08:28:01Z</time>
      </trkpt>
      <trkpt lat="43.25208" lon="5.80815">
        <ele>447</ele>
        <time>2021-05-29T08:28:04Z</time>
      </trkpt>
      <trkpt lat="43.25201" lon="5.80845">
        <ele>447.4</ele>
        <time>2021-05-29T08:28:11Z</time>
      </trkpt>
      <trkpt lat="43.25199" lon="5.80859">
        <ele>447.6</ele>
        <time>2021-05-29T08:28:15Z</time>
      </trkpt>
      <trkpt lat="43.25197" lon="5.80863">
        <ele>447.8</ele>
        <time>2021-05-29T08:28:16Z</time>
      </trkpt>
      <trkpt lat="43.25193" lon="5.80882">
        <ele>448</ele>
        <time>2021-05-29T08:28:20Z</time>
      </trkpt>
      <trkpt lat="43.25191" lon="5.80892">
        <ele>448.4</ele>
        <time>2021-05-29T08:28:22Z</time>
      </trkpt>
      <trkpt lat="43.25189" lon="5.80911">
        <ele>448.6</ele>
        <time>2021-05-29T08:28:26Z</time>
      </trkpt>
      <trkpt lat="43.25187" lon="5.8092">
        <ele>448.8</ele>
        <time>2021-05-29T08:28:28Z</time>
      </trkpt>
      <trkpt lat="43.25187" lon="5.8092">
        <ele>448.8</ele>
        <time>2021-05-29T08:28:29Z</time>
      </trkpt>
      <trkpt lat="43.25184" lon="5.80938">
        <ele>449</ele>
        <time>2021-05-29T08:28:32Z</time>
      </trkpt>
      <trkpt lat="43.25181" lon="5.80962">
        <ele>449.4</ele>
        <time>2021-05-29T08:28:37Z</time>
      </trkpt>
      <trkpt lat="43.25178" lon="5.80986">
        <ele>449.8</ele>
        <time>2021-05-29T08:28:43Z</time>
      </trkpt>
      <trkpt lat="43.25175" lon="5.81005">
        <ele>450</ele>
        <time>2021-05-29T08:28:46Z</time>
      </trkpt>
      <trkpt lat="43.25172" lon="5.81017">
        <ele>450</ele>
        <time>2021-05-29T08:28:49Z</time>
      </trkpt>
      <trkpt lat="43.25169" lon="5.81026">
        <ele>450.2</ele>
        <time>2021-05-29T08:28:51Z</time>
      </trkpt>
      <trkpt lat="43.25168" lon="5.81031">
        <ele>450.4</ele>
        <time>2021-05-29T08:28:52Z</time>
      </trkpt>
      <trkpt lat="43.25163" lon="5.81048">
        <ele>450.4</ele>
        <time>2021-05-29T08:28:55Z</time>
      </trkpt>
      <trkpt lat="43.2516" lon="5.81056">
        <ele>450.6</ele>
        <time>2021-05-29T08:28:57Z</time>
      </trkpt>
      <trkpt lat="43.25144" lon="5.8109">
        <ele>450.8</ele>
        <time>2021-05-29T08:29:04Z</time>
      </trkpt>
      <trkpt lat="43.25141" lon="5.81094">
        <ele>450.8</ele>
        <time>2021-05-29T08:29:05Z</time>
      </trkpt>
      <trkpt lat="43.25139" lon="5.81098">
        <ele>451</ele>
        <time>2021-05-29T08:29:06Z</time>
      </trkpt>
      <trkpt lat="43.25131" lon="5.81114">
        <ele>451</ele>
        <time>2021-05-29T08:29:10Z</time>
      </trkpt>
      <trkpt lat="43.25129" lon="5.81118">
        <ele>451.2</ele>
        <time>2021-05-29T08:29:11Z</time>
      </trkpt>
      <trkpt lat="43.2512" lon="5.81134">
        <ele>451.4</ele>
        <time>2021-05-29T08:29:14Z</time>
      </trkpt>
      <trkpt lat="43.25118" lon="5.81143">
        <ele>451.6</ele>
        <time>2021-05-29T08:29:16Z</time>
      </trkpt>
      <trkpt lat="43.25116" lon="5.81148">
        <ele>451.6</ele>
        <time>2021-05-29T08:29:17Z</time>
      </trkpt>
      <trkpt lat="43.25112" lon="5.8116">
        <ele>451.6</ele>
        <time>2021-05-29T08:29:19Z</time>
      </trkpt>
      <trkpt lat="43.25099" lon="5.8119">
        <ele>452.2</ele>
        <time>2021-05-29T08:29:26Z</time>
      </trkpt>
      <trkpt lat="43.25096" lon="5.81199">
        <ele>452.4</ele>
        <time>2021-05-29T08:29:28Z</time>
      </trkpt>
      <trkpt lat="43.25094" lon="5.81203">
        <ele>452.4</ele>
        <time>2021-05-29T08:29:29Z</time>
      </trkpt>
      <trkpt lat="43.25091" lon="5.81213">
        <ele>452.4</ele>
        <time>2021-05-29T08:29:31Z</time>
      </trkpt>
      <trkpt lat="43.25089" lon="5.81217">
        <ele>452.6</ele>
        <time>2021-05-29T08:29:32Z</time>
      </trkpt>
      <trkpt lat="43.25088" lon="5.81221">
        <ele>452.6</ele>
        <time>2021-05-29T08:29:33Z</time>
      </trkpt>
      <trkpt lat="43.25084" lon="5.81234">
        <ele>452.8</ele>
        <time>2021-05-29T08:29:36Z</time>
      </trkpt>
      <trkpt lat="43.25074" lon="5.81265">
        <ele>453</ele>
        <time>2021-05-29T08:29:43Z</time>
      </trkpt>
      <trkpt lat="43.25073" lon="5.81273">
        <ele>453.2</ele>
        <time>2021-05-29T08:29:45Z</time>
      </trkpt>
      <trkpt lat="43.25072" lon="5.81278">
        <ele>453.4</ele>
        <time>2021-05-29T08:29:46Z</time>
      </trkpt>
      <trkpt lat="43.25068" lon="5.81294">
        <ele>454</ele>
        <time>2021-05-29T08:29:50Z</time>
      </trkpt>
      <trkpt lat="43.25061" lon="5.8132">
        <ele>454.4</ele>
        <time>2021-05-29T08:29:56Z</time>
      </trkpt>
      <trkpt lat="43.25059" lon="5.81327">
        <ele>454.6</ele>
        <time>2021-05-29T08:29:58Z</time>
      </trkpt>
      <trkpt lat="43.25055" lon="5.81343">
        <ele>455.2</ele>
        <time>2021-05-29T08:30:03Z</time>
      </trkpt>
      <trkpt lat="43.2505" lon="5.81361">
        <ele>455.4</ele>
        <time>2021-05-29T08:30:06Z</time>
      </trkpt>
      <trkpt lat="43.25047" lon="5.8137">
        <ele>455.4</ele>
        <time>2021-05-29T08:30:08Z</time>
      </trkpt>
      <trkpt lat="43.25037" lon="5.81415">
        <ele>456</ele>
        <time>2021-05-29T08:30:18Z</time>
      </trkpt>
      <trkpt lat="43.25036" lon="5.81424">
        <ele>456.2</ele>
        <time>2021-05-29T08:30:20Z</time>
      </trkpt>
      <trkpt lat="43.25035" lon="5.81442">
        <ele>456.4</ele>
        <time>2021-05-29T08:30:24Z</time>
      </trkpt>
      <trkpt lat="43.25035" lon="5.81449">
        <ele>456.6</ele>
        <time>2021-05-29T08:30:26Z</time>
      </trkpt>
      <trkpt lat="43.25035" lon="5.81466">
        <ele>457.4</ele>
        <time>2021-05-29T08:30:32Z</time>
      </trkpt>
      <trkpt lat="43.25035" lon="5.81469">
        <ele>457.6</ele>
        <time>2021-05-29T08:30:33Z</time>
      </trkpt>
      <trkpt lat="43.25036" lon="5.81479">
        <ele>457.8</ele>
        <time>2021-05-29T08:30:36Z</time>
      </trkpt>
      <trkpt lat="43.25036" lon="5.81492">
        <ele>458</ele>
        <time>2021-05-29T08:30:40Z</time>
      </trkpt>
      <trkpt lat="43.25036" lon="5.81495">
        <ele>458</ele>
        <time>2021-05-29T08:30:41Z</time>
      </trkpt>
      <trkpt lat="43.25038" lon="5.81513">
        <ele>458.4</ele>
        <time>2021-05-29T08:30:46Z</time>
      </trkpt>
      <trkpt lat="43.25039" lon="5.81517">
        <ele>458.6</ele>
        <time>2021-05-29T08:30:47Z</time>
      </trkpt>
      <trkpt lat="43.25043" lon="5.81539">
        <ele>458.8</ele>
        <time>2021-05-29T08:30:52Z</time>
      </trkpt>
      <trkpt lat="43.25049" lon="5.81567">
        <ele>459.6</ele>
        <time>2021-05-29T08:30:59Z</time>
      </trkpt>
      <trkpt lat="43.25056" lon="5.81598">
        <ele>460.2</ele>
        <time>2021-05-29T08:31:07Z</time>
      </trkpt>
      <trkpt lat="43.25058" lon="5.81606">
        <ele>460.6</ele>
        <time>2021-05-29T08:31:09Z</time>
      </trkpt>
      <trkpt lat="43.25062" lon="5.81631">
        <ele>461</ele>
        <time>2021-05-29T08:31:15Z</time>
      </trkpt>
      <trkpt lat="43.25063" lon="5.81645">
        <ele>461.2</ele>
        <time>2021-05-29T08:31:18Z</time>
      </trkpt>
      <trkpt lat="43.25066" lon="5.81668">
        <ele>461.6</ele>
        <time>2021-05-29T08:31:24Z</time>
      </trkpt>
      <trkpt lat="43.25068" lon="5.81692">
        <ele>462.2</ele>
        <time>2021-05-29T08:31:28Z</time>
      </trkpt>
      <trkpt lat="43.2507" lon="5.81708">
        <ele>462.4</ele>
        <time>2021-05-29T08:31:31Z</time>
      </trkpt>
      <trkpt lat="43.25074" lon="5.8174">
        <ele>462.4</ele>
        <time>2021-05-29T08:31:37Z</time>
      </trkpt>
      <trkpt lat="43.25075" lon="5.81746">
        <ele>462.2</ele>
        <time>2021-05-29T08:31:38Z</time>
      </trkpt>
      <trkpt lat="43.25076" lon="5.81753">
        <ele>462.2</ele>
        <time>2021-05-29T08:31:39Z</time>
      </trkpt>
      <trkpt lat="43.25079" lon="5.81765">
        <ele>462</ele>
        <time>2021-05-29T08:31:41Z</time>
      </trkpt>
      <trkpt lat="43.25081" lon="5.81771">
        <ele>461.8</ele>
        <time>2021-05-29T08:31:42Z</time>
      </trkpt>
      <trkpt lat="43.25084" lon="5.81776">
        <ele>461.8</ele>
        <time>2021-05-29T08:31:43Z</time>
      </trkpt>
      <trkpt lat="43.25092" lon="5.81781">
        <ele>461.6</ele>
        <time>2021-05-29T08:31:45Z</time>
      </trkpt>
      <trkpt lat="43.25113" lon="5.81786">
        <ele>461.4</ele>
        <time>2021-05-29T08:31:51Z</time>
      </trkpt>
      <trkpt lat="43.25137" lon="5.81794">
        <ele>462.2</ele>
        <time>2021-05-29T08:32:00Z</time>
      </trkpt>
      <trkpt lat="43.2515" lon="5.81798">
        <ele>462.8</ele>
        <time>2021-05-29T08:32:06Z</time>
      </trkpt>
      <trkpt lat="43.25152" lon="5.81799">
        <ele>462.8</ele>
        <time>2021-05-29T08:32:07Z</time>
      </trkpt>
      <trkpt lat="43.25154" lon="5.818">
        <ele>463</ele>
        <time>2021-05-29T08:32:08Z</time>
      </trkpt>
      <trkpt lat="43.25161" lon="5.81804">
        <ele>463.2</ele>
        <time>2021-05-29T08:32:12Z</time>
      </trkpt>
      <trkpt lat="43.25169" lon="5.81807">
        <ele>464</ele>
        <time>2021-05-29T08:32:16Z</time>
      </trkpt>
      <trkpt lat="43.25179" lon="5.81811">
        <ele>464.8</ele>
        <time>2021-05-29T08:32:22Z</time>
      </trkpt>
      <trkpt lat="43.25183" lon="5.81811">
        <ele>465</ele>
        <time>2021-05-29T08:32:24Z</time>
      </trkpt>
      <trkpt lat="43.25184" lon="5.8181">
        <ele>465</ele>
        <time>2021-05-29T08:32:25Z</time>
      </trkpt>
      <trkpt lat="43.25186" lon="5.81809">
        <ele>465</ele>
        <time>2021-05-29T08:32:26Z</time>
      </trkpt>
      <trkpt lat="43.25191" lon="5.81809">
        <ele>465.8</ele>
        <time>2021-05-29T08:32:29Z</time>
      </trkpt>
      <trkpt lat="43.25192" lon="5.81808">
        <ele>466</ele>
        <time>2021-05-29T08:32:30Z</time>
      </trkpt>
      <trkpt lat="43.25196" lon="5.81805">
        <ele>466.6</ele>
        <time>2021-05-29T08:32:33Z</time>
      </trkpt>
      <trkpt lat="43.25199" lon="5.81801">
        <ele>467.2</ele>
        <time>2021-05-29T08:32:36Z</time>
      </trkpt>
      <trkpt lat="43.25205" lon="5.81795">
        <ele>468.2</ele>
        <time>2021-05-29T08:32:40Z</time>
      </trkpt>
      <trkpt lat="43.25206" lon="5.81794">
        <ele>468.4</ele>
        <time>2021-05-29T08:32:41Z</time>
      </trkpt>
      <trkpt lat="43.25209" lon="5.81792">
        <ele>468.8</ele>
        <time>2021-05-29T08:32:43Z</time>
      </trkpt>
      <trkpt lat="43.25216" lon="5.81789">
        <ele>469.4</ele>
        <time>2021-05-29T08:32:46Z</time>
      </trkpt>
      <trkpt lat="43.25218" lon="5.8179">
        <ele>469.6</ele>
        <time>2021-05-29T08:32:48Z</time>
      </trkpt>
      <trkpt lat="43.25221" lon="5.81791">
        <ele>469.6</ele>
        <time>2021-05-29T08:32:50Z</time>
      </trkpt>
      <trkpt lat="43.25223" lon="5.81794">
        <ele>470</ele>
        <time>2021-05-29T08:32:53Z</time>
      </trkpt>
      <trkpt lat="43.25227" lon="5.81797">
        <ele>470.4</ele>
        <time>2021-05-29T08:32:56Z</time>
      </trkpt>
      <trkpt lat="43.25235" lon="5.81803">
        <ele>471.2</ele>
        <time>2021-05-29T08:33:02Z</time>
      </trkpt>
      <trkpt lat="43.25237" lon="5.81804">
        <ele>471.4</ele>
        <time>2021-05-29T08:33:03Z</time>
      </trkpt>
      <trkpt lat="43.25245" lon="5.81811">
        <ele>472.4</ele>
        <time>2021-05-29T08:33:10Z</time>
      </trkpt>
      <trkpt lat="43.25245" lon="5.81813">
        <ele>472.6</ele>
        <time>2021-05-29T08:33:11Z</time>
      </trkpt>
      <trkpt lat="43.25246" lon="5.81814">
        <ele>472.8</ele>
        <time>2021-05-29T08:33:14Z</time>
      </trkpt>
      <trkpt lat="43.25247" lon="5.81819">
        <ele>473.8</ele>
        <time>2021-05-29T08:35:42Z</time>
      </trkpt>
      <trkpt lat="43.25247" lon="5.81819">
        <ele>473.8</ele>
        <time>2021-05-29T08:35:43Z</time>
      </trkpt>
      <trkpt lat="43.25247" lon="5.81819">
        <ele>473.8</ele>
        <time>2021-05-29T08:35:44Z</time>
      </trkpt>
      <trkpt lat="43.25247" lon="5.81819">
        <ele>473.8</ele>
        <time>2021-05-29T08:35:45Z</time>
      </trkpt>
      <trkpt lat="43.25248" lon="5.8182">
        <ele>473.8</ele>
        <time>2021-05-29T08:35:46Z</time>
      </trkpt>
      <trkpt lat="43.25251" lon="5.81823">
        <ele>473.8</ele>
        <time>2021-05-29T08:35:48Z</time>
      </trkpt>
      <trkpt lat="43.25252" lon="5.81825">
        <ele>473.8</ele>
        <time>2021-05-29T08:35:49Z</time>
      </trkpt>
      <trkpt lat="43.25256" lon="5.81833">
        <ele>474</ele>
        <time>2021-05-29T08:35:52Z</time>
      </trkpt>
      <trkpt lat="43.25258" lon="5.81842">
        <ele>474</ele>
        <time>2021-05-29T08:35:55Z</time>
      </trkpt>
      <trkpt lat="43.2526" lon="5.81847">
        <ele>474</ele>
        <time>2021-05-29T08:35:57Z</time>
      </trkpt>
      <trkpt lat="43.25261" lon="5.81849">
        <ele>474</ele>
        <time>2021-05-29T08:35:58Z</time>
      </trkpt>
      <trkpt lat="43.25262" lon="5.81852">
        <ele>474</ele>
        <time>2021-05-29T08:35:59Z</time>
      </trkpt>
      <trkpt lat="43.25263" lon="5.81854">
        <ele>474</ele>
        <time>2021-05-29T08:36:00Z</time>
      </trkpt>
      <trkpt lat="43.25264" lon="5.81857">
        <ele>474.2</ele>
        <time>2021-05-29T08:36:01Z</time>
      </trkpt>
      <trkpt lat="43.25265" lon="5.8186">
        <ele>474.2</ele>
        <time>2021-05-29T08:36:02Z</time>
      </trkpt>
      <trkpt lat="43.25266" lon="5.81862">
        <ele>474.2</ele>
        <time>2021-05-29T08:36:03Z</time>
      </trkpt>
      <trkpt lat="43.25267" lon="5.81864">
        <ele>474.4</ele>
        <time>2021-05-29T08:36:04Z</time>
      </trkpt>
      <trkpt lat="43.25269" lon="5.81867">
        <ele>474.4</ele>
        <time>2021-05-29T08:36:05Z</time>
      </trkpt>
      <trkpt lat="43.2527" lon="5.81869">
        <ele>474.4</ele>
        <time>2021-05-29T08:36:06Z</time>
      </trkpt>
      <trkpt lat="43.25272" lon="5.81872">
        <ele>474.4</ele>
        <time>2021-05-29T08:36:07Z</time>
      </trkpt>
      <trkpt lat="43.25273" lon="5.81875">
        <ele>474.6</ele>
        <time>2021-05-29T08:36:08Z</time>
      </trkpt>
      <trkpt lat="43.25278" lon="5.81883">
        <ele>474.8</ele>
        <time>2021-05-29T08:36:11Z</time>
      </trkpt>
      <trkpt lat="43.2528" lon="5.81885">
        <ele>474.8</ele>
        <time>2021-05-29T08:36:12Z</time>
      </trkpt>
      <trkpt lat="43.25284" lon="5.81893">
        <ele>474.8</ele>
        <time>2021-05-29T08:36:15Z</time>
      </trkpt>
      <trkpt lat="43.25288" lon="5.81903">
        <ele>474.8</ele>
        <time>2021-05-29T08:36:19Z</time>
      </trkpt>
      <trkpt lat="43.25294" lon="5.81921">
        <ele>475.2</ele>
        <time>2021-05-29T08:36:26Z</time>
      </trkpt>
      <trkpt lat="43.25297" lon="5.8194">
        <ele>475.2</ele>
        <time>2021-05-29T08:36:32Z</time>
      </trkpt>
      <trkpt lat="43.25297" lon="5.81951">
        <ele>475.2</ele>
        <time>2021-05-29T08:36:35Z</time>
      </trkpt>
      <trkpt lat="43.25298" lon="5.81956">
        <ele>475.2</ele>
        <time>2021-05-29T08:36:36Z</time>
      </trkpt>
      <trkpt lat="43.253" lon="5.81967">
        <ele>475.2</ele>
        <time>2021-05-29T08:36:38Z</time>
      </trkpt>
      <trkpt lat="43.25312" lon="5.81989">
        <ele>475</ele>
        <time>2021-05-29T08:36:44Z</time>
      </trkpt>
      <trkpt lat="43.25318" lon="5.82001">
        <ele>475.2</ele>
        <time>2021-05-29T08:36:49Z</time>
      </trkpt>
      <trkpt lat="43.25319" lon="5.82004">
        <ele>475.2</ele>
        <time>2021-05-29T08:36:50Z</time>
      </trkpt>
      <trkpt lat="43.25323" lon="5.82014">
        <ele>475.6</ele>
        <time>2021-05-29T08:36:54Z</time>
      </trkpt>
      <trkpt lat="43.25325" lon="5.82023">
        <ele>476.2</ele>
        <time>2021-05-29T08:36:58Z</time>
      </trkpt>
      <trkpt lat="43.25326" lon="5.82039">
        <ele>476.6</ele>
        <time>2021-05-29T08:37:04Z</time>
      </trkpt>
      <trkpt lat="43.25326" lon="5.82041">
        <ele>476.8</ele>
        <time>2021-05-29T08:37:05Z</time>
      </trkpt>
      <trkpt lat="43.25328" lon="5.82051">
        <ele>477.4</ele>
        <time>2021-05-29T08:37:09Z</time>
      </trkpt>
      <trkpt lat="43.25327" lon="5.82053">
        <ele>477.4</ele>
        <time>2021-05-29T08:37:10Z</time>
      </trkpt>
      <trkpt lat="43.25327" lon="5.82056">
        <ele>477.6</ele>
        <time>2021-05-29T08:37:12Z</time>
      </trkpt>
      <trkpt lat="43.25329" lon="5.82061">
        <ele>477.8</ele>
        <time>2021-05-29T08:37:13Z</time>
      </trkpt>
      <trkpt lat="43.25332" lon="5.82079">
        <ele>478.2</ele>
        <time>2021-05-29T08:37:19Z</time>
      </trkpt>
      <trkpt lat="43.25333" lon="5.82086">
        <ele>478.6</ele>
        <time>2021-05-29T08:37:22Z</time>
      </trkpt>
      <trkpt lat="43.25333" lon="5.82092">
        <ele>478.8</ele>
        <time>2021-05-29T08:37:25Z</time>
      </trkpt>
      <trkpt lat="43.25336" lon="5.82105">
        <ele>479</ele>
        <time>2021-05-29T08:37:30Z</time>
      </trkpt>
      <trkpt lat="43.25338" lon="5.82119">
        <ele>479.6</ele>
        <time>2021-05-29T08:37:36Z</time>
      </trkpt>
      <trkpt lat="43.25338" lon="5.82124">
        <ele>479.8</ele>
        <time>2021-05-29T08:37:38Z</time>
      </trkpt>
      <trkpt lat="43.25339" lon="5.82137">
        <ele>480.2</ele>
        <time>2021-05-29T08:37:44Z</time>
      </trkpt>
      <trkpt lat="43.2534" lon="5.82145">
        <ele>480.8</ele>
        <time>2021-05-29T08:37:47Z</time>
      </trkpt>
      <trkpt lat="43.25342" lon="5.82156">
        <ele>481.6</ele>
        <time>2021-05-29T08:37:52Z</time>
      </trkpt>
      <trkpt lat="43.25343" lon="5.82158">
        <ele>481.8</ele>
        <time>2021-05-29T08:37:53Z</time>
      </trkpt>
      <trkpt lat="43.25353" lon="5.82174">
        <ele>482.6</ele>
        <time>2021-05-29T08:38:01Z</time>
      </trkpt>
      <trkpt lat="43.25354" lon="5.82176">
        <ele>482.6</ele>
        <time>2021-05-29T08:38:02Z</time>
      </trkpt>
      <trkpt lat="43.25363" lon="5.82191">
        <ele>483.4</ele>
        <time>2021-05-29T08:38:10Z</time>
      </trkpt>
      <trkpt lat="43.25366" lon="5.82199">
        <ele>483.4</ele>
        <time>2021-05-29T08:38:12Z</time>
      </trkpt>
      <trkpt lat="43.25368" lon="5.82203">
        <ele>483.6</ele>
        <time>2021-05-29T08:38:14Z</time>
      </trkpt>
      <trkpt lat="43.25369" lon="5.82206">
        <ele>483.6</ele>
        <time>2021-05-29T08:38:16Z</time>
      </trkpt>
      <trkpt lat="43.2537" lon="5.82209">
        <ele>483.8</ele>
        <time>2021-05-29T08:38:17Z</time>
      </trkpt>
      <trkpt lat="43.25377" lon="5.82223">
        <ele>484.6</ele>
        <time>2021-05-29T08:38:24Z</time>
      </trkpt>
      <trkpt lat="43.25377" lon="5.82225">
        <ele>484.6</ele>
        <time>2021-05-29T08:38:25Z</time>
      </trkpt>
      <trkpt lat="43.25377" lon="5.8223">
        <ele>484.8</ele>
        <time>2021-05-29T08:38:27Z</time>
      </trkpt>
      <trkpt lat="43.25381" lon="5.82241">
        <ele>485.4</ele>
        <time>2021-05-29T08:38:32Z</time>
      </trkpt>
      <trkpt lat="43.25381" lon="5.82245">
        <ele>485.6</ele>
        <time>2021-05-29T08:38:34Z</time>
      </trkpt>
      <trkpt lat="43.25382" lon="5.82253">
        <ele>486</ele>
        <time>2021-05-29T08:38:37Z</time>
      </trkpt>
      <trkpt lat="43.25382" lon="5.82254">
        <ele>486</ele>
        <time>2021-05-29T08:38:38Z</time>
      </trkpt>
      <trkpt lat="43.25384" lon="5.82267">
        <ele>486.8</ele>
        <time>2021-05-29T08:38:44Z</time>
      </trkpt>
      <trkpt lat="43.25384" lon="5.82269">
        <ele>487</ele>
        <time>2021-05-29T08:38:45Z</time>
      </trkpt>
      <trkpt lat="43.25385" lon="5.82278">
        <ele>487.8</ele>
        <time>2021-05-29T08:38:49Z</time>
      </trkpt>
      <trkpt lat="43.25385" lon="5.82282">
        <ele>488.2</ele>
        <time>2021-05-29T08:38:51Z</time>
      </trkpt>
      <trkpt lat="43.25384" lon="5.82285">
        <ele>488.2</ele>
        <time>2021-05-29T08:38:52Z</time>
      </trkpt>
      <trkpt lat="43.25384" lon="5.82287">
        <ele>488.6</ele>
        <time>2021-05-29T08:38:53Z</time>
      </trkpt>
      <trkpt lat="43.25384" lon="5.82292">
        <ele>488.8</ele>
        <time>2021-05-29T08:38:55Z</time>
      </trkpt>
      <trkpt lat="43.25385" lon="5.82298">
        <ele>489.2</ele>
        <time>2021-05-29T08:38:58Z</time>
      </trkpt>
      <trkpt lat="43.25385" lon="5.82307">
        <ele>489.6</ele>
        <time>2021-05-29T08:39:02Z</time>
      </trkpt>
      <trkpt lat="43.25385" lon="5.82316">
        <ele>490.2</ele>
        <time>2021-05-29T08:39:06Z</time>
      </trkpt>
      <trkpt lat="43.25384" lon="5.82329">
        <ele>490.6</ele>
        <time>2021-05-29T08:39:11Z</time>
      </trkpt>
      <trkpt lat="43.25384" lon="5.82332">
        <ele>490.8</ele>
        <time>2021-05-29T08:39:12Z</time>
      </trkpt>
      <trkpt lat="43.25384" lon="5.82344">
        <ele>491.4</ele>
        <time>2021-05-29T08:39:17Z</time>
      </trkpt>
      <trkpt lat="43.25386" lon="5.82356">
        <ele>491.6</ele>
        <time>2021-05-29T08:39:22Z</time>
      </trkpt>
      <trkpt lat="43.25385" lon="5.82369">
        <ele>492.2</ele>
        <time>2021-05-29T08:39:27Z</time>
      </trkpt>
      <trkpt lat="43.25384" lon="5.82372">
        <ele>492.2</ele>
        <time>2021-05-29T08:39:28Z</time>
      </trkpt>
      <trkpt lat="43.25383" lon="5.82395">
        <ele>493.4</ele>
        <time>2021-05-29T08:39:36Z</time>
      </trkpt>
      <trkpt lat="43.25382" lon="5.824">
        <ele>493.6</ele>
        <time>2021-05-29T08:39:38Z</time>
      </trkpt>
      <trkpt lat="43.25381" lon="5.8241">
        <ele>494</ele>
        <time>2021-05-29T08:39:42Z</time>
      </trkpt>
      <trkpt lat="43.25381" lon="5.82415">
        <ele>494.4</ele>
        <time>2021-05-29T08:39:44Z</time>
      </trkpt>
      <trkpt lat="43.25381" lon="5.82428">
        <ele>495</ele>
        <time>2021-05-29T08:39:49Z</time>
      </trkpt>
      <trkpt lat="43.2538" lon="5.82437">
        <ele>495.4</ele>
        <time>2021-05-29T08:39:53Z</time>
      </trkpt>
      <trkpt lat="43.25379" lon="5.82445">
        <ele>495.8</ele>
        <time>2021-05-29T08:39:56Z</time>
      </trkpt>
      <trkpt lat="43.25377" lon="5.82457">
        <ele>496.4</ele>
        <time>2021-05-29T08:40:01Z</time>
      </trkpt>
      <trkpt lat="43.25378" lon="5.82468">
        <ele>496.6</ele>
        <time>2021-05-29T08:40:05Z</time>
      </trkpt>
      <trkpt lat="43.25372" lon="5.82489">
        <ele>497.4</ele>
        <time>2021-05-29T08:40:13Z</time>
      </trkpt>
      <trkpt lat="43.25372" lon="5.82492">
        <ele>497.4</ele>
        <time>2021-05-29T08:40:14Z</time>
      </trkpt>
      <trkpt lat="43.25369" lon="5.82499">
        <ele>497.4</ele>
        <time>2021-05-29T08:40:17Z</time>
      </trkpt>
      <trkpt lat="43.25363" lon="5.82515">
        <ele>497.8</ele>
        <time>2021-05-29T08:40:23Z</time>
      </trkpt>
      <trkpt lat="43.25357" lon="5.82536">
        <ele>498.4</ele>
        <time>2021-05-29T08:40:31Z</time>
      </trkpt>
      <trkpt lat="43.25353" lon="5.82544">
        <ele>498.4</ele>
        <time>2021-05-29T08:40:34Z</time>
      </trkpt>
      <trkpt lat="43.25345" lon="5.82568">
        <ele>499.2</ele>
        <time>2021-05-29T08:40:43Z</time>
      </trkpt>
      <trkpt lat="43.25343" lon="5.82574">
        <ele>499.4</ele>
        <time>2021-05-29T08:40:45Z</time>
      </trkpt>
      <trkpt lat="43.25337" lon="5.82597">
        <ele>500.2</ele>
        <time>2021-05-29T08:40:53Z</time>
      </trkpt>
      <trkpt lat="43.25336" lon="5.826">
        <ele>500.2</ele>
        <time>2021-05-29T08:40:54Z</time>
      </trkpt>
      <trkpt lat="43.25333" lon="5.82612">
        <ele>500.4</ele>
        <time>2021-05-29T08:40:58Z</time>
      </trkpt>
      <trkpt lat="43.25332" lon="5.82618">
        <ele>500.6</ele>
        <time>2021-05-29T08:41:00Z</time>
      </trkpt>
      <trkpt lat="43.25331" lon="5.82624">
        <ele>500.8</ele>
        <time>2021-05-29T08:41:02Z</time>
      </trkpt>
      <trkpt lat="43.2533" lon="5.82629">
        <ele>501</ele>
        <time>2021-05-29T08:41:04Z</time>
      </trkpt>
      <trkpt lat="43.25329" lon="5.82638">
        <ele>501.2</ele>
        <time>2021-05-29T08:41:07Z</time>
      </trkpt>
      <trkpt lat="43.25328" lon="5.8264">
        <ele>501.2</ele>
        <time>2021-05-29T08:41:08Z</time>
      </trkpt>
      <trkpt lat="43.25327" lon="5.82643">
        <ele>501.4</ele>
        <time>2021-05-29T08:41:09Z</time>
      </trkpt>
      <trkpt lat="43.25324" lon="5.82651">
        <ele>501.6</ele>
        <time>2021-05-29T08:41:12Z</time>
      </trkpt>
      <trkpt lat="43.25322" lon="5.82654">
        <ele>501.6</ele>
        <time>2021-05-29T08:41:13Z</time>
      </trkpt>
      <trkpt lat="43.25318" lon="5.82663">
        <ele>501.6</ele>
        <time>2021-05-29T08:41:16Z</time>
      </trkpt>
      <trkpt lat="43.25313" lon="5.82678">
        <ele>501.8</ele>
        <time>2021-05-29T08:41:21Z</time>
      </trkpt>
      <trkpt lat="43.25312" lon="5.82681">
        <ele>501.8</ele>
        <time>2021-05-29T08:41:22Z</time>
      </trkpt>
      <trkpt lat="43.25306" lon="5.82696">
        <ele>502</ele>
        <time>2021-05-29T08:41:27Z</time>
      </trkpt>
      <trkpt lat="43.25302" lon="5.82705">
        <ele>501.8</ele>
        <time>2021-05-29T08:41:30Z</time>
      </trkpt>
      <trkpt lat="43.25301" lon="5.82708">
        <ele>502</ele>
        <time>2021-05-29T08:41:31Z</time>
      </trkpt>
      <trkpt lat="43.25298" lon="5.82717">
        <ele>502</ele>
        <time>2021-05-29T08:41:34Z</time>
      </trkpt>
      <trkpt lat="43.25297" lon="5.8272">
        <ele>502</ele>
        <time>2021-05-29T08:41:35Z</time>
      </trkpt>
      <trkpt lat="43.25296" lon="5.82723">
        <ele>502</ele>
        <time>2021-05-29T08:41:36Z</time>
      </trkpt>
      <trkpt lat="43.25293" lon="5.8273">
        <ele>502.2</ele>
        <time>2021-05-29T08:41:38Z</time>
      </trkpt>
      <trkpt lat="43.2529" lon="5.82739">
        <ele>502.2</ele>
        <time>2021-05-29T08:41:41Z</time>
      </trkpt>
      <trkpt lat="43.25281" lon="5.82765">
        <ele>502.4</ele>
        <time>2021-05-29T08:41:49Z</time>
      </trkpt>
      <trkpt lat="43.2527" lon="5.82796">
        <ele>503</ele>
        <time>2021-05-29T08:41:59Z</time>
      </trkpt>
      <trkpt lat="43.25268" lon="5.82802">
        <ele>503.4</ele>
        <time>2021-05-29T08:42:01Z</time>
      </trkpt>
      <trkpt lat="43.25267" lon="5.82814">
        <ele>503.8</ele>
        <time>2021-05-29T08:42:05Z</time>
      </trkpt>
      <trkpt lat="43.25262" lon="5.82829">
        <ele>504.6</ele>
        <time>2021-05-29T08:42:10Z</time>
      </trkpt>
      <trkpt lat="43.2526" lon="5.82835">
        <ele>504.8</ele>
        <time>2021-05-29T08:42:12Z</time>
      </trkpt>
      <trkpt lat="43.25257" lon="5.82852">
        <ele>505.6</ele>
        <time>2021-05-29T08:42:18Z</time>
      </trkpt>
      <trkpt lat="43.25255" lon="5.82858">
        <ele>505.8</ele>
        <time>2021-05-29T08:42:20Z</time>
      </trkpt>
      <trkpt lat="43.25253" lon="5.82864">
        <ele>506.2</ele>
        <time>2021-05-29T08:42:22Z</time>
      </trkpt>
      <trkpt lat="43.25251" lon="5.82873">
        <ele>506.6</ele>
        <time>2021-05-29T08:42:25Z</time>
      </trkpt>
      <trkpt lat="43.25247" lon="5.82887">
        <ele>507.2</ele>
        <time>2021-05-29T08:42:30Z</time>
      </trkpt>
      <trkpt lat="43.25246" lon="5.82893">
        <ele>507.4</ele>
        <time>2021-05-29T08:42:32Z</time>
      </trkpt>
      <trkpt lat="43.25244" lon="5.82905">
        <ele>507.6</ele>
        <time>2021-05-29T08:42:36Z</time>
      </trkpt>
      <trkpt lat="43.25242" lon="5.82914">
        <ele>507.8</ele>
        <time>2021-05-29T08:42:39Z</time>
      </trkpt>
      <trkpt lat="43.25241" lon="5.82929">
        <ele>508.2</ele>
        <time>2021-05-29T08:42:44Z</time>
      </trkpt>
      <trkpt lat="43.2524" lon="5.82935">
        <ele>508.4</ele>
        <time>2021-05-29T08:42:46Z</time>
      </trkpt>
      <trkpt lat="43.25239" lon="5.82939">
        <ele>508.4</ele>
        <time>2021-05-29T08:42:47Z</time>
      </trkpt>
      <trkpt lat="43.25234" lon="5.82964">
        <ele>509</ele>
        <time>2021-05-29T08:42:55Z</time>
      </trkpt>
      <trkpt lat="43.25233" lon="5.82969">
        <ele>509.2</ele>
        <time>2021-05-29T08:42:57Z</time>
      </trkpt>
      <trkpt lat="43.25234" lon="5.82978">
        <ele>509.6</ele>
        <time>2021-05-29T08:43:00Z</time>
      </trkpt>
      <trkpt lat="43.25234" lon="5.82984">
        <ele>510</ele>
        <time>2021-05-29T08:43:02Z</time>
      </trkpt>
      <trkpt lat="43.25234" lon="5.83005">
        <ele>510.8</ele>
        <time>2021-05-29T08:43:09Z</time>
      </trkpt>
      <trkpt lat="43.25237" lon="5.83024">
        <ele>511.4</ele>
        <time>2021-05-29T08:43:16Z</time>
      </trkpt>
      <trkpt lat="43.2524" lon="5.83033">
        <ele>511.8</ele>
        <time>2021-05-29T08:43:20Z</time>
      </trkpt>
      <trkpt lat="43.25242" lon="5.83041">
        <ele>512.4</ele>
        <time>2021-05-29T08:43:23Z</time>
      </trkpt>
      <trkpt lat="43.25243" lon="5.83043">
        <ele>512.6</ele>
        <time>2021-05-29T08:43:24Z</time>
      </trkpt>
      <trkpt lat="43.25243" lon="5.83045">
        <ele>512.6</ele>
        <time>2021-05-29T08:43:25Z</time>
      </trkpt>
      <trkpt lat="43.25244" lon="5.83047">
        <ele>512.8</ele>
        <time>2021-05-29T08:43:26Z</time>
      </trkpt>
      <trkpt lat="43.25244" lon="5.8305">
        <ele>513</ele>
        <time>2021-05-29T08:43:27Z</time>
      </trkpt>
      <trkpt lat="43.25245" lon="5.83052">
        <ele>513.2</ele>
        <time>2021-05-29T08:43:28Z</time>
      </trkpt>
      <trkpt lat="43.25246" lon="5.83054">
        <ele>513.2</ele>
        <time>2021-05-29T08:43:29Z</time>
      </trkpt>
      <trkpt lat="43.25246" lon="5.83059">
        <ele>513.4</ele>
        <time>2021-05-29T08:43:31Z</time>
      </trkpt>
      <trkpt lat="43.25246" lon="5.83061">
        <ele>513.6</ele>
        <time>2021-05-29T08:43:32Z</time>
      </trkpt>
      <trkpt lat="43.25246" lon="5.83062">
        <ele>513.8</ele>
        <time>2021-05-29T08:43:33Z</time>
      </trkpt>
      <trkpt lat="43.25246" lon="5.83067">
        <ele>514.2</ele>
        <time>2021-05-29T08:43:35Z</time>
      </trkpt>
      <trkpt lat="43.25248" lon="5.83075">
        <ele>515</ele>
        <time>2021-05-29T08:43:39Z</time>
      </trkpt>
      <trkpt lat="43.25247" lon="5.83077">
        <ele>515.2</ele>
        <time>2021-05-29T08:43:40Z</time>
      </trkpt>
      <trkpt lat="43.25247" lon="5.83081">
        <ele>515.4</ele>
        <time>2021-05-29T08:43:42Z</time>
      </trkpt>
      <trkpt lat="43.25247" lon="5.83083">
        <ele>515.6</ele>
        <time>2021-05-29T08:43:43Z</time>
      </trkpt>
      <trkpt lat="43.25248" lon="5.83087">
        <ele>516</ele>
        <time>2021-05-29T08:43:45Z</time>
      </trkpt>
      <trkpt lat="43.25248" lon="5.8309">
        <ele>516.2</ele>
        <time>2021-05-29T08:43:46Z</time>
      </trkpt>
      <trkpt lat="43.25248" lon="5.83092">
        <ele>516.2</ele>
        <time>2021-05-29T08:43:47Z</time>
      </trkpt>
      <trkpt lat="43.25248" lon="5.83094">
        <ele>516.4</ele>
        <time>2021-05-29T08:43:48Z</time>
      </trkpt>
      <trkpt lat="43.25249" lon="5.83106">
        <ele>516.8</ele>
        <time>2021-05-29T08:43:53Z</time>
      </trkpt>
      <trkpt lat="43.2525" lon="5.83113">
        <ele>517</ele>
        <time>2021-05-29T08:43:56Z</time>
      </trkpt>
      <trkpt lat="43.2525" lon="5.83115">
        <ele>517.2</ele>
        <time>2021-05-29T08:43:57Z</time>
      </trkpt>
      <trkpt lat="43.2525" lon="5.83118">
        <ele>517.2</ele>
        <time>2021-05-29T08:43:58Z</time>
      </trkpt>
      <trkpt lat="43.2525" lon="5.83121">
        <ele>517.2</ele>
        <time>2021-05-29T08:43:59Z</time>
      </trkpt>
      <trkpt lat="43.2525" lon="5.83123">
        <ele>517.4</ele>
        <time>2021-05-29T08:44:00Z</time>
      </trkpt>
      <trkpt lat="43.2525" lon="5.83125">
        <ele>517.4</ele>
        <time>2021-05-29T08:44:01Z</time>
      </trkpt>
      <trkpt lat="43.25251" lon="5.8313">
        <ele>517.6</ele>
        <time>2021-05-29T08:44:03Z</time>
      </trkpt>
      <trkpt lat="43.25251" lon="5.83132">
        <ele>517.8</ele>
        <time>2021-05-29T08:44:04Z</time>
      </trkpt>
      <trkpt lat="43.25251" lon="5.83135">
        <ele>517.8</ele>
        <time>2021-05-29T08:44:05Z</time>
      </trkpt>
      <trkpt lat="43.25252" lon="5.83137">
        <ele>517.8</ele>
        <time>2021-05-29T08:44:06Z</time>
      </trkpt>
      <trkpt lat="43.25252" lon="5.83139">
        <ele>518.2</ele>
        <time>2021-05-29T08:44:07Z</time>
      </trkpt>
      <trkpt lat="43.25252" lon="5.83142">
        <ele>518.2</ele>
        <time>2021-05-29T08:44:08Z</time>
      </trkpt>
      <trkpt lat="43.25252" lon="5.83144">
        <ele>518.4</ele>
        <time>2021-05-29T08:44:09Z</time>
      </trkpt>
      <trkpt lat="43.25252" lon="5.83152">
        <ele>518.8</ele>
        <time>2021-05-29T08:44:12Z</time>
      </trkpt>
      <trkpt lat="43.25253" lon="5.83164">
        <ele>519</ele>
        <time>2021-05-29T08:44:17Z</time>
      </trkpt>
      <trkpt lat="43.25253" lon="5.83167">
        <ele>519.2</ele>
        <time>2021-05-29T08:44:18Z</time>
      </trkpt>
      <trkpt lat="43.25252" lon="5.83169">
        <ele>519.2</ele>
        <time>2021-05-29T08:44:19Z</time>
      </trkpt>
      <trkpt lat="43.25253" lon="5.83174">
        <ele>519.4</ele>
        <time>2021-05-29T08:44:21Z</time>
      </trkpt>
      <trkpt lat="43.25253" lon="5.83179">
        <ele>519.6</ele>
        <time>2021-05-29T08:44:23Z</time>
      </trkpt>
      <trkpt lat="43.25254" lon="5.83187">
        <ele>520</ele>
        <time>2021-05-29T08:44:26Z</time>
      </trkpt>
      <trkpt lat="43.25254" lon="5.83189">
        <ele>520</ele>
        <time>2021-05-29T08:44:27Z</time>
      </trkpt>
      <trkpt lat="43.25254" lon="5.83191">
        <ele>520</ele>
        <time>2021-05-29T08:44:28Z</time>
      </trkpt>
      <trkpt lat="43.25255" lon="5.83194">
        <ele>520.2</ele>
        <time>2021-05-29T08:44:29Z</time>
      </trkpt>
      <trkpt lat="43.25255" lon="5.83197">
        <ele>520.2</ele>
        <time>2021-05-29T08:44:30Z</time>
      </trkpt>
      <trkpt lat="43.25258" lon="5.83209">
        <ele>520.6</ele>
        <time>2021-05-29T08:44:35Z</time>
      </trkpt>
      <trkpt lat="43.25259" lon="5.83222">
        <ele>521.2</ele>
        <time>2021-05-29T08:44:41Z</time>
      </trkpt>
      <trkpt lat="43.25259" lon="5.83227">
        <ele>521.4</ele>
        <time>2021-05-29T08:44:43Z</time>
      </trkpt>
      <trkpt lat="43.2526" lon="5.83244">
        <ele>522.2</ele>
        <time>2021-05-29T08:44:50Z</time>
      </trkpt>
      <trkpt lat="43.2526" lon="5.83252">
        <ele>522.4</ele>
        <time>2021-05-29T08:44:53Z</time>
      </trkpt>
      <trkpt lat="43.2526" lon="5.8327">
        <ele>523.2</ele>
        <time>2021-05-29T08:45:00Z</time>
      </trkpt>
      <trkpt lat="43.25259" lon="5.83278">
        <ele>523.4</ele>
        <time>2021-05-29T08:45:03Z</time>
      </trkpt>
      <trkpt lat="43.25259" lon="5.83299">
        <ele>523.8</ele>
        <time>2021-05-29T08:45:11Z</time>
      </trkpt>
      <trkpt lat="43.25259" lon="5.83309">
        <ele>524.2</ele>
        <time>2021-05-29T08:45:15Z</time>
      </trkpt>
      <trkpt lat="43.2526" lon="5.83318">
        <ele>524.8</ele>
        <time>2021-05-29T08:45:19Z</time>
      </trkpt>
      <trkpt lat="43.25262" lon="5.8333">
        <ele>525.2</ele>
        <time>2021-05-29T08:45:24Z</time>
      </trkpt>
      <trkpt lat="43.25262" lon="5.83334">
        <ele>525.6</ele>
        <time>2021-05-29T08:45:26Z</time>
      </trkpt>
      <trkpt lat="43.25264" lon="5.8335">
        <ele>526.4</ele>
        <time>2021-05-29T08:45:33Z</time>
      </trkpt>
      <trkpt lat="43.25264" lon="5.83352">
        <ele>526.4</ele>
        <time>2021-05-29T08:45:34Z</time>
      </trkpt>
      <trkpt lat="43.25264" lon="5.83354">
        <ele>526.6</ele>
        <time>2021-05-29T08:45:35Z</time>
      </trkpt>
      <trkpt lat="43.25265" lon="5.83356">
        <ele>526.8</ele>
        <time>2021-05-29T08:45:36Z</time>
      </trkpt>
      <trkpt lat="43.25265" lon="5.83357">
        <ele>527.2</ele>
        <time>2021-05-29T08:45:37Z</time>
      </trkpt>
      <trkpt lat="43.25266" lon="5.83359">
        <ele>527.4</ele>
        <time>2021-05-29T08:45:38Z</time>
      </trkpt>
      <trkpt lat="43.25266" lon="5.83364">
        <ele>527.6</ele>
        <time>2021-05-29T08:45:40Z</time>
      </trkpt>
      <trkpt lat="43.25267" lon="5.8337">
        <ele>528</ele>
        <time>2021-05-29T08:45:43Z</time>
      </trkpt>
      <trkpt lat="43.25267" lon="5.83371">
        <ele>528.2</ele>
        <time>2021-05-29T08:45:44Z</time>
      </trkpt>
      <trkpt lat="43.25267" lon="5.83376">
        <ele>528.4</ele>
        <time>2021-05-29T08:45:46Z</time>
      </trkpt>
      <trkpt lat="43.25264" lon="5.83393">
        <ele>529.2</ele>
        <time>2021-05-29T08:45:54Z</time>
      </trkpt>
      <trkpt lat="43.25257" lon="5.83415">
        <ele>530</ele>
        <time>2021-05-29T08:46:03Z</time>
      </trkpt>
      <trkpt lat="43.25254" lon="5.8343">
        <ele>530.2</ele>
        <time>2021-05-29T08:46:09Z</time>
      </trkpt>
      <trkpt lat="43.25254" lon="5.83438">
        <ele>530.6</ele>
        <time>2021-05-29T08:46:12Z</time>
      </trkpt>
      <trkpt lat="43.25252" lon="5.83456">
        <ele>531</ele>
        <time>2021-05-29T08:46:19Z</time>
      </trkpt>
      <trkpt lat="43.25252" lon="5.83458">
        <ele>531.2</ele>
        <time>2021-05-29T08:46:20Z</time>
      </trkpt>
      <trkpt lat="43.25252" lon="5.8346">
        <ele>531.2</ele>
        <time>2021-05-29T08:46:21Z</time>
      </trkpt>
      <trkpt lat="43.25249" lon="5.83471">
        <ele>531.4</ele>
        <time>2021-05-29T08:46:26Z</time>
      </trkpt>
      <trkpt lat="43.25242" lon="5.83479">
        <ele>532.2</ele>
        <time>2021-05-29T08:46:31Z</time>
      </trkpt>
      <trkpt lat="43.25236" lon="5.83487">
        <ele>532.6</ele>
        <time>2021-05-29T08:46:35Z</time>
      </trkpt>
      <trkpt lat="43.25235" lon="5.83493">
        <ele>532.8</ele>
        <time>2021-05-29T08:46:37Z</time>
      </trkpt>
      <trkpt lat="43.25236" lon="5.83495">
        <ele>533</ele>
        <time>2021-05-29T08:46:38Z</time>
      </trkpt>
      <trkpt lat="43.25237" lon="5.835">
        <ele>533.2</ele>
        <time>2021-05-29T08:46:40Z</time>
      </trkpt>
      <trkpt lat="43.25238" lon="5.83502">
        <ele>533.2</ele>
        <time>2021-05-29T08:46:41Z</time>
      </trkpt>
      <trkpt lat="43.2524" lon="5.83507">
        <ele>533.4</ele>
        <time>2021-05-29T08:46:43Z</time>
      </trkpt>
      <trkpt lat="43.25241" lon="5.8351">
        <ele>533.4</ele>
        <time>2021-05-29T08:46:44Z</time>
      </trkpt>
      <trkpt lat="43.25242" lon="5.83512">
        <ele>533.6</ele>
        <time>2021-05-29T08:46:45Z</time>
      </trkpt>
      <trkpt lat="43.25252" lon="5.83531">
        <ele>534</ele>
        <time>2021-05-29T08:46:54Z</time>
      </trkpt>
      <trkpt lat="43.25253" lon="5.83533">
        <ele>534.2</ele>
        <time>2021-05-29T08:46:55Z</time>
      </trkpt>
      <trkpt lat="43.25254" lon="5.83535">
        <ele>534.2</ele>
        <time>2021-05-29T08:46:56Z</time>
      </trkpt>
      <trkpt lat="43.25254" lon="5.83538">
        <ele>534.4</ele>
        <time>2021-05-29T08:46:57Z</time>
      </trkpt>
      <trkpt lat="43.25256" lon="5.83544">
        <ele>534.6</ele>
        <time>2021-05-29T08:47:00Z</time>
      </trkpt>
      <trkpt lat="43.25257" lon="5.83546">
        <ele>534.6</ele>
        <time>2021-05-29T08:47:01Z</time>
      </trkpt>
      <trkpt lat="43.25258" lon="5.83551">
        <ele>534.8</ele>
        <time>2021-05-29T08:47:03Z</time>
      </trkpt>
      <trkpt lat="43.25258" lon="5.83553">
        <ele>534.8</ele>
        <time>2021-05-29T08:47:04Z</time>
      </trkpt>
      <trkpt lat="43.25258" lon="5.83556">
        <ele>535</ele>
        <time>2021-05-29T08:47:05Z</time>
      </trkpt>
      <trkpt lat="43.25259" lon="5.83558">
        <ele>535</ele>
        <time>2021-05-29T08:47:06Z</time>
      </trkpt>
      <trkpt lat="43.25259" lon="5.8356">
        <ele>535.2</ele>
        <time>2021-05-29T08:47:07Z</time>
      </trkpt>
      <trkpt lat="43.2526" lon="5.83565">
        <ele>535.6</ele>
        <time>2021-05-29T08:47:09Z</time>
      </trkpt>
      <trkpt lat="43.25265" lon="5.8358">
        <ele>536.8</ele>
        <time>2021-05-29T08:47:16Z</time>
      </trkpt>
      <trkpt lat="43.25266" lon="5.83582">
        <ele>536.8</ele>
        <time>2021-05-29T08:47:17Z</time>
      </trkpt>
      <trkpt lat="43.25266" lon="5.83584">
        <ele>536.8</ele>
        <time>2021-05-29T08:47:18Z</time>
      </trkpt>
      <trkpt lat="43.25269" lon="5.83595">
        <ele>537</ele>
        <time>2021-05-29T08:47:23Z</time>
      </trkpt>
      <trkpt lat="43.25271" lon="5.83602">
        <ele>537.6</ele>
        <time>2021-05-29T08:47:26Z</time>
      </trkpt>
      <trkpt lat="43.25272" lon="5.83604">
        <ele>537.6</ele>
        <time>2021-05-29T08:47:27Z</time>
      </trkpt>
      <trkpt lat="43.25272" lon="5.83606">
        <ele>537.6</ele>
        <time>2021-05-29T08:47:28Z</time>
      </trkpt>
      <trkpt lat="43.25275" lon="5.83612">
        <ele>538.2</ele>
        <time>2021-05-29T08:47:31Z</time>
      </trkpt>
      <trkpt lat="43.25275" lon="5.83618">
        <ele>538.2</ele>
        <time>2021-05-29T08:47:34Z</time>
      </trkpt>
      <trkpt lat="43.25275" lon="5.83624">
        <ele>538.8</ele>
        <time>2021-05-29T08:47:37Z</time>
      </trkpt>
      <trkpt lat="43.25275" lon="5.83631">
        <ele>538.8</ele>
        <time>2021-05-29T08:47:40Z</time>
      </trkpt>
      <trkpt lat="43.25273" lon="5.83647">
        <ele>540</ele>
        <time>2021-05-29T08:47:47Z</time>
      </trkpt>
      <trkpt lat="43.25271" lon="5.83653">
        <ele>540.4</ele>
        <time>2021-05-29T08:47:50Z</time>
      </trkpt>
      <trkpt lat="43.25269" lon="5.83663">
        <ele>541</ele>
        <time>2021-05-29T08:47:54Z</time>
      </trkpt>
      <trkpt lat="43.25269" lon="5.83667">
        <ele>541.2</ele>
        <time>2021-05-29T08:47:56Z</time>
      </trkpt>
      <trkpt lat="43.25267" lon="5.83683">
        <ele>542</ele>
        <time>2021-05-29T08:48:03Z</time>
      </trkpt>
      <trkpt lat="43.25265" lon="5.83696">
        <ele>543</ele>
        <time>2021-05-29T08:48:09Z</time>
      </trkpt>
      <trkpt lat="43.25264" lon="5.83703">
        <ele>543.4</ele>
        <time>2021-05-29T08:48:12Z</time>
      </trkpt>
      <trkpt lat="43.2526" lon="5.83719">
        <ele>544</ele>
        <time>2021-05-29T08:48:19Z</time>
      </trkpt>
      <trkpt lat="43.25259" lon="5.83721">
        <ele>544.2</ele>
        <time>2021-05-29T08:48:20Z</time>
      </trkpt>
      <trkpt lat="43.25257" lon="5.83725">
        <ele>544.2</ele>
        <time>2021-05-29T08:48:22Z</time>
      </trkpt>
      <trkpt lat="43.25246" lon="5.83747">
        <ele>545</ele>
        <time>2021-05-29T08:48:31Z</time>
      </trkpt>
      <trkpt lat="43.25243" lon="5.83753">
        <ele>545.2</ele>
        <time>2021-05-29T08:48:33Z</time>
      </trkpt>
      <trkpt lat="43.25235" lon="5.83772">
        <ele>545.4</ele>
        <time>2021-05-29T08:48:40Z</time>
      </trkpt>
      <trkpt lat="43.25227" lon="5.8379">
        <ele>546</ele>
        <time>2021-05-29T08:48:47Z</time>
      </trkpt>
      <trkpt lat="43.25226" lon="5.83792">
        <ele>546</ele>
        <time>2021-05-29T08:48:48Z</time>
      </trkpt>
      <trkpt lat="43.25218" lon="5.83811">
        <ele>546.4</ele>
        <time>2021-05-29T08:48:55Z</time>
      </trkpt>
      <trkpt lat="43.25215" lon="5.83819">
        <ele>546.8</ele>
        <time>2021-05-29T08:48:58Z</time>
      </trkpt>
      <trkpt lat="43.25211" lon="5.83827">
        <ele>547.2</ele>
        <time>2021-05-29T08:49:01Z</time>
      </trkpt>
      <trkpt lat="43.25209" lon="5.83835">
        <ele>547.2</ele>
        <time>2021-05-29T08:49:04Z</time>
      </trkpt>
      <trkpt lat="43.25202" lon="5.83856">
        <ele>547.6</ele>
        <time>2021-05-29T08:49:11Z</time>
      </trkpt>
      <trkpt lat="43.25202" lon="5.83863">
        <ele>547.8</ele>
        <time>2021-05-29T08:49:14Z</time>
      </trkpt>
      <trkpt lat="43.25201" lon="5.83867">
        <ele>547.6</ele>
        <time>2021-05-29T08:49:16Z</time>
      </trkpt>
      <trkpt lat="43.25201" lon="5.83872">
        <ele>547.8</ele>
        <time>2021-05-29T08:49:18Z</time>
      </trkpt>
      <trkpt lat="43.25199" lon="5.83881">
        <ele>548</ele>
        <time>2021-05-29T08:49:21Z</time>
      </trkpt>
      <trkpt lat="43.25199" lon="5.83883">
        <ele>548</ele>
        <time>2021-05-29T08:49:22Z</time>
      </trkpt>
      <trkpt lat="43.25199" lon="5.83909">
        <ele>549</ele>
        <time>2021-05-29T08:49:31Z</time>
      </trkpt>
      <trkpt lat="43.25201" lon="5.83915">
        <ele>549.2</ele>
        <time>2021-05-29T08:49:33Z</time>
      </trkpt>
      <trkpt lat="43.25201" lon="5.83932">
        <ele>550</ele>
        <time>2021-05-29T08:49:39Z</time>
      </trkpt>
      <trkpt lat="43.25202" lon="5.83934">
        <ele>550</ele>
        <time>2021-05-29T08:49:40Z</time>
      </trkpt>
      <trkpt lat="43.25202" lon="5.8394">
        <ele>550.2</ele>
        <time>2021-05-29T08:49:42Z</time>
      </trkpt>
      <trkpt lat="43.25204" lon="5.83958">
        <ele>550.8</ele>
        <time>2021-05-29T08:49:48Z</time>
      </trkpt>
      <trkpt lat="43.25205" lon="5.83966">
        <ele>551</ele>
        <time>2021-05-29T08:49:51Z</time>
      </trkpt>
      <trkpt lat="43.25205" lon="5.8397">
        <ele>551</ele>
        <time>2021-05-29T08:49:52Z</time>
      </trkpt>
      <trkpt lat="43.25205" lon="5.83973">
        <ele>551.2</ele>
        <time>2021-05-29T08:49:53Z</time>
      </trkpt>
      <trkpt lat="43.25204" lon="5.84005">
        <ele>552</ele>
        <time>2021-05-29T08:50:02Z</time>
      </trkpt>
      <trkpt lat="43.25204" lon="5.84009">
        <ele>552</ele>
        <time>2021-05-29T08:50:03Z</time>
      </trkpt>
      <trkpt lat="43.252" lon="5.84027">
        <ele>552.2</ele>
        <time>2021-05-29T08:50:10Z</time>
      </trkpt>
      <trkpt lat="43.25198" lon="5.84039">
        <ele>553.2</ele>
        <time>2021-05-29T08:50:15Z</time>
      </trkpt>
      <trkpt lat="43.25197" lon="5.84047">
        <ele>553.4</ele>
        <time>2021-05-29T08:50:18Z</time>
      </trkpt>
      <trkpt lat="43.25195" lon="5.84053">
        <ele>553.8</ele>
        <time>2021-05-29T08:50:20Z</time>
      </trkpt>
      <trkpt lat="43.25194" lon="5.8407">
        <ele>554</ele>
        <time>2021-05-29T08:50:26Z</time>
      </trkpt>
      <trkpt lat="43.25194" lon="5.84079">
        <ele>554.4</ele>
        <time>2021-05-29T08:50:29Z</time>
      </trkpt>
      <trkpt lat="43.25196" lon="5.84089">
        <ele>554.4</ele>
        <time>2021-05-29T08:50:33Z</time>
      </trkpt>
      <trkpt lat="43.252" lon="5.84103">
        <ele>554.6</ele>
        <time>2021-05-29T08:50:40Z</time>
      </trkpt>
      <trkpt lat="43.25208" lon="5.84127">
        <ele>554.8</ele>
        <time>2021-05-29T08:50:50Z</time>
      </trkpt>
      <trkpt lat="43.2521" lon="5.84138">
        <ele>555.4</ele>
        <time>2021-05-29T08:50:55Z</time>
      </trkpt>
      <trkpt lat="43.25211" lon="5.84141">
        <ele>555.4</ele>
        <time>2021-05-29T08:50:56Z</time>
      </trkpt>
      <trkpt lat="43.25212" lon="5.84153">
        <ele>556.4</ele>
        <time>2021-05-29T08:51:02Z</time>
      </trkpt>
      <trkpt lat="43.25212" lon="5.84158">
        <ele>556.8</ele>
        <time>2021-05-29T08:51:04Z</time>
      </trkpt>
      <trkpt lat="43.25213" lon="5.84165">
        <ele>558</ele>
        <time>2021-05-29T08:51:08Z</time>
      </trkpt>
      <trkpt lat="43.25213" lon="5.84168">
        <ele>559</ele>
        <time>2021-05-29T08:51:10Z</time>
      </trkpt>
      <trkpt lat="43.25213" lon="5.84176">
        <ele>560</ele>
        <time>2021-05-29T08:51:15Z</time>
      </trkpt>
      <trkpt lat="43.25213" lon="5.84177">
        <ele>560</ele>
        <time>2021-05-29T08:51:16Z</time>
      </trkpt>
      <trkpt lat="43.25212" lon="5.84181">
        <ele>560.4</ele>
        <time>2021-05-29T08:51:18Z</time>
      </trkpt>
      <trkpt lat="43.25212" lon="5.84186">
        <ele>561</ele>
        <time>2021-05-29T08:51:21Z</time>
      </trkpt>
      <trkpt lat="43.25212" lon="5.84188">
        <ele>561</ele>
        <time>2021-05-29T08:51:22Z</time>
      </trkpt>
      <trkpt lat="43.25212" lon="5.84189">
        <ele>561.2</ele>
        <time>2021-05-29T08:51:23Z</time>
      </trkpt>
      <trkpt lat="43.25212" lon="5.84196">
        <ele>561.6</ele>
        <time>2021-05-29T08:51:27Z</time>
      </trkpt>
      <trkpt lat="43.25212" lon="5.84199">
        <ele>562</ele>
        <time>2021-05-29T08:51:29Z</time>
      </trkpt>
      <trkpt lat="43.25213" lon="5.84206">
        <ele>563</ele>
        <time>2021-05-29T08:51:34Z</time>
      </trkpt>
      <trkpt lat="43.25213" lon="5.84208">
        <ele>563</ele>
        <time>2021-05-29T08:51:35Z</time>
      </trkpt>
      <trkpt lat="43.25213" lon="5.8421">
        <ele>563.2</ele>
        <time>2021-05-29T08:51:36Z</time>
      </trkpt>
      <trkpt lat="43.25213" lon="5.84212">
        <ele>563.2</ele>
        <time>2021-05-29T08:51:37Z</time>
      </trkpt>
      <trkpt lat="43.25213" lon="5.8422">
        <ele>563.8</ele>
        <time>2021-05-29T08:51:42Z</time>
      </trkpt>
      <trkpt lat="43.25213" lon="5.84224">
        <ele>564</ele>
        <time>2021-05-29T08:51:45Z</time>
      </trkpt>
      <trkpt lat="43.25213" lon="5.84229">
        <ele>564.4</ele>
        <time>2021-05-29T08:51:48Z</time>
      </trkpt>
      <trkpt lat="43.25214" lon="5.8424">
        <ele>565</ele>
        <time>2021-05-29T08:51:54Z</time>
      </trkpt>
      <trkpt lat="43.25214" lon="5.84247">
        <ele>565.4</ele>
        <time>2021-05-29T08:51:58Z</time>
      </trkpt>
      <trkpt lat="43.25214" lon="5.84255">
        <ele>565.8</ele>
        <time>2021-05-29T08:52:03Z</time>
      </trkpt>
      <trkpt lat="43.25214" lon="5.84261">
        <ele>566</ele>
        <time>2021-05-29T08:52:07Z</time>
      </trkpt>
      <trkpt lat="43.25213" lon="5.84266">
        <ele>566.6</ele>
        <time>2021-05-29T08:52:10Z</time>
      </trkpt>
      <trkpt lat="43.25213" lon="5.8427">
        <ele>566.8</ele>
        <time>2021-05-29T08:52:12Z</time>
      </trkpt>
      <trkpt lat="43.25212" lon="5.84273">
        <ele>567</ele>
        <time>2021-05-29T08:52:14Z</time>
      </trkpt>
      <trkpt lat="43.2521" lon="5.8428">
        <ele>567.4</ele>
        <time>2021-05-29T08:52:18Z</time>
      </trkpt>
      <trkpt lat="43.25209" lon="5.84285">
        <ele>567.8</ele>
        <time>2021-05-29T08:52:21Z</time>
      </trkpt>
      <trkpt lat="43.25208" lon="5.84288">
        <ele>568</ele>
        <time>2021-05-29T08:52:23Z</time>
      </trkpt>
      <trkpt lat="43.25206" lon="5.84294">
        <ele>568.4</ele>
        <time>2021-05-29T08:52:26Z</time>
      </trkpt>
      <trkpt lat="43.25204" lon="5.84302">
        <ele>568.6</ele>
        <time>2021-05-29T08:52:30Z</time>
      </trkpt>
      <trkpt lat="43.25203" lon="5.84307">
        <ele>568.8</ele>
        <time>2021-05-29T08:52:33Z</time>
      </trkpt>
      <trkpt lat="43.25201" lon="5.84315">
        <ele>569.2</ele>
        <time>2021-05-29T08:52:37Z</time>
      </trkpt>
      <trkpt lat="43.25201" lon="5.84323">
        <ele>569.4</ele>
        <time>2021-05-29T08:52:41Z</time>
      </trkpt>
      <trkpt lat="43.252" lon="5.84328">
        <ele>569.8</ele>
        <time>2021-05-29T08:52:44Z</time>
      </trkpt>
      <trkpt lat="43.252" lon="5.8433">
        <ele>570</ele>
        <time>2021-05-29T08:52:45Z</time>
      </trkpt>
      <trkpt lat="43.25198" lon="5.84345">
        <ele>570.8</ele>
        <time>2021-05-29T08:52:53Z</time>
      </trkpt>
      <trkpt lat="43.25198" lon="5.8435">
        <ele>571.2</ele>
        <time>2021-05-29T08:52:55Z</time>
      </trkpt>
      <trkpt lat="43.25196" lon="5.84364">
        <ele>571.4</ele>
        <time>2021-05-29T08:53:02Z</time>
      </trkpt>
      <trkpt lat="43.25195" lon="5.84372">
        <ele>571.6</ele>
        <time>2021-05-29T08:53:06Z</time>
      </trkpt>
      <trkpt lat="43.25192" lon="5.84384">
        <ele>572.2</ele>
        <time>2021-05-29T08:53:12Z</time>
      </trkpt>
      <trkpt lat="43.2519" lon="5.84397">
        <ele>572.8</ele>
        <time>2021-05-29T08:53:18Z</time>
      </trkpt>
      <trkpt lat="43.2519" lon="5.84399">
        <ele>572.8</ele>
        <time>2021-05-29T08:53:19Z</time>
      </trkpt>
      <trkpt lat="43.25187" lon="5.84419">
        <ele>573.4</ele>
        <time>2021-05-29T08:53:27Z</time>
      </trkpt>
      <trkpt lat="43.25185" lon="5.8443">
        <ele>573.6</ele>
        <time>2021-05-29T08:53:32Z</time>
      </trkpt>
      <trkpt lat="43.25185" lon="5.84431">
        <ele>573.8</ele>
        <time>2021-05-29T08:53:33Z</time>
      </trkpt>
      <trkpt lat="43.25184" lon="5.84434">
        <ele>573.8</ele>
        <time>2021-05-29T08:53:34Z</time>
      </trkpt>
      <trkpt lat="43.25178" lon="5.84452">
        <ele>573.8</ele>
        <time>2021-05-29T08:53:40Z</time>
      </trkpt>
      <trkpt lat="43.25174" lon="5.84463">
        <ele>574</ele>
        <time>2021-05-29T08:53:46Z</time>
      </trkpt>
      <trkpt lat="43.25173" lon="5.84467">
        <ele>574.2</ele>
        <time>2021-05-29T08:53:48Z</time>
      </trkpt>
      <trkpt lat="43.25171" lon="5.84475">
        <ele>574.6</ele>
        <time>2021-05-29T08:53:52Z</time>
      </trkpt>
      <trkpt lat="43.2517" lon="5.84479">
        <ele>574.6</ele>
        <time>2021-05-29T08:53:54Z</time>
      </trkpt>
      <trkpt lat="43.25168" lon="5.84482">
        <ele>574.8</ele>
        <time>2021-05-29T08:53:56Z</time>
      </trkpt>
      <trkpt lat="43.25167" lon="5.84494">
        <ele>575.4</ele>
        <time>2021-05-29T08:54:02Z</time>
      </trkpt>
      <trkpt lat="43.25167" lon="5.84496">
        <ele>575.6</ele>
        <time>2021-05-29T08:54:03Z</time>
      </trkpt>
      <trkpt lat="43.25166" lon="5.84502">
        <ele>576</ele>
        <time>2021-05-29T08:54:06Z</time>
      </trkpt>
      <trkpt lat="43.25167" lon="5.84507">
        <ele>576.4</ele>
        <time>2021-05-29T08:54:09Z</time>
      </trkpt>
      <trkpt lat="43.25167" lon="5.84509">
        <ele>576.6</ele>
        <time>2021-05-29T08:54:10Z</time>
      </trkpt>
      <trkpt lat="43.25168" lon="5.84517">
        <ele>577.2</ele>
        <time>2021-05-29T08:54:14Z</time>
      </trkpt>
      <trkpt lat="43.2517" lon="5.84526">
        <ele>577.8</ele>
        <time>2021-05-29T08:54:19Z</time>
      </trkpt>
      <trkpt lat="43.25171" lon="5.8453">
        <ele>578</ele>
        <time>2021-05-29T08:54:21Z</time>
      </trkpt>
      <trkpt lat="43.25171" lon="5.84537">
        <ele>578.2</ele>
        <time>2021-05-29T08:54:24Z</time>
      </trkpt>
      <trkpt lat="43.25171" lon="5.84559">
        <ele>578.8</ele>
        <time>2021-05-29T08:54:34Z</time>
      </trkpt>
      <trkpt lat="43.25171" lon="5.84575">
        <ele>579</ele>
        <time>2021-05-29T08:54:41Z</time>
      </trkpt>
      <trkpt lat="43.25171" lon="5.84585">
        <ele>579.4</ele>
        <time>2021-05-29T08:54:46Z</time>
      </trkpt>
      <trkpt lat="43.25171" lon="5.84592">
        <ele>579.4</ele>
        <time>2021-05-29T08:54:49Z</time>
      </trkpt>
      <trkpt lat="43.25168" lon="5.84602">
        <ele>580.2</ele>
        <time>2021-05-29T08:54:54Z</time>
      </trkpt>
      <trkpt lat="43.25167" lon="5.84603">
        <ele>581</ele>
        <time>2021-05-29T08:54:55Z</time>
      </trkpt>
      <trkpt lat="43.25166" lon="5.84605">
        <ele>581.4</ele>
        <time>2021-05-29T08:54:56Z</time>
      </trkpt>
      <trkpt lat="43.25164" lon="5.8461">
        <ele>582.6</ele>
        <time>2021-05-29T08:55:00Z</time>
      </trkpt>
      <trkpt lat="43.25164" lon="5.8461">
        <ele>582.6</ele>
        <time>2021-05-29T08:55:01Z</time>
      </trkpt>
      <trkpt lat="43.25164" lon="5.8461">
        <ele>583.2</ele>
        <time>2021-05-29T08:55:03Z</time>
      </trkpt>
      <trkpt lat="43.25163" lon="5.84612">
        <ele>583.6</ele>
        <time>2021-05-29T08:55:05Z</time>
      </trkpt>
      <trkpt lat="43.25163" lon="5.84613">
        <ele>583.6</ele>
        <time>2021-05-29T08:55:06Z</time>
      </trkpt>
      <trkpt lat="43.25162" lon="5.84615">
        <ele>583.8</ele>
        <time>2021-05-29T08:55:08Z</time>
      </trkpt>
      <trkpt lat="43.25161" lon="5.84616">
        <ele>583.8</ele>
        <time>2021-05-29T08:55:09Z</time>
      </trkpt>
      <trkpt lat="43.25161" lon="5.84617">
        <ele>583.8</ele>
        <time>2021-05-29T08:55:10Z</time>
      </trkpt>
      <trkpt lat="43.25161" lon="5.84618">
        <ele>583.8</ele>
        <time>2021-05-29T08:55:11Z</time>
      </trkpt>
      <trkpt lat="43.2516" lon="5.84625">
        <ele>584.4</ele>
        <time>2021-05-29T08:55:18Z</time>
      </trkpt>
      <trkpt lat="43.2516" lon="5.84627">
        <ele>584.4</ele>
        <time>2021-05-29T08:55:20Z</time>
      </trkpt>
      <trkpt lat="43.25161" lon="5.84629">
        <ele>584.6</ele>
        <time>2021-05-29T08:55:23Z</time>
      </trkpt>
      <trkpt lat="43.25161" lon="5.8463">
        <ele>584.8</ele>
        <time>2021-05-29T08:55:24Z</time>
      </trkpt>
      <trkpt lat="43.25163" lon="5.84635">
        <ele>585.4</ele>
        <time>2021-05-29T08:55:29Z</time>
      </trkpt>
      <trkpt lat="43.25163" lon="5.84635">
        <ele>585.6</ele>
        <time>2021-05-29T08:55:32Z</time>
      </trkpt>
      <trkpt lat="43.25163" lon="5.84635">
        <ele>585.8</ele>
        <time>2021-05-29T08:55:36Z</time>
      </trkpt>
      <trkpt lat="43.25163" lon="5.84635">
        <ele>585.8</ele>
        <time>2021-05-29T08:55:37Z</time>
      </trkpt>
      <trkpt lat="43.25163" lon="5.84636">
        <ele>585.8</ele>
        <time>2021-05-29T08:55:38Z</time>
      </trkpt>
      <trkpt lat="43.25163" lon="5.84639">
        <ele>586</ele>
        <time>2021-05-29T08:55:43Z</time>
      </trkpt>
      <trkpt lat="43.25163" lon="5.84639">
        <ele>586.6</ele>
        <time>2021-05-29T08:55:48Z</time>
      </trkpt>
      <trkpt lat="43.25166" lon="5.84643">
        <ele>587.6</ele>
        <time>2021-05-29T08:55:57Z</time>
      </trkpt>
      <trkpt lat="43.25168" lon="5.84647">
        <ele>588.2</ele>
        <time>2021-05-29T08:56:00Z</time>
      </trkpt>
      <trkpt lat="43.25171" lon="5.84654">
        <ele>588.6</ele>
        <time>2021-05-29T08:56:05Z</time>
      </trkpt>
      <trkpt lat="43.25171" lon="5.84655">
        <ele>588.6</ele>
        <time>2021-05-29T08:56:06Z</time>
      </trkpt>
      <trkpt lat="43.25171" lon="5.84656">
        <ele>588.8</ele>
        <time>2021-05-29T08:56:07Z</time>
      </trkpt>
      <trkpt lat="43.25171" lon="5.84656">
        <ele>589</ele>
        <time>2021-05-29T08:56:09Z</time>
      </trkpt>
      <trkpt lat="43.25171" lon="5.84656">
        <ele>589.2</ele>
        <time>2021-05-29T08:56:23Z</time>
      </trkpt>
      <trkpt lat="43.25171" lon="5.84656">
        <ele>589.2</ele>
        <time>2021-05-29T08:56:26Z</time>
      </trkpt>
      <trkpt lat="43.25173" lon="5.84663">
        <ele>589.6</ele>
        <time>2021-05-29T08:56:32Z</time>
      </trkpt>
      <trkpt lat="43.25174" lon="5.84664">
        <ele>590</ele>
        <time>2021-05-29T08:56:33Z</time>
      </trkpt>
      <trkpt lat="43.25176" lon="5.84672">
        <ele>590.4</ele>
        <time>2021-05-29T08:56:39Z</time>
      </trkpt>
      <trkpt lat="43.25176" lon="5.84673">
        <ele>590.6</ele>
        <time>2021-05-29T08:56:40Z</time>
      </trkpt>
      <trkpt lat="43.25177" lon="5.84676">
        <ele>591</ele>
        <time>2021-05-29T08:56:45Z</time>
      </trkpt>
      <trkpt lat="43.25177" lon="5.84677">
        <ele>591.4</ele>
        <time>2021-05-29T08:56:47Z</time>
      </trkpt>
      <trkpt lat="43.25177" lon="5.84677">
        <ele>591.4</ele>
        <time>2021-05-29T08:56:48Z</time>
      </trkpt>
      <trkpt lat="43.25178" lon="5.84681">
        <ele>592.2</ele>
        <time>2021-05-29T08:56:53Z</time>
      </trkpt>
      <trkpt lat="43.25179" lon="5.84683">
        <ele>592.6</ele>
        <time>2021-05-29T08:56:57Z</time>
      </trkpt>
      <trkpt lat="43.2518" lon="5.84687">
        <ele>593</ele>
        <time>2021-05-29T08:57:02Z</time>
      </trkpt>
      <trkpt lat="43.2518" lon="5.84689">
        <ele>593.2</ele>
        <time>2021-05-29T08:57:04Z</time>
      </trkpt>
      <trkpt lat="43.2518" lon="5.8469">
        <ele>593.2</ele>
        <time>2021-05-29T08:57:05Z</time>
      </trkpt>
      <trkpt lat="43.25181" lon="5.84692">
        <ele>593.6</ele>
        <time>2021-05-29T08:57:07Z</time>
      </trkpt>
      <trkpt lat="43.25181" lon="5.84694">
        <ele>594.2</ele>
        <time>2021-05-29T08:57:10Z</time>
      </trkpt>
      <trkpt lat="43.25181" lon="5.84697">
        <ele>594.6</ele>
        <time>2021-05-29T08:57:13Z</time>
      </trkpt>
      <trkpt lat="43.25182" lon="5.84701">
        <ele>595.2</ele>
        <time>2021-05-29T08:57:18Z</time>
      </trkpt>
      <trkpt lat="43.25181" lon="5.84702">
        <ele>595.6</ele>
        <time>2021-05-29T08:57:20Z</time>
      </trkpt>
      <trkpt lat="43.25183" lon="5.84707">
        <ele>596.2</ele>
        <time>2021-05-29T08:57:28Z</time>
      </trkpt>
      <trkpt lat="43.25183" lon="5.84709">
        <ele>596.6</ele>
        <time>2021-05-29T08:57:30Z</time>
      </trkpt>
      <trkpt lat="43.25184" lon="5.84714">
        <ele>597.2</ele>
        <time>2021-05-29T08:57:36Z</time>
      </trkpt>
      <trkpt lat="43.25184" lon="5.84714">
        <ele>597.8</ele>
        <time>2021-05-29T08:57:38Z</time>
      </trkpt>
      <trkpt lat="43.25184" lon="5.84714">
        <ele>598</ele>
        <time>2021-05-29T08:57:40Z</time>
      </trkpt>
      <trkpt lat="43.25184" lon="5.84714">
        <ele>598.4</ele>
        <time>2021-05-29T08:57:46Z</time>
      </trkpt>
      <trkpt lat="43.25184" lon="5.84714">
        <ele>598.6</ele>
        <time>2021-05-29T08:57:53Z</time>
      </trkpt>
      <trkpt lat="43.25184" lon="5.84715">
        <ele>599.4</ele>
        <time>2021-05-29T08:58:02Z</time>
      </trkpt>
      <trkpt lat="43.25186" lon="5.8472">
        <ele>599.8</ele>
        <time>2021-05-29T08:58:09Z</time>
      </trkpt>
      <trkpt lat="43.25187" lon="5.84726">
        <ele>600.4</ele>
        <time>2021-05-29T08:58:13Z</time>
      </trkpt>
      <trkpt lat="43.25188" lon="5.84728">
        <ele>600.4</ele>
        <time>2021-05-29T08:58:14Z</time>
      </trkpt>
      <trkpt lat="43.25191" lon="5.84733">
        <ele>601</ele>
        <time>2021-05-29T08:58:19Z</time>
      </trkpt>
      <trkpt lat="43.25192" lon="5.84735">
        <ele>601.2</ele>
        <time>2021-05-29T08:58:22Z</time>
      </trkpt>
      <trkpt lat="43.25193" lon="5.84737">
        <ele>601.4</ele>
        <time>2021-05-29T08:58:24Z</time>
      </trkpt>
      <trkpt lat="43.25194" lon="5.84739">
        <ele>601.8</ele>
        <time>2021-05-29T08:58:27Z</time>
      </trkpt>
      <trkpt lat="43.25195" lon="5.84741">
        <ele>602.4</ele>
        <time>2021-05-29T08:58:31Z</time>
      </trkpt>
      <trkpt lat="43.25196" lon="5.84742">
        <ele>602.6</ele>
        <time>2021-05-29T08:58:32Z</time>
      </trkpt>
      <trkpt lat="43.25197" lon="5.84746">
        <ele>603.2</ele>
        <time>2021-05-29T08:58:38Z</time>
      </trkpt>
      <trkpt lat="43.25198" lon="5.84747">
        <ele>603.6</ele>
        <time>2021-05-29T08:58:42Z</time>
      </trkpt>
      <trkpt lat="43.25198" lon="5.84747">
        <ele>603.8</ele>
        <time>2021-05-29T08:58:45Z</time>
      </trkpt>
      <trkpt lat="43.25198" lon="5.84747">
        <ele>604</ele>
        <time>2021-05-29T08:58:47Z</time>
      </trkpt>
      <trkpt lat="43.25198" lon="5.84747">
        <ele>604</ele>
        <time>2021-05-29T08:58:48Z</time>
      </trkpt>
      <trkpt lat="43.25198" lon="5.84747">
        <ele>604.8</ele>
        <time>2021-05-29T08:58:58Z</time>
      </trkpt>
      <trkpt lat="43.25198" lon="5.84747">
        <ele>604.8</ele>
        <time>2021-05-29T08:59:00Z</time>
      </trkpt>
      <trkpt lat="43.25198" lon="5.84747">
        <ele>604.8</ele>
        <time>2021-05-29T08:59:01Z</time>
      </trkpt>
      <trkpt lat="43.25198" lon="5.8475">
        <ele>605.8</ele>
        <time>2021-05-29T08:59:16Z</time>
      </trkpt>
      <trkpt lat="43.25199" lon="5.84754">
        <ele>606.4</ele>
        <time>2021-05-29T08:59:24Z</time>
      </trkpt>
      <trkpt lat="43.25199" lon="5.84755">
        <ele>606.8</ele>
        <time>2021-05-29T08:59:27Z</time>
      </trkpt>
      <trkpt lat="43.252" lon="5.84762">
        <ele>607.6</ele>
        <time>2021-05-29T08:59:44Z</time>
      </trkpt>
      <trkpt lat="43.252" lon="5.84762">
        <ele>607.8</ele>
        <time>2021-05-29T08:59:46Z</time>
      </trkpt>
      <trkpt lat="43.25201" lon="5.84763">
        <ele>608.4</ele>
        <time>2021-05-29T08:59:51Z</time>
      </trkpt>
      <trkpt lat="43.25201" lon="5.84763">
        <ele>608.6</ele>
        <time>2021-05-29T08:59:52Z</time>
      </trkpt>
      <trkpt lat="43.25201" lon="5.84763">
        <ele>608.6</ele>
        <time>2021-05-29T08:59:53Z</time>
      </trkpt>
      <trkpt lat="43.25201" lon="5.84764">
        <ele>609</ele>
        <time>2021-05-29T08:59:55Z</time>
      </trkpt>
      <trkpt lat="43.25201" lon="5.84766">
        <ele>609.4</ele>
        <time>2021-05-29T08:59:57Z</time>
      </trkpt>
      <trkpt lat="43.25201" lon="5.84769">
        <ele>609.8</ele>
        <time>2021-05-29T08:59:59Z</time>
      </trkpt>
      <trkpt lat="43.25202" lon="5.84774">
        <ele>610</ele>
        <time>2021-05-29T09:00:02Z</time>
      </trkpt>
      <trkpt lat="43.25203" lon="5.84784">
        <ele>610.8</ele>
        <time>2021-05-29T09:00:11Z</time>
      </trkpt>
      <trkpt lat="43.25203" lon="5.84784">
        <ele>611.2</ele>
        <time>2021-05-29T09:00:16Z</time>
      </trkpt>
      <trkpt lat="43.25204" lon="5.84784">
        <ele>612.2</ele>
        <time>2021-05-29T09:00:25Z</time>
      </trkpt>
      <trkpt lat="43.25205" lon="5.84791">
        <ele>613.4</ele>
        <time>2021-05-29T09:00:36Z</time>
      </trkpt>
      <trkpt lat="43.25205" lon="5.84797">
        <ele>613.6</ele>
        <time>2021-05-29T09:00:44Z</time>
      </trkpt>
      <trkpt lat="43.25205" lon="5.84799">
        <ele>613.8</ele>
        <time>2021-05-29T09:00:46Z</time>
      </trkpt>
      <trkpt lat="43.25204" lon="5.84801">
        <ele>614.4</ele>
        <time>2021-05-29T09:00:53Z</time>
      </trkpt>
      <trkpt lat="43.25204" lon="5.84806">
        <ele>615.2</ele>
        <time>2021-05-29T09:01:02Z</time>
      </trkpt>
      <trkpt lat="43.25203" lon="5.84813">
        <ele>616.2</ele>
        <time>2021-05-29T09:01:12Z</time>
      </trkpt>
      <trkpt lat="43.25202" lon="5.84814">
        <ele>616.2</ele>
        <time>2021-05-29T09:01:13Z</time>
      </trkpt>
      <trkpt lat="43.25201" lon="5.84821">
        <ele>617.2</ele>
        <time>2021-05-29T09:01:22Z</time>
      </trkpt>
      <trkpt lat="43.252" lon="5.84824">
        <ele>617.4</ele>
        <time>2021-05-29T09:01:24Z</time>
      </trkpt>
      <trkpt lat="43.252" lon="5.84824">
        <ele>617.4</ele>
        <time>2021-05-29T09:01:25Z</time>
      </trkpt>
      <trkpt lat="43.252" lon="5.84824">
        <ele>618.4</ele>
        <time>2021-05-29T09:01:32Z</time>
      </trkpt>
      <trkpt lat="43.252" lon="5.84828">
        <ele>618.8</ele>
        <time>2021-05-29T09:01:38Z</time>
      </trkpt>
      <trkpt lat="43.252" lon="5.84831">
        <ele>619.4</ele>
        <time>2021-05-29T09:01:42Z</time>
      </trkpt>
      <trkpt lat="43.25205" lon="5.84842">
        <ele>620.4</ele>
        <time>2021-05-29T09:01:48Z</time>
      </trkpt>
      <trkpt lat="43.25206" lon="5.84845">
        <ele>620.4</ele>
        <time>2021-05-29T09:01:50Z</time>
      </trkpt>
      <trkpt lat="43.2521" lon="5.84851">
        <ele>621</ele>
        <time>2021-05-29T09:01:55Z</time>
      </trkpt>
      <trkpt lat="43.25213" lon="5.84854">
        <ele>621.6</ele>
        <time>2021-05-29T09:02:00Z</time>
      </trkpt>
      <trkpt lat="43.25215" lon="5.84855">
        <ele>622</ele>
        <time>2021-05-29T09:02:03Z</time>
      </trkpt>
      <trkpt lat="43.25217" lon="5.84855">
        <ele>622.2</ele>
        <time>2021-05-29T09:02:05Z</time>
      </trkpt>
      <trkpt lat="43.25223" lon="5.84856">
        <ele>622.6</ele>
        <time>2021-05-29T09:02:11Z</time>
      </trkpt>
      <trkpt lat="43.25224" lon="5.84856">
        <ele>622.8</ele>
        <time>2021-05-29T09:02:13Z</time>
      </trkpt>
      <trkpt lat="43.25226" lon="5.84857">
        <ele>623</ele>
        <time>2021-05-29T09:02:15Z</time>
      </trkpt>
      <trkpt lat="43.25229" lon="5.84857">
        <ele>623.2</ele>
        <time>2021-05-29T09:02:18Z</time>
      </trkpt>
      <trkpt lat="43.25231" lon="5.84857">
        <ele>623.8</ele>
        <time>2021-05-29T09:02:21Z</time>
      </trkpt>
      <trkpt lat="43.25232" lon="5.84858">
        <ele>624</ele>
        <time>2021-05-29T09:02:22Z</time>
      </trkpt>
      <trkpt lat="43.25236" lon="5.84865">
        <ele>624.4</ele>
        <time>2021-05-29T09:02:29Z</time>
      </trkpt>
      <trkpt lat="43.25235" lon="5.84871">
        <ele>624.8</ele>
        <time>2021-05-29T09:02:35Z</time>
      </trkpt>
      <trkpt lat="43.25234" lon="5.84872">
        <ele>624.8</ele>
        <time>2021-05-29T09:02:36Z</time>
      </trkpt>
      <trkpt lat="43.25234" lon="5.84873">
        <ele>625</ele>
        <time>2021-05-29T09:02:37Z</time>
      </trkpt>
      <trkpt lat="43.25232" lon="5.84877">
        <ele>625.6</ele>
        <time>2021-05-29T09:02:44Z</time>
      </trkpt>
      <trkpt lat="43.25232" lon="5.84877">
        <ele>625.8</ele>
        <time>2021-05-29T09:02:45Z</time>
      </trkpt>
      <trkpt lat="43.25232" lon="5.84877">
        <ele>625.8</ele>
        <time>2021-05-29T09:02:47Z</time>
      </trkpt>
      <trkpt lat="43.25229" lon="5.84878">
        <ele>625.8</ele>
        <time>2021-05-29T09:02:51Z</time>
      </trkpt>
      <trkpt lat="43.25228" lon="5.84879">
        <ele>625.8</ele>
        <time>2021-05-29T09:02:52Z</time>
      </trkpt>
      <trkpt lat="43.2522" lon="5.84882">
        <ele>626.2</ele>
        <time>2021-05-29T09:02:58Z</time>
      </trkpt>
      <trkpt lat="43.25219" lon="5.84883">
        <ele>626.2</ele>
        <time>2021-05-29T09:02:59Z</time>
      </trkpt>
      <trkpt lat="43.25211" lon="5.84886">
        <ele>626.8</ele>
        <time>2021-05-29T09:03:05Z</time>
      </trkpt>
      <trkpt lat="43.25209" lon="5.84886">
        <ele>626.8</ele>
        <time>2021-05-29T09:03:06Z</time>
      </trkpt>
      <trkpt lat="43.25208" lon="5.84886">
        <ele>626.8</ele>
        <time>2021-05-29T09:03:07Z</time>
      </trkpt>
      <trkpt lat="43.25198" lon="5.84889">
        <ele>627</ele>
        <time>2021-05-29T09:03:13Z</time>
      </trkpt>
      <trkpt lat="43.25194" lon="5.8489">
        <ele>627.4</ele>
        <time>2021-05-29T09:03:16Z</time>
      </trkpt>
      <trkpt lat="43.25188" lon="5.84892">
        <ele>627.8</ele>
        <time>2021-05-29T09:03:20Z</time>
      </trkpt>
      <trkpt lat="43.25186" lon="5.84892">
        <ele>627.8</ele>
        <time>2021-05-29T09:03:21Z</time>
      </trkpt>
      <trkpt lat="43.25175" lon="5.84894">
        <ele>628.4</ele>
        <time>2021-05-29T09:03:29Z</time>
      </trkpt>
      <trkpt lat="43.2517" lon="5.84895">
        <ele>628.8</ele>
        <time>2021-05-29T09:03:32Z</time>
      </trkpt>
      <trkpt lat="43.25161" lon="5.84896">
        <ele>629</ele>
        <time>2021-05-29T09:03:36Z</time>
      </trkpt>
      <trkpt lat="43.25153" lon="5.84898">
        <ele>629.2</ele>
        <time>2021-05-29T09:03:41Z</time>
      </trkpt>
      <trkpt lat="43.25148" lon="5.84906">
        <ele>629.8</ele>
        <time>2021-05-29T09:03:47Z</time>
      </trkpt>
      <trkpt lat="43.25149" lon="5.84908">
        <ele>630</ele>
        <time>2021-05-29T09:03:48Z</time>
      </trkpt>
      <trkpt lat="43.2515" lon="5.84918">
        <ele>631</ele>
        <time>2021-05-29T09:03:55Z</time>
      </trkpt>
      <trkpt lat="43.2515" lon="5.8492">
        <ele>631.2</ele>
        <time>2021-05-29T09:03:56Z</time>
      </trkpt>
      <trkpt lat="43.25154" lon="5.84926">
        <ele>632.2</ele>
        <time>2021-05-29T09:04:02Z</time>
      </trkpt>
      <trkpt lat="43.25155" lon="5.84928">
        <ele>632.6</ele>
        <time>2021-05-29T09:04:04Z</time>
      </trkpt>
      <trkpt lat="43.25161" lon="5.84932">
        <ele>633.2</ele>
        <time>2021-05-29T09:04:10Z</time>
      </trkpt>
      <trkpt lat="43.25162" lon="5.84932">
        <ele>633.4</ele>
        <time>2021-05-29T09:04:11Z</time>
      </trkpt>
      <trkpt lat="43.25165" lon="5.84935">
        <ele>633.8</ele>
        <time>2021-05-29T09:04:14Z</time>
      </trkpt>
      <trkpt lat="43.2517" lon="5.84937">
        <ele>634.4</ele>
        <time>2021-05-29T09:04:19Z</time>
      </trkpt>
      <trkpt lat="43.25173" lon="5.84939">
        <ele>634.8</ele>
        <time>2021-05-29T09:04:23Z</time>
      </trkpt>
      <trkpt lat="43.25174" lon="5.8494">
        <ele>635</ele>
        <time>2021-05-29T09:04:24Z</time>
      </trkpt>
      <trkpt lat="43.25179" lon="5.84944">
        <ele>635.6</ele>
        <time>2021-05-29T09:04:29Z</time>
      </trkpt>
      <trkpt lat="43.25179" lon="5.84945">
        <ele>635.8</ele>
        <time>2021-05-29T09:04:30Z</time>
      </trkpt>
      <trkpt lat="43.2518" lon="5.84946">
        <ele>636</ele>
        <time>2021-05-29T09:04:31Z</time>
      </trkpt>
      <trkpt lat="43.2518" lon="5.84946">
        <ele>636.2</ele>
        <time>2021-05-29T09:04:32Z</time>
      </trkpt>
      <trkpt lat="43.25182" lon="5.84948">
        <ele>636.4</ele>
        <time>2021-05-29T09:04:34Z</time>
      </trkpt>
      <trkpt lat="43.25183" lon="5.84951">
        <ele>636.6</ele>
        <time>2021-05-29T09:04:37Z</time>
      </trkpt>
      <trkpt lat="43.25184" lon="5.84953">
        <ele>636.8</ele>
        <time>2021-05-29T09:04:38Z</time>
      </trkpt>
      <trkpt lat="43.25184" lon="5.84954">
        <ele>636.8</ele>
        <time>2021-05-29T09:04:39Z</time>
      </trkpt>
      <trkpt lat="43.25185" lon="5.84959">
        <ele>637.2</ele>
        <time>2021-05-29T09:04:43Z</time>
      </trkpt>
      <trkpt lat="43.25186" lon="5.84961">
        <ele>637.6</ele>
        <time>2021-05-29T09:04:46Z</time>
      </trkpt>
      <trkpt lat="43.25188" lon="5.84964">
        <ele>637.8</ele>
        <time>2021-05-29T09:04:49Z</time>
      </trkpt>
      <trkpt lat="43.25189" lon="5.84967">
        <ele>638</ele>
        <time>2021-05-29T09:04:51Z</time>
      </trkpt>
      <trkpt lat="43.25191" lon="5.84975">
        <ele>638.8</ele>
        <time>2021-05-29T09:04:57Z</time>
      </trkpt>
      <trkpt lat="43.25193" lon="5.84981">
        <ele>639.4</ele>
        <time>2021-05-29T09:05:02Z</time>
      </trkpt>
      <trkpt lat="43.25193" lon="5.84982">
        <ele>639.6</ele>
        <time>2021-05-29T09:05:03Z</time>
      </trkpt>
      <trkpt lat="43.25194" lon="5.84985">
        <ele>640</ele>
        <time>2021-05-29T09:05:05Z</time>
      </trkpt>
      <trkpt lat="43.25194" lon="5.84986">
        <ele>640</ele>
        <time>2021-05-29T09:05:06Z</time>
      </trkpt>
      <trkpt lat="43.25193" lon="5.84987">
        <ele>640.2</ele>
        <time>2021-05-29T09:05:07Z</time>
      </trkpt>
      <trkpt lat="43.25193" lon="5.84988">
        <ele>640.2</ele>
        <time>2021-05-29T09:05:08Z</time>
      </trkpt>
      <trkpt lat="43.25194" lon="5.8499">
        <ele>640.2</ele>
        <time>2021-05-29T09:05:09Z</time>
      </trkpt>
      <trkpt lat="43.25194" lon="5.84991">
        <ele>640.4</ele>
        <time>2021-05-29T09:05:10Z</time>
      </trkpt>
      <trkpt lat="43.25194" lon="5.84993">
        <ele>640.6</ele>
        <time>2021-05-29T09:05:11Z</time>
      </trkpt>
      <trkpt lat="43.25194" lon="5.84994">
        <ele>640.6</ele>
        <time>2021-05-29T09:05:12Z</time>
      </trkpt>
      <trkpt lat="43.25194" lon="5.84997">
        <ele>641</ele>
        <time>2021-05-29T09:05:15Z</time>
      </trkpt>
      <trkpt lat="43.25195" lon="5.84999">
        <ele>641</ele>
        <time>2021-05-29T09:05:16Z</time>
      </trkpt>
      <trkpt lat="43.25195" lon="5.85">
        <ele>641</ele>
        <time>2021-05-29T09:05:17Z</time>
      </trkpt>
      <trkpt lat="43.25195" lon="5.85001">
        <ele>641</ele>
        <time>2021-05-29T09:05:18Z</time>
      </trkpt>
      <trkpt lat="43.25194" lon="5.8501">
        <ele>642</ele>
        <time>2021-05-29T09:05:26Z</time>
      </trkpt>
      <trkpt lat="43.25195" lon="5.85012">
        <ele>642</ele>
        <time>2021-05-29T09:05:27Z</time>
      </trkpt>
      <trkpt lat="43.25195" lon="5.85022">
        <ele>642.8</ele>
        <time>2021-05-29T09:05:34Z</time>
      </trkpt>
      <trkpt lat="43.25195" lon="5.85023">
        <ele>642.8</ele>
        <time>2021-05-29T09:05:35Z</time>
      </trkpt>
      <trkpt lat="43.25195" lon="5.85025">
        <ele>642.8</ele>
        <time>2021-05-29T09:05:36Z</time>
      </trkpt>
      <trkpt lat="43.25194" lon="5.85029">
        <ele>643.2</ele>
        <time>2021-05-29T09:05:39Z</time>
      </trkpt>
      <trkpt lat="43.25194" lon="5.85034">
        <ele>643.6</ele>
        <time>2021-05-29T09:05:42Z</time>
      </trkpt>
      <trkpt lat="43.25194" lon="5.85037">
        <ele>644</ele>
        <time>2021-05-29T09:05:44Z</time>
      </trkpt>
      <trkpt lat="43.25195" lon="5.85045">
        <ele>644.2</ele>
        <time>2021-05-29T09:05:48Z</time>
      </trkpt>
      <trkpt lat="43.25196" lon="5.85048">
        <ele>644.2</ele>
        <time>2021-05-29T09:05:50Z</time>
      </trkpt>
      <trkpt lat="43.25202" lon="5.85054">
        <ele>644.6</ele>
        <time>2021-05-29T09:05:54Z</time>
      </trkpt>
      <trkpt lat="43.25213" lon="5.85056">
        <ele>644.6</ele>
        <time>2021-05-29T09:05:59Z</time>
      </trkpt>
      <trkpt lat="43.25219" lon="5.85057">
        <ele>644.8</ele>
        <time>2021-05-29T09:06:01Z</time>
      </trkpt>
      <trkpt lat="43.25232" lon="5.85059">
        <ele>644.6</ele>
        <time>2021-05-29T09:06:05Z</time>
      </trkpt>
      <trkpt lat="43.25236" lon="5.85059">
        <ele>644.6</ele>
        <time>2021-05-29T09:06:06Z</time>
      </trkpt>
      <trkpt lat="43.2524" lon="5.85058">
        <ele>644.6</ele>
        <time>2021-05-29T09:06:07Z</time>
      </trkpt>
      <trkpt lat="43.25252" lon="5.85056">
        <ele>644.6</ele>
        <time>2021-05-29T09:06:10Z</time>
      </trkpt>
      <trkpt lat="43.2526" lon="5.85054">
        <ele>644.6</ele>
        <time>2021-05-29T09:06:12Z</time>
      </trkpt>
      <trkpt lat="43.25265" lon="5.85053">
        <ele>644.4</ele>
        <time>2021-05-29T09:06:13Z</time>
      </trkpt>
      <trkpt lat="43.25274" lon="5.85052">
        <ele>644</ele>
        <time>2021-05-29T09:06:15Z</time>
      </trkpt>
      <trkpt lat="43.25287" lon="5.85049">
        <ele>643.8</ele>
        <time>2021-05-29T09:06:18Z</time>
      </trkpt>
      <trkpt lat="43.25296" lon="5.85047">
        <ele>643.4</ele>
        <time>2021-05-29T09:06:20Z</time>
      </trkpt>
      <trkpt lat="43.25308" lon="5.85043">
        <ele>643.2</ele>
        <time>2021-05-29T09:06:23Z</time>
      </trkpt>
      <trkpt lat="43.25311" lon="5.85042">
        <ele>643.2</ele>
        <time>2021-05-29T09:06:24Z</time>
      </trkpt>
      <trkpt lat="43.25322" lon="5.85039">
        <ele>643.2</ele>
        <time>2021-05-29T09:06:27Z</time>
      </trkpt>
      <trkpt lat="43.25326" lon="5.85038">
        <ele>643.2</ele>
        <time>2021-05-29T09:06:28Z</time>
      </trkpt>
      <trkpt lat="43.2533" lon="5.85037">
        <ele>643</ele>
        <time>2021-05-29T09:06:29Z</time>
      </trkpt>
      <trkpt lat="43.25342" lon="5.85036">
        <ele>643</ele>
        <time>2021-05-29T09:06:32Z</time>
      </trkpt>
      <trkpt lat="43.25351" lon="5.85036">
        <ele>642.8</ele>
        <time>2021-05-29T09:06:34Z</time>
      </trkpt>
      <trkpt lat="43.25372" lon="5.85035">
        <ele>642.4</ele>
        <time>2021-05-29T09:06:39Z</time>
      </trkpt>
      <trkpt lat="43.25377" lon="5.85036">
        <ele>642.4</ele>
        <time>2021-05-29T09:06:40Z</time>
      </trkpt>
      <trkpt lat="43.25386" lon="5.85035">
        <ele>642</ele>
        <time>2021-05-29T09:06:42Z</time>
      </trkpt>
      <trkpt lat="43.25399" lon="5.85035">
        <ele>642</ele>
        <time>2021-05-29T09:06:45Z</time>
      </trkpt>
      <trkpt lat="43.25414" lon="5.85037">
        <ele>640.8</ele>
        <time>2021-05-29T09:06:48Z</time>
      </trkpt>
      <trkpt lat="43.25433" lon="5.85039">
        <ele>640</ele>
        <time>2021-05-29T09:06:52Z</time>
      </trkpt>
      <trkpt lat="43.25438" lon="5.8504">
        <ele>639.4</ele>
        <time>2021-05-29T09:06:53Z</time>
      </trkpt>
      <trkpt lat="43.25453" lon="5.85045">
        <ele>638</ele>
        <time>2021-05-29T09:06:56Z</time>
      </trkpt>
      <trkpt lat="43.25469" lon="5.8505">
        <ele>636.2</ele>
        <time>2021-05-29T09:06:59Z</time>
      </trkpt>
      <trkpt lat="43.25473" lon="5.85052">
        <ele>635.8</ele>
        <time>2021-05-29T09:07:00Z</time>
      </trkpt>
      <trkpt lat="43.25478" lon="5.85054">
        <ele>635.4</ele>
        <time>2021-05-29T09:07:01Z</time>
      </trkpt>
      <trkpt lat="43.25483" lon="5.85055">
        <ele>635</ele>
        <time>2021-05-29T09:07:02Z</time>
      </trkpt>
      <trkpt lat="43.25492" lon="5.85058">
        <ele>634.2</ele>
        <time>2021-05-29T09:07:04Z</time>
      </trkpt>
      <trkpt lat="43.25496" lon="5.85059">
        <ele>633.6</ele>
        <time>2021-05-29T09:07:05Z</time>
      </trkpt>
      <trkpt lat="43.2551" lon="5.85061">
        <ele>632.6</ele>
        <time>2021-05-29T09:07:08Z</time>
      </trkpt>
      <trkpt lat="43.25523" lon="5.85064">
        <ele>631.4</ele>
        <time>2021-05-29T09:07:11Z</time>
      </trkpt>
      <trkpt lat="43.25527" lon="5.85065">
        <ele>631.2</ele>
        <time>2021-05-29T09:07:12Z</time>
      </trkpt>
      <trkpt lat="43.25535" lon="5.85067">
        <ele>630.6</ele>
        <time>2021-05-29T09:07:14Z</time>
      </trkpt>
      <trkpt lat="43.2554" lon="5.85069">
        <ele>630.4</ele>
        <time>2021-05-29T09:07:15Z</time>
      </trkpt>
      <trkpt lat="43.2557" lon="5.85075">
        <ele>628.6</ele>
        <time>2021-05-29T09:07:22Z</time>
      </trkpt>
      <trkpt lat="43.25574" lon="5.85076">
        <ele>628</ele>
        <time>2021-05-29T09:07:23Z</time>
      </trkpt>
      <trkpt lat="43.25584" lon="5.85081">
        <ele>627.4</ele>
        <time>2021-05-29T09:07:26Z</time>
      </trkpt>
      <trkpt lat="43.25589" lon="5.85084">
        <ele>626.8</ele>
        <time>2021-05-29T09:07:28Z</time>
      </trkpt>
      <trkpt lat="43.25593" lon="5.85086">
        <ele>626.4</ele>
        <time>2021-05-29T09:07:30Z</time>
      </trkpt>
      <trkpt lat="43.25599" lon="5.85086">
        <ele>626</ele>
        <time>2021-05-29T09:07:32Z</time>
      </trkpt>
      <trkpt lat="43.25614" lon="5.85089">
        <ele>625</ele>
        <time>2021-05-29T09:07:37Z</time>
      </trkpt>
      <trkpt lat="43.25617" lon="5.85091">
        <ele>625.2</ele>
        <time>2021-05-29T09:07:38Z</time>
      </trkpt>
      <trkpt lat="43.25627" lon="5.85097">
        <ele>624.2</ele>
        <time>2021-05-29T09:07:41Z</time>
      </trkpt>
      <trkpt lat="43.25635" lon="5.85101">
        <ele>623.8</ele>
        <time>2021-05-29T09:07:43Z</time>
      </trkpt>
      <trkpt lat="43.25638" lon="5.85103">
        <ele>623.6</ele>
        <time>2021-05-29T09:07:44Z</time>
      </trkpt>
      <trkpt lat="43.25646" lon="5.85109">
        <ele>622.8</ele>
        <time>2021-05-29T09:07:46Z</time>
      </trkpt>
      <trkpt lat="43.25659" lon="5.85121">
        <ele>622.4</ele>
        <time>2021-05-29T09:07:49Z</time>
      </trkpt>
      <trkpt lat="43.25667" lon="5.8513">
        <ele>622.2</ele>
        <time>2021-05-29T09:07:51Z</time>
      </trkpt>
      <trkpt lat="43.25671" lon="5.85135">
        <ele>622.2</ele>
        <time>2021-05-29T09:07:52Z</time>
      </trkpt>
      <trkpt lat="43.25675" lon="5.85138">
        <ele>622</ele>
        <time>2021-05-29T09:07:53Z</time>
      </trkpt>
      <trkpt lat="43.25681" lon="5.85143">
        <ele>622</ele>
        <time>2021-05-29T09:07:54Z</time>
      </trkpt>
      <trkpt lat="43.25686" lon="5.85148">
        <ele>621.8</ele>
        <time>2021-05-29T09:07:55Z</time>
      </trkpt>
      <trkpt lat="43.25691" lon="5.85153">
        <ele>621.4</ele>
        <time>2021-05-29T09:07:56Z</time>
      </trkpt>
      <trkpt lat="43.25701" lon="5.85162">
        <ele>621</ele>
        <time>2021-05-29T09:07:58Z</time>
      </trkpt>
      <trkpt lat="43.25711" lon="5.85172">
        <ele>620.6</ele>
        <time>2021-05-29T09:08:00Z</time>
      </trkpt>
      <trkpt lat="43.25719" lon="5.8518">
        <ele>620</ele>
        <time>2021-05-29T09:08:02Z</time>
      </trkpt>
      <trkpt lat="43.25727" lon="5.85187">
        <ele>619.4</ele>
        <time>2021-05-29T09:08:04Z</time>
      </trkpt>
      <trkpt lat="43.25732" lon="5.85194">
        <ele>618.4</ele>
        <time>2021-05-29T09:08:06Z</time>
      </trkpt>
      <trkpt lat="43.25734" lon="5.85197">
        <ele>618</ele>
        <time>2021-05-29T09:08:07Z</time>
      </trkpt>
      <trkpt lat="43.25735" lon="5.85209">
        <ele>617.2</ele>
        <time>2021-05-29T09:08:10Z</time>
      </trkpt>
      <trkpt lat="43.25732" lon="5.85214">
        <ele>617</ele>
        <time>2021-05-29T09:08:12Z</time>
      </trkpt>
      <trkpt lat="43.25726" lon="5.8522">
        <ele>617</ele>
        <time>2021-05-29T09:08:15Z</time>
      </trkpt>
      <trkpt lat="43.2572" lon="5.85229">
        <ele>617.2</ele>
        <time>2021-05-29T09:08:18Z</time>
      </trkpt>
      <trkpt lat="43.25714" lon="5.8524">
        <ele>617.8</ele>
        <time>2021-05-29T09:08:22Z</time>
      </trkpt>
      <trkpt lat="43.25712" lon="5.85243">
        <ele>617.8</ele>
        <time>2021-05-29T09:08:23Z</time>
      </trkpt>
      <trkpt lat="43.25705" lon="5.85254">
        <ele>618</ele>
        <time>2021-05-29T09:08:27Z</time>
      </trkpt>
      <trkpt lat="43.25703" lon="5.85258">
        <ele>618</ele>
        <time>2021-05-29T09:08:28Z</time>
      </trkpt>
      <trkpt lat="43.257" lon="5.85265">
        <ele>618.2</ele>
        <time>2021-05-29T09:08:30Z</time>
      </trkpt>
      <trkpt lat="43.25697" lon="5.85272">
        <ele>618.4</ele>
        <time>2021-05-29T09:08:32Z</time>
      </trkpt>
      <trkpt lat="43.25694" lon="5.85287">
        <ele>618.4</ele>
        <time>2021-05-29T09:08:36Z</time>
      </trkpt>
      <trkpt lat="43.25693" lon="5.85291">
        <ele>618.4</ele>
        <time>2021-05-29T09:08:37Z</time>
      </trkpt>
      <trkpt lat="43.2569" lon="5.85307">
        <ele>618.4</ele>
        <time>2021-05-29T09:08:42Z</time>
      </trkpt>
      <trkpt lat="43.25689" lon="5.8531">
        <ele>618.4</ele>
        <time>2021-05-29T09:08:43Z</time>
      </trkpt>
      <trkpt lat="43.25682" lon="5.85322">
        <ele>618.4</ele>
        <time>2021-05-29T09:08:46Z</time>
      </trkpt>
      <trkpt lat="43.25678" lon="5.8533">
        <ele>618.4</ele>
        <time>2021-05-29T09:08:48Z</time>
      </trkpt>
      <trkpt lat="43.25676" lon="5.85334">
        <ele>618.4</ele>
        <time>2021-05-29T09:08:49Z</time>
      </trkpt>
      <trkpt lat="43.25672" lon="5.85341">
        <ele>618.4</ele>
        <time>2021-05-29T09:08:51Z</time>
      </trkpt>
      <trkpt lat="43.25671" lon="5.85344">
        <ele>618.4</ele>
        <time>2021-05-29T09:08:52Z</time>
      </trkpt>
      <trkpt lat="43.25669" lon="5.85349">
        <ele>618.4</ele>
        <time>2021-05-29T09:08:53Z</time>
      </trkpt>
      <trkpt lat="43.25667" lon="5.85354">
        <ele>618.4</ele>
        <time>2021-05-29T09:08:54Z</time>
      </trkpt>
      <trkpt lat="43.25665" lon="5.85357">
        <ele>618.4</ele>
        <time>2021-05-29T09:08:55Z</time>
      </trkpt>
      <trkpt lat="43.25657" lon="5.85375">
        <ele>618.4</ele>
        <time>2021-05-29T09:08:59Z</time>
      </trkpt>
      <trkpt lat="43.25652" lon="5.85385">
        <ele>618.2</ele>
        <time>2021-05-29T09:09:01Z</time>
      </trkpt>
      <trkpt lat="43.25647" lon="5.85396">
        <ele>618</ele>
        <time>2021-05-29T09:09:03Z</time>
      </trkpt>
      <trkpt lat="43.25646" lon="5.85409">
        <ele>617.8</ele>
        <time>2021-05-29T09:09:05Z</time>
      </trkpt>
      <trkpt lat="43.25655" lon="5.85439">
        <ele>617.4</ele>
        <time>2021-05-29T09:09:09Z</time>
      </trkpt>
      <trkpt lat="43.25662" lon="5.85458">
        <ele>617.2</ele>
        <time>2021-05-29T09:09:12Z</time>
      </trkpt>
      <trkpt lat="43.25668" lon="5.85477">
        <ele>617</ele>
        <time>2021-05-29T09:09:15Z</time>
      </trkpt>
      <trkpt lat="43.25673" lon="5.85493">
        <ele>616.4</ele>
        <time>2021-05-29T09:09:18Z</time>
      </trkpt>
      <trkpt lat="43.25676" lon="5.85503">
        <ele>616.4</ele>
        <time>2021-05-29T09:09:20Z</time>
      </trkpt>
      <trkpt lat="43.25684" lon="5.85525">
        <ele>616.4</ele>
        <time>2021-05-29T09:09:26Z</time>
      </trkpt>
      <trkpt lat="43.2569" lon="5.85538">
        <ele>616.8</ele>
        <time>2021-05-29T09:09:30Z</time>
      </trkpt>
      <trkpt lat="43.25695" lon="5.85549">
        <ele>617.2</ele>
        <time>2021-05-29T09:09:34Z</time>
      </trkpt>
      <trkpt lat="43.25696" lon="5.85552">
        <ele>617.4</ele>
        <time>2021-05-29T09:09:35Z</time>
      </trkpt>
      <trkpt lat="43.25697" lon="5.85555">
        <ele>617.6</ele>
        <time>2021-05-29T09:09:36Z</time>
      </trkpt>
      <trkpt lat="43.25699" lon="5.85557">
        <ele>617.6</ele>
        <time>2021-05-29T09:09:37Z</time>
      </trkpt>
      <trkpt lat="43.257" lon="5.85559">
        <ele>617.6</ele>
        <time>2021-05-29T09:09:38Z</time>
      </trkpt>
      <trkpt lat="43.25703" lon="5.85565">
        <ele>617.8</ele>
        <time>2021-05-29T09:09:41Z</time>
      </trkpt>
      <trkpt lat="43.25704" lon="5.85568">
        <ele>618</ele>
        <time>2021-05-29T09:09:42Z</time>
      </trkpt>
      <trkpt lat="43.25704" lon="5.8557">
        <ele>618</ele>
        <time>2021-05-29T09:09:43Z</time>
      </trkpt>
      <trkpt lat="43.25705" lon="5.85572">
        <ele>618.4</ele>
        <time>2021-05-29T09:09:44Z</time>
      </trkpt>
      <trkpt lat="43.25706" lon="5.85574">
        <ele>618.6</ele>
        <time>2021-05-29T09:09:45Z</time>
      </trkpt>
      <trkpt lat="43.25707" lon="5.85575">
        <ele>618.8</ele>
        <time>2021-05-29T09:09:46Z</time>
      </trkpt>
      <trkpt lat="43.25708" lon="5.8558">
        <ele>619.4</ele>
        <time>2021-05-29T09:09:48Z</time>
      </trkpt>
      <trkpt lat="43.25709" lon="5.85582">
        <ele>619.2</ele>
        <time>2021-05-29T09:09:49Z</time>
      </trkpt>
      <trkpt lat="43.25715" lon="5.85598">
        <ele>620</ele>
        <time>2021-05-29T09:09:57Z</time>
      </trkpt>
      <trkpt lat="43.25715" lon="5.856">
        <ele>620.2</ele>
        <time>2021-05-29T09:09:58Z</time>
      </trkpt>
      <trkpt lat="43.25719" lon="5.85608">
        <ele>621</ele>
        <time>2021-05-29T09:10:02Z</time>
      </trkpt>
      <trkpt lat="43.25722" lon="5.85616">
        <ele>621.4</ele>
        <time>2021-05-29T09:10:06Z</time>
      </trkpt>
      <trkpt lat="43.25723" lon="5.85618">
        <ele>621.4</ele>
        <time>2021-05-29T09:10:07Z</time>
      </trkpt>
      <trkpt lat="43.25725" lon="5.85624">
        <ele>621.8</ele>
        <time>2021-05-29T09:10:11Z</time>
      </trkpt>
      <trkpt lat="43.25726" lon="5.85626">
        <ele>622</ele>
        <time>2021-05-29T09:10:12Z</time>
      </trkpt>
      <trkpt lat="43.25729" lon="5.85632">
        <ele>622.4</ele>
        <time>2021-05-29T09:10:15Z</time>
      </trkpt>
      <trkpt lat="43.25732" lon="5.85639">
        <ele>623</ele>
        <time>2021-05-29T09:10:19Z</time>
      </trkpt>
      <trkpt lat="43.25737" lon="5.85649">
        <ele>623.6</ele>
        <time>2021-05-29T09:10:25Z</time>
      </trkpt>
      <trkpt lat="43.25738" lon="5.85652">
        <ele>623.6</ele>
        <time>2021-05-29T09:10:27Z</time>
      </trkpt>
      <trkpt lat="43.25742" lon="5.8566">
        <ele>623.8</ele>
        <time>2021-05-29T09:10:31Z</time>
      </trkpt>
      <trkpt lat="43.25747" lon="5.85669">
        <ele>624.2</ele>
        <time>2021-05-29T09:10:36Z</time>
      </trkpt>
      <trkpt lat="43.25751" lon="5.85677">
        <ele>624.6</ele>
        <time>2021-05-29T09:10:40Z</time>
      </trkpt>
      <trkpt lat="43.25755" lon="5.85685">
        <ele>625</ele>
        <time>2021-05-29T09:10:44Z</time>
      </trkpt>
      <trkpt lat="43.25758" lon="5.85692">
        <ele>625.6</ele>
        <time>2021-05-29T09:10:49Z</time>
      </trkpt>
      <trkpt lat="43.25761" lon="5.85698">
        <ele>625.8</ele>
        <time>2021-05-29T09:10:52Z</time>
      </trkpt>
      <trkpt lat="43.25768" lon="5.85712">
        <ele>626.4</ele>
        <time>2021-05-29T09:11:01Z</time>
      </trkpt>
      <trkpt lat="43.25769" lon="5.85713">
        <ele>626.4</ele>
        <time>2021-05-29T09:11:02Z</time>
      </trkpt>
      <trkpt lat="43.25769" lon="5.85714">
        <ele>626.6</ele>
        <time>2021-05-29T09:11:03Z</time>
      </trkpt>
      <trkpt lat="43.25772" lon="5.85723">
        <ele>627.2</ele>
        <time>2021-05-29T09:11:08Z</time>
      </trkpt>
      <trkpt lat="43.25775" lon="5.85727">
        <ele>627.4</ele>
        <time>2021-05-29T09:11:11Z</time>
      </trkpt>
      <trkpt lat="43.25776" lon="5.85733">
        <ele>627.6</ele>
        <time>2021-05-29T09:11:14Z</time>
      </trkpt>
      <trkpt lat="43.25781" lon="5.85745">
        <ele>628.6</ele>
        <time>2021-05-29T09:11:21Z</time>
      </trkpt>
      <trkpt lat="43.25783" lon="5.8575">
        <ele>628.6</ele>
        <time>2021-05-29T09:11:24Z</time>
      </trkpt>
      <trkpt lat="43.25787" lon="5.8576">
        <ele>629.2</ele>
        <time>2021-05-29T09:11:30Z</time>
      </trkpt>
      <trkpt lat="43.2579" lon="5.85766">
        <ele>629.6</ele>
        <time>2021-05-29T09:11:34Z</time>
      </trkpt>
      <trkpt lat="43.25793" lon="5.85772">
        <ele>630.2</ele>
        <time>2021-05-29T09:11:38Z</time>
      </trkpt>
      <trkpt lat="43.25796" lon="5.85779">
        <ele>630.6</ele>
        <time>2021-05-29T09:11:42Z</time>
      </trkpt>
      <trkpt lat="43.25801" lon="5.85788">
        <ele>631.4</ele>
        <time>2021-05-29T09:11:48Z</time>
      </trkpt>
      <trkpt lat="43.25803" lon="5.85791">
        <ele>631.6</ele>
        <time>2021-05-29T09:11:50Z</time>
      </trkpt>
      <trkpt lat="43.25807" lon="5.85801">
        <ele>632.2</ele>
        <time>2021-05-29T09:11:56Z</time>
      </trkpt>
      <trkpt lat="43.25811" lon="5.85808">
        <ele>632.8</ele>
        <time>2021-05-29T09:12:01Z</time>
      </trkpt>
      <trkpt lat="43.25812" lon="5.85813">
        <ele>633.2</ele>
        <time>2021-05-29T09:12:04Z</time>
      </trkpt>
      <trkpt lat="43.25817" lon="5.85825">
        <ele>633.8</ele>
        <time>2021-05-29T09:12:11Z</time>
      </trkpt>
      <trkpt lat="43.25817" lon="5.85828">
        <ele>634</ele>
        <time>2021-05-29T09:12:13Z</time>
      </trkpt>
      <trkpt lat="43.25822" lon="5.85838">
        <ele>635</ele>
        <time>2021-05-29T09:12:19Z</time>
      </trkpt>
      <trkpt lat="43.25823" lon="5.85841">
        <ele>635</ele>
        <time>2021-05-29T09:12:21Z</time>
      </trkpt>
      <trkpt lat="43.25823" lon="5.85843">
        <ele>635.2</ele>
        <time>2021-05-29T09:12:22Z</time>
      </trkpt>
      <trkpt lat="43.25824" lon="5.85845">
        <ele>635.4</ele>
        <time>2021-05-29T09:12:23Z</time>
      </trkpt>
      <trkpt lat="43.25827" lon="5.85853">
        <ele>636</ele>
        <time>2021-05-29T09:12:28Z</time>
      </trkpt>
      <trkpt lat="43.25832" lon="5.85865">
        <ele>636.8</ele>
        <time>2021-05-29T09:12:35Z</time>
      </trkpt>
      <trkpt lat="43.25834" lon="5.85869">
        <ele>637</ele>
        <time>2021-05-29T09:12:37Z</time>
      </trkpt>
      <trkpt lat="43.25839" lon="5.85881">
        <ele>638</ele>
        <time>2021-05-29T09:12:45Z</time>
      </trkpt>
      <trkpt lat="43.25843" lon="5.85894">
        <ele>638.6</ele>
        <time>2021-05-29T09:12:53Z</time>
      </trkpt>
      <trkpt lat="43.25845" lon="5.859">
        <ele>639</ele>
        <time>2021-05-29T09:12:57Z</time>
      </trkpt>
      <trkpt lat="43.25846" lon="5.85905">
        <ele>639.2</ele>
        <time>2021-05-29T09:13:00Z</time>
      </trkpt>
      <trkpt lat="43.2585" lon="5.85917">
        <ele>640</ele>
        <time>2021-05-29T09:13:07Z</time>
      </trkpt>
      <trkpt lat="43.25852" lon="5.85923">
        <ele>640.2</ele>
        <time>2021-05-29T09:13:10Z</time>
      </trkpt>
      <trkpt lat="43.25855" lon="5.8593">
        <ele>641</ele>
        <time>2021-05-29T09:13:15Z</time>
      </trkpt>
      <trkpt lat="43.25856" lon="5.85936">
        <ele>641.4</ele>
        <time>2021-05-29T09:13:18Z</time>
      </trkpt>
      <trkpt lat="43.25857" lon="5.85937">
        <ele>641.6</ele>
        <time>2021-05-29T09:13:19Z</time>
      </trkpt>
      <trkpt lat="43.25862" lon="5.85946">
        <ele>642</ele>
        <time>2021-05-29T09:13:24Z</time>
      </trkpt>
      <trkpt lat="43.25864" lon="5.85954">
        <ele>642.4</ele>
        <time>2021-05-29T09:13:28Z</time>
      </trkpt>
      <trkpt lat="43.25867" lon="5.85961">
        <ele>643</ele>
        <time>2021-05-29T09:13:32Z</time>
      </trkpt>
      <trkpt lat="43.25868" lon="5.85965">
        <ele>643</ele>
        <time>2021-05-29T09:13:34Z</time>
      </trkpt>
      <trkpt lat="43.25869" lon="5.85969">
        <ele>643.2</ele>
        <time>2021-05-29T09:13:37Z</time>
      </trkpt>
      <trkpt lat="43.25872" lon="5.85975">
        <ele>643.4</ele>
        <time>2021-05-29T09:13:41Z</time>
      </trkpt>
      <trkpt lat="43.25872" lon="5.85977">
        <ele>643.4</ele>
        <time>2021-05-29T09:13:42Z</time>
      </trkpt>
      <trkpt lat="43.25875" lon="5.85985">
        <ele>643.8</ele>
        <time>2021-05-29T09:13:47Z</time>
      </trkpt>
      <trkpt lat="43.25876" lon="5.8599">
        <ele>644</ele>
        <time>2021-05-29T09:13:50Z</time>
      </trkpt>
      <trkpt lat="43.25877" lon="5.85992">
        <ele>644.2</ele>
        <time>2021-05-29T09:13:51Z</time>
      </trkpt>
      <trkpt lat="43.25877" lon="5.85995">
        <ele>644.2</ele>
        <time>2021-05-29T09:13:53Z</time>
      </trkpt>
      <trkpt lat="43.25882" lon="5.86008">
        <ele>644.8</ele>
        <time>2021-05-29T09:14:00Z</time>
      </trkpt>
      <trkpt lat="43.25883" lon="5.8601">
        <ele>645</ele>
        <time>2021-05-29T09:14:01Z</time>
      </trkpt>
      <trkpt lat="43.25885" lon="5.86017">
        <ele>645.4</ele>
        <time>2021-05-29T09:14:05Z</time>
      </trkpt>
      <trkpt lat="43.25888" lon="5.86028">
        <ele>645.4</ele>
        <time>2021-05-29T09:14:11Z</time>
      </trkpt>
      <trkpt lat="43.25891" lon="5.86036">
        <ele>645.8</ele>
        <time>2021-05-29T09:14:15Z</time>
      </trkpt>
      <trkpt lat="43.25892" lon="5.86042">
        <ele>646.4</ele>
        <time>2021-05-29T09:14:18Z</time>
      </trkpt>
      <trkpt lat="43.25892" lon="5.86044">
        <ele>646.4</ele>
        <time>2021-05-29T09:14:19Z</time>
      </trkpt>
      <trkpt lat="43.25893" lon="5.86049">
        <ele>647</ele>
        <time>2021-05-29T09:14:22Z</time>
      </trkpt>
      <trkpt lat="43.25896" lon="5.8606">
        <ele>647.4</ele>
        <time>2021-05-29T09:14:28Z</time>
      </trkpt>
      <trkpt lat="43.25898" lon="5.86067">
        <ele>647.8</ele>
        <time>2021-05-29T09:14:32Z</time>
      </trkpt>
      <trkpt lat="43.25901" lon="5.86078">
        <ele>648.4</ele>
        <time>2021-05-29T09:14:38Z</time>
      </trkpt>
      <trkpt lat="43.25904" lon="5.86088">
        <ele>649</ele>
        <time>2021-05-29T09:14:44Z</time>
      </trkpt>
      <trkpt lat="43.25908" lon="5.86099">
        <ele>649.4</ele>
        <time>2021-05-29T09:14:50Z</time>
      </trkpt>
      <trkpt lat="43.25912" lon="5.86108">
        <ele>650</ele>
        <time>2021-05-29T09:14:55Z</time>
      </trkpt>
      <trkpt lat="43.25914" lon="5.86113">
        <ele>650</ele>
        <time>2021-05-29T09:14:58Z</time>
      </trkpt>
      <trkpt lat="43.2592" lon="5.86125">
        <ele>650.8</ele>
        <time>2021-05-29T09:15:05Z</time>
      </trkpt>
      <trkpt lat="43.25926" lon="5.86135">
        <ele>651.4</ele>
        <time>2021-05-29T09:15:11Z</time>
      </trkpt>
      <trkpt lat="43.25929" lon="5.8614">
        <ele>652</ele>
        <time>2021-05-29T09:15:14Z</time>
      </trkpt>
      <trkpt lat="43.2593" lon="5.86143">
        <ele>652.2</ele>
        <time>2021-05-29T09:15:16Z</time>
      </trkpt>
      <trkpt lat="43.25934" lon="5.8615">
        <ele>652.8</ele>
        <time>2021-05-29T09:15:20Z</time>
      </trkpt>
      <trkpt lat="43.25938" lon="5.86157">
        <ele>653</ele>
        <time>2021-05-29T09:15:24Z</time>
      </trkpt>
      <trkpt lat="43.25939" lon="5.86159">
        <ele>653</ele>
        <time>2021-05-29T09:15:25Z</time>
      </trkpt>
      <trkpt lat="43.25945" lon="5.86171">
        <ele>653.8</ele>
        <time>2021-05-29T09:15:32Z</time>
      </trkpt>
      <trkpt lat="43.25945" lon="5.86172">
        <ele>654</ele>
        <time>2021-05-29T09:15:33Z</time>
      </trkpt>
      <trkpt lat="43.25951" lon="5.86181">
        <ele>654.6</ele>
        <time>2021-05-29T09:15:38Z</time>
      </trkpt>
      <trkpt lat="43.25954" lon="5.86187">
        <ele>654.8</ele>
        <time>2021-05-29T09:15:41Z</time>
      </trkpt>
      <trkpt lat="43.25956" lon="5.86192">
        <ele>655</ele>
        <time>2021-05-29T09:15:44Z</time>
      </trkpt>
      <trkpt lat="43.25957" lon="5.86195">
        <ele>655.4</ele>
        <time>2021-05-29T09:15:46Z</time>
      </trkpt>
      <trkpt lat="43.25958" lon="5.86197">
        <ele>655.6</ele>
        <time>2021-05-29T09:15:47Z</time>
      </trkpt>
      <trkpt lat="43.25959" lon="5.862">
        <ele>655.8</ele>
        <time>2021-05-29T09:15:49Z</time>
      </trkpt>
      <trkpt lat="43.25963" lon="5.86209">
        <ele>656.2</ele>
        <time>2021-05-29T09:15:54Z</time>
      </trkpt>
      <trkpt lat="43.25965" lon="5.86217">
        <ele>656.4</ele>
        <time>2021-05-29T09:15:58Z</time>
      </trkpt>
      <trkpt lat="43.25967" lon="5.86222">
        <ele>656.6</ele>
        <time>2021-05-29T09:16:00Z</time>
      </trkpt>
      <trkpt lat="43.25968" lon="5.86228">
        <ele>657</ele>
        <time>2021-05-29T09:16:03Z</time>
      </trkpt>
      <trkpt lat="43.25973" lon="5.86245">
        <ele>658.2</ele>
        <time>2021-05-29T09:16:11Z</time>
      </trkpt>
      <trkpt lat="43.25976" lon="5.86256">
        <ele>658.4</ele>
        <time>2021-05-29T09:16:17Z</time>
      </trkpt>
      <trkpt lat="43.25977" lon="5.86265">
        <ele>658.8</ele>
        <time>2021-05-29T09:16:22Z</time>
      </trkpt>
      <trkpt lat="43.25977" lon="5.86267">
        <ele>659</ele>
        <time>2021-05-29T09:16:23Z</time>
      </trkpt>
      <trkpt lat="43.25978" lon="5.86269">
        <ele>659.2</ele>
        <time>2021-05-29T09:16:24Z</time>
      </trkpt>
      <trkpt lat="43.25982" lon="5.86283">
        <ele>659.8</ele>
        <time>2021-05-29T09:16:32Z</time>
      </trkpt>
      <trkpt lat="43.25984" lon="5.86288">
        <ele>660</ele>
        <time>2021-05-29T09:16:34Z</time>
      </trkpt>
      <trkpt lat="43.25985" lon="5.86289">
        <ele>660.2</ele>
        <time>2021-05-29T09:16:35Z</time>
      </trkpt>
      <trkpt lat="43.25986" lon="5.86296">
        <ele>660.6</ele>
        <time>2021-05-29T09:16:38Z</time>
      </trkpt>
      <trkpt lat="43.25986" lon="5.86298">
        <ele>660.6</ele>
        <time>2021-05-29T09:16:39Z</time>
      </trkpt>
      <trkpt lat="43.25986" lon="5.86309">
        <ele>660.8</ele>
        <time>2021-05-29T09:16:44Z</time>
      </trkpt>
      <trkpt lat="43.25987" lon="5.86316">
        <ele>661</ele>
        <time>2021-05-29T09:16:47Z</time>
      </trkpt>
      <trkpt lat="43.25988" lon="5.86334">
        <ele>661.6</ele>
        <time>2021-05-29T09:16:55Z</time>
      </trkpt>
      <trkpt lat="43.25989" lon="5.86338">
        <ele>661.8</ele>
        <time>2021-05-29T09:16:57Z</time>
      </trkpt>
      <trkpt lat="43.25988" lon="5.86345">
        <ele>662</ele>
        <time>2021-05-29T09:17:00Z</time>
      </trkpt>
      <trkpt lat="43.25989" lon="5.86352">
        <ele>662.2</ele>
        <time>2021-05-29T09:17:03Z</time>
      </trkpt>
      <trkpt lat="43.25989" lon="5.86354">
        <ele>662.4</ele>
        <time>2021-05-29T09:17:04Z</time>
      </trkpt>
      <trkpt lat="43.25988" lon="5.86365">
        <ele>662.8</ele>
        <time>2021-05-29T09:17:09Z</time>
      </trkpt>
      <trkpt lat="43.25988" lon="5.86373">
        <ele>663</ele>
        <time>2021-05-29T09:17:12Z</time>
      </trkpt>
      <trkpt lat="43.25988" lon="5.8639">
        <ele>663.6</ele>
        <time>2021-05-29T09:17:19Z</time>
      </trkpt>
      <trkpt lat="43.25988" lon="5.86395">
        <ele>664</ele>
        <time>2021-05-29T09:17:21Z</time>
      </trkpt>
      <trkpt lat="43.25991" lon="5.8641">
        <ele>664.8</ele>
        <time>2021-05-29T09:17:27Z</time>
      </trkpt>
      <trkpt lat="43.25992" lon="5.86415">
        <ele>665</ele>
        <time>2021-05-29T09:17:29Z</time>
      </trkpt>
      <trkpt lat="43.25994" lon="5.86425">
        <ele>665.2</ele>
        <time>2021-05-29T09:17:33Z</time>
      </trkpt>
      <trkpt lat="43.25995" lon="5.8643">
        <ele>665.4</ele>
        <time>2021-05-29T09:17:35Z</time>
      </trkpt>
      <trkpt lat="43.25998" lon="5.86448">
        <ele>665.8</ele>
        <time>2021-05-29T09:17:42Z</time>
      </trkpt>
      <trkpt lat="43.25998" lon="5.8645">
        <ele>665.8</ele>
        <time>2021-05-29T09:17:43Z</time>
      </trkpt>
      <trkpt lat="43.26003" lon="5.86468">
        <ele>666.4</ele>
        <time>2021-05-29T09:17:50Z</time>
      </trkpt>
      <trkpt lat="43.26007" lon="5.86484">
        <ele>666.8</ele>
        <time>2021-05-29T09:17:56Z</time>
      </trkpt>
      <trkpt lat="43.26007" lon="5.86487">
        <ele>666.8</ele>
        <time>2021-05-29T09:17:57Z</time>
      </trkpt>
      <trkpt lat="43.26009" lon="5.86497">
        <ele>667.2</ele>
        <time>2021-05-29T09:18:01Z</time>
      </trkpt>
      <trkpt lat="43.26011" lon="5.86503">
        <ele>667.6</ele>
        <time>2021-05-29T09:18:03Z</time>
      </trkpt>
      <trkpt lat="43.26013" lon="5.86511">
        <ele>667.8</ele>
        <time>2021-05-29T09:18:06Z</time>
      </trkpt>
      <trkpt lat="43.26018" lon="5.86524">
        <ele>668.4</ele>
        <time>2021-05-29T09:18:11Z</time>
      </trkpt>
      <trkpt lat="43.26021" lon="5.86533">
        <ele>668.8</ele>
        <time>2021-05-29T09:18:14Z</time>
      </trkpt>
      <trkpt lat="43.26022" lon="5.86535">
        <ele>668.8</ele>
        <time>2021-05-29T09:18:15Z</time>
      </trkpt>
      <trkpt lat="43.26024" lon="5.86538">
        <ele>668.8</ele>
        <time>2021-05-29T09:18:16Z</time>
      </trkpt>
      <trkpt lat="43.26026" lon="5.86542">
        <ele>669</ele>
        <time>2021-05-29T09:18:18Z</time>
      </trkpt>
      <trkpt lat="43.26032" lon="5.86554">
        <ele>669.4</ele>
        <time>2021-05-29T09:18:23Z</time>
      </trkpt>
      <trkpt lat="43.26038" lon="5.86562">
        <ele>669.6</ele>
        <time>2021-05-29T09:18:26Z</time>
      </trkpt>
      <trkpt lat="43.26045" lon="5.8657">
        <ele>669.8</ele>
        <time>2021-05-29T09:18:29Z</time>
      </trkpt>
      <trkpt lat="43.26053" lon="5.8658">
        <ele>670</ele>
        <time>2021-05-29T09:18:32Z</time>
      </trkpt>
      <trkpt lat="43.2607" lon="5.866">
        <ele>670</ele>
        <time>2021-05-29T09:18:37Z</time>
      </trkpt>
      <trkpt lat="43.26074" lon="5.86606">
        <ele>669.8</ele>
        <time>2021-05-29T09:18:38Z</time>
      </trkpt>
      <trkpt lat="43.26086" lon="5.86631">
        <ele>669.2</ele>
        <time>2021-05-29T09:18:42Z</time>
      </trkpt>
      <trkpt lat="43.26098" lon="5.8665">
        <ele>668.8</ele>
        <time>2021-05-29T09:18:45Z</time>
      </trkpt>
      <trkpt lat="43.26101" lon="5.86656">
        <ele>668.8</ele>
        <time>2021-05-29T09:18:46Z</time>
      </trkpt>
      <trkpt lat="43.26109" lon="5.86668">
        <ele>668.8</ele>
        <time>2021-05-29T09:18:48Z</time>
      </trkpt>
      <trkpt lat="43.26118" lon="5.86679">
        <ele>668.6</ele>
        <time>2021-05-29T09:18:50Z</time>
      </trkpt>
      <trkpt lat="43.26126" lon="5.8669">
        <ele>668.4</ele>
        <time>2021-05-29T09:18:52Z</time>
      </trkpt>
      <trkpt lat="43.2613" lon="5.86696">
        <ele>668.4</ele>
        <time>2021-05-29T09:18:53Z</time>
      </trkpt>
      <trkpt lat="43.26138" lon="5.86703">
        <ele>668.4</ele>
        <time>2021-05-29T09:18:55Z</time>
      </trkpt>
      <trkpt lat="43.26142" lon="5.86706">
        <ele>668.4</ele>
        <time>2021-05-29T09:18:56Z</time>
      </trkpt>
      <trkpt lat="43.26145" lon="5.8671">
        <ele>668.4</ele>
        <time>2021-05-29T09:18:57Z</time>
      </trkpt>
      <trkpt lat="43.26154" lon="5.8672">
        <ele>668.4</ele>
        <time>2021-05-29T09:19:00Z</time>
      </trkpt>
      <trkpt lat="43.26169" lon="5.86736">
        <ele>668.6</ele>
        <time>2021-05-29T09:19:06Z</time>
      </trkpt>
      <trkpt lat="43.26178" lon="5.86757">
        <ele>668.4</ele>
        <time>2021-05-29T09:19:12Z</time>
      </trkpt>
      <trkpt lat="43.26188" lon="5.86793">
        <ele>668.8</ele>
        <time>2021-05-29T09:19:22Z</time>
      </trkpt>
      <trkpt lat="43.26193" lon="5.86819">
        <ele>669.4</ele>
        <time>2021-05-29T09:19:29Z</time>
      </trkpt>
      <trkpt lat="43.26195" lon="5.86829">
        <ele>669.6</ele>
        <time>2021-05-29T09:19:31Z</time>
      </trkpt>
      <trkpt lat="43.26197" lon="5.86836">
        <ele>669.6</ele>
        <time>2021-05-29T09:19:33Z</time>
      </trkpt>
      <trkpt lat="43.26198" lon="5.86841">
        <ele>669.6</ele>
        <time>2021-05-29T09:19:34Z</time>
      </trkpt>
      <trkpt lat="43.26198" lon="5.86851">
        <ele>669.6</ele>
        <time>2021-05-29T09:19:36Z</time>
      </trkpt>
      <trkpt lat="43.26199" lon="5.86864">
        <ele>669.8</ele>
        <time>2021-05-29T09:19:39Z</time>
      </trkpt>
      <trkpt lat="43.26201" lon="5.8689">
        <ele>670</ele>
        <time>2021-05-29T09:19:45Z</time>
      </trkpt>
      <trkpt lat="43.26201" lon="5.86895">
        <ele>670</ele>
        <time>2021-05-29T09:19:46Z</time>
      </trkpt>
      <trkpt lat="43.26201" lon="5.86903">
        <ele>670.2</ele>
        <time>2021-05-29T09:19:48Z</time>
      </trkpt>
      <trkpt lat="43.26202" lon="5.86912">
        <ele>670</ele>
        <time>2021-05-29T09:19:50Z</time>
      </trkpt>
      <trkpt lat="43.26202" lon="5.8692">
        <ele>670.2</ele>
        <time>2021-05-29T09:19:52Z</time>
      </trkpt>
      <trkpt lat="43.26201" lon="5.86924">
        <ele>670.2</ele>
        <time>2021-05-29T09:19:53Z</time>
      </trkpt>
      <trkpt lat="43.262" lon="5.86943">
        <ele>670.2</ele>
        <time>2021-05-29T09:19:58Z</time>
      </trkpt>
      <trkpt lat="43.262" lon="5.8697">
        <ele>670.8</ele>
        <time>2021-05-29T09:20:04Z</time>
      </trkpt>
      <trkpt lat="43.26204" lon="5.86999">
        <ele>670.8</ele>
        <time>2021-05-29T09:20:10Z</time>
      </trkpt>
      <trkpt lat="43.26205" lon="5.8701">
        <ele>671</ele>
        <time>2021-05-29T09:20:12Z</time>
      </trkpt>
      <trkpt lat="43.26205" lon="5.8704">
        <ele>671</ele>
        <time>2021-05-29T09:20:19Z</time>
      </trkpt>
      <trkpt lat="43.262" lon="5.87058">
        <ele>671.4</ele>
        <time>2021-05-29T09:20:24Z</time>
      </trkpt>
      <trkpt lat="43.26199" lon="5.87069">
        <ele>671.6</ele>
        <time>2021-05-29T09:20:27Z</time>
      </trkpt>
      <trkpt lat="43.26199" lon="5.87077">
        <ele>671.6</ele>
        <time>2021-05-29T09:20:29Z</time>
      </trkpt>
      <trkpt lat="43.26198" lon="5.87084">
        <ele>671.8</ele>
        <time>2021-05-29T09:20:31Z</time>
      </trkpt>
      <trkpt lat="43.26196" lon="5.87094">
        <ele>672</ele>
        <time>2021-05-29T09:20:34Z</time>
      </trkpt>
      <trkpt lat="43.26196" lon="5.87098">
        <ele>672.2</ele>
        <time>2021-05-29T09:20:35Z</time>
      </trkpt>
      <trkpt lat="43.26195" lon="5.87106">
        <ele>672.4</ele>
        <time>2021-05-29T09:20:37Z</time>
      </trkpt>
      <trkpt lat="43.26193" lon="5.8712">
        <ele>672.6</ele>
        <time>2021-05-29T09:20:40Z</time>
      </trkpt>
      <trkpt lat="43.26188" lon="5.87142">
        <ele>673</ele>
        <time>2021-05-29T09:20:46Z</time>
      </trkpt>
      <trkpt lat="43.26184" lon="5.87158">
        <ele>673.4</ele>
        <time>2021-05-29T09:20:51Z</time>
      </trkpt>
      <trkpt lat="43.26184" lon="5.87162">
        <ele>673.6</ele>
        <time>2021-05-29T09:20:52Z</time>
      </trkpt>
      <trkpt lat="43.26183" lon="5.87166">
        <ele>673.6</ele>
        <time>2021-05-29T09:20:53Z</time>
      </trkpt>
      <trkpt lat="43.26183" lon="5.87171">
        <ele>673.6</ele>
        <time>2021-05-29T09:20:54Z</time>
      </trkpt>
      <trkpt lat="43.26184" lon="5.87174">
        <ele>673.8</ele>
        <time>2021-05-29T09:20:55Z</time>
      </trkpt>
      <trkpt lat="43.26184" lon="5.87178">
        <ele>673.8</ele>
        <time>2021-05-29T09:20:56Z</time>
      </trkpt>
      <trkpt lat="43.26187" lon="5.87189">
        <ele>673.8</ele>
        <time>2021-05-29T09:20:59Z</time>
      </trkpt>
      <trkpt lat="43.26188" lon="5.87193">
        <ele>674</ele>
        <time>2021-05-29T09:21:00Z</time>
      </trkpt>
      <trkpt lat="43.26193" lon="5.8721">
        <ele>674.4</ele>
        <time>2021-05-29T09:21:06Z</time>
      </trkpt>
      <trkpt lat="43.26199" lon="5.8723">
        <ele>675.4</ele>
        <time>2021-05-29T09:21:14Z</time>
      </trkpt>
      <trkpt lat="43.262" lon="5.87233">
        <ele>675.4</ele>
        <time>2021-05-29T09:21:15Z</time>
      </trkpt>
      <trkpt lat="43.26201" lon="5.87235">
        <ele>675.6</ele>
        <time>2021-05-29T09:21:16Z</time>
      </trkpt>
      <trkpt lat="43.26202" lon="5.87238">
        <ele>675.8</ele>
        <time>2021-05-29T09:21:17Z</time>
      </trkpt>
      <trkpt lat="43.26203" lon="5.8724">
        <ele>676</ele>
        <time>2021-05-29T09:21:18Z</time>
      </trkpt>
      <trkpt lat="43.26205" lon="5.87245">
        <ele>676</ele>
        <time>2021-05-29T09:21:20Z</time>
      </trkpt>
      <trkpt lat="43.26209" lon="5.87253">
        <ele>676.6</ele>
        <time>2021-05-29T09:21:24Z</time>
      </trkpt>
      <trkpt lat="43.2621" lon="5.87257">
        <ele>676.8</ele>
        <time>2021-05-29T09:21:26Z</time>
      </trkpt>
      <trkpt lat="43.26213" lon="5.87262">
        <ele>677</ele>
        <time>2021-05-29T09:21:28Z</time>
      </trkpt>
      <trkpt lat="43.26219" lon="5.87276">
        <ele>677.4</ele>
        <time>2021-05-29T09:21:33Z</time>
      </trkpt>
      <trkpt lat="43.26225" lon="5.87289">
        <ele>678</ele>
        <time>2021-05-29T09:21:39Z</time>
      </trkpt>
      <trkpt lat="43.26227" lon="5.87295">
        <ele>678.6</ele>
        <time>2021-05-29T09:21:41Z</time>
      </trkpt>
      <trkpt lat="43.2623" lon="5.87304">
        <ele>679.2</ele>
        <time>2021-05-29T09:21:44Z</time>
      </trkpt>
      <trkpt lat="43.26233" lon="5.87312">
        <ele>679.4</ele>
        <time>2021-05-29T09:21:47Z</time>
      </trkpt>
      <trkpt lat="43.26234" lon="5.87317">
        <ele>679.6</ele>
        <time>2021-05-29T09:21:49Z</time>
      </trkpt>
      <trkpt lat="43.26237" lon="5.87328">
        <ele>680</ele>
        <time>2021-05-29T09:21:53Z</time>
      </trkpt>
      <trkpt lat="43.26239" lon="5.87336">
        <ele>680.2</ele>
        <time>2021-05-29T09:21:56Z</time>
      </trkpt>
      <trkpt lat="43.26247" lon="5.87355">
        <ele>680.6</ele>
        <time>2021-05-29T09:22:03Z</time>
      </trkpt>
      <trkpt lat="43.26249" lon="5.87357">
        <ele>680.6</ele>
        <time>2021-05-29T09:22:04Z</time>
      </trkpt>
      <trkpt lat="43.2625" lon="5.87363">
        <ele>680.8</ele>
        <time>2021-05-29T09:22:06Z</time>
      </trkpt>
      <trkpt lat="43.26252" lon="5.87369">
        <ele>681</ele>
        <time>2021-05-29T09:22:08Z</time>
      </trkpt>
      <trkpt lat="43.26252" lon="5.87381">
        <ele>681.2</ele>
        <time>2021-05-29T09:22:12Z</time>
      </trkpt>
      <trkpt lat="43.26253" lon="5.87384">
        <ele>681.4</ele>
        <time>2021-05-29T09:22:13Z</time>
      </trkpt>
      <trkpt lat="43.26256" lon="5.874">
        <ele>681.8</ele>
        <time>2021-05-29T09:22:18Z</time>
      </trkpt>
      <trkpt lat="43.26259" lon="5.87423">
        <ele>682.6</ele>
        <time>2021-05-29T09:22:25Z</time>
      </trkpt>
      <trkpt lat="43.26261" lon="5.87437">
        <ele>682.8</ele>
        <time>2021-05-29T09:22:30Z</time>
      </trkpt>
      <trkpt lat="43.26261" lon="5.87439">
        <ele>682.8</ele>
        <time>2021-05-29T09:22:31Z</time>
      </trkpt>
      <trkpt lat="43.26261" lon="5.87444">
        <ele>683.4</ele>
        <time>2021-05-29T09:22:33Z</time>
      </trkpt>
      <trkpt lat="43.26261" lon="5.87445">
        <ele>683.4</ele>
        <time>2021-05-29T09:22:35Z</time>
      </trkpt>
      <trkpt lat="43.26261" lon="5.87448">
        <ele>682.8</ele>
        <time>2021-05-29T09:23:42Z</time>
      </trkpt>
      <trkpt lat="43.26263" lon="5.87455">
        <ele>682.8</ele>
        <time>2021-05-29T09:23:45Z</time>
      </trkpt>
      <trkpt lat="43.26263" lon="5.87462">
        <ele>682.8</ele>
        <time>2021-05-29T09:23:48Z</time>
      </trkpt>
      <trkpt lat="43.26264" lon="5.87473">
        <ele>683.4</ele>
        <time>2021-05-29T09:23:52Z</time>
      </trkpt>
      <trkpt lat="43.26265" lon="5.87496">
        <ele>683.8</ele>
        <time>2021-05-29T09:24:00Z</time>
      </trkpt>
      <trkpt lat="43.26265" lon="5.87499">
        <ele>683.8</ele>
        <time>2021-05-29T09:24:01Z</time>
      </trkpt>
      <trkpt lat="43.26265" lon="5.87502">
        <ele>683.8</ele>
        <time>2021-05-29T09:24:02Z</time>
      </trkpt>
      <trkpt lat="43.26264" lon="5.87514">
        <ele>684.2</ele>
        <time>2021-05-29T09:24:06Z</time>
      </trkpt>
      <trkpt lat="43.26264" lon="5.87532">
        <ele>684.4</ele>
        <time>2021-05-29T09:24:12Z</time>
      </trkpt>
      <trkpt lat="43.26264" lon="5.8754">
        <ele>684.6</ele>
        <time>2021-05-29T09:24:15Z</time>
      </trkpt>
      <trkpt lat="43.26264" lon="5.87554">
        <ele>684.8</ele>
        <time>2021-05-29T09:24:20Z</time>
      </trkpt>
      <trkpt lat="43.26265" lon="5.87559">
        <ele>685</ele>
        <time>2021-05-29T09:24:22Z</time>
      </trkpt>
      <trkpt lat="43.26266" lon="5.87573">
        <ele>685.4</ele>
        <time>2021-05-29T09:24:27Z</time>
      </trkpt>
      <trkpt lat="43.26267" lon="5.87582">
        <ele>686</ele>
        <time>2021-05-29T09:24:31Z</time>
      </trkpt>
      <trkpt lat="43.26269" lon="5.87596">
        <ele>686.2</ele>
        <time>2021-05-29T09:24:36Z</time>
      </trkpt>
      <trkpt lat="43.26271" lon="5.87603">
        <ele>686.6</ele>
        <time>2021-05-29T09:24:39Z</time>
      </trkpt>
      <trkpt lat="43.26272" lon="5.87608">
        <ele>687</ele>
        <time>2021-05-29T09:24:41Z</time>
      </trkpt>
      <trkpt lat="43.26278" lon="5.87624">
        <ele>687.6</ele>
        <time>2021-05-29T09:24:47Z</time>
      </trkpt>
      <trkpt lat="43.26283" lon="5.87638">
        <ele>688</ele>
        <time>2021-05-29T09:24:53Z</time>
      </trkpt>
      <trkpt lat="43.2629" lon="5.8766">
        <ele>689.2</ele>
        <time>2021-05-29T09:25:03Z</time>
      </trkpt>
      <trkpt lat="43.26294" lon="5.87679">
        <ele>690</ele>
        <time>2021-05-29T09:25:11Z</time>
      </trkpt>
      <trkpt lat="43.26294" lon="5.87681">
        <ele>690.2</ele>
        <time>2021-05-29T09:25:12Z</time>
      </trkpt>
      <trkpt lat="43.26297" lon="5.87701">
        <ele>690.6</ele>
        <time>2021-05-29T09:25:20Z</time>
      </trkpt>
      <trkpt lat="43.263" lon="5.87717">
        <ele>691</ele>
        <time>2021-05-29T09:25:26Z</time>
      </trkpt>
      <trkpt lat="43.26301" lon="5.87724">
        <ele>691.4</ele>
        <time>2021-05-29T09:25:29Z</time>
      </trkpt>
      <trkpt lat="43.26307" lon="5.87746">
        <ele>692</ele>
        <time>2021-05-29T09:25:38Z</time>
      </trkpt>
      <trkpt lat="43.26308" lon="5.87748">
        <ele>692.4</ele>
        <time>2021-05-29T09:25:39Z</time>
      </trkpt>
      <trkpt lat="43.26312" lon="5.8776">
        <ele>692.8</ele>
        <time>2021-05-29T09:25:44Z</time>
      </trkpt>
      <trkpt lat="43.26317" lon="5.87774">
        <ele>693.4</ele>
        <time>2021-05-29T09:25:50Z</time>
      </trkpt>
      <trkpt lat="43.26319" lon="5.87782">
        <ele>694</ele>
        <time>2021-05-29T09:25:53Z</time>
      </trkpt>
      <trkpt lat="43.26324" lon="5.87797">
        <ele>694.6</ele>
        <time>2021-05-29T09:25:59Z</time>
      </trkpt>
      <trkpt lat="43.26329" lon="5.8781">
        <ele>695</ele>
        <time>2021-05-29T09:26:04Z</time>
      </trkpt>
      <trkpt lat="43.26337" lon="5.87824">
        <ele>695.6</ele>
        <time>2021-05-29T09:26:10Z</time>
      </trkpt>
      <trkpt lat="43.26339" lon="5.87827">
        <ele>695.8</ele>
        <time>2021-05-29T09:26:11Z</time>
      </trkpt>
      <trkpt lat="43.26346" lon="5.87841">
        <ele>696</ele>
        <time>2021-05-29T09:26:17Z</time>
      </trkpt>
      <trkpt lat="43.26356" lon="5.87855">
        <ele>696.4</ele>
        <time>2021-05-29T09:26:23Z</time>
      </trkpt>
      <trkpt lat="43.26359" lon="5.8786">
        <ele>696.6</ele>
        <time>2021-05-29T09:26:25Z</time>
      </trkpt>
      <trkpt lat="43.26361" lon="5.87863">
        <ele>696.8</ele>
        <time>2021-05-29T09:26:26Z</time>
      </trkpt>
      <trkpt lat="43.26372" lon="5.87878">
        <ele>697.6</ele>
        <time>2021-05-29T09:26:32Z</time>
      </trkpt>
      <trkpt lat="43.26374" lon="5.8788">
        <ele>697.6</ele>
        <time>2021-05-29T09:26:33Z</time>
      </trkpt>
      <trkpt lat="43.26376" lon="5.87882">
        <ele>697.8</ele>
        <time>2021-05-29T09:26:34Z</time>
      </trkpt>
      <trkpt lat="43.26386" lon="5.87894">
        <ele>698.2</ele>
        <time>2021-05-29T09:26:40Z</time>
      </trkpt>
      <trkpt lat="43.26393" lon="5.87903">
        <ele>698.4</ele>
        <time>2021-05-29T09:26:44Z</time>
      </trkpt>
      <trkpt lat="43.26402" lon="5.87913">
        <ele>698.6</ele>
        <time>2021-05-29T09:26:49Z</time>
      </trkpt>
      <trkpt lat="43.26406" lon="5.87918">
        <ele>698.6</ele>
        <time>2021-05-29T09:26:51Z</time>
      </trkpt>
      <trkpt lat="43.26408" lon="5.8792">
        <ele>698.8</ele>
        <time>2021-05-29T09:26:52Z</time>
      </trkpt>
      <trkpt lat="43.26413" lon="5.87927">
        <ele>699</ele>
        <time>2021-05-29T09:26:55Z</time>
      </trkpt>
      <trkpt lat="43.26418" lon="5.87935">
        <ele>699.2</ele>
        <time>2021-05-29T09:26:58Z</time>
      </trkpt>
      <trkpt lat="43.26422" lon="5.87939">
        <ele>699.6</ele>
        <time>2021-05-29T09:27:00Z</time>
      </trkpt>
      <trkpt lat="43.26426" lon="5.87944">
        <ele>699.8</ele>
        <time>2021-05-29T09:27:02Z</time>
      </trkpt>
      <trkpt lat="43.26434" lon="5.87953">
        <ele>700.4</ele>
        <time>2021-05-29T09:27:06Z</time>
      </trkpt>
      <trkpt lat="43.26439" lon="5.8796">
        <ele>700.6</ele>
        <time>2021-05-29T09:27:09Z</time>
      </trkpt>
      <trkpt lat="43.26443" lon="5.87965">
        <ele>700.6</ele>
        <time>2021-05-29T09:27:11Z</time>
      </trkpt>
      <trkpt lat="43.26451" lon="5.87975">
        <ele>700.8</ele>
        <time>2021-05-29T09:27:14Z</time>
      </trkpt>
      <trkpt lat="43.26453" lon="5.87977">
        <ele>700.8</ele>
        <time>2021-05-29T09:27:15Z</time>
      </trkpt>
      <trkpt lat="43.26455" lon="5.8798">
        <ele>700.8</ele>
        <time>2021-05-29T09:27:16Z</time>
      </trkpt>
      <trkpt lat="43.26458" lon="5.87983">
        <ele>700.8</ele>
        <time>2021-05-29T09:27:17Z</time>
      </trkpt>
      <trkpt lat="43.26468" lon="5.87996">
        <ele>701</ele>
        <time>2021-05-29T09:27:21Z</time>
      </trkpt>
      <trkpt lat="43.26473" lon="5.88008">
        <ele>700.6</ele>
        <time>2021-05-29T09:27:24Z</time>
      </trkpt>
      <trkpt lat="43.26478" lon="5.88023">
        <ele>700.8</ele>
        <time>2021-05-29T09:27:27Z</time>
      </trkpt>
      <trkpt lat="43.26485" lon="5.88049">
        <ele>700.6</ele>
        <time>2021-05-29T09:27:32Z</time>
      </trkpt>
      <trkpt lat="43.26486" lon="5.88053">
        <ele>700.4</ele>
        <time>2021-05-29T09:27:33Z</time>
      </trkpt>
      <trkpt lat="43.26487" lon="5.8806">
        <ele>700.4</ele>
        <time>2021-05-29T09:27:34Z</time>
      </trkpt>
      <trkpt lat="43.2649" lon="5.88088">
        <ele>700.4</ele>
        <time>2021-05-29T09:27:39Z</time>
      </trkpt>
      <trkpt lat="43.2649" lon="5.88123">
        <ele>699.6</ele>
        <time>2021-05-29T09:27:45Z</time>
      </trkpt>
      <trkpt lat="43.26491" lon="5.88137">
        <ele>699.6</ele>
        <time>2021-05-29T09:27:47Z</time>
      </trkpt>
      <trkpt lat="43.26491" lon="5.88144">
        <ele>699.6</ele>
        <time>2021-05-29T09:27:48Z</time>
      </trkpt>
      <trkpt lat="43.2649" lon="5.88158">
        <ele>699.4</ele>
        <time>2021-05-29T09:27:50Z</time>
      </trkpt>
      <trkpt lat="43.26488" lon="5.88179">
        <ele>699.2</ele>
        <time>2021-05-29T09:27:53Z</time>
      </trkpt>
      <trkpt lat="43.26482" lon="5.882">
        <ele>698.8</ele>
        <time>2021-05-29T09:27:56Z</time>
      </trkpt>
      <trkpt lat="43.26477" lon="5.88213">
        <ele>698.4</ele>
        <time>2021-05-29T09:27:58Z</time>
      </trkpt>
      <trkpt lat="43.26475" lon="5.88219">
        <ele>698.4</ele>
        <time>2021-05-29T09:27:59Z</time>
      </trkpt>
      <trkpt lat="43.2646" lon="5.88262">
        <ele>697.8</ele>
        <time>2021-05-29T09:28:06Z</time>
      </trkpt>
      <trkpt lat="43.26457" lon="5.88269">
        <ele>697.6</ele>
        <time>2021-05-29T09:28:07Z</time>
      </trkpt>
      <trkpt lat="43.26448" lon="5.88287">
        <ele>697.4</ele>
        <time>2021-05-29T09:28:10Z</time>
      </trkpt>
      <trkpt lat="43.26445" lon="5.88293">
        <ele>697.4</ele>
        <time>2021-05-29T09:28:11Z</time>
      </trkpt>
      <trkpt lat="43.26441" lon="5.88298">
        <ele>697.2</ele>
        <time>2021-05-29T09:28:12Z</time>
      </trkpt>
      <trkpt lat="43.26432" lon="5.88306">
        <ele>697</ele>
        <time>2021-05-29T09:28:14Z</time>
      </trkpt>
      <trkpt lat="43.26423" lon="5.88313">
        <ele>696.8</ele>
        <time>2021-05-29T09:28:16Z</time>
      </trkpt>
      <trkpt lat="43.26414" lon="5.88317">
        <ele>696.6</ele>
        <time>2021-05-29T09:28:18Z</time>
      </trkpt>
      <trkpt lat="43.2641" lon="5.88318">
        <ele>696.4</ele>
        <time>2021-05-29T09:28:19Z</time>
      </trkpt>
      <trkpt lat="43.264" lon="5.88322">
        <ele>696.2</ele>
        <time>2021-05-29T09:28:21Z</time>
      </trkpt>
      <trkpt lat="43.26388" lon="5.88329">
        <ele>695.4</ele>
        <time>2021-05-29T09:28:24Z</time>
      </trkpt>
      <trkpt lat="43.26383" lon="5.88332">
        <ele>694.8</ele>
        <time>2021-05-29T09:28:25Z</time>
      </trkpt>
      <trkpt lat="43.26372" lon="5.88337">
        <ele>693.8</ele>
        <time>2021-05-29T09:28:27Z</time>
      </trkpt>
      <trkpt lat="43.26367" lon="5.88339">
        <ele>693.6</ele>
        <time>2021-05-29T09:28:28Z</time>
      </trkpt>
      <trkpt lat="43.26362" lon="5.88341">
        <ele>692.6</ele>
        <time>2021-05-29T09:28:29Z</time>
      </trkpt>
      <trkpt lat="43.26347" lon="5.88346">
        <ele>690.8</ele>
        <time>2021-05-29T09:28:32Z</time>
      </trkpt>
      <trkpt lat="43.26343" lon="5.88348">
        <ele>690.4</ele>
        <time>2021-05-29T09:28:33Z</time>
      </trkpt>
      <trkpt lat="43.2633" lon="5.88351">
        <ele>689.4</ele>
        <time>2021-05-29T09:28:36Z</time>
      </trkpt>
      <trkpt lat="43.26318" lon="5.88353">
        <ele>687.8</ele>
        <time>2021-05-29T09:28:39Z</time>
      </trkpt>
      <trkpt lat="43.26306" lon="5.88355">
        <ele>686.8</ele>
        <time>2021-05-29T09:28:42Z</time>
      </trkpt>
      <trkpt lat="43.26294" lon="5.88357">
        <ele>685.8</ele>
        <time>2021-05-29T09:28:45Z</time>
      </trkpt>
      <trkpt lat="43.26287" lon="5.88358">
        <ele>685</ele>
        <time>2021-05-29T09:28:47Z</time>
      </trkpt>
      <trkpt lat="43.26281" lon="5.8836">
        <ele>684.4</ele>
        <time>2021-05-29T09:28:49Z</time>
      </trkpt>
      <trkpt lat="43.26273" lon="5.88365">
        <ele>682.8</ele>
        <time>2021-05-29T09:28:52Z</time>
      </trkpt>
      <trkpt lat="43.26268" lon="5.88367">
        <ele>681.8</ele>
        <time>2021-05-29T09:28:54Z</time>
      </trkpt>
      <trkpt lat="43.26264" lon="5.88368">
        <ele>680.8</ele>
        <time>2021-05-29T09:28:56Z</time>
      </trkpt>
      <trkpt lat="43.26258" lon="5.88369">
        <ele>680.2</ele>
        <time>2021-05-29T09:28:58Z</time>
      </trkpt>
      <trkpt lat="43.26255" lon="5.88371">
        <ele>679.6</ele>
        <time>2021-05-29T09:28:59Z</time>
      </trkpt>
      <trkpt lat="43.26242" lon="5.88377">
        <ele>678.6</ele>
        <time>2021-05-29T09:29:03Z</time>
      </trkpt>
      <trkpt lat="43.26236" lon="5.88377">
        <ele>678</ele>
        <time>2021-05-29T09:29:05Z</time>
      </trkpt>
      <trkpt lat="43.26227" lon="5.88372">
        <ele>677.4</ele>
        <time>2021-05-29T09:29:08Z</time>
      </trkpt>
      <trkpt lat="43.26219" lon="5.88365">
        <ele>676.8</ele>
        <time>2021-05-29T09:29:10Z</time>
      </trkpt>
      <trkpt lat="43.26214" lon="5.88361">
        <ele>676.4</ele>
        <time>2021-05-29T09:29:11Z</time>
      </trkpt>
      <trkpt lat="43.26205" lon="5.88352">
        <ele>675.6</ele>
        <time>2021-05-29T09:29:13Z</time>
      </trkpt>
      <trkpt lat="43.26201" lon="5.8835">
        <ele>674.6</ele>
        <time>2021-05-29T09:29:14Z</time>
      </trkpt>
      <trkpt lat="43.26196" lon="5.88347">
        <ele>674.2</ele>
        <time>2021-05-29T09:29:15Z</time>
      </trkpt>
      <trkpt lat="43.26183" lon="5.88339">
        <ele>673.6</ele>
        <time>2021-05-29T09:29:18Z</time>
      </trkpt>
      <trkpt lat="43.26176" lon="5.88335">
        <ele>673.4</ele>
        <time>2021-05-29T09:29:20Z</time>
      </trkpt>
      <trkpt lat="43.26165" lon="5.88333">
        <ele>673</ele>
        <time>2021-05-29T09:29:24Z</time>
      </trkpt>
      <trkpt lat="43.26157" lon="5.88328">
        <ele>672.6</ele>
        <time>2021-05-29T09:29:29Z</time>
      </trkpt>
      <trkpt lat="43.26155" lon="5.88325">
        <ele>672.6</ele>
        <time>2021-05-29T09:29:30Z</time>
      </trkpt>
      <trkpt lat="43.26143" lon="5.88318">
        <ele>672.4</ele>
        <time>2021-05-29T09:29:34Z</time>
      </trkpt>
      <trkpt lat="43.26139" lon="5.88316">
        <ele>672.4</ele>
        <time>2021-05-29T09:29:35Z</time>
      </trkpt>
      <trkpt lat="43.26136" lon="5.88314">
        <ele>672.4</ele>
        <time>2021-05-29T09:29:36Z</time>
      </trkpt>
      <trkpt lat="43.26132" lon="5.88312">
        <ele>672.4</ele>
        <time>2021-05-29T09:29:37Z</time>
      </trkpt>
      <trkpt lat="43.26128" lon="5.88309">
        <ele>672.4</ele>
        <time>2021-05-29T09:29:38Z</time>
      </trkpt>
      <trkpt lat="43.26124" lon="5.88308">
        <ele>672.4</ele>
        <time>2021-05-29T09:29:39Z</time>
      </trkpt>
      <trkpt lat="43.26121" lon="5.88306">
        <ele>672.6</ele>
        <time>2021-05-29T09:29:40Z</time>
      </trkpt>
      <trkpt lat="43.26118" lon="5.88304">
        <ele>672.6</ele>
        <time>2021-05-29T09:29:41Z</time>
      </trkpt>
      <trkpt lat="43.26115" lon="5.88302">
        <ele>672.8</ele>
        <time>2021-05-29T09:29:42Z</time>
      </trkpt>
      <trkpt lat="43.26095" lon="5.88293">
        <ele>673</ele>
        <time>2021-05-29T09:29:48Z</time>
      </trkpt>
      <trkpt lat="43.26083" lon="5.88287">
        <ele>673.2</ele>
        <time>2021-05-29T09:29:52Z</time>
      </trkpt>
      <trkpt lat="43.26074" lon="5.88285">
        <ele>673.2</ele>
        <time>2021-05-29T09:29:55Z</time>
      </trkpt>
      <trkpt lat="43.26071" lon="5.88284">
        <ele>673.2</ele>
        <time>2021-05-29T09:29:56Z</time>
      </trkpt>
      <trkpt lat="43.26065" lon="5.88284">
        <ele>673.2</ele>
        <time>2021-05-29T09:29:58Z</time>
      </trkpt>
      <trkpt lat="43.26063" lon="5.88284">
        <ele>673.2</ele>
        <time>2021-05-29T09:29:59Z</time>
      </trkpt>
      <trkpt lat="43.26061" lon="5.88284">
        <ele>673.2</ele>
        <time>2021-05-29T09:30:00Z</time>
      </trkpt>
      <trkpt lat="43.26056" lon="5.88285">
        <ele>673.4</ele>
        <time>2021-05-29T09:30:02Z</time>
      </trkpt>
      <trkpt lat="43.26045" lon="5.88286">
        <ele>673.6</ele>
        <time>2021-05-29T09:30:06Z</time>
      </trkpt>
      <trkpt lat="43.26043" lon="5.88286">
        <ele>673.6</ele>
        <time>2021-05-29T09:30:07Z</time>
      </trkpt>
      <trkpt lat="43.26035" lon="5.8829">
        <ele>673.8</ele>
        <time>2021-05-29T09:30:10Z</time>
      </trkpt>
      <trkpt lat="43.26029" lon="5.883">
        <ele>673.8</ele>
        <time>2021-05-29T09:30:13Z</time>
      </trkpt>
      <trkpt lat="43.26025" lon="5.88309">
        <ele>673.8</ele>
        <time>2021-05-29T09:30:15Z</time>
      </trkpt>
      <trkpt lat="43.26012" lon="5.88346">
        <ele>673.4</ele>
        <time>2021-05-29T09:30:21Z</time>
      </trkpt>
      <trkpt lat="43.26006" lon="5.8836">
        <ele>673</ele>
        <time>2021-05-29T09:30:23Z</time>
      </trkpt>
      <trkpt lat="43.26003" lon="5.88367">
        <ele>672.8</ele>
        <time>2021-05-29T09:30:24Z</time>
      </trkpt>
      <trkpt lat="43.26" lon="5.88374">
        <ele>672.6</ele>
        <time>2021-05-29T09:30:25Z</time>
      </trkpt>
      <trkpt lat="43.25994" lon="5.88389">
        <ele>672</ele>
        <time>2021-05-29T09:30:27Z</time>
      </trkpt>
      <trkpt lat="43.25982" lon="5.88421">
        <ele>671.2</ele>
        <time>2021-05-29T09:30:31Z</time>
      </trkpt>
      <trkpt lat="43.2597" lon="5.88451">
        <ele>670.6</ele>
        <time>2021-05-29T09:30:35Z</time>
      </trkpt>
      <trkpt lat="43.25967" lon="5.88459">
        <ele>670.2</ele>
        <time>2021-05-29T09:30:36Z</time>
      </trkpt>
      <trkpt lat="43.25964" lon="5.88466">
        <ele>670.2</ele>
        <time>2021-05-29T09:30:37Z</time>
      </trkpt>
      <trkpt lat="43.25943" lon="5.88513">
        <ele>670</ele>
        <time>2021-05-29T09:30:44Z</time>
      </trkpt>
      <trkpt lat="43.25929" lon="5.88547">
        <ele>670</ele>
        <time>2021-05-29T09:30:50Z</time>
      </trkpt>
      <trkpt lat="43.25915" lon="5.88581">
        <ele>669.4</ele>
        <time>2021-05-29T09:30:57Z</time>
      </trkpt>
      <trkpt lat="43.25902" lon="5.8861">
        <ele>669.2</ele>
        <time>2021-05-29T09:31:04Z</time>
      </trkpt>
      <trkpt lat="43.25892" lon="5.88636">
        <ele>669.2</ele>
        <time>2021-05-29T09:31:10Z</time>
      </trkpt>
      <trkpt lat="43.25881" lon="5.88661">
        <ele>669.6</ele>
        <time>2021-05-29T09:31:16Z</time>
      </trkpt>
      <trkpt lat="43.25876" lon="5.88674">
        <ele>670</ele>
        <time>2021-05-29T09:31:19Z</time>
      </trkpt>
      <trkpt lat="43.25864" lon="5.88701">
        <ele>670.6</ele>
        <time>2021-05-29T09:31:26Z</time>
      </trkpt>
      <trkpt lat="43.25861" lon="5.88709">
        <ele>670.6</ele>
        <time>2021-05-29T09:31:28Z</time>
      </trkpt>
      <trkpt lat="43.25856" lon="5.88721">
        <ele>670.8</ele>
        <time>2021-05-29T09:31:31Z</time>
      </trkpt>
      <trkpt lat="43.2585" lon="5.88734">
        <ele>671</ele>
        <time>2021-05-29T09:31:34Z</time>
      </trkpt>
      <trkpt lat="43.25842" lon="5.88753">
        <ele>671</ele>
        <time>2021-05-29T09:31:38Z</time>
      </trkpt>
      <trkpt lat="43.25839" lon="5.88762">
        <ele>671.2</ele>
        <time>2021-05-29T09:31:40Z</time>
      </trkpt>
      <trkpt lat="43.2583" lon="5.8878">
        <ele>671.2</ele>
        <time>2021-05-29T09:31:44Z</time>
      </trkpt>
      <trkpt lat="43.2582" lon="5.88803">
        <ele>671.4</ele>
        <time>2021-05-29T09:31:49Z</time>
      </trkpt>
      <trkpt lat="43.25805" lon="5.88836">
        <ele>672</ele>
        <time>2021-05-29T09:31:57Z</time>
      </trkpt>
      <trkpt lat="43.25801" lon="5.88844">
        <ele>672.2</ele>
        <time>2021-05-29T09:31:59Z</time>
      </trkpt>
      <trkpt lat="43.2579" lon="5.88871">
        <ele>673</ele>
        <time>2021-05-29T09:32:06Z</time>
      </trkpt>
      <trkpt lat="43.2579" lon="5.88878">
        <ele>673</ele>
        <time>2021-05-29T09:32:09Z</time>
      </trkpt>
      <trkpt lat="43.2579" lon="5.88878">
        <ele>673.2</ele>
        <time>2021-05-29T09:32:10Z</time>
      </trkpt>
      <trkpt lat="43.2579" lon="5.88878">
        <ele>673.2</ele>
        <time>2021-05-29T09:32:14Z</time>
      </trkpt>
      <trkpt lat="43.25793" lon="5.88883">
        <ele>673.2</ele>
        <time>2021-05-29T09:44:31Z</time>
      </trkpt>
      <trkpt lat="43.25792" lon="5.88883">
        <ele>673.4</ele>
        <time>2021-05-29T09:44:35Z</time>
      </trkpt>
      <trkpt lat="43.2579" lon="5.88883">
        <ele>673.4</ele>
        <time>2021-05-29T09:44:36Z</time>
      </trkpt>
      <trkpt lat="43.25788" lon="5.88884">
        <ele>673.4</ele>
        <time>2021-05-29T09:44:37Z</time>
      </trkpt>
      <trkpt lat="43.25784" lon="5.88888">
        <ele>673.4</ele>
        <time>2021-05-29T09:44:39Z</time>
      </trkpt>
      <trkpt lat="43.25781" lon="5.88892">
        <ele>673.2</ele>
        <time>2021-05-29T09:44:41Z</time>
      </trkpt>
      <trkpt lat="43.25779" lon="5.88895">
        <ele>673.2</ele>
        <time>2021-05-29T09:44:42Z</time>
      </trkpt>
      <trkpt lat="43.25775" lon="5.88899">
        <ele>673.2</ele>
        <time>2021-05-29T09:44:44Z</time>
      </trkpt>
      <trkpt lat="43.25772" lon="5.88906">
        <ele>673.2</ele>
        <time>2021-05-29T09:44:47Z</time>
      </trkpt>
      <trkpt lat="43.25771" lon="5.88908">
        <ele>673.4</ele>
        <time>2021-05-29T09:44:48Z</time>
      </trkpt>
      <trkpt lat="43.25769" lon="5.88913">
        <ele>673.8</ele>
        <time>2021-05-29T09:44:51Z</time>
      </trkpt>
      <trkpt lat="43.25765" lon="5.8892">
        <ele>674</ele>
        <time>2021-05-29T09:44:55Z</time>
      </trkpt>
      <trkpt lat="43.25762" lon="5.88927">
        <ele>674.2</ele>
        <time>2021-05-29T09:44:58Z</time>
      </trkpt>
      <trkpt lat="43.25761" lon="5.88931">
        <ele>674.4</ele>
        <time>2021-05-29T09:45:00Z</time>
      </trkpt>
      <trkpt lat="43.25755" lon="5.88945">
        <ele>674.8</ele>
        <time>2021-05-29T09:45:06Z</time>
      </trkpt>
      <trkpt lat="43.25751" lon="5.88956">
        <ele>675</ele>
        <time>2021-05-29T09:45:11Z</time>
      </trkpt>
      <trkpt lat="43.25749" lon="5.88963">
        <ele>675.2</ele>
        <time>2021-05-29T09:45:14Z</time>
      </trkpt>
      <trkpt lat="43.25748" lon="5.88965">
        <ele>675.4</ele>
        <time>2021-05-29T09:45:15Z</time>
      </trkpt>
      <trkpt lat="43.25743" lon="5.8898">
        <ele>676.2</ele>
        <time>2021-05-29T09:45:22Z</time>
      </trkpt>
      <trkpt lat="43.25742" lon="5.88982">
        <ele>676.4</ele>
        <time>2021-05-29T09:45:23Z</time>
      </trkpt>
      <trkpt lat="43.25736" lon="5.88994">
        <ele>677.4</ele>
        <time>2021-05-29T09:45:29Z</time>
      </trkpt>
      <trkpt lat="43.25734" lon="5.88998">
        <ele>677.6</ele>
        <time>2021-05-29T09:45:31Z</time>
      </trkpt>
      <trkpt lat="43.25733" lon="5.89001">
        <ele>677.8</ele>
        <time>2021-05-29T09:45:32Z</time>
      </trkpt>
      <trkpt lat="43.25732" lon="5.89004">
        <ele>677.8</ele>
        <time>2021-05-29T09:45:33Z</time>
      </trkpt>
      <trkpt lat="43.25726" lon="5.89016">
        <ele>678.4</ele>
        <time>2021-05-29T09:45:39Z</time>
      </trkpt>
      <trkpt lat="43.25724" lon="5.89021">
        <ele>678.8</ele>
        <time>2021-05-29T09:45:41Z</time>
      </trkpt>
      <trkpt lat="43.25721" lon="5.89025">
        <ele>679</ele>
        <time>2021-05-29T09:45:43Z</time>
      </trkpt>
      <trkpt lat="43.25717" lon="5.89034">
        <ele>679.4</ele>
        <time>2021-05-29T09:45:47Z</time>
      </trkpt>
      <trkpt lat="43.25715" lon="5.8904">
        <ele>679.8</ele>
        <time>2021-05-29T09:45:50Z</time>
      </trkpt>
      <trkpt lat="43.25707" lon="5.89057">
        <ele>680.4</ele>
        <time>2021-05-29T09:45:57Z</time>
      </trkpt>
      <trkpt lat="43.25705" lon="5.89061">
        <ele>680.4</ele>
        <time>2021-05-29T09:45:59Z</time>
      </trkpt>
      <trkpt lat="43.25694" lon="5.89086">
        <ele>681</ele>
        <time>2021-05-29T09:46:08Z</time>
      </trkpt>
      <trkpt lat="43.2569" lon="5.89097">
        <ele>681.2</ele>
        <time>2021-05-29T09:46:11Z</time>
      </trkpt>
      <trkpt lat="43.25688" lon="5.89104">
        <ele>681.4</ele>
        <time>2021-05-29T09:46:13Z</time>
      </trkpt>
      <trkpt lat="43.25684" lon="5.89116">
        <ele>681.4</ele>
        <time>2021-05-29T09:46:16Z</time>
      </trkpt>
      <trkpt lat="43.25673" lon="5.89153">
        <ele>681.4</ele>
        <time>2021-05-29T09:46:23Z</time>
      </trkpt>
      <trkpt lat="43.25667" lon="5.89178">
        <ele>681</ele>
        <time>2021-05-29T09:46:27Z</time>
      </trkpt>
      <trkpt lat="43.2566" lon="5.89202">
        <ele>680.8</ele>
        <time>2021-05-29T09:46:31Z</time>
      </trkpt>
      <trkpt lat="43.25655" lon="5.89222">
        <ele>680.6</ele>
        <time>2021-05-29T09:46:35Z</time>
      </trkpt>
      <trkpt lat="43.25655" lon="5.89229">
        <ele>680.6</ele>
        <time>2021-05-29T09:46:36Z</time>
      </trkpt>
      <trkpt lat="43.25654" lon="5.89235">
        <ele>680.6</ele>
        <time>2021-05-29T09:46:37Z</time>
      </trkpt>
      <trkpt lat="43.25651" lon="5.89245">
        <ele>680.4</ele>
        <time>2021-05-29T09:46:39Z</time>
      </trkpt>
      <trkpt lat="43.25649" lon="5.89251">
        <ele>680.4</ele>
        <time>2021-05-29T09:46:40Z</time>
      </trkpt>
      <trkpt lat="43.25645" lon="5.89262">
        <ele>680.4</ele>
        <time>2021-05-29T09:46:42Z</time>
      </trkpt>
      <trkpt lat="43.25644" lon="5.89267">
        <ele>680.4</ele>
        <time>2021-05-29T09:46:43Z</time>
      </trkpt>
      <trkpt lat="43.25642" lon="5.89273">
        <ele>680.4</ele>
        <time>2021-05-29T09:46:44Z</time>
      </trkpt>
      <trkpt lat="43.25639" lon="5.8928">
        <ele>680.4</ele>
        <time>2021-05-29T09:46:45Z</time>
      </trkpt>
      <trkpt lat="43.25635" lon="5.89292">
        <ele>680</ele>
        <time>2021-05-29T09:46:47Z</time>
      </trkpt>
      <trkpt lat="43.25631" lon="5.89303">
        <ele>679.8</ele>
        <time>2021-05-29T09:46:49Z</time>
      </trkpt>
      <trkpt lat="43.2562" lon="5.89321">
        <ele>679.6</ele>
        <time>2021-05-29T09:46:54Z</time>
      </trkpt>
      <trkpt lat="43.25616" lon="5.8933">
        <ele>679.6</ele>
        <time>2021-05-29T09:46:56Z</time>
      </trkpt>
      <trkpt lat="43.25609" lon="5.89352">
        <ele>680</ele>
        <time>2021-05-29T09:47:02Z</time>
      </trkpt>
      <trkpt lat="43.25604" lon="5.89372">
        <ele>680.2</ele>
        <time>2021-05-29T09:47:07Z</time>
      </trkpt>
      <trkpt lat="43.25603" lon="5.89376">
        <ele>680.2</ele>
        <time>2021-05-29T09:47:08Z</time>
      </trkpt>
      <trkpt lat="43.25602" lon="5.8938">
        <ele>680.4</ele>
        <time>2021-05-29T09:47:09Z</time>
      </trkpt>
      <trkpt lat="43.25601" lon="5.89391">
        <ele>680.6</ele>
        <time>2021-05-29T09:47:12Z</time>
      </trkpt>
      <trkpt lat="43.25598" lon="5.89406">
        <ele>681</ele>
        <time>2021-05-29T09:47:16Z</time>
      </trkpt>
      <trkpt lat="43.25597" lon="5.89413">
        <ele>681</ele>
        <time>2021-05-29T09:47:18Z</time>
      </trkpt>
      <trkpt lat="43.25593" lon="5.89449">
        <ele>681.8</ele>
        <time>2021-05-29T09:47:27Z</time>
      </trkpt>
      <trkpt lat="43.25591" lon="5.89456">
        <ele>681.8</ele>
        <time>2021-05-29T09:47:29Z</time>
      </trkpt>
      <trkpt lat="43.2559" lon="5.89461">
        <ele>682</ele>
        <time>2021-05-29T09:47:30Z</time>
      </trkpt>
      <trkpt lat="43.25589" lon="5.89465">
        <ele>682</ele>
        <time>2021-05-29T09:47:31Z</time>
      </trkpt>
      <trkpt lat="43.25588" lon="5.89468">
        <ele>682.2</ele>
        <time>2021-05-29T09:47:32Z</time>
      </trkpt>
      <trkpt lat="43.25587" lon="5.89475">
        <ele>682.2</ele>
        <time>2021-05-29T09:47:34Z</time>
      </trkpt>
      <trkpt lat="43.25587" lon="5.89479">
        <ele>682.2</ele>
        <time>2021-05-29T09:47:35Z</time>
      </trkpt>
      <trkpt lat="43.25586" lon="5.89482">
        <ele>682.4</ele>
        <time>2021-05-29T09:47:36Z</time>
      </trkpt>
      <trkpt lat="43.25585" lon="5.89486">
        <ele>682.6</ele>
        <time>2021-05-29T09:47:37Z</time>
      </trkpt>
      <trkpt lat="43.25582" lon="5.89502">
        <ele>683</ele>
        <time>2021-05-29T09:47:42Z</time>
      </trkpt>
      <trkpt lat="43.2558" lon="5.89508">
        <ele>683.2</ele>
        <time>2021-05-29T09:47:44Z</time>
      </trkpt>
      <trkpt lat="43.25577" lon="5.89523">
        <ele>683.6</ele>
        <time>2021-05-29T09:47:48Z</time>
      </trkpt>
      <trkpt lat="43.25574" lon="5.89534">
        <ele>684</ele>
        <time>2021-05-29T09:47:52Z</time>
      </trkpt>
      <trkpt lat="43.25572" lon="5.8954">
        <ele>684.4</ele>
        <time>2021-05-29T09:47:54Z</time>
      </trkpt>
      <trkpt lat="43.2557" lon="5.89544">
        <ele>684.6</ele>
        <time>2021-05-29T09:47:56Z</time>
      </trkpt>
      <trkpt lat="43.25568" lon="5.89553">
        <ele>685.2</ele>
        <time>2021-05-29T09:47:59Z</time>
      </trkpt>
      <trkpt lat="43.25566" lon="5.89557">
        <ele>685.6</ele>
        <time>2021-05-29T09:48:01Z</time>
      </trkpt>
      <trkpt lat="43.25562" lon="5.89569">
        <ele>687</ele>
        <time>2021-05-29T09:48:06Z</time>
      </trkpt>
      <trkpt lat="43.25557" lon="5.8958">
        <ele>687.8</ele>
        <time>2021-05-29T09:48:11Z</time>
      </trkpt>
      <trkpt lat="43.25556" lon="5.89582">
        <ele>688</ele>
        <time>2021-05-29T09:48:12Z</time>
      </trkpt>
      <trkpt lat="43.25553" lon="5.89588">
        <ele>689</ele>
        <time>2021-05-29T09:48:15Z</time>
      </trkpt>
      <trkpt lat="43.25551" lon="5.89595">
        <ele>689.6</ele>
        <time>2021-05-29T09:48:19Z</time>
      </trkpt>
      <trkpt lat="43.2555" lon="5.89596">
        <ele>689.8</ele>
        <time>2021-05-29T09:48:20Z</time>
      </trkpt>
      <trkpt lat="43.25549" lon="5.89598">
        <ele>690.2</ele>
        <time>2021-05-29T09:48:21Z</time>
      </trkpt>
      <trkpt lat="43.25549" lon="5.896">
        <ele>690.2</ele>
        <time>2021-05-29T09:48:22Z</time>
      </trkpt>
      <trkpt lat="43.25548" lon="5.89601">
        <ele>690.4</ele>
        <time>2021-05-29T09:48:23Z</time>
      </trkpt>
      <trkpt lat="43.25547" lon="5.89603">
        <ele>690.6</ele>
        <time>2021-05-29T09:48:24Z</time>
      </trkpt>
      <trkpt lat="43.25546" lon="5.89605">
        <ele>690.8</ele>
        <time>2021-05-29T09:48:25Z</time>
      </trkpt>
      <trkpt lat="43.25545" lon="5.89608">
        <ele>691</ele>
        <time>2021-05-29T09:48:26Z</time>
      </trkpt>
      <trkpt lat="43.25544" lon="5.89611">
        <ele>691</ele>
        <time>2021-05-29T09:48:27Z</time>
      </trkpt>
      <trkpt lat="43.25543" lon="5.89612">
        <ele>691.2</ele>
        <time>2021-05-29T09:48:28Z</time>
      </trkpt>
      <trkpt lat="43.25541" lon="5.89617">
        <ele>691.4</ele>
        <time>2021-05-29T09:48:30Z</time>
      </trkpt>
      <trkpt lat="43.25539" lon="5.89622">
        <ele>691.6</ele>
        <time>2021-05-29T09:48:33Z</time>
      </trkpt>
      <trkpt lat="43.25535" lon="5.89631">
        <ele>692</ele>
        <time>2021-05-29T09:48:37Z</time>
      </trkpt>
      <trkpt lat="43.2553" lon="5.89642">
        <ele>692.2</ele>
        <time>2021-05-29T09:48:42Z</time>
      </trkpt>
      <trkpt lat="43.25522" lon="5.89661">
        <ele>692.8</ele>
        <time>2021-05-29T09:48:50Z</time>
      </trkpt>
      <trkpt lat="43.25521" lon="5.89664">
        <ele>693</ele>
        <time>2021-05-29T09:48:51Z</time>
      </trkpt>
      <trkpt lat="43.25518" lon="5.89668">
        <ele>693.2</ele>
        <time>2021-05-29T09:48:53Z</time>
      </trkpt>
      <trkpt lat="43.25517" lon="5.89671">
        <ele>693.2</ele>
        <time>2021-05-29T09:48:54Z</time>
      </trkpt>
      <trkpt lat="43.25511" lon="5.89685">
        <ele>693.6</ele>
        <time>2021-05-29T09:49:00Z</time>
      </trkpt>
      <trkpt lat="43.2551" lon="5.89689">
        <ele>693.8</ele>
        <time>2021-05-29T09:49:01Z</time>
      </trkpt>
      <trkpt lat="43.25506" lon="5.897">
        <ele>694.2</ele>
        <time>2021-05-29T09:49:06Z</time>
      </trkpt>
      <trkpt lat="43.25504" lon="5.89707">
        <ele>694.4</ele>
        <time>2021-05-29T09:49:09Z</time>
      </trkpt>
      <trkpt lat="43.25501" lon="5.89723">
        <ele>695.2</ele>
        <time>2021-05-29T09:49:14Z</time>
      </trkpt>
      <trkpt lat="43.255" lon="5.89729">
        <ele>695.6</ele>
        <time>2021-05-29T09:49:16Z</time>
      </trkpt>
      <trkpt lat="43.25499" lon="5.89746">
        <ele>696.4</ele>
        <time>2021-05-29T09:49:22Z</time>
      </trkpt>
      <trkpt lat="43.25499" lon="5.89752">
        <ele>696.8</ele>
        <time>2021-05-29T09:49:24Z</time>
      </trkpt>
      <trkpt lat="43.255" lon="5.89755">
        <ele>696.8</ele>
        <time>2021-05-29T09:49:25Z</time>
      </trkpt>
      <trkpt lat="43.255" lon="5.8976">
        <ele>697.2</ele>
        <time>2021-05-29T09:49:27Z</time>
      </trkpt>
      <trkpt lat="43.255" lon="5.89769">
        <ele>697.4</ele>
        <time>2021-05-29T09:49:30Z</time>
      </trkpt>
      <trkpt lat="43.25501" lon="5.89771">
        <ele>697.6</ele>
        <time>2021-05-29T09:49:31Z</time>
      </trkpt>
      <trkpt lat="43.25502" lon="5.89776">
        <ele>698</ele>
        <time>2021-05-29T09:49:33Z</time>
      </trkpt>
      <trkpt lat="43.25504" lon="5.89794">
        <ele>698.8</ele>
        <time>2021-05-29T09:49:39Z</time>
      </trkpt>
      <trkpt lat="43.25504" lon="5.89799">
        <ele>698.8</ele>
        <time>2021-05-29T09:49:41Z</time>
      </trkpt>
      <trkpt lat="43.25501" lon="5.89821">
        <ele>699.2</ele>
        <time>2021-05-29T09:49:47Z</time>
      </trkpt>
      <trkpt lat="43.255" lon="5.89826">
        <ele>699.6</ele>
        <time>2021-05-29T09:49:49Z</time>
      </trkpt>
      <trkpt lat="43.25494" lon="5.89847">
        <ele>700.8</ele>
        <time>2021-05-29T09:49:56Z</time>
      </trkpt>
      <trkpt lat="43.25493" lon="5.89852">
        <ele>701.2</ele>
        <time>2021-05-29T09:49:58Z</time>
      </trkpt>
      <trkpt lat="43.2549" lon="5.89866">
        <ele>701.8</ele>
        <time>2021-05-29T09:50:03Z</time>
      </trkpt>
      <trkpt lat="43.25489" lon="5.89869">
        <ele>701.8</ele>
        <time>2021-05-29T09:50:04Z</time>
      </trkpt>
      <trkpt lat="43.25487" lon="5.89872">
        <ele>702</ele>
        <time>2021-05-29T09:50:05Z</time>
      </trkpt>
      <trkpt lat="43.25485" lon="5.89877">
        <ele>702.4</ele>
        <time>2021-05-29T09:50:07Z</time>
      </trkpt>
      <trkpt lat="43.25484" lon="5.8988">
        <ele>702.6</ele>
        <time>2021-05-29T09:50:08Z</time>
      </trkpt>
      <trkpt lat="43.25481" lon="5.89886">
        <ele>702.8</ele>
        <time>2021-05-29T09:50:10Z</time>
      </trkpt>
      <trkpt lat="43.25479" lon="5.89891">
        <ele>703.2</ele>
        <time>2021-05-29T09:50:12Z</time>
      </trkpt>
      <trkpt lat="43.25477" lon="5.89896">
        <ele>703.6</ele>
        <time>2021-05-29T09:50:14Z</time>
      </trkpt>
      <trkpt lat="43.25476" lon="5.89899">
        <ele>703.8</ele>
        <time>2021-05-29T09:50:15Z</time>
      </trkpt>
      <trkpt lat="43.25473" lon="5.89907">
        <ele>704.2</ele>
        <time>2021-05-29T09:50:18Z</time>
      </trkpt>
      <trkpt lat="43.25472" lon="5.8991">
        <ele>704.4</ele>
        <time>2021-05-29T09:50:19Z</time>
      </trkpt>
      <trkpt lat="43.2547" lon="5.89916">
        <ele>704.8</ele>
        <time>2021-05-29T09:50:21Z</time>
      </trkpt>
      <trkpt lat="43.25465" lon="5.89929">
        <ele>705.2</ele>
        <time>2021-05-29T09:50:25Z</time>
      </trkpt>
      <trkpt lat="43.25462" lon="5.8994">
        <ele>705.8</ele>
        <time>2021-05-29T09:50:28Z</time>
      </trkpt>
      <trkpt lat="43.25456" lon="5.89955">
        <ele>706.2</ele>
        <time>2021-05-29T09:50:32Z</time>
      </trkpt>
      <trkpt lat="43.2545" lon="5.89971">
        <ele>706.2</ele>
        <time>2021-05-29T09:50:36Z</time>
      </trkpt>
      <trkpt lat="43.25443" lon="5.89988">
        <ele>706.2</ele>
        <time>2021-05-29T09:50:40Z</time>
      </trkpt>
      <trkpt lat="43.25433" lon="5.9001">
        <ele>706.2</ele>
        <time>2021-05-29T09:50:45Z</time>
      </trkpt>
      <trkpt lat="43.2542" lon="5.90037">
        <ele>706</ele>
        <time>2021-05-29T09:50:50Z</time>
      </trkpt>
      <trkpt lat="43.25413" lon="5.90049">
        <ele>705.4</ele>
        <time>2021-05-29T09:50:52Z</time>
      </trkpt>
      <trkpt lat="43.25406" lon="5.90068">
        <ele>705</ele>
        <time>2021-05-29T09:50:55Z</time>
      </trkpt>
      <trkpt lat="43.25404" lon="5.90075">
        <ele>704.8</ele>
        <time>2021-05-29T09:50:56Z</time>
      </trkpt>
      <trkpt lat="43.25396" lon="5.90107">
        <ele>704.8</ele>
        <time>2021-05-29T09:51:02Z</time>
      </trkpt>
      <trkpt lat="43.25393" lon="5.90118">
        <ele>704.6</ele>
        <time>2021-05-29T09:51:05Z</time>
      </trkpt>
      <trkpt lat="43.25388" lon="5.9013">
        <ele>705</ele>
        <time>2021-05-29T09:51:09Z</time>
      </trkpt>
      <trkpt lat="43.25382" lon="5.90142">
        <ele>705.2</ele>
        <time>2021-05-29T09:51:13Z</time>
      </trkpt>
      <trkpt lat="43.25378" lon="5.9015">
        <ele>706.4</ele>
        <time>2021-05-29T09:51:16Z</time>
      </trkpt>
      <trkpt lat="43.25377" lon="5.90153">
        <ele>706.6</ele>
        <time>2021-05-29T09:51:17Z</time>
      </trkpt>
      <trkpt lat="43.25368" lon="5.90174">
        <ele>707.4</ele>
        <time>2021-05-29T09:51:23Z</time>
      </trkpt>
      <trkpt lat="43.25366" lon="5.90178">
        <ele>707.6</ele>
        <time>2021-05-29T09:51:24Z</time>
      </trkpt>
      <trkpt lat="43.25362" lon="5.90192">
        <ele>708</ele>
        <time>2021-05-29T09:51:27Z</time>
      </trkpt>
      <trkpt lat="43.25361" lon="5.90201">
        <ele>708.2</ele>
        <time>2021-05-29T09:51:29Z</time>
      </trkpt>
      <trkpt lat="43.25358" lon="5.9022">
        <ele>708.6</ele>
        <time>2021-05-29T09:51:33Z</time>
      </trkpt>
      <trkpt lat="43.25356" lon="5.90244">
        <ele>708.8</ele>
        <time>2021-05-29T09:51:38Z</time>
      </trkpt>
      <trkpt lat="43.25355" lon="5.90254">
        <ele>709</ele>
        <time>2021-05-29T09:51:40Z</time>
      </trkpt>
      <trkpt lat="43.25354" lon="5.90259">
        <ele>709</ele>
        <time>2021-05-29T09:51:41Z</time>
      </trkpt>
      <trkpt lat="43.25351" lon="5.90278">
        <ele>709.2</ele>
        <time>2021-05-29T09:51:45Z</time>
      </trkpt>
      <trkpt lat="43.2535" lon="5.90282">
        <ele>709.2</ele>
        <time>2021-05-29T09:51:46Z</time>
      </trkpt>
      <trkpt lat="43.25349" lon="5.90287">
        <ele>709.2</ele>
        <time>2021-05-29T09:51:47Z</time>
      </trkpt>
      <trkpt lat="43.25347" lon="5.90297">
        <ele>709.4</ele>
        <time>2021-05-29T09:51:49Z</time>
      </trkpt>
      <trkpt lat="43.25345" lon="5.90308">
        <ele>709.4</ele>
        <time>2021-05-29T09:51:51Z</time>
      </trkpt>
      <trkpt lat="43.25338" lon="5.90345">
        <ele>709.2</ele>
        <time>2021-05-29T09:51:57Z</time>
      </trkpt>
      <trkpt lat="43.25335" lon="5.90358">
        <ele>709.2</ele>
        <time>2021-05-29T09:51:59Z</time>
      </trkpt>
      <trkpt lat="43.25334" lon="5.90365">
        <ele>709</ele>
        <time>2021-05-29T09:52:00Z</time>
      </trkpt>
      <trkpt lat="43.25332" lon="5.90371">
        <ele>709</ele>
        <time>2021-05-29T09:52:01Z</time>
      </trkpt>
      <trkpt lat="43.25326" lon="5.90392">
        <ele>708.8</ele>
        <time>2021-05-29T09:52:04Z</time>
      </trkpt>
      <trkpt lat="43.25323" lon="5.90419">
        <ele>708.4</ele>
        <time>2021-05-29T09:52:07Z</time>
      </trkpt>
      <trkpt lat="43.25324" lon="5.90428">
        <ele>708.4</ele>
        <time>2021-05-29T09:52:08Z</time>
      </trkpt>
      <trkpt lat="43.25327" lon="5.90437">
        <ele>707.8</ele>
        <time>2021-05-29T09:52:09Z</time>
      </trkpt>
      <trkpt lat="43.25335" lon="5.9045">
        <ele>707.2</ele>
        <time>2021-05-29T09:52:11Z</time>
      </trkpt>
      <trkpt lat="43.25345" lon="5.90461">
        <ele>706.8</ele>
        <time>2021-05-29T09:52:13Z</time>
      </trkpt>
      <trkpt lat="43.25354" lon="5.90473">
        <ele>706.6</ele>
        <time>2021-05-29T09:52:15Z</time>
      </trkpt>
      <trkpt lat="43.25358" lon="5.90481">
        <ele>706</ele>
        <time>2021-05-29T09:52:16Z</time>
      </trkpt>
      <trkpt lat="43.25362" lon="5.90488">
        <ele>705.6</ele>
        <time>2021-05-29T09:52:17Z</time>
      </trkpt>
      <trkpt lat="43.25368" lon="5.90506">
        <ele>704.4</ele>
        <time>2021-05-29T09:52:19Z</time>
      </trkpt>
      <trkpt lat="43.2537" lon="5.90515">
        <ele>704.2</ele>
        <time>2021-05-29T09:52:20Z</time>
      </trkpt>
      <trkpt lat="43.2537" lon="5.90525">
        <ele>703.4</ele>
        <time>2021-05-29T09:52:21Z</time>
      </trkpt>
      <trkpt lat="43.25372" lon="5.90553">
        <ele>702.4</ele>
        <time>2021-05-29T09:52:24Z</time>
      </trkpt>
      <trkpt lat="43.25374" lon="5.90569">
        <ele>702.2</ele>
        <time>2021-05-29T09:52:26Z</time>
      </trkpt>
      <trkpt lat="43.25381" lon="5.90605">
        <ele>702</ele>
        <time>2021-05-29T09:52:31Z</time>
      </trkpt>
      <trkpt lat="43.25385" lon="5.90643">
        <ele>702</ele>
        <time>2021-05-29T09:52:37Z</time>
      </trkpt>
      <trkpt lat="43.25386" lon="5.90649">
        <ele>702.2</ele>
        <time>2021-05-29T09:52:38Z</time>
      </trkpt>
      <trkpt lat="43.25387" lon="5.90656">
        <ele>702.2</ele>
        <time>2021-05-29T09:52:39Z</time>
      </trkpt>
      <trkpt lat="43.25389" lon="5.90662">
        <ele>702.2</ele>
        <time>2021-05-29T09:52:40Z</time>
      </trkpt>
      <trkpt lat="43.25392" lon="5.90666">
        <ele>702.2</ele>
        <time>2021-05-29T09:52:41Z</time>
      </trkpt>
      <trkpt lat="43.25399" lon="5.90673">
        <ele>702</ele>
        <time>2021-05-29T09:52:43Z</time>
      </trkpt>
      <trkpt lat="43.25404" lon="5.90674">
        <ele>702</ele>
        <time>2021-05-29T09:52:44Z</time>
      </trkpt>
      <trkpt lat="43.25408" lon="5.90675">
        <ele>702</ele>
        <time>2021-05-29T09:52:45Z</time>
      </trkpt>
      <trkpt lat="43.25412" lon="5.90675">
        <ele>702</ele>
        <time>2021-05-29T09:52:46Z</time>
      </trkpt>
      <trkpt lat="43.25417" lon="5.90675">
        <ele>702.2</ele>
        <time>2021-05-29T09:52:47Z</time>
      </trkpt>
      <trkpt lat="43.25421" lon="5.90676">
        <ele>702.2</ele>
        <time>2021-05-29T09:52:48Z</time>
      </trkpt>
      <trkpt lat="43.25451" lon="5.90678">
        <ele>702.6</ele>
        <time>2021-05-29T09:52:54Z</time>
      </trkpt>
      <trkpt lat="43.25461" lon="5.90678">
        <ele>702.8</ele>
        <time>2021-05-29T09:52:56Z</time>
      </trkpt>
      <trkpt lat="43.25466" lon="5.90678">
        <ele>702.8</ele>
        <time>2021-05-29T09:52:57Z</time>
      </trkpt>
      <trkpt lat="43.25475" lon="5.90678">
        <ele>703</ele>
        <time>2021-05-29T09:52:59Z</time>
      </trkpt>
      <trkpt lat="43.25481" lon="5.90677">
        <ele>703</ele>
        <time>2021-05-29T09:53:00Z</time>
      </trkpt>
      <trkpt lat="43.25485" lon="5.90675">
        <ele>703</ele>
        <time>2021-05-29T09:53:01Z</time>
      </trkpt>
      <trkpt lat="43.2549" lon="5.90674">
        <ele>703</ele>
        <time>2021-05-29T09:53:02Z</time>
      </trkpt>
      <trkpt lat="43.25495" lon="5.90673">
        <ele>703</ele>
        <time>2021-05-29T09:53:03Z</time>
      </trkpt>
      <trkpt lat="43.255" lon="5.90672">
        <ele>702.8</ele>
        <time>2021-05-29T09:53:04Z</time>
      </trkpt>
      <trkpt lat="43.25504" lon="5.9067">
        <ele>702.6</ele>
        <time>2021-05-29T09:53:05Z</time>
      </trkpt>
      <trkpt lat="43.25513" lon="5.90667">
        <ele>702.4</ele>
        <time>2021-05-29T09:53:07Z</time>
      </trkpt>
      <trkpt lat="43.2553" lon="5.90661">
        <ele>702.4</ele>
        <time>2021-05-29T09:53:11Z</time>
      </trkpt>
      <trkpt lat="43.25534" lon="5.9066">
        <ele>702.4</ele>
        <time>2021-05-29T09:53:12Z</time>
      </trkpt>
      <trkpt lat="43.25538" lon="5.90659">
        <ele>702.4</ele>
        <time>2021-05-29T09:53:13Z</time>
      </trkpt>
      <trkpt lat="43.25542" lon="5.90657">
        <ele>702.2</ele>
        <time>2021-05-29T09:53:14Z</time>
      </trkpt>
      <trkpt lat="43.25546" lon="5.90656">
        <ele>702.2</ele>
        <time>2021-05-29T09:53:15Z</time>
      </trkpt>
      <trkpt lat="43.2555" lon="5.90655">
        <ele>702.4</ele>
        <time>2021-05-29T09:53:16Z</time>
      </trkpt>
      <trkpt lat="43.25554" lon="5.90653">
        <ele>702.4</ele>
        <time>2021-05-29T09:53:17Z</time>
      </trkpt>
      <trkpt lat="43.25557" lon="5.90652">
        <ele>702.4</ele>
        <time>2021-05-29T09:53:18Z</time>
      </trkpt>
      <trkpt lat="43.25561" lon="5.90651">
        <ele>702.4</ele>
        <time>2021-05-29T09:53:19Z</time>
      </trkpt>
      <trkpt lat="43.25564" lon="5.9065">
        <ele>702.6</ele>
        <time>2021-05-29T09:53:20Z</time>
      </trkpt>
      <trkpt lat="43.25575" lon="5.90647">
        <ele>703.6</ele>
        <time>2021-05-29T09:53:24Z</time>
      </trkpt>
      <trkpt lat="43.25578" lon="5.90646">
        <ele>703.6</ele>
        <time>2021-05-29T09:53:25Z</time>
      </trkpt>
      <trkpt lat="43.2558" lon="5.90645">
        <ele>703.8</ele>
        <time>2021-05-29T09:53:26Z</time>
      </trkpt>
      <trkpt lat="43.25583" lon="5.90644">
        <ele>703.8</ele>
        <time>2021-05-29T09:53:27Z</time>
      </trkpt>
      <trkpt lat="43.25589" lon="5.9064">
        <ele>704.2</ele>
        <time>2021-05-29T09:53:30Z</time>
      </trkpt>
      <trkpt lat="43.25591" lon="5.90639">
        <ele>704.4</ele>
        <time>2021-05-29T09:53:31Z</time>
      </trkpt>
      <trkpt lat="43.25596" lon="5.90637">
        <ele>704.8</ele>
        <time>2021-05-29T09:53:33Z</time>
      </trkpt>
      <trkpt lat="43.25603" lon="5.90634">
        <ele>705.4</ele>
        <time>2021-05-29T09:53:36Z</time>
      </trkpt>
      <trkpt lat="43.25608" lon="5.90631">
        <ele>705.8</ele>
        <time>2021-05-29T09:53:39Z</time>
      </trkpt>
      <trkpt lat="43.25614" lon="5.90627">
        <ele>706.4</ele>
        <time>2021-05-29T09:53:43Z</time>
      </trkpt>
      <trkpt lat="43.25618" lon="5.90625">
        <ele>706.8</ele>
        <time>2021-05-29T09:53:45Z</time>
      </trkpt>
      <trkpt lat="43.25622" lon="5.90622">
        <ele>707.4</ele>
        <time>2021-05-29T09:53:47Z</time>
      </trkpt>
      <trkpt lat="43.25632" lon="5.90616">
        <ele>707.8</ele>
        <time>2021-05-29T09:53:52Z</time>
      </trkpt>
      <trkpt lat="43.25638" lon="5.90613">
        <ele>708</ele>
        <time>2021-05-29T09:53:55Z</time>
      </trkpt>
      <trkpt lat="43.25648" lon="5.90608">
        <ele>708.6</ele>
        <time>2021-05-29T09:54:01Z</time>
      </trkpt>
      <trkpt lat="43.25654" lon="5.90606">
        <ele>709</ele>
        <time>2021-05-29T09:54:04Z</time>
      </trkpt>
      <trkpt lat="43.25664" lon="5.90605">
        <ele>709.8</ele>
        <time>2021-05-29T09:54:09Z</time>
      </trkpt>
      <trkpt lat="43.25665" lon="5.90605">
        <ele>710</ele>
        <time>2021-05-29T09:54:10Z</time>
      </trkpt>
      <trkpt lat="43.25676" lon="5.90607">
        <ele>711</ele>
        <time>2021-05-29T09:54:16Z</time>
      </trkpt>
      <trkpt lat="43.25682" lon="5.90608">
        <ele>711.6</ele>
        <time>2021-05-29T09:54:19Z</time>
      </trkpt>
      <trkpt lat="43.2569" lon="5.90609">
        <ele>712.2</ele>
        <time>2021-05-29T09:54:23Z</time>
      </trkpt>
      <trkpt lat="43.25699" lon="5.9061">
        <ele>713</ele>
        <time>2021-05-29T09:54:27Z</time>
      </trkpt>
      <trkpt lat="43.25701" lon="5.90611">
        <ele>713.4</ele>
        <time>2021-05-29T09:54:28Z</time>
      </trkpt>
      <trkpt lat="43.25705" lon="5.90611">
        <ele>714.2</ele>
        <time>2021-05-29T09:54:30Z</time>
      </trkpt>
      <trkpt lat="43.25706" lon="5.90611">
        <ele>714.6</ele>
        <time>2021-05-29T09:54:31Z</time>
      </trkpt>
      <trkpt lat="43.25712" lon="5.90611">
        <ele>715.6</ele>
        <time>2021-05-29T09:54:35Z</time>
      </trkpt>
      <trkpt lat="43.25717" lon="5.90612">
        <ele>716.4</ele>
        <time>2021-05-29T09:54:38Z</time>
      </trkpt>
      <trkpt lat="43.25724" lon="5.90612">
        <ele>716.8</ele>
        <time>2021-05-29T09:54:42Z</time>
      </trkpt>
      <trkpt lat="43.25727" lon="5.90612">
        <ele>717</ele>
        <time>2021-05-29T09:54:44Z</time>
      </trkpt>
      <trkpt lat="43.25738" lon="5.90613">
        <ele>718</ele>
        <time>2021-05-29T09:54:50Z</time>
      </trkpt>
      <trkpt lat="43.25742" lon="5.90614">
        <ele>718.2</ele>
        <time>2021-05-29T09:54:52Z</time>
      </trkpt>
      <trkpt lat="43.25752" lon="5.90613">
        <ele>719</ele>
        <time>2021-05-29T09:54:57Z</time>
      </trkpt>
      <trkpt lat="43.25759" lon="5.90613">
        <ele>719.8</ele>
        <time>2021-05-29T09:55:01Z</time>
      </trkpt>
      <trkpt lat="43.25761" lon="5.90613">
        <ele>720.2</ele>
        <time>2021-05-29T09:55:02Z</time>
      </trkpt>
      <trkpt lat="43.25776" lon="5.90618">
        <ele>720.8</ele>
        <time>2021-05-29T09:55:10Z</time>
      </trkpt>
      <trkpt lat="43.25778" lon="5.9062">
        <ele>721</ele>
        <time>2021-05-29T09:55:11Z</time>
      </trkpt>
      <trkpt lat="43.25782" lon="5.90632">
        <ele>721</ele>
        <time>2021-05-29T09:55:14Z</time>
      </trkpt>
      <trkpt lat="43.25786" lon="5.90646">
        <ele>721</ele>
        <time>2021-05-29T09:55:17Z</time>
      </trkpt>
      <trkpt lat="43.25787" lon="5.90659">
        <ele>720.6</ele>
        <time>2021-05-29T09:55:20Z</time>
      </trkpt>
      <trkpt lat="43.25785" lon="5.90689">
        <ele>719.2</ele>
        <time>2021-05-29T09:55:26Z</time>
      </trkpt>
      <trkpt lat="43.25785" lon="5.90694">
        <ele>719</ele>
        <time>2021-05-29T09:55:27Z</time>
      </trkpt>
      <trkpt lat="43.25783" lon="5.90716">
        <ele>717.8</ele>
        <time>2021-05-29T09:55:31Z</time>
      </trkpt>
      <trkpt lat="43.25783" lon="5.90722">
        <ele>717.4</ele>
        <time>2021-05-29T09:55:32Z</time>
      </trkpt>
      <trkpt lat="43.25781" lon="5.90732">
        <ele>716.6</ele>
        <time>2021-05-29T09:55:34Z</time>
      </trkpt>
      <trkpt lat="43.25778" lon="5.90742">
        <ele>715.6</ele>
        <time>2021-05-29T09:55:36Z</time>
      </trkpt>
      <trkpt lat="43.25777" lon="5.90747">
        <ele>715.2</ele>
        <time>2021-05-29T09:55:37Z</time>
      </trkpt>
      <trkpt lat="43.25773" lon="5.90764">
        <ele>714.2</ele>
        <time>2021-05-29T09:55:40Z</time>
      </trkpt>
      <trkpt lat="43.25772" lon="5.9077">
        <ele>713.8</ele>
        <time>2021-05-29T09:55:41Z</time>
      </trkpt>
      <trkpt lat="43.25771" lon="5.90775">
        <ele>712.8</ele>
        <time>2021-05-29T09:55:42Z</time>
      </trkpt>
      <trkpt lat="43.25769" lon="5.90784">
        <ele>711.4</ele>
        <time>2021-05-29T09:55:44Z</time>
      </trkpt>
      <trkpt lat="43.25767" lon="5.90792">
        <ele>710</ele>
        <time>2021-05-29T09:55:46Z</time>
      </trkpt>
      <trkpt lat="43.25766" lon="5.90796">
        <ele>709</ele>
        <time>2021-05-29T09:55:47Z</time>
      </trkpt>
      <trkpt lat="43.25764" lon="5.90799">
        <ele>708.2</ele>
        <time>2021-05-29T09:55:48Z</time>
      </trkpt>
      <trkpt lat="43.25759" lon="5.90807">
        <ele>706.8</ele>
        <time>2021-05-29T09:55:50Z</time>
      </trkpt>
      <trkpt lat="43.25755" lon="5.90813">
        <ele>706.4</ele>
        <time>2021-05-29T09:55:51Z</time>
      </trkpt>
      <trkpt lat="43.25753" lon="5.90819">
        <ele>705.6</ele>
        <time>2021-05-29T09:55:52Z</time>
      </trkpt>
      <trkpt lat="43.25748" lon="5.90829">
        <ele>704.4</ele>
        <time>2021-05-29T09:55:54Z</time>
      </trkpt>
      <trkpt lat="43.25745" lon="5.9084">
        <ele>703</ele>
        <time>2021-05-29T09:55:56Z</time>
      </trkpt>
      <trkpt lat="43.25743" lon="5.90846">
        <ele>702</ele>
        <time>2021-05-29T09:55:57Z</time>
      </trkpt>
      <trkpt lat="43.25741" lon="5.90856">
        <ele>700.2</ele>
        <time>2021-05-29T09:55:59Z</time>
      </trkpt>
      <trkpt lat="43.2574" lon="5.90863">
        <ele>699.6</ele>
        <time>2021-05-29T09:56:00Z</time>
      </trkpt>
      <trkpt lat="43.25739" lon="5.9087">
        <ele>699.2</ele>
        <time>2021-05-29T09:56:01Z</time>
      </trkpt>
      <trkpt lat="43.25739" lon="5.90882">
        <ele>697.8</ele>
        <time>2021-05-29T09:56:03Z</time>
      </trkpt>
      <trkpt lat="43.25739" lon="5.90893">
        <ele>696</ele>
        <time>2021-05-29T09:56:05Z</time>
      </trkpt>
      <trkpt lat="43.25738" lon="5.90906">
        <ele>694.4</ele>
        <time>2021-05-29T09:56:07Z</time>
      </trkpt>
      <trkpt lat="43.25735" lon="5.90917">
        <ele>693</ele>
        <time>2021-05-29T09:56:09Z</time>
      </trkpt>
      <trkpt lat="43.2573" lon="5.90931">
        <ele>692</ele>
        <time>2021-05-29T09:56:11Z</time>
      </trkpt>
      <trkpt lat="43.25725" lon="5.90943">
        <ele>691</ele>
        <time>2021-05-29T09:56:13Z</time>
      </trkpt>
      <trkpt lat="43.25723" lon="5.90949">
        <ele>689.6</ele>
        <time>2021-05-29T09:56:14Z</time>
      </trkpt>
      <trkpt lat="43.25716" lon="5.90961">
        <ele>688.2</ele>
        <time>2021-05-29T09:56:16Z</time>
      </trkpt>
      <trkpt lat="43.25707" lon="5.90973">
        <ele>687.6</ele>
        <time>2021-05-29T09:56:18Z</time>
      </trkpt>
      <trkpt lat="43.25703" lon="5.90978">
        <ele>686.6</ele>
        <time>2021-05-29T09:56:19Z</time>
      </trkpt>
      <trkpt lat="43.25697" lon="5.90985">
        <ele>686.4</ele>
        <time>2021-05-29T09:56:20Z</time>
      </trkpt>
      <trkpt lat="43.25685" lon="5.91001">
        <ele>685.4</ele>
        <time>2021-05-29T09:56:22Z</time>
      </trkpt>
      <trkpt lat="43.25673" lon="5.91017">
        <ele>683.6</ele>
        <time>2021-05-29T09:56:24Z</time>
      </trkpt>
      <trkpt lat="43.25663" lon="5.91033">
        <ele>682</ele>
        <time>2021-05-29T09:56:26Z</time>
      </trkpt>
      <trkpt lat="43.25649" lon="5.91059">
        <ele>680.8</ele>
        <time>2021-05-29T09:56:29Z</time>
      </trkpt>
      <trkpt lat="43.25642" lon="5.91078">
        <ele>679.6</ele>
        <time>2021-05-29T09:56:31Z</time>
      </trkpt>
      <trkpt lat="43.25637" lon="5.91099">
        <ele>678.8</ele>
        <time>2021-05-29T09:56:33Z</time>
      </trkpt>
      <trkpt lat="43.25637" lon="5.91108">
        <ele>678.4</ele>
        <time>2021-05-29T09:56:34Z</time>
      </trkpt>
      <trkpt lat="43.25634" lon="5.91133">
        <ele>676.2</ele>
        <time>2021-05-29T09:56:36Z</time>
      </trkpt>
      <trkpt lat="43.2563" lon="5.91156">
        <ele>674.8</ele>
        <time>2021-05-29T09:56:38Z</time>
      </trkpt>
      <trkpt lat="43.25628" lon="5.91168">
        <ele>674</ele>
        <time>2021-05-29T09:56:39Z</time>
      </trkpt>
      <trkpt lat="43.25626" lon="5.91177">
        <ele>673</ele>
        <time>2021-05-29T09:56:40Z</time>
      </trkpt>
      <trkpt lat="43.25622" lon="5.91202">
        <ele>671.6</ele>
        <time>2021-05-29T09:56:42Z</time>
      </trkpt>
      <trkpt lat="43.2562" lon="5.91213">
        <ele>670.6</ele>
        <time>2021-05-29T09:56:43Z</time>
      </trkpt>
      <trkpt lat="43.25617" lon="5.91236">
        <ele>669.4</ele>
        <time>2021-05-29T09:56:45Z</time>
      </trkpt>
      <trkpt lat="43.25616" lon="5.91258">
        <ele>667.6</ele>
        <time>2021-05-29T09:56:47Z</time>
      </trkpt>
      <trkpt lat="43.25615" lon="5.91277">
        <ele>666.4</ele>
        <time>2021-05-29T09:56:49Z</time>
      </trkpt>
      <trkpt lat="43.25614" lon="5.91289">
        <ele>665.4</ele>
        <time>2021-05-29T09:56:50Z</time>
      </trkpt>
      <trkpt lat="43.25613" lon="5.913">
        <ele>664.6</ele>
        <time>2021-05-29T09:56:51Z</time>
      </trkpt>
      <trkpt lat="43.25612" lon="5.91312">
        <ele>663.6</ele>
        <time>2021-05-29T09:56:52Z</time>
      </trkpt>
      <trkpt lat="43.25611" lon="5.91324">
        <ele>662.6</ele>
        <time>2021-05-29T09:56:53Z</time>
      </trkpt>
      <trkpt lat="43.25609" lon="5.91349">
        <ele>660.8</ele>
        <time>2021-05-29T09:56:55Z</time>
      </trkpt>
      <trkpt lat="43.25608" lon="5.91361">
        <ele>660.2</ele>
        <time>2021-05-29T09:56:56Z</time>
      </trkpt>
      <trkpt lat="43.25606" lon="5.91372">
        <ele>659.4</ele>
        <time>2021-05-29T09:56:57Z</time>
      </trkpt>
      <trkpt lat="43.25605" lon="5.91394">
        <ele>657.8</ele>
        <time>2021-05-29T09:56:59Z</time>
      </trkpt>
      <trkpt lat="43.25605" lon="5.91409">
        <ele>656.6</ele>
        <time>2021-05-29T09:57:00Z</time>
      </trkpt>
      <trkpt lat="43.25605" lon="5.91418">
        <ele>656</ele>
        <time>2021-05-29T09:57:01Z</time>
      </trkpt>
      <trkpt lat="43.25604" lon="5.91433">
        <ele>655.2</ele>
        <time>2021-05-29T09:57:02Z</time>
      </trkpt>
      <trkpt lat="43.256" lon="5.91454">
        <ele>654</ele>
        <time>2021-05-29T09:57:04Z</time>
      </trkpt>
      <trkpt lat="43.25595" lon="5.91467">
        <ele>653</ele>
        <time>2021-05-29T09:57:05Z</time>
      </trkpt>
      <trkpt lat="43.2559" lon="5.91476">
        <ele>652.4</ele>
        <time>2021-05-29T09:57:06Z</time>
      </trkpt>
      <trkpt lat="43.25586" lon="5.91485">
        <ele>651.8</ele>
        <time>2021-05-29T09:57:07Z</time>
      </trkpt>
      <trkpt lat="43.25566" lon="5.91524">
        <ele>650.6</ele>
        <time>2021-05-29T09:57:12Z</time>
      </trkpt>
      <trkpt lat="43.25562" lon="5.91532">
        <ele>650.6</ele>
        <time>2021-05-29T09:57:13Z</time>
      </trkpt>
      <trkpt lat="43.25559" lon="5.91539">
        <ele>650.4</ele>
        <time>2021-05-29T09:57:14Z</time>
      </trkpt>
      <trkpt lat="43.25551" lon="5.91557">
        <ele>650.2</ele>
        <time>2021-05-29T09:57:16Z</time>
      </trkpt>
      <trkpt lat="43.25548" lon="5.91565">
        <ele>650</ele>
        <time>2021-05-29T09:57:17Z</time>
      </trkpt>
      <trkpt lat="43.25544" lon="5.91572">
        <ele>650</ele>
        <time>2021-05-29T09:57:18Z</time>
      </trkpt>
      <trkpt lat="43.2554" lon="5.91579">
        <ele>649.6</ele>
        <time>2021-05-29T09:57:19Z</time>
      </trkpt>
      <trkpt lat="43.25535" lon="5.91587">
        <ele>649.4</ele>
        <time>2021-05-29T09:57:20Z</time>
      </trkpt>
      <trkpt lat="43.25531" lon="5.91596">
        <ele>649</ele>
        <time>2021-05-29T09:57:21Z</time>
      </trkpt>
      <trkpt lat="43.25522" lon="5.91614">
        <ele>648.6</ele>
        <time>2021-05-29T09:57:23Z</time>
      </trkpt>
      <trkpt lat="43.25518" lon="5.91623">
        <ele>648.2</ele>
        <time>2021-05-29T09:57:24Z</time>
      </trkpt>
      <trkpt lat="43.25504" lon="5.91648">
        <ele>647.2</ele>
        <time>2021-05-29T09:57:27Z</time>
      </trkpt>
      <trkpt lat="43.25492" lon="5.91671">
        <ele>646.6</ele>
        <time>2021-05-29T09:57:30Z</time>
      </trkpt>
      <trkpt lat="43.25484" lon="5.91685">
        <ele>646.4</ele>
        <time>2021-05-29T09:57:32Z</time>
      </trkpt>
      <trkpt lat="43.25481" lon="5.91693">
        <ele>646.2</ele>
        <time>2021-05-29T09:57:33Z</time>
      </trkpt>
      <trkpt lat="43.25477" lon="5.91701">
        <ele>645.8</ele>
        <time>2021-05-29T09:57:34Z</time>
      </trkpt>
      <trkpt lat="43.25474" lon="5.91709">
        <ele>645.6</ele>
        <time>2021-05-29T09:57:35Z</time>
      </trkpt>
      <trkpt lat="43.2547" lon="5.91719">
        <ele>645.2</ele>
        <time>2021-05-29T09:57:36Z</time>
      </trkpt>
      <trkpt lat="43.25467" lon="5.91727">
        <ele>645</ele>
        <time>2021-05-29T09:57:37Z</time>
      </trkpt>
      <trkpt lat="43.25465" lon="5.91735">
        <ele>644.8</ele>
        <time>2021-05-29T09:57:38Z</time>
      </trkpt>
      <trkpt lat="43.25457" lon="5.91761">
        <ele>643.8</ele>
        <time>2021-05-29T09:57:41Z</time>
      </trkpt>
      <trkpt lat="43.25455" lon="5.91771">
        <ele>643.6</ele>
        <time>2021-05-29T09:57:42Z</time>
      </trkpt>
      <trkpt lat="43.25451" lon="5.91782">
        <ele>643</ele>
        <time>2021-05-29T09:57:43Z</time>
      </trkpt>
      <trkpt lat="43.25449" lon="5.91788">
        <ele>642.6</ele>
        <time>2021-05-29T09:57:44Z</time>
      </trkpt>
      <trkpt lat="43.25445" lon="5.91797">
        <ele>642.4</ele>
        <time>2021-05-29T09:57:45Z</time>
      </trkpt>
      <trkpt lat="43.25441" lon="5.91803">
        <ele>642</ele>
        <time>2021-05-29T09:57:46Z</time>
      </trkpt>
      <trkpt lat="43.25436" lon="5.91808">
        <ele>641.8</ele>
        <time>2021-05-29T09:57:47Z</time>
      </trkpt>
      <trkpt lat="43.25432" lon="5.91811">
        <ele>641.2</ele>
        <time>2021-05-29T09:57:48Z</time>
      </trkpt>
      <trkpt lat="43.25428" lon="5.91812">
        <ele>641</ele>
        <time>2021-05-29T09:57:49Z</time>
      </trkpt>
      <trkpt lat="43.25421" lon="5.91813">
        <ele>640.8</ele>
        <time>2021-05-29T09:57:51Z</time>
      </trkpt>
      <trkpt lat="43.25414" lon="5.91814">
        <ele>640.6</ele>
        <time>2021-05-29T09:57:53Z</time>
      </trkpt>
      <trkpt lat="43.25411" lon="5.91815">
        <ele>640.6</ele>
        <time>2021-05-29T09:57:54Z</time>
      </trkpt>
      <trkpt lat="43.25408" lon="5.91816">
        <ele>640.6</ele>
        <time>2021-05-29T09:57:55Z</time>
      </trkpt>
      <trkpt lat="43.25406" lon="5.91818">
        <ele>640.6</ele>
        <time>2021-05-29T09:57:56Z</time>
      </trkpt>
      <trkpt lat="43.25397" lon="5.91821">
        <ele>640.6</ele>
        <time>2021-05-29T09:57:59Z</time>
      </trkpt>
      <trkpt lat="43.25388" lon="5.91825">
        <ele>640.8</ele>
        <time>2021-05-29T09:58:02Z</time>
      </trkpt>
      <trkpt lat="43.25382" lon="5.91827">
        <ele>641</ele>
        <time>2021-05-29T09:58:04Z</time>
      </trkpt>
      <trkpt lat="43.25378" lon="5.91828">
        <ele>641.4</ele>
        <time>2021-05-29T09:58:05Z</time>
      </trkpt>
      <trkpt lat="43.25376" lon="5.91829">
        <ele>641.6</ele>
        <time>2021-05-29T09:58:06Z</time>
      </trkpt>
      <trkpt lat="43.25373" lon="5.9183">
        <ele>641.8</ele>
        <time>2021-05-29T09:58:07Z</time>
      </trkpt>
      <trkpt lat="43.25371" lon="5.9183">
        <ele>641.8</ele>
        <time>2021-05-29T09:58:08Z</time>
      </trkpt>
      <trkpt lat="43.25365" lon="5.9183">
        <ele>642.2</ele>
        <time>2021-05-29T09:58:10Z</time>
      </trkpt>
      <trkpt lat="43.2536" lon="5.9183">
        <ele>642.4</ele>
        <time>2021-05-29T09:58:12Z</time>
      </trkpt>
      <trkpt lat="43.25355" lon="5.9183">
        <ele>642.6</ele>
        <time>2021-05-29T09:58:14Z</time>
      </trkpt>
      <trkpt lat="43.25352" lon="5.9183">
        <ele>642.8</ele>
        <time>2021-05-29T09:58:15Z</time>
      </trkpt>
      <trkpt lat="43.2535" lon="5.9183">
        <ele>643</ele>
        <time>2021-05-29T09:58:16Z</time>
      </trkpt>
      <trkpt lat="43.25347" lon="5.91831">
        <ele>643.2</ele>
        <time>2021-05-29T09:58:17Z</time>
      </trkpt>
      <trkpt lat="43.25341" lon="5.91831">
        <ele>643.4</ele>
        <time>2021-05-29T09:58:19Z</time>
      </trkpt>
      <trkpt lat="43.25313" lon="5.91833">
        <ele>644.6</ele>
        <time>2021-05-29T09:58:29Z</time>
      </trkpt>
      <trkpt lat="43.2531" lon="5.91833">
        <ele>644.8</ele>
        <time>2021-05-29T09:58:30Z</time>
      </trkpt>
      <trkpt lat="43.25307" lon="5.91833">
        <ele>644.8</ele>
        <time>2021-05-29T09:58:31Z</time>
      </trkpt>
      <trkpt lat="43.25296" lon="5.91833">
        <ele>645.2</ele>
        <time>2021-05-29T09:58:35Z</time>
      </trkpt>
      <trkpt lat="43.25292" lon="5.91832">
        <ele>645.4</ele>
        <time>2021-05-29T09:58:36Z</time>
      </trkpt>
      <trkpt lat="43.25286" lon="5.91831">
        <ele>646</ele>
        <time>2021-05-29T09:58:38Z</time>
      </trkpt>
      <trkpt lat="43.25278" lon="5.91829">
        <ele>646.2</ele>
        <time>2021-05-29T09:58:41Z</time>
      </trkpt>
      <trkpt lat="43.25269" lon="5.91824">
        <ele>646.4</ele>
        <time>2021-05-29T09:58:44Z</time>
      </trkpt>
      <trkpt lat="43.25262" lon="5.91818">
        <ele>646.6</ele>
        <time>2021-05-29T09:58:47Z</time>
      </trkpt>
      <trkpt lat="43.25256" lon="5.91811">
        <ele>647.2</ele>
        <time>2021-05-29T09:58:50Z</time>
      </trkpt>
      <trkpt lat="43.25251" lon="5.91806">
        <ele>647.6</ele>
        <time>2021-05-29T09:58:52Z</time>
      </trkpt>
      <trkpt lat="43.25246" lon="5.91801">
        <ele>647.8</ele>
        <time>2021-05-29T09:58:54Z</time>
      </trkpt>
      <trkpt lat="43.25236" lon="5.91791">
        <ele>648.6</ele>
        <time>2021-05-29T09:58:58Z</time>
      </trkpt>
      <trkpt lat="43.2523" lon="5.91784">
        <ele>648.8</ele>
        <time>2021-05-29T09:59:01Z</time>
      </trkpt>
      <trkpt lat="43.25218" lon="5.91771">
        <ele>649.2</ele>
        <time>2021-05-29T09:59:06Z</time>
      </trkpt>
      <trkpt lat="43.25211" lon="5.91762">
        <ele>649.8</ele>
        <time>2021-05-29T09:59:09Z</time>
      </trkpt>
      <trkpt lat="43.25203" lon="5.91751">
        <ele>650</ele>
        <time>2021-05-29T09:59:12Z</time>
      </trkpt>
      <trkpt lat="43.252" lon="5.91747">
        <ele>650</ele>
        <time>2021-05-29T09:59:13Z</time>
      </trkpt>
      <trkpt lat="43.25181" lon="5.91719">
        <ele>650.2</ele>
        <time>2021-05-29T09:59:22Z</time>
      </trkpt>
      <trkpt lat="43.25176" lon="5.91708">
        <ele>650.8</ele>
        <time>2021-05-29T09:59:25Z</time>
      </trkpt>
      <trkpt lat="43.25168" lon="5.91697">
        <ele>651.6</ele>
        <time>2021-05-29T09:59:29Z</time>
      </trkpt>
      <trkpt lat="43.25167" lon="5.91695">
        <ele>651.8</ele>
        <time>2021-05-29T09:59:30Z</time>
      </trkpt>
      <trkpt lat="43.25149" lon="5.91673">
        <ele>652.6</ele>
        <time>2021-05-29T09:59:36Z</time>
      </trkpt>
      <trkpt lat="43.25145" lon="5.91669">
        <ele>652.6</ele>
        <time>2021-05-29T09:59:37Z</time>
      </trkpt>
      <trkpt lat="43.25138" lon="5.91662">
        <ele>652.6</ele>
        <time>2021-05-29T09:59:39Z</time>
      </trkpt>
      <trkpt lat="43.2513" lon="5.91658">
        <ele>652.6</ele>
        <time>2021-05-29T09:59:41Z</time>
      </trkpt>
      <trkpt lat="43.25121" lon="5.91661">
        <ele>652.4</ele>
        <time>2021-05-29T09:59:43Z</time>
      </trkpt>
      <trkpt lat="43.25119" lon="5.91666">
        <ele>652.2</ele>
        <time>2021-05-29T09:59:44Z</time>
      </trkpt>
      <trkpt lat="43.25117" lon="5.91673">
        <ele>652</ele>
        <time>2021-05-29T09:59:45Z</time>
      </trkpt>
      <trkpt lat="43.25116" lon="5.91684">
        <ele>651.8</ele>
        <time>2021-05-29T09:59:47Z</time>
      </trkpt>
      <trkpt lat="43.25115" lon="5.9169">
        <ele>651.8</ele>
        <time>2021-05-29T09:59:48Z</time>
      </trkpt>
      <trkpt lat="43.25111" lon="5.91699">
        <ele>651.6</ele>
        <time>2021-05-29T09:59:50Z</time>
      </trkpt>
      <trkpt lat="43.251" lon="5.91699">
        <ele>651.2</ele>
        <time>2021-05-29T09:59:53Z</time>
      </trkpt>
      <trkpt lat="43.25094" lon="5.91692">
        <ele>651.2</ele>
        <time>2021-05-29T09:59:55Z</time>
      </trkpt>
      <trkpt lat="43.25089" lon="5.9168">
        <ele>651.4</ele>
        <time>2021-05-29T09:59:57Z</time>
      </trkpt>
      <trkpt lat="43.25087" lon="5.91675">
        <ele>651.4</ele>
        <time>2021-05-29T09:59:58Z</time>
      </trkpt>
      <trkpt lat="43.2508" lon="5.91668">
        <ele>651.4</ele>
        <time>2021-05-29T10:00:00Z</time>
      </trkpt>
      <trkpt lat="43.25075" lon="5.91666">
        <ele>651.4</ele>
        <time>2021-05-29T10:00:01Z</time>
      </trkpt>
      <trkpt lat="43.2507" lon="5.91666">
        <ele>651.2</ele>
        <time>2021-05-29T10:00:02Z</time>
      </trkpt>
      <trkpt lat="43.25056" lon="5.91665">
        <ele>651</ele>
        <time>2021-05-29T10:00:05Z</time>
      </trkpt>
      <trkpt lat="43.25052" lon="5.91665">
        <ele>650.8</ele>
        <time>2021-05-29T10:00:06Z</time>
      </trkpt>
      <trkpt lat="43.25047" lon="5.91663">
        <ele>650.6</ele>
        <time>2021-05-29T10:00:07Z</time>
      </trkpt>
      <trkpt lat="43.25043" lon="5.91661">
        <ele>650.6</ele>
        <time>2021-05-29T10:00:08Z</time>
      </trkpt>
      <trkpt lat="43.25034" lon="5.91654">
        <ele>650.6</ele>
        <time>2021-05-29T10:00:10Z</time>
      </trkpt>
      <trkpt lat="43.2503" lon="5.9165">
        <ele>650.6</ele>
        <time>2021-05-29T10:00:11Z</time>
      </trkpt>
      <trkpt lat="43.25026" lon="5.91646">
        <ele>650.6</ele>
        <time>2021-05-29T10:00:12Z</time>
      </trkpt>
      <trkpt lat="43.25018" lon="5.91641">
        <ele>650.6</ele>
        <time>2021-05-29T10:00:14Z</time>
      </trkpt>
      <trkpt lat="43.25013" lon="5.91639">
        <ele>650.6</ele>
        <time>2021-05-29T10:00:15Z</time>
      </trkpt>
      <trkpt lat="43.25009" lon="5.91638">
        <ele>650.6</ele>
        <time>2021-05-29T10:00:16Z</time>
      </trkpt>
      <trkpt lat="43.25004" lon="5.91638">
        <ele>650.6</ele>
        <time>2021-05-29T10:00:17Z</time>
      </trkpt>
      <trkpt lat="43.24999" lon="5.91639">
        <ele>650.6</ele>
        <time>2021-05-29T10:00:18Z</time>
      </trkpt>
      <trkpt lat="43.24995" lon="5.91642">
        <ele>650.6</ele>
        <time>2021-05-29T10:00:19Z</time>
      </trkpt>
      <trkpt lat="43.2499" lon="5.91645">
        <ele>650.6</ele>
        <time>2021-05-29T10:00:20Z</time>
      </trkpt>
      <trkpt lat="43.24982" lon="5.91654">
        <ele>650.6</ele>
        <time>2021-05-29T10:00:22Z</time>
      </trkpt>
      <trkpt lat="43.24979" lon="5.91661">
        <ele>650.6</ele>
        <time>2021-05-29T10:00:23Z</time>
      </trkpt>
      <trkpt lat="43.24973" lon="5.91674">
        <ele>650.2</ele>
        <time>2021-05-29T10:00:25Z</time>
      </trkpt>
      <trkpt lat="43.24969" lon="5.9169">
        <ele>649.8</ele>
        <time>2021-05-29T10:00:27Z</time>
      </trkpt>
      <trkpt lat="43.24967" lon="5.91698">
        <ele>649.6</ele>
        <time>2021-05-29T10:00:28Z</time>
      </trkpt>
      <trkpt lat="43.24964" lon="5.91706">
        <ele>649.4</ele>
        <time>2021-05-29T10:00:29Z</time>
      </trkpt>
      <trkpt lat="43.24961" lon="5.91714">
        <ele>649.4</ele>
        <time>2021-05-29T10:00:30Z</time>
      </trkpt>
      <trkpt lat="43.24958" lon="5.91722">
        <ele>649.2</ele>
        <time>2021-05-29T10:00:31Z</time>
      </trkpt>
      <trkpt lat="43.24955" lon="5.91729">
        <ele>649</ele>
        <time>2021-05-29T10:00:32Z</time>
      </trkpt>
      <trkpt lat="43.24951" lon="5.91735">
        <ele>649</ele>
        <time>2021-05-29T10:00:33Z</time>
      </trkpt>
      <trkpt lat="43.24948" lon="5.91742">
        <ele>649</ele>
        <time>2021-05-29T10:00:34Z</time>
      </trkpt>
      <trkpt lat="43.24944" lon="5.91748">
        <ele>648.8</ele>
        <time>2021-05-29T10:00:35Z</time>
      </trkpt>
      <trkpt lat="43.2494" lon="5.91753">
        <ele>648.8</ele>
        <time>2021-05-29T10:00:36Z</time>
      </trkpt>
      <trkpt lat="43.24936" lon="5.91758">
        <ele>648.8</ele>
        <time>2021-05-29T10:00:37Z</time>
      </trkpt>
      <trkpt lat="43.24931" lon="5.91764">
        <ele>648.8</ele>
        <time>2021-05-29T10:00:38Z</time>
      </trkpt>
      <trkpt lat="43.24926" lon="5.91769">
        <ele>648.8</ele>
        <time>2021-05-29T10:00:39Z</time>
      </trkpt>
      <trkpt lat="43.24921" lon="5.91774">
        <ele>648.6</ele>
        <time>2021-05-29T10:00:40Z</time>
      </trkpt>
      <trkpt lat="43.24907" lon="5.91791">
        <ele>648.2</ele>
        <time>2021-05-29T10:00:43Z</time>
      </trkpt>
      <trkpt lat="43.24898" lon="5.91802">
        <ele>647.2</ele>
        <time>2021-05-29T10:00:45Z</time>
      </trkpt>
      <trkpt lat="43.24888" lon="5.91815">
        <ele>646.6</ele>
        <time>2021-05-29T10:00:47Z</time>
      </trkpt>
      <trkpt lat="43.24878" lon="5.9183">
        <ele>646.2</ele>
        <time>2021-05-29T10:00:49Z</time>
      </trkpt>
      <trkpt lat="43.24864" lon="5.91853">
        <ele>645.6</ele>
        <time>2021-05-29T10:00:52Z</time>
      </trkpt>
      <trkpt lat="43.24859" lon="5.9186">
        <ele>645.4</ele>
        <time>2021-05-29T10:00:53Z</time>
      </trkpt>
      <trkpt lat="43.24847" lon="5.91872">
        <ele>644.8</ele>
        <time>2021-05-29T10:00:55Z</time>
      </trkpt>
      <trkpt lat="43.24842" lon="5.91877">
        <ele>644</ele>
        <time>2021-05-29T10:00:56Z</time>
      </trkpt>
      <trkpt lat="43.24836" lon="5.91883">
        <ele>643.6</ele>
        <time>2021-05-29T10:00:57Z</time>
      </trkpt>
      <trkpt lat="43.24817" lon="5.9191">
        <ele>642.4</ele>
        <time>2021-05-29T10:01:01Z</time>
      </trkpt>
      <trkpt lat="43.24812" lon="5.91916">
        <ele>642.2</ele>
        <time>2021-05-29T10:01:02Z</time>
      </trkpt>
      <trkpt lat="43.24783" lon="5.91946">
        <ele>641.4</ele>
        <time>2021-05-29T10:01:07Z</time>
      </trkpt>
      <trkpt lat="43.24752" lon="5.91974">
        <ele>640.2</ele>
        <time>2021-05-29T10:01:12Z</time>
      </trkpt>
      <trkpt lat="43.2474" lon="5.91985">
        <ele>639.8</ele>
        <time>2021-05-29T10:01:14Z</time>
      </trkpt>
      <trkpt lat="43.24728" lon="5.91997">
        <ele>639.2</ele>
        <time>2021-05-29T10:01:16Z</time>
      </trkpt>
      <trkpt lat="43.24706" lon="5.92028">
        <ele>638</ele>
        <time>2021-05-29T10:01:20Z</time>
      </trkpt>
      <trkpt lat="43.24683" lon="5.92063">
        <ele>636.4</ele>
        <time>2021-05-29T10:01:24Z</time>
      </trkpt>
      <trkpt lat="43.24677" lon="5.92072">
        <ele>636.2</ele>
        <time>2021-05-29T10:01:25Z</time>
      </trkpt>
      <trkpt lat="43.24672" lon="5.9208">
        <ele>636</ele>
        <time>2021-05-29T10:01:26Z</time>
      </trkpt>
      <trkpt lat="43.24661" lon="5.92095">
        <ele>635.4</ele>
        <time>2021-05-29T10:01:28Z</time>
      </trkpt>
      <trkpt lat="43.24655" lon="5.92103">
        <ele>634.2</ele>
        <time>2021-05-29T10:01:29Z</time>
      </trkpt>
      <trkpt lat="43.2465" lon="5.92112">
        <ele>632.8</ele>
        <time>2021-05-29T10:01:30Z</time>
      </trkpt>
      <trkpt lat="43.24639" lon="5.92127">
        <ele>631.6</ele>
        <time>2021-05-29T10:01:32Z</time>
      </trkpt>
      <trkpt lat="43.24633" lon="5.92133">
        <ele>631.2</ele>
        <time>2021-05-29T10:01:33Z</time>
      </trkpt>
      <trkpt lat="43.24621" lon="5.92142">
        <ele>630.4</ele>
        <time>2021-05-29T10:01:35Z</time>
      </trkpt>
      <trkpt lat="43.24614" lon="5.92145">
        <ele>630.4</ele>
        <time>2021-05-29T10:01:36Z</time>
      </trkpt>
      <trkpt lat="43.24609" lon="5.92148">
        <ele>630.2</ele>
        <time>2021-05-29T10:01:37Z</time>
      </trkpt>
      <trkpt lat="43.24601" lon="5.9215">
        <ele>630.2</ele>
        <time>2021-05-29T10:01:38Z</time>
      </trkpt>
      <trkpt lat="43.24595" lon="5.92152">
        <ele>630.2</ele>
        <time>2021-05-29T10:01:39Z</time>
      </trkpt>
      <trkpt lat="43.24583" lon="5.92155">
        <ele>630</ele>
        <time>2021-05-29T10:01:41Z</time>
      </trkpt>
      <trkpt lat="43.24576" lon="5.92157">
        <ele>629.6</ele>
        <time>2021-05-29T10:01:42Z</time>
      </trkpt>
      <trkpt lat="43.24564" lon="5.92161">
        <ele>629.4</ele>
        <time>2021-05-29T10:01:44Z</time>
      </trkpt>
      <trkpt lat="43.24558" lon="5.92163">
        <ele>629.2</ele>
        <time>2021-05-29T10:01:45Z</time>
      </trkpt>
      <trkpt lat="43.24552" lon="5.92165">
        <ele>628.8</ele>
        <time>2021-05-29T10:01:46Z</time>
      </trkpt>
      <trkpt lat="43.24542" lon="5.9217">
        <ele>628.6</ele>
        <time>2021-05-29T10:01:48Z</time>
      </trkpt>
      <trkpt lat="43.24534" lon="5.92173">
        <ele>628.4</ele>
        <time>2021-05-29T10:01:49Z</time>
      </trkpt>
      <trkpt lat="43.24521" lon="5.92176">
        <ele>628.2</ele>
        <time>2021-05-29T10:01:51Z</time>
      </trkpt>
      <trkpt lat="43.24515" lon="5.92178">
        <ele>627.6</ele>
        <time>2021-05-29T10:01:52Z</time>
      </trkpt>
      <trkpt lat="43.24509" lon="5.92181">
        <ele>627.2</ele>
        <time>2021-05-29T10:01:53Z</time>
      </trkpt>
      <trkpt lat="43.24503" lon="5.92184">
        <ele>626.6</ele>
        <time>2021-05-29T10:01:54Z</time>
      </trkpt>
      <trkpt lat="43.24499" lon="5.92187">
        <ele>626.2</ele>
        <time>2021-05-29T10:01:55Z</time>
      </trkpt>
      <trkpt lat="43.24494" lon="5.9219">
        <ele>625.8</ele>
        <time>2021-05-29T10:01:56Z</time>
      </trkpt>
      <trkpt lat="43.24485" lon="5.92196">
        <ele>625.6</ele>
        <time>2021-05-29T10:01:58Z</time>
      </trkpt>
      <trkpt lat="43.24481" lon="5.92199">
        <ele>625.4</ele>
        <time>2021-05-29T10:01:59Z</time>
      </trkpt>
      <trkpt lat="43.24474" lon="5.92203">
        <ele>624.4</ele>
        <time>2021-05-29T10:02:01Z</time>
      </trkpt>
      <trkpt lat="43.24471" lon="5.92205">
        <ele>623.8</ele>
        <time>2021-05-29T10:02:02Z</time>
      </trkpt>
      <trkpt lat="43.24466" lon="5.92208">
        <ele>623.4</ele>
        <time>2021-05-29T10:02:03Z</time>
      </trkpt>
      <trkpt lat="43.24462" lon="5.9221">
        <ele>622</ele>
        <time>2021-05-29T10:02:04Z</time>
      </trkpt>
      <trkpt lat="43.24454" lon="5.92215">
        <ele>620.4</ele>
        <time>2021-05-29T10:02:06Z</time>
      </trkpt>
      <trkpt lat="43.24445" lon="5.9222">
        <ele>619.2</ele>
        <time>2021-05-29T10:02:08Z</time>
      </trkpt>
      <trkpt lat="43.24437" lon="5.92225">
        <ele>618.2</ele>
        <time>2021-05-29T10:02:10Z</time>
      </trkpt>
      <trkpt lat="43.24422" lon="5.92232">
        <ele>616.8</ele>
        <time>2021-05-29T10:02:13Z</time>
      </trkpt>
      <trkpt lat="43.24407" lon="5.92238">
        <ele>615.2</ele>
        <time>2021-05-29T10:02:16Z</time>
      </trkpt>
      <trkpt lat="43.24403" lon="5.92239">
        <ele>614.8</ele>
        <time>2021-05-29T10:02:17Z</time>
      </trkpt>
      <trkpt lat="43.24399" lon="5.92241">
        <ele>613.8</ele>
        <time>2021-05-29T10:02:18Z</time>
      </trkpt>
      <trkpt lat="43.24395" lon="5.92242">
        <ele>613.4</ele>
        <time>2021-05-29T10:02:19Z</time>
      </trkpt>
      <trkpt lat="43.24391" lon="5.92244">
        <ele>613</ele>
        <time>2021-05-29T10:02:20Z</time>
      </trkpt>
      <trkpt lat="43.24387" lon="5.92245">
        <ele>612.4</ele>
        <time>2021-05-29T10:02:21Z</time>
      </trkpt>
      <trkpt lat="43.24382" lon="5.92247">
        <ele>612.2</ele>
        <time>2021-05-29T10:02:22Z</time>
      </trkpt>
      <trkpt lat="43.24373" lon="5.92251">
        <ele>611.2</ele>
        <time>2021-05-29T10:02:24Z</time>
      </trkpt>
      <trkpt lat="43.24366" lon="5.92255">
        <ele>610.2</ele>
        <time>2021-05-29T10:02:26Z</time>
      </trkpt>
      <trkpt lat="43.24362" lon="5.92258">
        <ele>609.8</ele>
        <time>2021-05-29T10:02:27Z</time>
      </trkpt>
      <trkpt lat="43.24357" lon="5.92262">
        <ele>609.4</ele>
        <time>2021-05-29T10:02:29Z</time>
      </trkpt>
      <trkpt lat="43.24354" lon="5.92265">
        <ele>609</ele>
        <time>2021-05-29T10:02:30Z</time>
      </trkpt>
      <trkpt lat="43.24351" lon="5.92267">
        <ele>608.6</ele>
        <time>2021-05-29T10:02:31Z</time>
      </trkpt>
      <trkpt lat="43.24348" lon="5.92269">
        <ele>608</ele>
        <time>2021-05-29T10:02:32Z</time>
      </trkpt>
      <trkpt lat="43.24345" lon="5.92271">
        <ele>607</ele>
        <time>2021-05-29T10:02:33Z</time>
      </trkpt>
      <trkpt lat="43.24341" lon="5.92274">
        <ele>606.6</ele>
        <time>2021-05-29T10:02:34Z</time>
      </trkpt>
      <trkpt lat="43.24335" lon="5.92278">
        <ele>605.8</ele>
        <time>2021-05-29T10:02:36Z</time>
      </trkpt>
      <trkpt lat="43.24331" lon="5.9228">
        <ele>605.4</ele>
        <time>2021-05-29T10:02:37Z</time>
      </trkpt>
      <trkpt lat="43.24321" lon="5.92287">
        <ele>604.2</ele>
        <time>2021-05-29T10:02:40Z</time>
      </trkpt>
      <trkpt lat="43.24317" lon="5.92288">
        <ele>604.2</ele>
        <time>2021-05-29T10:02:41Z</time>
      </trkpt>
      <trkpt lat="43.24315" lon="5.9229">
        <ele>604</ele>
        <time>2021-05-29T10:02:42Z</time>
      </trkpt>
      <trkpt lat="43.24311" lon="5.92292">
        <ele>603.8</ele>
        <time>2021-05-29T10:02:43Z</time>
      </trkpt>
      <trkpt lat="43.24304" lon="5.92296">
        <ele>603.2</ele>
        <time>2021-05-29T10:02:45Z</time>
      </trkpt>
      <trkpt lat="43.24301" lon="5.92298">
        <ele>603</ele>
        <time>2021-05-29T10:02:46Z</time>
      </trkpt>
      <trkpt lat="43.24298" lon="5.92301">
        <ele>603</ele>
        <time>2021-05-29T10:02:47Z</time>
      </trkpt>
      <trkpt lat="43.2429" lon="5.92308">
        <ele>602.6</ele>
        <time>2021-05-29T10:02:49Z</time>
      </trkpt>
      <trkpt lat="43.24286" lon="5.92313">
        <ele>602.2</ele>
        <time>2021-05-29T10:02:50Z</time>
      </trkpt>
      <trkpt lat="43.24267" lon="5.92338">
        <ele>600.2</ele>
        <time>2021-05-29T10:02:54Z</time>
      </trkpt>
      <trkpt lat="43.24256" lon="5.92352">
        <ele>599.4</ele>
        <time>2021-05-29T10:02:56Z</time>
      </trkpt>
      <trkpt lat="43.24248" lon="5.92359">
        <ele>598.6</ele>
        <time>2021-05-29T10:02:57Z</time>
      </trkpt>
      <trkpt lat="43.24241" lon="5.92363">
        <ele>598.2</ele>
        <time>2021-05-29T10:02:58Z</time>
      </trkpt>
      <trkpt lat="43.2423" lon="5.92371">
        <ele>597.4</ele>
        <time>2021-05-29T10:03:00Z</time>
      </trkpt>
      <trkpt lat="43.24219" lon="5.92375">
        <ele>596.4</ele>
        <time>2021-05-29T10:03:02Z</time>
      </trkpt>
      <trkpt lat="43.24193" lon="5.92383">
        <ele>595.4</ele>
        <time>2021-05-29T10:03:07Z</time>
      </trkpt>
      <trkpt lat="43.24187" lon="5.92384">
        <ele>595.4</ele>
        <time>2021-05-29T10:03:08Z</time>
      </trkpt>
      <trkpt lat="43.24182" lon="5.92384">
        <ele>595.6</ele>
        <time>2021-05-29T10:03:09Z</time>
      </trkpt>
      <trkpt lat="43.24174" lon="5.92385">
        <ele>595.6</ele>
        <time>2021-05-29T10:03:11Z</time>
      </trkpt>
      <trkpt lat="43.24157" lon="5.92384">
        <ele>595.8</ele>
        <time>2021-05-29T10:03:14Z</time>
      </trkpt>
      <trkpt lat="43.24148" lon="5.92384">
        <ele>596</ele>
        <time>2021-05-29T10:03:16Z</time>
      </trkpt>
      <trkpt lat="43.24138" lon="5.92385">
        <ele>596.4</ele>
        <time>2021-05-29T10:03:18Z</time>
      </trkpt>
      <trkpt lat="43.2413" lon="5.92387">
        <ele>596.4</ele>
        <time>2021-05-29T10:03:20Z</time>
      </trkpt>
      <trkpt lat="43.24125" lon="5.92387">
        <ele>596.6</ele>
        <time>2021-05-29T10:03:21Z</time>
      </trkpt>
      <trkpt lat="43.24121" lon="5.92388">
        <ele>596.6</ele>
        <time>2021-05-29T10:03:22Z</time>
      </trkpt>
      <trkpt lat="43.24117" lon="5.92389">
        <ele>596.6</ele>
        <time>2021-05-29T10:03:23Z</time>
      </trkpt>
      <trkpt lat="43.24108" lon="5.92389">
        <ele>596.8</ele>
        <time>2021-05-29T10:03:25Z</time>
      </trkpt>
      <trkpt lat="43.24095" lon="5.9239">
        <ele>597.2</ele>
        <time>2021-05-29T10:03:28Z</time>
      </trkpt>
      <trkpt lat="43.24087" lon="5.92391">
        <ele>597.4</ele>
        <time>2021-05-29T10:03:30Z</time>
      </trkpt>
      <trkpt lat="43.24072" lon="5.92394">
        <ele>597.4</ele>
        <time>2021-05-29T10:03:34Z</time>
      </trkpt>
      <trkpt lat="43.24053" lon="5.92392">
        <ele>597.8</ele>
        <time>2021-05-29T10:03:40Z</time>
      </trkpt>
      <trkpt lat="43.24047" lon="5.92391">
        <ele>597.8</ele>
        <time>2021-05-29T10:03:42Z</time>
      </trkpt>
      <trkpt lat="43.24042" lon="5.92391">
        <ele>598</ele>
        <time>2021-05-29T10:03:44Z</time>
      </trkpt>
      <trkpt lat="43.24037" lon="5.9239">
        <ele>597.8</ele>
        <time>2021-05-29T10:03:46Z</time>
      </trkpt>
      <trkpt lat="43.24031" lon="5.9239">
        <ele>598.2</ele>
        <time>2021-05-29T10:03:48Z</time>
      </trkpt>
      <trkpt lat="43.24021" lon="5.92391">
        <ele>599.4</ele>
        <time>2021-05-29T10:03:53Z</time>
      </trkpt>
      <trkpt lat="43.24019" lon="5.92391">
        <ele>599.4</ele>
        <time>2021-05-29T10:03:54Z</time>
      </trkpt>
      <trkpt lat="43.24006" lon="5.92391">
        <ele>600.4</ele>
        <time>2021-05-29T10:04:01Z</time>
      </trkpt>
      <trkpt lat="43.23999" lon="5.92389">
        <ele>600.8</ele>
        <time>2021-05-29T10:04:04Z</time>
      </trkpt>
      <trkpt lat="43.23992" lon="5.92388">
        <ele>601.4</ele>
        <time>2021-05-29T10:04:08Z</time>
      </trkpt>
      <trkpt lat="43.23987" lon="5.92387">
        <ele>601.8</ele>
        <time>2021-05-29T10:04:11Z</time>
      </trkpt>
      <trkpt lat="43.23976" lon="5.92387">
        <ele>602.4</ele>
        <time>2021-05-29T10:04:16Z</time>
      </trkpt>
      <trkpt lat="43.2397" lon="5.92386">
        <ele>602.4</ele>
        <time>2021-05-29T10:04:19Z</time>
      </trkpt>
      <trkpt lat="43.23956" lon="5.92386">
        <ele>603</ele>
        <time>2021-05-29T10:04:26Z</time>
      </trkpt>
      <trkpt lat="43.23954" lon="5.92386">
        <ele>603</ele>
        <time>2021-05-29T10:04:27Z</time>
      </trkpt>
      <trkpt lat="43.23946" lon="5.92385">
        <ele>603.4</ele>
        <time>2021-05-29T10:04:31Z</time>
      </trkpt>
      <trkpt lat="43.23938" lon="5.92384">
        <ele>603.6</ele>
        <time>2021-05-29T10:04:35Z</time>
      </trkpt>
      <trkpt lat="43.23936" lon="5.92384">
        <ele>603.8</ele>
        <time>2021-05-29T10:04:36Z</time>
      </trkpt>
      <trkpt lat="43.23919" lon="5.92389">
        <ele>604.6</ele>
        <time>2021-05-29T10:04:46Z</time>
      </trkpt>
      <trkpt lat="43.23909" lon="5.92392">
        <ele>605.6</ele>
        <time>2021-05-29T10:04:53Z</time>
      </trkpt>
      <trkpt lat="43.23907" lon="5.92392">
        <ele>605.6</ele>
        <time>2021-05-29T10:04:54Z</time>
      </trkpt>
      <trkpt lat="43.23898" lon="5.92388">
        <ele>606.8</ele>
        <time>2021-05-29T10:05:01Z</time>
      </trkpt>
      <trkpt lat="43.23888" lon="5.92379">
        <ele>607.8</ele>
        <time>2021-05-29T10:05:08Z</time>
      </trkpt>
      <trkpt lat="43.23886" lon="5.92373">
        <ele>608</ele>
        <time>2021-05-29T10:05:10Z</time>
      </trkpt>
      <trkpt lat="43.23887" lon="5.92352">
        <ele>608.4</ele>
        <time>2021-05-29T10:05:17Z</time>
      </trkpt>
      <trkpt lat="43.23896" lon="5.9233">
        <ele>608.6</ele>
        <time>2021-05-29T10:05:25Z</time>
      </trkpt>
      <trkpt lat="43.23899" lon="5.92326">
        <ele>608.8</ele>
        <time>2021-05-29T10:05:27Z</time>
      </trkpt>
      <trkpt lat="43.23901" lon="5.92318">
        <ele>609</ele>
        <time>2021-05-29T10:05:30Z</time>
      </trkpt>
      <trkpt lat="43.239" lon="5.92315">
        <ele>609</ele>
        <time>2021-05-29T10:05:31Z</time>
      </trkpt>
      <trkpt lat="43.23897" lon="5.92313">
        <ele>609</ele>
        <time>2021-05-29T10:05:33Z</time>
      </trkpt>
      <trkpt lat="43.2389" lon="5.92316">
        <ele>609.8</ele>
        <time>2021-05-29T10:05:38Z</time>
      </trkpt>
      <trkpt lat="43.23887" lon="5.92321">
        <ele>609.8</ele>
        <time>2021-05-29T10:05:41Z</time>
      </trkpt>
      <trkpt lat="43.23886" lon="5.92325">
        <ele>610</ele>
        <time>2021-05-29T10:05:43Z</time>
      </trkpt>
      <trkpt lat="43.23885" lon="5.92327">
        <ele>610</ele>
        <time>2021-05-29T10:05:44Z</time>
      </trkpt>
      <trkpt lat="43.23881" lon="5.92331">
        <ele>610.6</ele>
        <time>2021-05-29T10:05:47Z</time>
      </trkpt>
      <trkpt lat="43.23879" lon="5.92334">
        <ele>611</ele>
        <time>2021-05-29T10:05:49Z</time>
      </trkpt>
      <trkpt lat="43.23875" lon="5.92337">
        <ele>611.4</ele>
        <time>2021-05-29T10:05:52Z</time>
      </trkpt>
      <trkpt lat="43.23865" lon="5.92346">
        <ele>612</ele>
        <time>2021-05-29T10:05:59Z</time>
      </trkpt>
      <trkpt lat="43.23864" lon="5.92347">
        <ele>612</ele>
        <time>2021-05-29T10:06:00Z</time>
      </trkpt>
      <trkpt lat="43.23863" lon="5.92349">
        <ele>612.2</ele>
        <time>2021-05-29T10:06:01Z</time>
      </trkpt>
      <trkpt lat="43.23861" lon="5.92351">
        <ele>612.2</ele>
        <time>2021-05-29T10:06:02Z</time>
      </trkpt>
      <trkpt lat="43.23857" lon="5.92356">
        <ele>612.6</ele>
        <time>2021-05-29T10:06:05Z</time>
      </trkpt>
      <trkpt lat="43.23856" lon="5.92357">
        <ele>613.2</ele>
        <time>2021-05-29T10:06:06Z</time>
      </trkpt>
      <trkpt lat="43.23855" lon="5.92358">
        <ele>613.2</ele>
        <time>2021-05-29T10:06:07Z</time>
      </trkpt>
      <trkpt lat="43.23853" lon="5.92358">
        <ele>613.6</ele>
        <time>2021-05-29T10:06:08Z</time>
      </trkpt>
      <trkpt lat="43.2385" lon="5.9236">
        <ele>613.8</ele>
        <time>2021-05-29T10:06:10Z</time>
      </trkpt>
      <trkpt lat="43.23848" lon="5.92361">
        <ele>614</ele>
        <time>2021-05-29T10:06:11Z</time>
      </trkpt>
      <trkpt lat="43.23846" lon="5.92362">
        <ele>614</ele>
        <time>2021-05-29T10:06:12Z</time>
      </trkpt>
      <trkpt lat="43.23844" lon="5.92364">
        <ele>614.2</ele>
        <time>2021-05-29T10:06:13Z</time>
      </trkpt>
      <trkpt lat="43.2384" lon="5.92366">
        <ele>614.2</ele>
        <time>2021-05-29T10:06:15Z</time>
      </trkpt>
      <trkpt lat="43.23832" lon="5.92368">
        <ele>614.6</ele>
        <time>2021-05-29T10:06:19Z</time>
      </trkpt>
      <trkpt lat="43.23827" lon="5.92368">
        <ele>615.2</ele>
        <time>2021-05-29T10:06:21Z</time>
      </trkpt>
      <trkpt lat="43.23825" lon="5.92368">
        <ele>615.4</ele>
        <time>2021-05-29T10:06:22Z</time>
      </trkpt>
      <trkpt lat="43.23812" lon="5.92371">
        <ele>615.8</ele>
        <time>2021-05-29T10:06:27Z</time>
      </trkpt>
      <trkpt lat="43.23798" lon="5.92375">
        <ele>615.8</ele>
        <time>2021-05-29T10:06:31Z</time>
      </trkpt>
      <trkpt lat="43.23795" lon="5.92377">
        <ele>615.6</ele>
        <time>2021-05-29T10:06:32Z</time>
      </trkpt>
      <trkpt lat="43.23791" lon="5.9238">
        <ele>615.6</ele>
        <time>2021-05-29T10:06:33Z</time>
      </trkpt>
      <trkpt lat="43.23787" lon="5.92383">
        <ele>615.6</ele>
        <time>2021-05-29T10:06:34Z</time>
      </trkpt>
      <trkpt lat="43.23776" lon="5.92396">
        <ele>615.4</ele>
        <time>2021-05-29T10:06:37Z</time>
      </trkpt>
      <trkpt lat="43.23771" lon="5.92409">
        <ele>615.2</ele>
        <time>2021-05-29T10:06:39Z</time>
      </trkpt>
      <trkpt lat="43.23769" lon="5.92416">
        <ele>614.6</ele>
        <time>2021-05-29T10:06:40Z</time>
      </trkpt>
      <trkpt lat="43.23764" lon="5.92428">
        <ele>614</ele>
        <time>2021-05-29T10:06:42Z</time>
      </trkpt>
      <trkpt lat="43.23759" lon="5.92437">
        <ele>613.4</ele>
        <time>2021-05-29T10:06:44Z</time>
      </trkpt>
      <trkpt lat="43.23755" lon="5.92441">
        <ele>612.6</ele>
        <time>2021-05-29T10:06:45Z</time>
      </trkpt>
      <trkpt lat="43.23751" lon="5.92446">
        <ele>612.4</ele>
        <time>2021-05-29T10:06:46Z</time>
      </trkpt>
      <trkpt lat="43.23732" lon="5.92473">
        <ele>611</ele>
        <time>2021-05-29T10:06:50Z</time>
      </trkpt>
      <trkpt lat="43.2372" lon="5.92484">
        <ele>609.8</ele>
        <time>2021-05-29T10:06:52Z</time>
      </trkpt>
      <trkpt lat="43.23714" lon="5.92489">
        <ele>609.4</ele>
        <time>2021-05-29T10:06:53Z</time>
      </trkpt>
      <trkpt lat="43.23708" lon="5.92494">
        <ele>608.8</ele>
        <time>2021-05-29T10:06:54Z</time>
      </trkpt>
      <trkpt lat="43.23697" lon="5.92504">
        <ele>608.2</ele>
        <time>2021-05-29T10:06:56Z</time>
      </trkpt>
      <trkpt lat="43.23686" lon="5.92516">
        <ele>607.6</ele>
        <time>2021-05-29T10:06:58Z</time>
      </trkpt>
      <trkpt lat="43.23676" lon="5.92528">
        <ele>606.6</ele>
        <time>2021-05-29T10:07:00Z</time>
      </trkpt>
      <trkpt lat="43.23671" lon="5.92534">
        <ele>606.6</ele>
        <time>2021-05-29T10:07:01Z</time>
      </trkpt>
      <trkpt lat="43.23666" lon="5.92539">
        <ele>606.4</ele>
        <time>2021-05-29T10:07:02Z</time>
      </trkpt>
      <trkpt lat="43.2365" lon="5.92557">
        <ele>606.2</ele>
        <time>2021-05-29T10:07:05Z</time>
      </trkpt>
      <trkpt lat="43.23639" lon="5.92572">
        <ele>605.2</ele>
        <time>2021-05-29T10:07:07Z</time>
      </trkpt>
      <trkpt lat="43.23623" lon="5.92594">
        <ele>604.8</ele>
        <time>2021-05-29T10:07:10Z</time>
      </trkpt>
      <trkpt lat="43.23613" lon="5.92608">
        <ele>604</ele>
        <time>2021-05-29T10:07:12Z</time>
      </trkpt>
      <trkpt lat="43.23608" lon="5.92615">
        <ele>603.6</ele>
        <time>2021-05-29T10:07:13Z</time>
      </trkpt>
      <trkpt lat="43.23604" lon="5.92622">
        <ele>602.8</ele>
        <time>2021-05-29T10:07:14Z</time>
      </trkpt>
      <trkpt lat="43.236" lon="5.92629">
        <ele>602.4</ele>
        <time>2021-05-29T10:07:15Z</time>
      </trkpt>
      <trkpt lat="43.23596" lon="5.92635">
        <ele>602</ele>
        <time>2021-05-29T10:07:16Z</time>
      </trkpt>
      <trkpt lat="43.23593" lon="5.92642">
        <ele>601.6</ele>
        <time>2021-05-29T10:07:17Z</time>
      </trkpt>
      <trkpt lat="43.23579" lon="5.92668">
        <ele>600</ele>
        <time>2021-05-29T10:07:21Z</time>
      </trkpt>
      <trkpt lat="43.23577" lon="5.92671">
        <ele>599.2</ele>
        <time>2021-05-29T10:07:22Z</time>
      </trkpt>
      <trkpt lat="43.23574" lon="5.92676">
        <ele>598.6</ele>
        <time>2021-05-29T10:07:23Z</time>
      </trkpt>
      <trkpt lat="43.2357" lon="5.9268">
        <ele>597.8</ele>
        <time>2021-05-29T10:07:24Z</time>
      </trkpt>
      <trkpt lat="43.23563" lon="5.92685">
        <ele>597</ele>
        <time>2021-05-29T10:07:26Z</time>
      </trkpt>
      <trkpt lat="43.23552" lon="5.92684">
        <ele>596.2</ele>
        <time>2021-05-29T10:07:29Z</time>
      </trkpt>
      <trkpt lat="43.23549" lon="5.92682">
        <ele>595.8</ele>
        <time>2021-05-29T10:07:30Z</time>
      </trkpt>
      <trkpt lat="43.23546" lon="5.92678">
        <ele>595.4</ele>
        <time>2021-05-29T10:07:31Z</time>
      </trkpt>
      <trkpt lat="43.23544" lon="5.92674">
        <ele>595.2</ele>
        <time>2021-05-29T10:07:32Z</time>
      </trkpt>
      <trkpt lat="43.23542" lon="5.9267">
        <ele>594.8</ele>
        <time>2021-05-29T10:07:33Z</time>
      </trkpt>
      <trkpt lat="43.23541" lon="5.92665">
        <ele>594.8</ele>
        <time>2021-05-29T10:07:34Z</time>
      </trkpt>
      <trkpt lat="43.2354" lon="5.92659">
        <ele>594.6</ele>
        <time>2021-05-29T10:07:35Z</time>
      </trkpt>
      <trkpt lat="43.23536" lon="5.92642">
        <ele>594.6</ele>
        <time>2021-05-29T10:07:38Z</time>
      </trkpt>
      <trkpt lat="43.23533" lon="5.92636">
        <ele>594.6</ele>
        <time>2021-05-29T10:07:39Z</time>
      </trkpt>
      <trkpt lat="43.23532" lon="5.92629">
        <ele>594.6</ele>
        <time>2021-05-29T10:07:40Z</time>
      </trkpt>
      <trkpt lat="43.23531" lon="5.92622">
        <ele>594.4</ele>
        <time>2021-05-29T10:07:41Z</time>
      </trkpt>
      <trkpt lat="43.23531" lon="5.92614">
        <ele>594.4</ele>
        <time>2021-05-29T10:07:42Z</time>
      </trkpt>
      <trkpt lat="43.23531" lon="5.92606">
        <ele>594.4</ele>
        <time>2021-05-29T10:07:43Z</time>
      </trkpt>
      <trkpt lat="43.2353" lon="5.92598">
        <ele>594.4</ele>
        <time>2021-05-29T10:07:44Z</time>
      </trkpt>
      <trkpt lat="43.23529" lon="5.9259">
        <ele>594.2</ele>
        <time>2021-05-29T10:07:45Z</time>
      </trkpt>
      <trkpt lat="43.23528" lon="5.92583">
        <ele>594</ele>
        <time>2021-05-29T10:07:46Z</time>
      </trkpt>
      <trkpt lat="43.23524" lon="5.9257">
        <ele>593.6</ele>
        <time>2021-05-29T10:07:48Z</time>
      </trkpt>
      <trkpt lat="43.23523" lon="5.92564">
        <ele>593.6</ele>
        <time>2021-05-29T10:07:49Z</time>
      </trkpt>
      <trkpt lat="43.23522" lon="5.92559">
        <ele>593.4</ele>
        <time>2021-05-29T10:07:50Z</time>
      </trkpt>
      <trkpt lat="43.23518" lon="5.92543">
        <ele>593.4</ele>
        <time>2021-05-29T10:07:53Z</time>
      </trkpt>
      <trkpt lat="43.23514" lon="5.92513">
        <ele>593.8</ele>
        <time>2021-05-29T10:07:59Z</time>
      </trkpt>
      <trkpt lat="43.23513" lon="5.92509">
        <ele>594</ele>
        <time>2021-05-29T10:08:00Z</time>
      </trkpt>
      <trkpt lat="43.23509" lon="5.92503">
        <ele>594.2</ele>
        <time>2021-05-29T10:08:02Z</time>
      </trkpt>
      <trkpt lat="43.23494" lon="5.92495">
        <ele>594.4</ele>
        <time>2021-05-29T10:08:06Z</time>
      </trkpt>
      <trkpt lat="43.23488" lon="5.92488">
        <ele>594.6</ele>
        <time>2021-05-29T10:08:08Z</time>
      </trkpt>
      <trkpt lat="43.23486" lon="5.92484">
        <ele>594.6</ele>
        <time>2021-05-29T10:08:09Z</time>
      </trkpt>
      <trkpt lat="43.23482" lon="5.92469">
        <ele>594.8</ele>
        <time>2021-05-29T10:08:12Z</time>
      </trkpt>
      <trkpt lat="43.23481" lon="5.92458">
        <ele>594.8</ele>
        <time>2021-05-29T10:08:14Z</time>
      </trkpt>
      <trkpt lat="43.23483" lon="5.92447">
        <ele>594.8</ele>
        <time>2021-05-29T10:08:16Z</time>
      </trkpt>
      <trkpt lat="43.23485" lon="5.92437">
        <ele>595.2</ele>
        <time>2021-05-29T10:08:18Z</time>
      </trkpt>
      <trkpt lat="43.2349" lon="5.92417">
        <ele>595.2</ele>
        <time>2021-05-29T10:08:22Z</time>
      </trkpt>
      <trkpt lat="43.23494" lon="5.92404">
        <ele>595.2</ele>
        <time>2021-05-29T10:08:25Z</time>
      </trkpt>
      <trkpt lat="43.23497" lon="5.92401">
        <ele>595.2</ele>
        <time>2021-05-29T10:08:26Z</time>
      </trkpt>
      <trkpt lat="43.235" lon="5.92393">
        <ele>595.4</ele>
        <time>2021-05-29T10:08:28Z</time>
      </trkpt>
      <trkpt lat="43.23512" lon="5.92359">
        <ele>595.8</ele>
        <time>2021-05-29T10:08:36Z</time>
      </trkpt>
      <trkpt lat="43.23517" lon="5.92342">
        <ele>596</ele>
        <time>2021-05-29T10:08:39Z</time>
      </trkpt>
      <trkpt lat="43.23526" lon="5.92323">
        <ele>596</ele>
        <time>2021-05-29T10:08:43Z</time>
      </trkpt>
      <trkpt lat="43.23533" lon="5.92309">
        <ele>596.2</ele>
        <time>2021-05-29T10:08:46Z</time>
      </trkpt>
      <trkpt lat="43.23535" lon="5.923">
        <ele>596.4</ele>
        <time>2021-05-29T10:08:48Z</time>
      </trkpt>
      <trkpt lat="43.23536" lon="5.92295">
        <ele>596.6</ele>
        <time>2021-05-29T10:08:49Z</time>
      </trkpt>
      <trkpt lat="43.23538" lon="5.9228">
        <ele>596.8</ele>
        <time>2021-05-29T10:08:52Z</time>
      </trkpt>
      <trkpt lat="43.23534" lon="5.92269">
        <ele>596.8</ele>
        <time>2021-05-29T10:08:54Z</time>
      </trkpt>
      <trkpt lat="43.23526" lon="5.92256">
        <ele>597</ele>
        <time>2021-05-29T10:08:57Z</time>
      </trkpt>
      <trkpt lat="43.23518" lon="5.92245">
        <ele>597.2</ele>
        <time>2021-05-29T10:09:00Z</time>
      </trkpt>
      <trkpt lat="43.23508" lon="5.92239">
        <ele>597.4</ele>
        <time>2021-05-29T10:09:03Z</time>
      </trkpt>
      <trkpt lat="43.23504" lon="5.92237">
        <ele>597.4</ele>
        <time>2021-05-29T10:09:04Z</time>
      </trkpt>
      <trkpt lat="43.23501" lon="5.92237">
        <ele>597.4</ele>
        <time>2021-05-29T10:09:05Z</time>
      </trkpt>
      <trkpt lat="43.23493" lon="5.92239">
        <ele>597.6</ele>
        <time>2021-05-29T10:09:07Z</time>
      </trkpt>
      <trkpt lat="43.23485" lon="5.92241">
        <ele>597.8</ele>
        <time>2021-05-29T10:09:09Z</time>
      </trkpt>
      <trkpt lat="43.23471" lon="5.92248">
        <ele>598.2</ele>
        <time>2021-05-29T10:09:13Z</time>
      </trkpt>
      <trkpt lat="43.23466" lon="5.92248">
        <ele>598.4</ele>
        <time>2021-05-29T10:09:14Z</time>
      </trkpt>
      <trkpt lat="43.23461" lon="5.92248">
        <ele>598.4</ele>
        <time>2021-05-29T10:09:15Z</time>
      </trkpt>
      <trkpt lat="43.23448" lon="5.9224">
        <ele>598.6</ele>
        <time>2021-05-29T10:09:18Z</time>
      </trkpt>
      <trkpt lat="43.23422" lon="5.92213">
        <ele>598.2</ele>
        <time>2021-05-29T10:09:25Z</time>
      </trkpt>
      <trkpt lat="43.23416" lon="5.92196">
        <ele>598.2</ele>
        <time>2021-05-29T10:09:29Z</time>
      </trkpt>
      <trkpt lat="43.23414" lon="5.92164">
        <ele>598.8</ele>
        <time>2021-05-29T10:09:37Z</time>
      </trkpt>
      <trkpt lat="43.23403" lon="5.92148">
        <ele>599.2</ele>
        <time>2021-05-29T10:09:42Z</time>
      </trkpt>
      <trkpt lat="43.23395" lon="5.92144">
        <ele>599.6</ele>
        <time>2021-05-29T10:09:45Z</time>
      </trkpt>
      <trkpt lat="43.23385" lon="5.9214">
        <ele>600</ele>
        <time>2021-05-29T10:09:49Z</time>
      </trkpt>
      <trkpt lat="43.23381" lon="5.92137">
        <ele>600.2</ele>
        <time>2021-05-29T10:09:51Z</time>
      </trkpt>
      <trkpt lat="43.23377" lon="5.92135">
        <ele>600.8</ele>
        <time>2021-05-29T10:09:53Z</time>
      </trkpt>
      <trkpt lat="43.23371" lon="5.9213">
        <ele>601.2</ele>
        <time>2021-05-29T10:09:56Z</time>
      </trkpt>
      <trkpt lat="43.2336" lon="5.92127">
        <ele>601.8</ele>
        <time>2021-05-29T10:10:02Z</time>
      </trkpt>
      <trkpt lat="43.23356" lon="5.92125">
        <ele>601.8</ele>
        <time>2021-05-29T10:10:04Z</time>
      </trkpt>
      <trkpt lat="43.23346" lon="5.92121">
        <ele>602.2</ele>
        <time>2021-05-29T10:10:08Z</time>
      </trkpt>
      <trkpt lat="43.23335" lon="5.92123">
        <ele>602.8</ele>
        <time>2021-05-29T10:10:13Z</time>
      </trkpt>
      <trkpt lat="43.23333" lon="5.92124">
        <ele>603</ele>
        <time>2021-05-29T10:10:14Z</time>
      </trkpt>
      <trkpt lat="43.23331" lon="5.92125">
        <ele>603.2</ele>
        <time>2021-05-29T10:10:15Z</time>
      </trkpt>
      <trkpt lat="43.23317" lon="5.92129">
        <ele>603.8</ele>
        <time>2021-05-29T10:10:22Z</time>
      </trkpt>
      <trkpt lat="43.23315" lon="5.92128">
        <ele>603.8</ele>
        <time>2021-05-29T10:10:23Z</time>
      </trkpt>
      <trkpt lat="43.23306" lon="5.92119">
        <ele>604.2</ele>
        <time>2021-05-29T10:10:28Z</time>
      </trkpt>
      <trkpt lat="43.23298" lon="5.92111">
        <ele>604.8</ele>
        <time>2021-05-29T10:10:32Z</time>
      </trkpt>
      <trkpt lat="43.23296" lon="5.92109">
        <ele>605</ele>
        <time>2021-05-29T10:10:33Z</time>
      </trkpt>
      <trkpt lat="43.23289" lon="5.92105">
        <ele>605.4</ele>
        <time>2021-05-29T10:10:36Z</time>
      </trkpt>
      <trkpt lat="43.23282" lon="5.921">
        <ele>605.6</ele>
        <time>2021-05-29T10:10:39Z</time>
      </trkpt>
      <trkpt lat="43.23278" lon="5.92098">
        <ele>605.8</ele>
        <time>2021-05-29T10:10:41Z</time>
      </trkpt>
      <trkpt lat="43.23273" lon="5.92097">
        <ele>605.8</ele>
        <time>2021-05-29T10:10:43Z</time>
      </trkpt>
      <trkpt lat="43.23267" lon="5.92096">
        <ele>606</ele>
        <time>2021-05-29T10:10:45Z</time>
      </trkpt>
      <trkpt lat="43.2325" lon="5.92094">
        <ele>606.6</ele>
        <time>2021-05-29T10:10:51Z</time>
      </trkpt>
      <trkpt lat="43.23238" lon="5.92095">
        <ele>607.4</ele>
        <time>2021-05-29T10:10:55Z</time>
      </trkpt>
      <trkpt lat="43.23226" lon="5.92096">
        <ele>607.6</ele>
        <time>2021-05-29T10:10:58Z</time>
      </trkpt>
      <trkpt lat="43.23222" lon="5.92096">
        <ele>607.6</ele>
        <time>2021-05-29T10:10:59Z</time>
      </trkpt>
      <trkpt lat="43.23218" lon="5.92097">
        <ele>607.6</ele>
        <time>2021-05-29T10:11:00Z</time>
      </trkpt>
      <trkpt lat="43.23214" lon="5.92098">
        <ele>607.6</ele>
        <time>2021-05-29T10:11:01Z</time>
      </trkpt>
      <trkpt lat="43.2321" lon="5.921">
        <ele>607.6</ele>
        <time>2021-05-29T10:11:02Z</time>
      </trkpt>
      <trkpt lat="43.23203" lon="5.92103">
        <ele>607.6</ele>
        <time>2021-05-29T10:11:04Z</time>
      </trkpt>
      <trkpt lat="43.2318" lon="5.92103">
        <ele>607.8</ele>
        <time>2021-05-29T10:11:10Z</time>
      </trkpt>
      <trkpt lat="43.23164" lon="5.92095">
        <ele>607.8</ele>
        <time>2021-05-29T10:11:15Z</time>
      </trkpt>
      <trkpt lat="43.23154" lon="5.92095">
        <ele>607.8</ele>
        <time>2021-05-29T10:11:18Z</time>
      </trkpt>
      <trkpt lat="43.23147" lon="5.92099">
        <ele>607.8</ele>
        <time>2021-05-29T10:11:20Z</time>
      </trkpt>
      <trkpt lat="43.2313" lon="5.9211">
        <ele>608</ele>
        <time>2021-05-29T10:11:26Z</time>
      </trkpt>
      <trkpt lat="43.23117" lon="5.92112">
        <ele>608.2</ele>
        <time>2021-05-29T10:11:30Z</time>
      </trkpt>
      <trkpt lat="43.23113" lon="5.92111">
        <ele>608.4</ele>
        <time>2021-05-29T10:11:31Z</time>
      </trkpt>
      <trkpt lat="43.23106" lon="5.92108">
        <ele>608.6</ele>
        <time>2021-05-29T10:11:33Z</time>
      </trkpt>
      <trkpt lat="43.23092" lon="5.92102">
        <ele>608.6</ele>
        <time>2021-05-29T10:11:37Z</time>
      </trkpt>
      <trkpt lat="43.23089" lon="5.92102">
        <ele>608.6</ele>
        <time>2021-05-29T10:11:38Z</time>
      </trkpt>
      <trkpt lat="43.23082" lon="5.92102">
        <ele>609</ele>
        <time>2021-05-29T10:11:40Z</time>
      </trkpt>
      <trkpt lat="43.23075" lon="5.92101">
        <ele>609</ele>
        <time>2021-05-29T10:11:42Z</time>
      </trkpt>
      <trkpt lat="43.23069" lon="5.92102">
        <ele>609.2</ele>
        <time>2021-05-29T10:11:44Z</time>
      </trkpt>
      <trkpt lat="43.23065" lon="5.92103">
        <ele>609.4</ele>
        <time>2021-05-29T10:11:46Z</time>
      </trkpt>
      <trkpt lat="43.23061" lon="5.92104">
        <ele>609.6</ele>
        <time>2021-05-29T10:11:49Z</time>
      </trkpt>
      <trkpt lat="43.23061" lon="5.92104">
        <ele>609.6</ele>
        <time>2021-05-29T10:11:52Z</time>
      </trkpt>
      <trkpt lat="43.23061" lon="5.92104">
        <ele>609.6</ele>
        <time>2021-05-29T10:11:53Z</time>
      </trkpt>
      <trkpt lat="43.23061" lon="5.92104">
        <ele>609.8</ele>
        <time>2021-05-29T10:11:54Z</time>
      </trkpt>
      <trkpt lat="43.23061" lon="5.92103">
        <ele>609.6</ele>
        <time>2021-05-29T10:12:52Z</time>
      </trkpt>
      <trkpt lat="43.23059" lon="5.92104">
        <ele>609.6</ele>
        <time>2021-05-29T10:12:53Z</time>
      </trkpt>
      <trkpt lat="43.23045" lon="5.92111">
        <ele>609.6</ele>
        <time>2021-05-29T10:12:59Z</time>
      </trkpt>
      <trkpt lat="43.23031" lon="5.92119">
        <ele>610</ele>
        <time>2021-05-29T10:13:04Z</time>
      </trkpt>
      <trkpt lat="43.23028" lon="5.92121">
        <ele>610</ele>
        <time>2021-05-29T10:13:05Z</time>
      </trkpt>
      <trkpt lat="43.23026" lon="5.92123">
        <ele>610</ele>
        <time>2021-05-29T10:13:06Z</time>
      </trkpt>
      <trkpt lat="43.23015" lon="5.92136">
        <ele>609.8</ele>
        <time>2021-05-29T10:13:11Z</time>
      </trkpt>
      <trkpt lat="43.23012" lon="5.92139">
        <ele>609.8</ele>
        <time>2021-05-29T10:13:12Z</time>
      </trkpt>
      <trkpt lat="43.22997" lon="5.9215">
        <ele>610.2</ele>
        <time>2021-05-29T10:13:18Z</time>
      </trkpt>
      <trkpt lat="43.22987" lon="5.92152">
        <ele>610.4</ele>
        <time>2021-05-29T10:13:23Z</time>
      </trkpt>
      <trkpt lat="43.22984" lon="5.92152">
        <ele>610.6</ele>
        <time>2021-05-29T10:13:25Z</time>
      </trkpt>
      <trkpt lat="43.22978" lon="5.9215">
        <ele>611.2</ele>
        <time>2021-05-29T10:13:29Z</time>
      </trkpt>
      <trkpt lat="43.22976" lon="5.92147">
        <ele>611.8</ele>
        <time>2021-05-29T10:13:31Z</time>
      </trkpt>
      <trkpt lat="43.22971" lon="5.92142">
        <ele>612.6</ele>
        <time>2021-05-29T10:13:35Z</time>
      </trkpt>
      <trkpt lat="43.2297" lon="5.9214">
        <ele>613.2</ele>
        <time>2021-05-29T10:13:37Z</time>
      </trkpt>
      <trkpt lat="43.22969" lon="5.92138">
        <ele>613.4</ele>
        <time>2021-05-29T10:13:39Z</time>
      </trkpt>
      <trkpt lat="43.22967" lon="5.92136">
        <ele>613.6</ele>
        <time>2021-05-29T10:13:41Z</time>
      </trkpt>
      <trkpt lat="43.22966" lon="5.92135">
        <ele>614</ele>
        <time>2021-05-29T10:13:42Z</time>
      </trkpt>
      <trkpt lat="43.22965" lon="5.92134">
        <ele>614.2</ele>
        <time>2021-05-29T10:13:43Z</time>
      </trkpt>
      <trkpt lat="43.22963" lon="5.9213">
        <ele>614.4</ele>
        <time>2021-05-29T10:13:45Z</time>
      </trkpt>
      <trkpt lat="43.22962" lon="5.9213">
        <ele>614.6</ele>
        <time>2021-05-29T10:13:46Z</time>
      </trkpt>
      <trkpt lat="43.22959" lon="5.92127">
        <ele>615.2</ele>
        <time>2021-05-29T10:13:49Z</time>
      </trkpt>
      <trkpt lat="43.22958" lon="5.92124">
        <ele>615.6</ele>
        <time>2021-05-29T10:13:51Z</time>
      </trkpt>
      <trkpt lat="43.22957" lon="5.92123">
        <ele>615.6</ele>
        <time>2021-05-29T10:13:52Z</time>
      </trkpt>
      <trkpt lat="43.22953" lon="5.92121">
        <ele>616</ele>
        <time>2021-05-29T10:13:55Z</time>
      </trkpt>
      <trkpt lat="43.22952" lon="5.92118">
        <ele>616.2</ele>
        <time>2021-05-29T10:13:57Z</time>
      </trkpt>
      <trkpt lat="43.22951" lon="5.92117">
        <ele>616.4</ele>
        <time>2021-05-29T10:13:58Z</time>
      </trkpt>
      <trkpt lat="43.22945" lon="5.92113">
        <ele>617</ele>
        <time>2021-05-29T10:14:02Z</time>
      </trkpt>
      <trkpt lat="43.22941" lon="5.9211">
        <ele>617.4</ele>
        <time>2021-05-29T10:14:05Z</time>
      </trkpt>
      <trkpt lat="43.2294" lon="5.92108">
        <ele>617.6</ele>
        <time>2021-05-29T10:14:06Z</time>
      </trkpt>
      <trkpt lat="43.2293" lon="5.92103">
        <ele>618.6</ele>
        <time>2021-05-29T10:14:12Z</time>
      </trkpt>
      <trkpt lat="43.22926" lon="5.92102">
        <ele>618.8</ele>
        <time>2021-05-29T10:14:14Z</time>
      </trkpt>
      <trkpt lat="43.22905" lon="5.92101">
        <ele>619</ele>
        <time>2021-05-29T10:14:21Z</time>
      </trkpt>
      <trkpt lat="43.22885" lon="5.92098">
        <ele>618.6</ele>
        <time>2021-05-29T10:14:28Z</time>
      </trkpt>
      <trkpt lat="43.22876" lon="5.92095">
        <ele>618.4</ele>
        <time>2021-05-29T10:14:30Z</time>
      </trkpt>
      <trkpt lat="43.22846" lon="5.92087">
        <ele>618</ele>
        <time>2021-05-29T10:14:37Z</time>
      </trkpt>
      <trkpt lat="43.22843" lon="5.92087">
        <ele>618</ele>
        <time>2021-05-29T10:14:38Z</time>
      </trkpt>
      <trkpt lat="43.22827" lon="5.92088">
        <ele>618.2</ele>
        <time>2021-05-29T10:14:44Z</time>
      </trkpt>
      <trkpt lat="43.2281" lon="5.92091">
        <ele>618.4</ele>
        <time>2021-05-29T10:14:51Z</time>
      </trkpt>
      <trkpt lat="43.22808" lon="5.92092">
        <ele>618.4</ele>
        <time>2021-05-29T10:14:52Z</time>
      </trkpt>
      <trkpt lat="43.22792" lon="5.92099">
        <ele>618.8</ele>
        <time>2021-05-29T10:14:59Z</time>
      </trkpt>
      <trkpt lat="43.22784" lon="5.921">
        <ele>618.8</ele>
        <time>2021-05-29T10:15:02Z</time>
      </trkpt>
      <trkpt lat="43.22775" lon="5.92104">
        <ele>619</ele>
        <time>2021-05-29T10:15:06Z</time>
      </trkpt>
      <trkpt lat="43.2276" lon="5.92109">
        <ele>619.2</ele>
        <time>2021-05-29T10:15:11Z</time>
      </trkpt>
      <trkpt lat="43.22757" lon="5.9211">
        <ele>619.2</ele>
        <time>2021-05-29T10:15:13Z</time>
      </trkpt>
      <trkpt lat="43.22751" lon="5.92113">
        <ele>619.2</ele>
        <time>2021-05-29T10:15:14Z</time>
      </trkpt>
      <trkpt lat="43.22739" lon="5.92114">
        <ele>619.4</ele>
        <time>2021-05-29T10:15:18Z</time>
      </trkpt>
      <trkpt lat="43.22737" lon="5.92114">
        <ele>619.6</ele>
        <time>2021-05-29T10:15:19Z</time>
      </trkpt>
      <trkpt lat="43.22734" lon="5.92114">
        <ele>619.6</ele>
        <time>2021-05-29T10:15:20Z</time>
      </trkpt>
      <trkpt lat="43.22731" lon="5.92114">
        <ele>619.6</ele>
        <time>2021-05-29T10:15:21Z</time>
      </trkpt>
      <trkpt lat="43.22731" lon="5.92114">
        <ele>619.8</ele>
        <time>2021-05-29T10:15:22Z</time>
      </trkpt>
      <trkpt lat="43.22717" lon="5.92112">
        <ele>619.8</ele>
        <time>2021-05-29T10:15:27Z</time>
      </trkpt>
      <trkpt lat="43.22712" lon="5.92105">
        <ele>620</ele>
        <time>2021-05-29T10:15:31Z</time>
      </trkpt>
      <trkpt lat="43.22711" lon="5.92098">
        <ele>620</ele>
        <time>2021-05-29T10:15:32Z</time>
      </trkpt>
      <trkpt lat="43.22712" lon="5.92083">
        <ele>619.8</ele>
        <time>2021-05-29T10:15:36Z</time>
      </trkpt>
      <trkpt lat="43.22713" lon="5.92067">
        <ele>619.6</ele>
        <time>2021-05-29T10:15:42Z</time>
      </trkpt>
      <trkpt lat="43.22714" lon="5.92038">
        <ele>619.6</ele>
        <time>2021-05-29T10:15:49Z</time>
      </trkpt>
      <trkpt lat="43.22715" lon="5.92014">
        <ele>619.8</ele>
        <time>2021-05-29T10:15:56Z</time>
      </trkpt>
      <trkpt lat="43.22715" lon="5.9199">
        <ele>619.8</ele>
        <time>2021-05-29T10:16:02Z</time>
      </trkpt>
      <trkpt lat="43.22715" lon="5.91987">
        <ele>619.8</ele>
        <time>2021-05-29T10:16:03Z</time>
      </trkpt>
      <trkpt lat="43.22715" lon="5.91983">
        <ele>619.8</ele>
        <time>2021-05-29T10:16:04Z</time>
      </trkpt>
      <trkpt lat="43.22716" lon="5.91963">
        <ele>619.8</ele>
        <time>2021-05-29T10:16:10Z</time>
      </trkpt>
      <trkpt lat="43.22717" lon="5.91931">
        <ele>620</ele>
        <time>2021-05-29T10:16:17Z</time>
      </trkpt>
      <trkpt lat="43.22717" lon="5.91915">
        <ele>620.2</ele>
        <time>2021-05-29T10:16:23Z</time>
      </trkpt>
      <trkpt lat="43.22717" lon="5.91885">
        <ele>620.4</ele>
        <time>2021-05-29T10:16:30Z</time>
      </trkpt>
      <trkpt lat="43.22717" lon="5.91872">
        <ele>620.8</ele>
        <time>2021-05-29T10:16:34Z</time>
      </trkpt>
      <trkpt lat="43.22718" lon="5.91857">
        <ele>621.4</ele>
        <time>2021-05-29T10:16:39Z</time>
      </trkpt>
      <trkpt lat="43.22718" lon="5.91846">
        <ele>621.6</ele>
        <time>2021-05-29T10:16:41Z</time>
      </trkpt>
      <trkpt lat="43.22718" lon="5.91843">
        <ele>622</ele>
        <time>2021-05-29T10:16:42Z</time>
      </trkpt>
      <trkpt lat="43.22718" lon="5.9184">
        <ele>622</ele>
        <time>2021-05-29T10:16:43Z</time>
      </trkpt>
      <trkpt lat="43.22718" lon="5.91817">
        <ele>622.6</ele>
        <time>2021-05-29T10:16:51Z</time>
      </trkpt>
      <trkpt lat="43.22719" lon="5.91806">
        <ele>623</ele>
        <time>2021-05-29T10:16:55Z</time>
      </trkpt>
      <trkpt lat="43.22719" lon="5.91798">
        <ele>623.8</ele>
        <time>2021-05-29T10:16:59Z</time>
      </trkpt>
      <trkpt lat="43.2272" lon="5.91783">
        <ele>624.4</ele>
        <time>2021-05-29T10:17:04Z</time>
      </trkpt>
      <trkpt lat="43.22719" lon="5.91777">
        <ele>624.4</ele>
        <time>2021-05-29T10:17:06Z</time>
      </trkpt>
      <trkpt lat="43.2272" lon="5.91774">
        <ele>624.6</ele>
        <time>2021-05-29T10:17:07Z</time>
      </trkpt>
      <trkpt lat="43.22721" lon="5.91762">
        <ele>625.4</ele>
        <time>2021-05-29T10:17:12Z</time>
      </trkpt>
      <trkpt lat="43.22721" lon="5.91756">
        <ele>625.8</ele>
        <time>2021-05-29T10:17:14Z</time>
      </trkpt>
      <trkpt lat="43.2272" lon="5.91749">
        <ele>626</ele>
        <time>2021-05-29T10:17:17Z</time>
      </trkpt>
      <trkpt lat="43.22721" lon="5.91745">
        <ele>626.4</ele>
        <time>2021-05-29T10:17:19Z</time>
      </trkpt>
      <trkpt lat="43.22721" lon="5.91742">
        <ele>626.4</ele>
        <time>2021-05-29T10:17:20Z</time>
      </trkpt>
      <trkpt lat="43.22721" lon="5.9174">
        <ele>626.6</ele>
        <time>2021-05-29T10:17:22Z</time>
      </trkpt>
      <trkpt lat="43.2272" lon="5.91724">
        <ele>627.4</ele>
        <time>2021-05-29T10:17:28Z</time>
      </trkpt>
      <trkpt lat="43.22719" lon="5.91719">
        <ele>627.6</ele>
        <time>2021-05-29T10:17:30Z</time>
      </trkpt>
      <trkpt lat="43.2272" lon="5.91705">
        <ele>628.2</ele>
        <time>2021-05-29T10:17:37Z</time>
      </trkpt>
      <trkpt lat="43.2272" lon="5.917">
        <ele>628.6</ele>
        <time>2021-05-29T10:17:39Z</time>
      </trkpt>
      <trkpt lat="43.2272" lon="5.91681">
        <ele>629.4</ele>
        <time>2021-05-29T10:17:47Z</time>
      </trkpt>
      <trkpt lat="43.2272" lon="5.91679">
        <ele>629.8</ele>
        <time>2021-05-29T10:17:48Z</time>
      </trkpt>
      <trkpt lat="43.22719" lon="5.91662">
        <ele>630.4</ele>
        <time>2021-05-29T10:17:55Z</time>
      </trkpt>
      <trkpt lat="43.22718" lon="5.91657">
        <ele>630.6</ele>
        <time>2021-05-29T10:17:57Z</time>
      </trkpt>
      <trkpt lat="43.22718" lon="5.91651">
        <ele>630.8</ele>
        <time>2021-05-29T10:18:00Z</time>
      </trkpt>
      <trkpt lat="43.22718" lon="5.91641">
        <ele>630.8</ele>
        <time>2021-05-29T10:18:04Z</time>
      </trkpt>
      <trkpt lat="43.22717" lon="5.91618">
        <ele>631.4</ele>
        <time>2021-05-29T10:18:13Z</time>
      </trkpt>
      <trkpt lat="43.22717" lon="5.91601">
        <ele>631.8</ele>
        <time>2021-05-29T10:18:19Z</time>
      </trkpt>
      <trkpt lat="43.22716" lon="5.91591">
        <ele>632</ele>
        <time>2021-05-29T10:18:23Z</time>
      </trkpt>
      <trkpt lat="43.22717" lon="5.91588">
        <ele>632</ele>
        <time>2021-05-29T10:18:24Z</time>
      </trkpt>
      <trkpt lat="43.2272" lon="5.91574">
        <ele>632.8</ele>
        <time>2021-05-29T10:18:30Z</time>
      </trkpt>
      <trkpt lat="43.2272" lon="5.91572">
        <ele>632.8</ele>
        <time>2021-05-29T10:18:31Z</time>
      </trkpt>
      <trkpt lat="43.22721" lon="5.91568">
        <ele>633.2</ele>
        <time>2021-05-29T10:18:33Z</time>
      </trkpt>
      <trkpt lat="43.22722" lon="5.91564">
        <ele>633.6</ele>
        <time>2021-05-29T10:18:35Z</time>
      </trkpt>
      <trkpt lat="43.22723" lon="5.91559">
        <ele>633.8</ele>
        <time>2021-05-29T10:18:37Z</time>
      </trkpt>
      <trkpt lat="43.22723" lon="5.91557">
        <ele>634</ele>
        <time>2021-05-29T10:18:38Z</time>
      </trkpt>
      <trkpt lat="43.22724" lon="5.91555">
        <ele>634.2</ele>
        <time>2021-05-29T10:18:39Z</time>
      </trkpt>
      <trkpt lat="43.22725" lon="5.91552">
        <ele>634.2</ele>
        <time>2021-05-29T10:18:40Z</time>
      </trkpt>
      <trkpt lat="43.22725" lon="5.9155">
        <ele>634.4</ele>
        <time>2021-05-29T10:18:41Z</time>
      </trkpt>
      <trkpt lat="43.22727" lon="5.91548">
        <ele>634.6</ele>
        <time>2021-05-29T10:18:42Z</time>
      </trkpt>
      <trkpt lat="43.22728" lon="5.91544">
        <ele>634.8</ele>
        <time>2021-05-29T10:18:44Z</time>
      </trkpt>
      <trkpt lat="43.22728" lon="5.91544">
        <ele>635</ele>
        <time>2021-05-29T10:18:45Z</time>
      </trkpt>
      <trkpt lat="43.2273" lon="5.9154">
        <ele>635</ele>
        <time>2021-05-29T10:18:46Z</time>
      </trkpt>
      <trkpt lat="43.22736" lon="5.91526">
        <ele>635.8</ele>
        <time>2021-05-29T10:18:53Z</time>
      </trkpt>
      <trkpt lat="43.2274" lon="5.91521">
        <ele>636</ele>
        <time>2021-05-29T10:18:56Z</time>
      </trkpt>
      <trkpt lat="43.22751" lon="5.9151">
        <ele>636.6</ele>
        <time>2021-05-29T10:19:03Z</time>
      </trkpt>
      <trkpt lat="43.22758" lon="5.91503">
        <ele>637</ele>
        <time>2021-05-29T10:19:08Z</time>
      </trkpt>
      <trkpt lat="43.22764" lon="5.91499">
        <ele>637.6</ele>
        <time>2021-05-29T10:19:13Z</time>
      </trkpt>
      <trkpt lat="43.22771" lon="5.91494">
        <ele>638</ele>
        <time>2021-05-29T10:19:16Z</time>
      </trkpt>
      <trkpt lat="43.2278" lon="5.91486">
        <ele>638.6</ele>
        <time>2021-05-29T10:19:22Z</time>
      </trkpt>
      <trkpt lat="43.22784" lon="5.91481">
        <ele>639.2</ele>
        <time>2021-05-29T10:19:25Z</time>
      </trkpt>
      <trkpt lat="43.22791" lon="5.91473">
        <ele>639.6</ele>
        <time>2021-05-29T10:19:30Z</time>
      </trkpt>
      <trkpt lat="43.22801" lon="5.91459">
        <ele>640.2</ele>
        <time>2021-05-29T10:19:37Z</time>
      </trkpt>
      <trkpt lat="43.22804" lon="5.91456">
        <ele>640.4</ele>
        <time>2021-05-29T10:19:39Z</time>
      </trkpt>
      <trkpt lat="43.22812" lon="5.91442">
        <ele>641.4</ele>
        <time>2021-05-29T10:19:47Z</time>
      </trkpt>
      <trkpt lat="43.2282" lon="5.91427">
        <ele>642.4</ele>
        <time>2021-05-29T10:19:55Z</time>
      </trkpt>
      <trkpt lat="43.22822" lon="5.91425">
        <ele>642.6</ele>
        <time>2021-05-29T10:19:56Z</time>
      </trkpt>
      <trkpt lat="43.22831" lon="5.9141">
        <ele>643.4</ele>
        <time>2021-05-29T10:20:04Z</time>
      </trkpt>
      <trkpt lat="43.22834" lon="5.91406">
        <ele>643.6</ele>
        <time>2021-05-29T10:20:06Z</time>
      </trkpt>
      <trkpt lat="43.22843" lon="5.91393">
        <ele>644.4</ele>
        <time>2021-05-29T10:20:13Z</time>
      </trkpt>
      <trkpt lat="43.22845" lon="5.9139">
        <ele>644.8</ele>
        <time>2021-05-29T10:20:15Z</time>
      </trkpt>
      <trkpt lat="43.22849" lon="5.91386">
        <ele>645</ele>
        <time>2021-05-29T10:20:18Z</time>
      </trkpt>
      <trkpt lat="43.22855" lon="5.9138">
        <ele>645.4</ele>
        <time>2021-05-29T10:20:22Z</time>
      </trkpt>
      <trkpt lat="43.22861" lon="5.91375">
        <ele>645.6</ele>
        <time>2021-05-29T10:20:26Z</time>
      </trkpt>
      <trkpt lat="43.22869" lon="5.91369">
        <ele>646.4</ele>
        <time>2021-05-29T10:20:31Z</time>
      </trkpt>
      <trkpt lat="43.22875" lon="5.91365">
        <ele>646.8</ele>
        <time>2021-05-29T10:20:35Z</time>
      </trkpt>
      <trkpt lat="43.22883" lon="5.91359">
        <ele>647.4</ele>
        <time>2021-05-29T10:20:41Z</time>
      </trkpt>
      <trkpt lat="43.2289" lon="5.91356">
        <ele>648</ele>
        <time>2021-05-29T10:20:45Z</time>
      </trkpt>
      <trkpt lat="43.22899" lon="5.9135">
        <ele>649</ele>
        <time>2021-05-29T10:20:51Z</time>
      </trkpt>
      <trkpt lat="43.22901" lon="5.91349">
        <ele>649</ele>
        <time>2021-05-29T10:20:52Z</time>
      </trkpt>
      <trkpt lat="43.2291" lon="5.91343">
        <ele>649.6</ele>
        <time>2021-05-29T10:20:58Z</time>
      </trkpt>
      <trkpt lat="43.22913" lon="5.91341">
        <ele>649.6</ele>
        <time>2021-05-29T10:21:00Z</time>
      </trkpt>
      <trkpt lat="43.22921" lon="5.91334">
        <ele>650</ele>
        <time>2021-05-29T10:21:05Z</time>
      </trkpt>
      <trkpt lat="43.22925" lon="5.91332">
        <ele>650.4</ele>
        <time>2021-05-29T10:21:08Z</time>
      </trkpt>
      <trkpt lat="43.2294" lon="5.9132">
        <ele>651.2</ele>
        <time>2021-05-29T10:21:17Z</time>
      </trkpt>
      <trkpt lat="43.22941" lon="5.91319">
        <ele>651.2</ele>
        <time>2021-05-29T10:21:18Z</time>
      </trkpt>
      <trkpt lat="43.22948" lon="5.91312">
        <ele>651.8</ele>
        <time>2021-05-29T10:21:22Z</time>
      </trkpt>
      <trkpt lat="43.22952" lon="5.91306">
        <ele>652.2</ele>
        <time>2021-05-29T10:21:25Z</time>
      </trkpt>
      <trkpt lat="43.22955" lon="5.91302">
        <ele>652.4</ele>
        <time>2021-05-29T10:21:27Z</time>
      </trkpt>
      <trkpt lat="43.22962" lon="5.91295">
        <ele>652.6</ele>
        <time>2021-05-29T10:21:32Z</time>
      </trkpt>
      <trkpt lat="43.22972" lon="5.91282">
        <ele>653.4</ele>
        <time>2021-05-29T10:21:39Z</time>
      </trkpt>
      <trkpt lat="43.22974" lon="5.91279">
        <ele>653.4</ele>
        <time>2021-05-29T10:21:41Z</time>
      </trkpt>
      <trkpt lat="43.2298" lon="5.91271">
        <ele>654</ele>
        <time>2021-05-29T10:21:45Z</time>
      </trkpt>
      <trkpt lat="43.22982" lon="5.91267">
        <ele>654.8</ele>
        <time>2021-05-29T10:21:47Z</time>
      </trkpt>
      <trkpt lat="43.22983" lon="5.91266">
        <ele>654.8</ele>
        <time>2021-05-29T10:21:48Z</time>
      </trkpt>
      <trkpt lat="43.22985" lon="5.91261">
        <ele>655</ele>
        <time>2021-05-29T10:21:50Z</time>
      </trkpt>
      <trkpt lat="43.22988" lon="5.91257">
        <ele>655</ele>
        <time>2021-05-29T10:21:52Z</time>
      </trkpt>
      <trkpt lat="43.22992" lon="5.91248">
        <ele>655.2</ele>
        <time>2021-05-29T10:21:56Z</time>
      </trkpt>
      <trkpt lat="43.22998" lon="5.91238">
        <ele>655.8</ele>
        <time>2021-05-29T10:22:01Z</time>
      </trkpt>
      <trkpt lat="43.23001" lon="5.91231">
        <ele>655.8</ele>
        <time>2021-05-29T10:22:04Z</time>
      </trkpt>
      <trkpt lat="43.23005" lon="5.91221">
        <ele>656.2</ele>
        <time>2021-05-29T10:22:09Z</time>
      </trkpt>
      <trkpt lat="43.23006" lon="5.9122">
        <ele>656.2</ele>
        <time>2021-05-29T10:22:10Z</time>
      </trkpt>
      <trkpt lat="43.23007" lon="5.91218">
        <ele>656.2</ele>
        <time>2021-05-29T10:22:11Z</time>
      </trkpt>
      <trkpt lat="43.2301" lon="5.91208">
        <ele>656.6</ele>
        <time>2021-05-29T10:22:16Z</time>
      </trkpt>
      <trkpt lat="43.23012" lon="5.91204">
        <ele>656.8</ele>
        <time>2021-05-29T10:22:18Z</time>
      </trkpt>
      <trkpt lat="43.23019" lon="5.91187">
        <ele>657.8</ele>
        <time>2021-05-29T10:22:26Z</time>
      </trkpt>
      <trkpt lat="43.23028" lon="5.91174">
        <ele>658.4</ele>
        <time>2021-05-29T10:22:33Z</time>
      </trkpt>
      <trkpt lat="43.23031" lon="5.91168">
        <ele>658.6</ele>
        <time>2021-05-29T10:22:36Z</time>
      </trkpt>
      <trkpt lat="43.23032" lon="5.91167">
        <ele>658.6</ele>
        <time>2021-05-29T10:22:37Z</time>
      </trkpt>
      <trkpt lat="43.23033" lon="5.91166">
        <ele>658.8</ele>
        <time>2021-05-29T10:22:38Z</time>
      </trkpt>
      <trkpt lat="43.23039" lon="5.91159">
        <ele>659.2</ele>
        <time>2021-05-29T10:22:42Z</time>
      </trkpt>
      <trkpt lat="43.2304" lon="5.91158">
        <ele>659.4</ele>
        <time>2021-05-29T10:22:43Z</time>
      </trkpt>
      <trkpt lat="43.23042" lon="5.91156">
        <ele>659.4</ele>
        <time>2021-05-29T10:22:44Z</time>
      </trkpt>
      <trkpt lat="43.23043" lon="5.91154">
        <ele>659.4</ele>
        <time>2021-05-29T10:22:45Z</time>
      </trkpt>
      <trkpt lat="43.23045" lon="5.91153">
        <ele>659.6</ele>
        <time>2021-05-29T10:22:46Z</time>
      </trkpt>
      <trkpt lat="43.23046" lon="5.91152">
        <ele>659.6</ele>
        <time>2021-05-29T10:22:47Z</time>
      </trkpt>
      <trkpt lat="43.2305" lon="5.9115">
        <ele>659.6</ele>
        <time>2021-05-29T10:22:49Z</time>
      </trkpt>
      <trkpt lat="43.23051" lon="5.91148">
        <ele>659.8</ele>
        <time>2021-05-29T10:22:50Z</time>
      </trkpt>
      <trkpt lat="43.23053" lon="5.91147">
        <ele>659.8</ele>
        <time>2021-05-29T10:22:51Z</time>
      </trkpt>
      <trkpt lat="43.23056" lon="5.91144">
        <ele>660</ele>
        <time>2021-05-29T10:22:53Z</time>
      </trkpt>
      <trkpt lat="43.23059" lon="5.91141">
        <ele>660.4</ele>
        <time>2021-05-29T10:22:55Z</time>
      </trkpt>
      <trkpt lat="43.23065" lon="5.91136">
        <ele>661</ele>
        <time>2021-05-29T10:22:59Z</time>
      </trkpt>
      <trkpt lat="43.2307" lon="5.91132">
        <ele>661.2</ele>
        <time>2021-05-29T10:23:02Z</time>
      </trkpt>
      <trkpt lat="43.23084" lon="5.91121">
        <ele>662</ele>
        <time>2021-05-29T10:23:11Z</time>
      </trkpt>
      <trkpt lat="43.23086" lon="5.9112">
        <ele>662.2</ele>
        <time>2021-05-29T10:23:12Z</time>
      </trkpt>
      <trkpt lat="43.23097" lon="5.91112">
        <ele>663</ele>
        <time>2021-05-29T10:23:19Z</time>
      </trkpt>
      <trkpt lat="43.23098" lon="5.91111">
        <ele>663</ele>
        <time>2021-05-29T10:23:20Z</time>
      </trkpt>
      <trkpt lat="43.23102" lon="5.91109">
        <ele>663.4</ele>
        <time>2021-05-29T10:23:22Z</time>
      </trkpt>
      <trkpt lat="43.23112" lon="5.91103">
        <ele>664</ele>
        <time>2021-05-29T10:23:28Z</time>
      </trkpt>
      <trkpt lat="43.23115" lon="5.91101">
        <ele>664.4</ele>
        <time>2021-05-29T10:23:30Z</time>
      </trkpt>
      <trkpt lat="43.23126" lon="5.9109">
        <ele>665.2</ele>
        <time>2021-05-29T10:23:37Z</time>
      </trkpt>
      <trkpt lat="43.23127" lon="5.91088">
        <ele>665.4</ele>
        <time>2021-05-29T10:23:38Z</time>
      </trkpt>
      <trkpt lat="43.23144" lon="5.91067">
        <ele>666.4</ele>
        <time>2021-05-29T10:23:49Z</time>
      </trkpt>
      <trkpt lat="43.23146" lon="5.91065">
        <ele>666.6</ele>
        <time>2021-05-29T10:23:50Z</time>
      </trkpt>
      <trkpt lat="43.23147" lon="5.91063">
        <ele>666.6</ele>
        <time>2021-05-29T10:23:51Z</time>
      </trkpt>
      <trkpt lat="43.23154" lon="5.91046">
        <ele>667.2</ele>
        <time>2021-05-29T10:23:58Z</time>
      </trkpt>
      <trkpt lat="43.23159" lon="5.91036">
        <ele>667.4</ele>
        <time>2021-05-29T10:24:02Z</time>
      </trkpt>
      <trkpt lat="43.23164" lon="5.91024">
        <ele>667.6</ele>
        <time>2021-05-29T10:24:07Z</time>
      </trkpt>
      <trkpt lat="43.23166" lon="5.9102">
        <ele>667.8</ele>
        <time>2021-05-29T10:24:09Z</time>
      </trkpt>
      <trkpt lat="43.23172" lon="5.91011">
        <ele>668.2</ele>
        <time>2021-05-29T10:24:13Z</time>
      </trkpt>
      <trkpt lat="43.23174" lon="5.91007">
        <ele>668.4</ele>
        <time>2021-05-29T10:24:15Z</time>
      </trkpt>
      <trkpt lat="43.23175" lon="5.91003">
        <ele>668.6</ele>
        <time>2021-05-29T10:24:16Z</time>
      </trkpt>
      <trkpt lat="43.23178" lon="5.90999">
        <ele>668.6</ele>
        <time>2021-05-29T10:24:18Z</time>
      </trkpt>
      <trkpt lat="43.2318" lon="5.90995">
        <ele>668.8</ele>
        <time>2021-05-29T10:24:20Z</time>
      </trkpt>
      <trkpt lat="43.23183" lon="5.9099">
        <ele>668.8</ele>
        <time>2021-05-29T10:24:22Z</time>
      </trkpt>
      <trkpt lat="43.23184" lon="5.90987">
        <ele>669</ele>
        <time>2021-05-29T10:24:23Z</time>
      </trkpt>
      <trkpt lat="43.23195" lon="5.90971">
        <ele>669.6</ele>
        <time>2021-05-29T10:24:30Z</time>
      </trkpt>
      <trkpt lat="43.23198" lon="5.90967">
        <ele>669.8</ele>
        <time>2021-05-29T10:24:32Z</time>
      </trkpt>
      <trkpt lat="43.23209" lon="5.9095">
        <ele>670.2</ele>
        <time>2021-05-29T10:24:40Z</time>
      </trkpt>
      <trkpt lat="43.23214" lon="5.90945">
        <ele>670.6</ele>
        <time>2021-05-29T10:24:43Z</time>
      </trkpt>
      <trkpt lat="43.2322" lon="5.90939">
        <ele>671.2</ele>
        <time>2021-05-29T10:24:47Z</time>
      </trkpt>
      <trkpt lat="43.23234" lon="5.90935">
        <ele>671.6</ele>
        <time>2021-05-29T10:24:54Z</time>
      </trkpt>
      <trkpt lat="43.23238" lon="5.90934">
        <ele>671.8</ele>
        <time>2021-05-29T10:24:56Z</time>
      </trkpt>
      <trkpt lat="43.2325" lon="5.90931">
        <ele>672.4</ele>
        <time>2021-05-29T10:25:03Z</time>
      </trkpt>
      <trkpt lat="43.23261" lon="5.9092">
        <ele>672.8</ele>
        <time>2021-05-29T10:25:09Z</time>
      </trkpt>
      <trkpt lat="43.23263" lon="5.90918">
        <ele>673</ele>
        <time>2021-05-29T10:25:10Z</time>
      </trkpt>
      <trkpt lat="43.23273" lon="5.90908">
        <ele>674</ele>
        <time>2021-05-29T10:25:15Z</time>
      </trkpt>
      <trkpt lat="43.23277" lon="5.90902">
        <ele>674.2</ele>
        <time>2021-05-29T10:25:17Z</time>
      </trkpt>
      <trkpt lat="43.23287" lon="5.90889">
        <ele>675.2</ele>
        <time>2021-05-29T10:25:23Z</time>
      </trkpt>
      <trkpt lat="43.2329" lon="5.90884">
        <ele>675.4</ele>
        <time>2021-05-29T10:25:25Z</time>
      </trkpt>
      <trkpt lat="43.23302" lon="5.90865">
        <ele>676.2</ele>
        <time>2021-05-29T10:25:33Z</time>
      </trkpt>
      <trkpt lat="43.23304" lon="5.90862">
        <ele>676.4</ele>
        <time>2021-05-29T10:25:34Z</time>
      </trkpt>
      <trkpt lat="43.23311" lon="5.90851">
        <ele>677</ele>
        <time>2021-05-29T10:25:39Z</time>
      </trkpt>
      <trkpt lat="43.23313" lon="5.90848">
        <ele>677.2</ele>
        <time>2021-05-29T10:25:40Z</time>
      </trkpt>
      <trkpt lat="43.23315" lon="5.90845">
        <ele>677.4</ele>
        <time>2021-05-29T10:25:42Z</time>
      </trkpt>
      <trkpt lat="43.23318" lon="5.90841">
        <ele>677.4</ele>
        <time>2021-05-29T10:25:44Z</time>
      </trkpt>
      <trkpt lat="43.23321" lon="5.90837">
        <ele>677.6</ele>
        <time>2021-05-29T10:25:46Z</time>
      </trkpt>
      <trkpt lat="43.23326" lon="5.90829">
        <ele>677.8</ele>
        <time>2021-05-29T10:25:49Z</time>
      </trkpt>
      <trkpt lat="43.23329" lon="5.90825">
        <ele>678</ele>
        <time>2021-05-29T10:25:51Z</time>
      </trkpt>
      <trkpt lat="43.23333" lon="5.9082">
        <ele>678</ele>
        <time>2021-05-29T10:25:53Z</time>
      </trkpt>
      <trkpt lat="43.23336" lon="5.90814">
        <ele>678.2</ele>
        <time>2021-05-29T10:25:55Z</time>
      </trkpt>
      <trkpt lat="43.2334" lon="5.90809">
        <ele>678.2</ele>
        <time>2021-05-29T10:25:57Z</time>
      </trkpt>
      <trkpt lat="43.23342" lon="5.90806">
        <ele>678.2</ele>
        <time>2021-05-29T10:25:58Z</time>
      </trkpt>
      <trkpt lat="43.23348" lon="5.90798">
        <ele>678.6</ele>
        <time>2021-05-29T10:26:01Z</time>
      </trkpt>
      <trkpt lat="43.23358" lon="5.9078">
        <ele>678.8</ele>
        <time>2021-05-29T10:26:07Z</time>
      </trkpt>
      <trkpt lat="43.2336" lon="5.90778">
        <ele>678.8</ele>
        <time>2021-05-29T10:26:08Z</time>
      </trkpt>
      <trkpt lat="43.23364" lon="5.90773">
        <ele>679</ele>
        <time>2021-05-29T10:26:10Z</time>
      </trkpt>
      <trkpt lat="43.23369" lon="5.90765">
        <ele>679.2</ele>
        <time>2021-05-29T10:26:13Z</time>
      </trkpt>
      <trkpt lat="43.23373" lon="5.90759">
        <ele>679.4</ele>
        <time>2021-05-29T10:26:15Z</time>
      </trkpt>
      <trkpt lat="43.23377" lon="5.90753">
        <ele>679.6</ele>
        <time>2021-05-29T10:26:17Z</time>
      </trkpt>
      <trkpt lat="43.23385" lon="5.90741">
        <ele>680</ele>
        <time>2021-05-29T10:26:21Z</time>
      </trkpt>
      <trkpt lat="43.23387" lon="5.90739">
        <ele>680</ele>
        <time>2021-05-29T10:26:22Z</time>
      </trkpt>
      <trkpt lat="43.23391" lon="5.90732">
        <ele>680.2</ele>
        <time>2021-05-29T10:26:24Z</time>
      </trkpt>
      <trkpt lat="43.23393" lon="5.90729">
        <ele>680.2</ele>
        <time>2021-05-29T10:26:25Z</time>
      </trkpt>
      <trkpt lat="43.23394" lon="5.90726">
        <ele>680.4</ele>
        <time>2021-05-29T10:26:26Z</time>
      </trkpt>
      <trkpt lat="43.23403" lon="5.90706">
        <ele>681</ele>
        <time>2021-05-29T10:26:31Z</time>
      </trkpt>
      <trkpt lat="43.23405" lon="5.90703">
        <ele>681</ele>
        <time>2021-05-29T10:26:32Z</time>
      </trkpt>
      <trkpt lat="43.23415" lon="5.90672">
        <ele>681.2</ele>
        <time>2021-05-29T10:26:38Z</time>
      </trkpt>
      <trkpt lat="43.23416" lon="5.90667">
        <ele>681.2</ele>
        <time>2021-05-29T10:26:39Z</time>
      </trkpt>
      <trkpt lat="43.23417" lon="5.90662">
        <ele>681.2</ele>
        <time>2021-05-29T10:26:40Z</time>
      </trkpt>
      <trkpt lat="43.23421" lon="5.90648">
        <ele>681.4</ele>
        <time>2021-05-29T10:26:43Z</time>
      </trkpt>
      <trkpt lat="43.23424" lon="5.90634">
        <ele>681.4</ele>
        <time>2021-05-29T10:26:46Z</time>
      </trkpt>
      <trkpt lat="43.2343" lon="5.90616">
        <ele>681.4</ele>
        <time>2021-05-29T10:26:49Z</time>
      </trkpt>
      <trkpt lat="43.23432" lon="5.90602">
        <ele>681.2</ele>
        <time>2021-05-29T10:26:51Z</time>
      </trkpt>
      <trkpt lat="43.23438" lon="5.90568">
        <ele>680.2</ele>
        <time>2021-05-29T10:26:55Z</time>
      </trkpt>
      <trkpt lat="43.23438" lon="5.90556">
        <ele>680</ele>
        <time>2021-05-29T10:26:56Z</time>
      </trkpt>
      <trkpt lat="43.23436" lon="5.90546">
        <ele>679.6</ele>
        <time>2021-05-29T10:26:57Z</time>
      </trkpt>
      <trkpt lat="43.2343" lon="5.90529">
        <ele>679.2</ele>
        <time>2021-05-29T10:26:59Z</time>
      </trkpt>
      <trkpt lat="43.23419" lon="5.9051">
        <ele>678</ele>
        <time>2021-05-29T10:27:01Z</time>
      </trkpt>
      <trkpt lat="43.23409" lon="5.90491">
        <ele>677</ele>
        <time>2021-05-29T10:27:03Z</time>
      </trkpt>
      <trkpt lat="43.23404" lon="5.9048">
        <ele>676.2</ele>
        <time>2021-05-29T10:27:04Z</time>
      </trkpt>
      <trkpt lat="43.234" lon="5.90469">
        <ele>675.2</ele>
        <time>2021-05-29T10:27:05Z</time>
      </trkpt>
      <trkpt lat="43.23396" lon="5.90457">
        <ele>674.4</ele>
        <time>2021-05-29T10:27:06Z</time>
      </trkpt>
      <trkpt lat="43.23394" lon="5.90444">
        <ele>673.2</ele>
        <time>2021-05-29T10:27:07Z</time>
      </trkpt>
      <trkpt lat="43.23391" lon="5.9043">
        <ele>672.8</ele>
        <time>2021-05-29T10:27:08Z</time>
      </trkpt>
      <trkpt lat="43.23388" lon="5.90412">
        <ele>671.6</ele>
        <time>2021-05-29T10:27:09Z</time>
      </trkpt>
      <trkpt lat="43.23386" lon="5.90397">
        <ele>670.6</ele>
        <time>2021-05-29T10:27:10Z</time>
      </trkpt>
      <trkpt lat="43.23381" lon="5.90365">
        <ele>668.8</ele>
        <time>2021-05-29T10:27:12Z</time>
      </trkpt>
      <trkpt lat="43.23375" lon="5.90336">
        <ele>666.8</ele>
        <time>2021-05-29T10:27:14Z</time>
      </trkpt>
      <trkpt lat="43.23369" lon="5.90301">
        <ele>665.6</ele>
        <time>2021-05-29T10:27:16Z</time>
      </trkpt>
      <trkpt lat="43.23366" lon="5.90286">
        <ele>664.4</ele>
        <time>2021-05-29T10:27:17Z</time>
      </trkpt>
      <trkpt lat="43.23362" lon="5.90257">
        <ele>662.6</ele>
        <time>2021-05-29T10:27:19Z</time>
      </trkpt>
      <trkpt lat="43.23359" lon="5.90243">
        <ele>662.2</ele>
        <time>2021-05-29T10:27:20Z</time>
      </trkpt>
      <trkpt lat="43.23356" lon="5.9023">
        <ele>661.4</ele>
        <time>2021-05-29T10:27:21Z</time>
      </trkpt>
      <trkpt lat="43.23354" lon="5.90215">
        <ele>660.2</ele>
        <time>2021-05-29T10:27:22Z</time>
      </trkpt>
      <trkpt lat="43.23352" lon="5.90192">
        <ele>658.2</ele>
        <time>2021-05-29T10:27:24Z</time>
      </trkpt>
      <trkpt lat="43.23352" lon="5.90176">
        <ele>657.6</ele>
        <time>2021-05-29T10:27:25Z</time>
      </trkpt>
      <trkpt lat="43.23353" lon="5.90163">
        <ele>656.4</ele>
        <time>2021-05-29T10:27:26Z</time>
      </trkpt>
      <trkpt lat="43.23357" lon="5.90138">
        <ele>655.2</ele>
        <time>2021-05-29T10:27:28Z</time>
      </trkpt>
      <trkpt lat="43.23362" lon="5.90114">
        <ele>654.2</ele>
        <time>2021-05-29T10:27:30Z</time>
      </trkpt>
      <trkpt lat="43.23366" lon="5.90104">
        <ele>652.8</ele>
        <time>2021-05-29T10:27:31Z</time>
      </trkpt>
      <trkpt lat="43.23372" lon="5.90095">
        <ele>652.2</ele>
        <time>2021-05-29T10:27:32Z</time>
      </trkpt>
      <trkpt lat="43.23379" lon="5.90088">
        <ele>651.4</ele>
        <time>2021-05-29T10:27:33Z</time>
      </trkpt>
      <trkpt lat="43.23386" lon="5.90082">
        <ele>650.6</ele>
        <time>2021-05-29T10:27:34Z</time>
      </trkpt>
      <trkpt lat="43.23395" lon="5.90077">
        <ele>650.4</ele>
        <time>2021-05-29T10:27:35Z</time>
      </trkpt>
      <trkpt lat="43.23403" lon="5.90073">
        <ele>649.8</ele>
        <time>2021-05-29T10:27:36Z</time>
      </trkpt>
      <trkpt lat="43.23427" lon="5.9006">
        <ele>648.2</ele>
        <time>2021-05-29T10:27:39Z</time>
      </trkpt>
      <trkpt lat="43.23436" lon="5.90052">
        <ele>648</ele>
        <time>2021-05-29T10:27:40Z</time>
      </trkpt>
      <trkpt lat="43.23449" lon="5.90036">
        <ele>647.4</ele>
        <time>2021-05-29T10:27:42Z</time>
      </trkpt>
      <trkpt lat="43.23458" lon="5.90016">
        <ele>647.2</ele>
        <time>2021-05-29T10:27:44Z</time>
      </trkpt>
      <trkpt lat="43.23461" lon="5.90005">
        <ele>647.2</ele>
        <time>2021-05-29T10:27:45Z</time>
      </trkpt>
      <trkpt lat="43.23462" lon="5.89994">
        <ele>646.4</ele>
        <time>2021-05-29T10:27:46Z</time>
      </trkpt>
      <trkpt lat="43.23463" lon="5.89983">
        <ele>646.2</ele>
        <time>2021-05-29T10:27:47Z</time>
      </trkpt>
      <trkpt lat="43.23462" lon="5.89974">
        <ele>645.8</ele>
        <time>2021-05-29T10:27:48Z</time>
      </trkpt>
      <trkpt lat="43.23459" lon="5.89961">
        <ele>645.6</ele>
        <time>2021-05-29T10:27:49Z</time>
      </trkpt>
      <trkpt lat="43.23456" lon="5.89952">
        <ele>644.8</ele>
        <time>2021-05-29T10:27:50Z</time>
      </trkpt>
      <trkpt lat="43.23444" lon="5.8992">
        <ele>643.6</ele>
        <time>2021-05-29T10:27:53Z</time>
      </trkpt>
      <trkpt lat="43.23441" lon="5.89909">
        <ele>643.4</ele>
        <time>2021-05-29T10:27:54Z</time>
      </trkpt>
      <trkpt lat="43.23439" lon="5.89896">
        <ele>643.2</ele>
        <time>2021-05-29T10:27:55Z</time>
      </trkpt>
      <trkpt lat="43.23439" lon="5.89881">
        <ele>643</ele>
        <time>2021-05-29T10:27:56Z</time>
      </trkpt>
      <trkpt lat="43.2344" lon="5.8987">
        <ele>642.6</ele>
        <time>2021-05-29T10:27:57Z</time>
      </trkpt>
      <trkpt lat="43.23442" lon="5.89857">
        <ele>641.8</ele>
        <time>2021-05-29T10:27:58Z</time>
      </trkpt>
      <trkpt lat="43.23444" lon="5.89845">
        <ele>641.4</ele>
        <time>2021-05-29T10:27:59Z</time>
      </trkpt>
      <trkpt lat="43.23449" lon="5.89805">
        <ele>640</ele>
        <time>2021-05-29T10:28:02Z</time>
      </trkpt>
      <trkpt lat="43.23449" lon="5.89792">
        <ele>639.2</ele>
        <time>2021-05-29T10:28:03Z</time>
      </trkpt>
      <trkpt lat="43.2345" lon="5.89776">
        <ele>639</ele>
        <time>2021-05-29T10:28:04Z</time>
      </trkpt>
      <trkpt lat="43.2345" lon="5.89765">
        <ele>638</ele>
        <time>2021-05-29T10:28:05Z</time>
      </trkpt>
      <trkpt lat="43.2345" lon="5.89751">
        <ele>637.8</ele>
        <time>2021-05-29T10:28:06Z</time>
      </trkpt>
      <trkpt lat="43.23449" lon="5.8971">
        <ele>637</ele>
        <time>2021-05-29T10:28:09Z</time>
      </trkpt>
      <trkpt lat="43.23449" lon="5.89698">
        <ele>636.2</ele>
        <time>2021-05-29T10:28:10Z</time>
      </trkpt>
      <trkpt lat="43.23448" lon="5.89687">
        <ele>636</ele>
        <time>2021-05-29T10:28:11Z</time>
      </trkpt>
      <trkpt lat="43.23449" lon="5.89677">
        <ele>635.6</ele>
        <time>2021-05-29T10:28:12Z</time>
      </trkpt>
      <trkpt lat="43.2345" lon="5.89668">
        <ele>635.2</ele>
        <time>2021-05-29T10:28:13Z</time>
      </trkpt>
      <trkpt lat="43.23451" lon="5.8966">
        <ele>634.6</ele>
        <time>2021-05-29T10:28:14Z</time>
      </trkpt>
      <trkpt lat="43.23455" lon="5.89651">
        <ele>633.2</ele>
        <time>2021-05-29T10:28:15Z</time>
      </trkpt>
      <trkpt lat="43.23459" lon="5.89644">
        <ele>632.8</ele>
        <time>2021-05-29T10:28:16Z</time>
      </trkpt>
      <trkpt lat="43.23464" lon="5.89639">
        <ele>632.4</ele>
        <time>2021-05-29T10:28:17Z</time>
      </trkpt>
      <trkpt lat="43.2347" lon="5.8963">
        <ele>631.8</ele>
        <time>2021-05-29T10:28:18Z</time>
      </trkpt>
      <trkpt lat="43.23474" lon="5.89622">
        <ele>630.6</ele>
        <time>2021-05-29T10:28:19Z</time>
      </trkpt>
      <trkpt lat="43.23476" lon="5.89611">
        <ele>630</ele>
        <time>2021-05-29T10:28:20Z</time>
      </trkpt>
      <trkpt lat="43.23479" lon="5.89591">
        <ele>629.2</ele>
        <time>2021-05-29T10:28:22Z</time>
      </trkpt>
      <trkpt lat="43.23482" lon="5.89568">
        <ele>628</ele>
        <time>2021-05-29T10:28:24Z</time>
      </trkpt>
      <trkpt lat="43.23484" lon="5.8956">
        <ele>627.2</ele>
        <time>2021-05-29T10:28:25Z</time>
      </trkpt>
      <trkpt lat="43.23488" lon="5.89552">
        <ele>625.4</ele>
        <time>2021-05-29T10:28:26Z</time>
      </trkpt>
      <trkpt lat="43.23492" lon="5.89547">
        <ele>624.4</ele>
        <time>2021-05-29T10:28:27Z</time>
      </trkpt>
      <trkpt lat="43.23498" lon="5.89542">
        <ele>623.6</ele>
        <time>2021-05-29T10:28:28Z</time>
      </trkpt>
      <trkpt lat="43.23505" lon="5.8954">
        <ele>622.6</ele>
        <time>2021-05-29T10:28:29Z</time>
      </trkpt>
      <trkpt lat="43.23513" lon="5.89542">
        <ele>622</ele>
        <time>2021-05-29T10:28:30Z</time>
      </trkpt>
      <trkpt lat="43.23519" lon="5.89545">
        <ele>621</ele>
        <time>2021-05-29T10:28:31Z</time>
      </trkpt>
      <trkpt lat="43.23525" lon="5.89548">
        <ele>620</ele>
        <time>2021-05-29T10:28:32Z</time>
      </trkpt>
      <trkpt lat="43.23533" lon="5.8955">
        <ele>619.4</ele>
        <time>2021-05-29T10:28:33Z</time>
      </trkpt>
      <trkpt lat="43.23539" lon="5.89547">
        <ele>617.2</ele>
        <time>2021-05-29T10:28:34Z</time>
      </trkpt>
      <trkpt lat="43.23545" lon="5.89541">
        <ele>616.4</ele>
        <time>2021-05-29T10:28:35Z</time>
      </trkpt>
      <trkpt lat="43.23548" lon="5.89533">
        <ele>615.6</ele>
        <time>2021-05-29T10:28:36Z</time>
      </trkpt>
      <trkpt lat="43.23553" lon="5.89523">
        <ele>615.2</ele>
        <time>2021-05-29T10:28:37Z</time>
      </trkpt>
      <trkpt lat="43.23558" lon="5.89511">
        <ele>614.6</ele>
        <time>2021-05-29T10:28:38Z</time>
      </trkpt>
      <trkpt lat="43.23574" lon="5.89486">
        <ele>612.8</ele>
        <time>2021-05-29T10:28:41Z</time>
      </trkpt>
      <trkpt lat="43.23582" lon="5.89478">
        <ele>612.4</ele>
        <time>2021-05-29T10:28:42Z</time>
      </trkpt>
      <trkpt lat="43.23591" lon="5.89473">
        <ele>610.6</ele>
        <time>2021-05-29T10:28:43Z</time>
      </trkpt>
      <trkpt lat="43.236" lon="5.89471">
        <ele>609.4</ele>
        <time>2021-05-29T10:28:44Z</time>
      </trkpt>
      <trkpt lat="43.23609" lon="5.89471">
        <ele>609.2</ele>
        <time>2021-05-29T10:28:45Z</time>
      </trkpt>
      <trkpt lat="43.23619" lon="5.89472">
        <ele>608.2</ele>
        <time>2021-05-29T10:28:46Z</time>
      </trkpt>
      <trkpt lat="43.23628" lon="5.89473">
        <ele>608</ele>
        <time>2021-05-29T10:28:47Z</time>
      </trkpt>
      <trkpt lat="43.23638" lon="5.89472">
        <ele>606.8</ele>
        <time>2021-05-29T10:28:48Z</time>
      </trkpt>
      <trkpt lat="43.23647" lon="5.89469">
        <ele>605.8</ele>
        <time>2021-05-29T10:28:49Z</time>
      </trkpt>
      <trkpt lat="43.23655" lon="5.89466">
        <ele>605.2</ele>
        <time>2021-05-29T10:28:50Z</time>
      </trkpt>
      <trkpt lat="43.23679" lon="5.89454">
        <ele>604</ele>
        <time>2021-05-29T10:28:53Z</time>
      </trkpt>
      <trkpt lat="43.23685" lon="5.8945">
        <ele>603.8</ele>
        <time>2021-05-29T10:28:54Z</time>
      </trkpt>
      <trkpt lat="43.23696" lon="5.8944">
        <ele>603.8</ele>
        <time>2021-05-29T10:28:56Z</time>
      </trkpt>
      <trkpt lat="43.23703" lon="5.8943">
        <ele>603.8</ele>
        <time>2021-05-29T10:28:58Z</time>
      </trkpt>
      <trkpt lat="43.23706" lon="5.89424">
        <ele>603.8</ele>
        <time>2021-05-29T10:28:59Z</time>
      </trkpt>
      <trkpt lat="43.2371" lon="5.89412">
        <ele>603.8</ele>
        <time>2021-05-29T10:29:01Z</time>
      </trkpt>
      <trkpt lat="43.23711" lon="5.89408">
        <ele>603.8</ele>
        <time>2021-05-29T10:29:02Z</time>
      </trkpt>
      <trkpt lat="43.23715" lon="5.89393">
        <ele>604</ele>
        <time>2021-05-29T10:29:05Z</time>
      </trkpt>
      <trkpt lat="43.2372" lon="5.89379">
        <ele>604.4</ele>
        <time>2021-05-29T10:29:08Z</time>
      </trkpt>
      <trkpt lat="43.23724" lon="5.89359">
        <ele>604.8</ele>
        <time>2021-05-29T10:29:12Z</time>
      </trkpt>
      <trkpt lat="43.23726" lon="5.8935">
        <ele>605</ele>
        <time>2021-05-29T10:29:14Z</time>
      </trkpt>
      <trkpt lat="43.23727" lon="5.89345">
        <ele>605.4</ele>
        <time>2021-05-29T10:29:15Z</time>
      </trkpt>
      <trkpt lat="43.23729" lon="5.8934">
        <ele>605.4</ele>
        <time>2021-05-29T10:29:16Z</time>
      </trkpt>
      <trkpt lat="43.2373" lon="5.89336">
        <ele>605.6</ele>
        <time>2021-05-29T10:29:17Z</time>
      </trkpt>
      <trkpt lat="43.23731" lon="5.89328">
        <ele>605.8</ele>
        <time>2021-05-29T10:29:19Z</time>
      </trkpt>
      <trkpt lat="43.23732" lon="5.89322">
        <ele>606</ele>
        <time>2021-05-29T10:29:20Z</time>
      </trkpt>
      <trkpt lat="43.23733" lon="5.89317">
        <ele>606</ele>
        <time>2021-05-29T10:29:21Z</time>
      </trkpt>
      <trkpt lat="43.23733" lon="5.89312">
        <ele>606.2</ele>
        <time>2021-05-29T10:29:22Z</time>
      </trkpt>
      <trkpt lat="43.23733" lon="5.89308">
        <ele>606.2</ele>
        <time>2021-05-29T10:29:23Z</time>
      </trkpt>
      <trkpt lat="43.23734" lon="5.89297">
        <ele>606.4</ele>
        <time>2021-05-29T10:29:25Z</time>
      </trkpt>
      <trkpt lat="43.23735" lon="5.89292">
        <ele>606.4</ele>
        <time>2021-05-29T10:29:26Z</time>
      </trkpt>
      <trkpt lat="43.23735" lon="5.89286">
        <ele>606.6</ele>
        <time>2021-05-29T10:29:27Z</time>
      </trkpt>
      <trkpt lat="43.23735" lon="5.8928">
        <ele>606.6</ele>
        <time>2021-05-29T10:29:28Z</time>
      </trkpt>
      <trkpt lat="43.23736" lon="5.89268">
        <ele>606.6</ele>
        <time>2021-05-29T10:29:30Z</time>
      </trkpt>
      <trkpt lat="43.23734" lon="5.89249">
        <ele>606.8</ele>
        <time>2021-05-29T10:29:33Z</time>
      </trkpt>
      <trkpt lat="43.23733" lon="5.8923">
        <ele>606.8</ele>
        <time>2021-05-29T10:29:36Z</time>
      </trkpt>
      <trkpt lat="43.23732" lon="5.89201">
        <ele>606.6</ele>
        <time>2021-05-29T10:29:41Z</time>
      </trkpt>
      <trkpt lat="43.23732" lon="5.89195">
        <ele>606.6</ele>
        <time>2021-05-29T10:29:42Z</time>
      </trkpt>
      <trkpt lat="43.23731" lon="5.89139">
        <ele>606</ele>
        <time>2021-05-29T10:29:50Z</time>
      </trkpt>
      <trkpt lat="43.23732" lon="5.89107">
        <ele>605.8</ele>
        <time>2021-05-29T10:29:54Z</time>
      </trkpt>
      <trkpt lat="43.23732" lon="5.89098">
        <ele>605.6</ele>
        <time>2021-05-29T10:29:55Z</time>
      </trkpt>
      <trkpt lat="43.23732" lon="5.89081">
        <ele>605.4</ele>
        <time>2021-05-29T10:29:57Z</time>
      </trkpt>
      <trkpt lat="43.23731" lon="5.89072">
        <ele>605</ele>
        <time>2021-05-29T10:29:58Z</time>
      </trkpt>
      <trkpt lat="43.23728" lon="5.89053">
        <ele>604.4</ele>
        <time>2021-05-29T10:30:00Z</time>
      </trkpt>
      <trkpt lat="43.23726" lon="5.89044">
        <ele>603.8</ele>
        <time>2021-05-29T10:30:01Z</time>
      </trkpt>
      <trkpt lat="43.2372" lon="5.89014">
        <ele>603.2</ele>
        <time>2021-05-29T10:30:04Z</time>
      </trkpt>
      <trkpt lat="43.23718" lon="5.89003">
        <ele>603</ele>
        <time>2021-05-29T10:30:05Z</time>
      </trkpt>
      <trkpt lat="43.23718" lon="5.88992">
        <ele>602.8</ele>
        <time>2021-05-29T10:30:06Z</time>
      </trkpt>
      <trkpt lat="43.23719" lon="5.88971">
        <ele>602.4</ele>
        <time>2021-05-29T10:30:08Z</time>
      </trkpt>
      <trkpt lat="43.2372" lon="5.8896">
        <ele>602</ele>
        <time>2021-05-29T10:30:09Z</time>
      </trkpt>
      <trkpt lat="43.23726" lon="5.88931">
        <ele>601.2</ele>
        <time>2021-05-29T10:30:12Z</time>
      </trkpt>
      <trkpt lat="43.23729" lon="5.88922">
        <ele>600.8</ele>
        <time>2021-05-29T10:30:13Z</time>
      </trkpt>
      <trkpt lat="43.23732" lon="5.88913">
        <ele>600.6</ele>
        <time>2021-05-29T10:30:14Z</time>
      </trkpt>
      <trkpt lat="43.23738" lon="5.889">
        <ele>600.2</ele>
        <time>2021-05-29T10:30:16Z</time>
      </trkpt>
      <trkpt lat="43.23743" lon="5.88892">
        <ele>600.2</ele>
        <time>2021-05-29T10:30:17Z</time>
      </trkpt>
      <trkpt lat="43.23769" lon="5.88858">
        <ele>600.2</ele>
        <time>2021-05-29T10:30:23Z</time>
      </trkpt>
      <trkpt lat="43.23788" lon="5.88836">
        <ele>600.6</ele>
        <time>2021-05-29T10:30:28Z</time>
      </trkpt>
      <trkpt lat="43.238" lon="5.88821">
        <ele>600.8</ele>
        <time>2021-05-29T10:30:31Z</time>
      </trkpt>
      <trkpt lat="43.23808" lon="5.88811">
        <ele>601.2</ele>
        <time>2021-05-29T10:30:33Z</time>
      </trkpt>
      <trkpt lat="43.23816" lon="5.88802">
        <ele>601.2</ele>
        <time>2021-05-29T10:30:35Z</time>
      </trkpt>
      <trkpt lat="43.2384" lon="5.88768">
        <ele>601</ele>
        <time>2021-05-29T10:30:42Z</time>
      </trkpt>
      <trkpt lat="43.23861" lon="5.88728">
        <ele>600.6</ele>
        <time>2021-05-29T10:30:49Z</time>
      </trkpt>
      <trkpt lat="43.23876" lon="5.8869">
        <ele>600</ele>
        <time>2021-05-29T10:30:55Z</time>
      </trkpt>
      <trkpt lat="43.23879" lon="5.88683">
        <ele>599.8</ele>
        <time>2021-05-29T10:30:56Z</time>
      </trkpt>
      <trkpt lat="43.23883" lon="5.8867">
        <ele>599.4</ele>
        <time>2021-05-29T10:30:58Z</time>
      </trkpt>
      <trkpt lat="43.23885" lon="5.88662">
        <ele>599.2</ele>
        <time>2021-05-29T10:30:59Z</time>
      </trkpt>
      <trkpt lat="43.23886" lon="5.88655">
        <ele>599</ele>
        <time>2021-05-29T10:31:00Z</time>
      </trkpt>
      <trkpt lat="43.23888" lon="5.8864">
        <ele>598.8</ele>
        <time>2021-05-29T10:31:02Z</time>
      </trkpt>
      <trkpt lat="43.23891" lon="5.88626">
        <ele>598.8</ele>
        <time>2021-05-29T10:31:04Z</time>
      </trkpt>
      <trkpt lat="43.23897" lon="5.88595">
        <ele>598.4</ele>
        <time>2021-05-29T10:31:08Z</time>
      </trkpt>
      <trkpt lat="43.23899" lon="5.88569">
        <ele>598</ele>
        <time>2021-05-29T10:31:11Z</time>
      </trkpt>
      <trkpt lat="43.23902" lon="5.88543">
        <ele>597.6</ele>
        <time>2021-05-29T10:31:14Z</time>
      </trkpt>
      <trkpt lat="43.23903" lon="5.88534">
        <ele>597.4</ele>
        <time>2021-05-29T10:31:15Z</time>
      </trkpt>
      <trkpt lat="43.23906" lon="5.88508">
        <ele>597</ele>
        <time>2021-05-29T10:31:18Z</time>
      </trkpt>
      <trkpt lat="43.23908" lon="5.88474">
        <ele>596.6</ele>
        <time>2021-05-29T10:31:22Z</time>
      </trkpt>
      <trkpt lat="43.23907" lon="5.88457">
        <ele>596.4</ele>
        <time>2021-05-29T10:31:24Z</time>
      </trkpt>
      <trkpt lat="43.23906" lon="5.88449">
        <ele>596.2</ele>
        <time>2021-05-29T10:31:25Z</time>
      </trkpt>
      <trkpt lat="43.23905" lon="5.88435">
        <ele>596.2</ele>
        <time>2021-05-29T10:31:27Z</time>
      </trkpt>
      <trkpt lat="43.23905" lon="5.88428">
        <ele>596</ele>
        <time>2021-05-29T10:31:28Z</time>
      </trkpt>
      <trkpt lat="43.23903" lon="5.88413">
        <ele>596</ele>
        <time>2021-05-29T10:31:30Z</time>
      </trkpt>
      <trkpt lat="43.23902" lon="5.88408">
        <ele>595.8</ele>
        <time>2021-05-29T10:31:31Z</time>
      </trkpt>
      <trkpt lat="43.239" lon="5.88395">
        <ele>595.8</ele>
        <time>2021-05-29T10:31:33Z</time>
      </trkpt>
      <trkpt lat="43.239" lon="5.88389">
        <ele>595.8</ele>
        <time>2021-05-29T10:31:34Z</time>
      </trkpt>
      <trkpt lat="43.23899" lon="5.88384">
        <ele>595.6</ele>
        <time>2021-05-29T10:31:35Z</time>
      </trkpt>
      <trkpt lat="43.23898" lon="5.88378">
        <ele>595.6</ele>
        <time>2021-05-29T10:31:36Z</time>
      </trkpt>
      <trkpt lat="43.23897" lon="5.88372">
        <ele>595.4</ele>
        <time>2021-05-29T10:31:37Z</time>
      </trkpt>
      <trkpt lat="43.23895" lon="5.88367">
        <ele>595.4</ele>
        <time>2021-05-29T10:31:38Z</time>
      </trkpt>
      <trkpt lat="43.23886" lon="5.8834">
        <ele>594.8</ele>
        <time>2021-05-29T10:31:42Z</time>
      </trkpt>
      <trkpt lat="43.23883" lon="5.88333">
        <ele>594.8</ele>
        <time>2021-05-29T10:31:43Z</time>
      </trkpt>
      <trkpt lat="43.2388" lon="5.88327">
        <ele>594.4</ele>
        <time>2021-05-29T10:31:44Z</time>
      </trkpt>
      <trkpt lat="43.23864" lon="5.88304">
        <ele>593.8</ele>
        <time>2021-05-29T10:31:47Z</time>
      </trkpt>
      <trkpt lat="43.23855" lon="5.88289">
        <ele>593.2</ele>
        <time>2021-05-29T10:31:49Z</time>
      </trkpt>
      <trkpt lat="43.23848" lon="5.88269">
        <ele>592.8</ele>
        <time>2021-05-29T10:31:51Z</time>
      </trkpt>
      <trkpt lat="43.23842" lon="5.88246">
        <ele>592.2</ele>
        <time>2021-05-29T10:31:53Z</time>
      </trkpt>
      <trkpt lat="43.23839" lon="5.88222">
        <ele>591.6</ele>
        <time>2021-05-29T10:31:55Z</time>
      </trkpt>
      <trkpt lat="43.2384" lon="5.88208">
        <ele>590.6</ele>
        <time>2021-05-29T10:31:56Z</time>
      </trkpt>
      <trkpt lat="43.23845" lon="5.88181">
        <ele>589.4</ele>
        <time>2021-05-29T10:31:58Z</time>
      </trkpt>
      <trkpt lat="43.23849" lon="5.88167">
        <ele>588.4</ele>
        <time>2021-05-29T10:31:59Z</time>
      </trkpt>
      <trkpt lat="43.2386" lon="5.88123">
        <ele>586.8</ele>
        <time>2021-05-29T10:32:02Z</time>
      </trkpt>
      <trkpt lat="43.23866" lon="5.88094">
        <ele>585</ele>
        <time>2021-05-29T10:32:04Z</time>
      </trkpt>
      <trkpt lat="43.23867" lon="5.8808">
        <ele>584.4</ele>
        <time>2021-05-29T10:32:05Z</time>
      </trkpt>
      <trkpt lat="43.23868" lon="5.88066">
        <ele>583.8</ele>
        <time>2021-05-29T10:32:06Z</time>
      </trkpt>
      <trkpt lat="43.23867" lon="5.88053">
        <ele>583.4</ele>
        <time>2021-05-29T10:32:07Z</time>
      </trkpt>
      <trkpt lat="43.23865" lon="5.88026">
        <ele>581.8</ele>
        <time>2021-05-29T10:32:09Z</time>
      </trkpt>
      <trkpt lat="43.2386" lon="5.87989">
        <ele>580.8</ele>
        <time>2021-05-29T10:32:12Z</time>
      </trkpt>
      <trkpt lat="43.23858" lon="5.87977">
        <ele>580.2</ele>
        <time>2021-05-29T10:32:13Z</time>
      </trkpt>
      <trkpt lat="43.23854" lon="5.87959">
        <ele>579.6</ele>
        <time>2021-05-29T10:32:15Z</time>
      </trkpt>
      <trkpt lat="43.2385" lon="5.8795">
        <ele>579.4</ele>
        <time>2021-05-29T10:32:16Z</time>
      </trkpt>
      <trkpt lat="43.23846" lon="5.87946">
        <ele>579.2</ele>
        <time>2021-05-29T10:32:17Z</time>
      </trkpt>
      <trkpt lat="43.2384" lon="5.87944">
        <ele>579</ele>
        <time>2021-05-29T10:32:18Z</time>
      </trkpt>
      <trkpt lat="43.23835" lon="5.87943">
        <ele>578.8</ele>
        <time>2021-05-29T10:32:19Z</time>
      </trkpt>
      <trkpt lat="43.2383" lon="5.87943">
        <ele>578.4</ele>
        <time>2021-05-29T10:32:20Z</time>
      </trkpt>
      <trkpt lat="43.23824" lon="5.87943">
        <ele>577.8</ele>
        <time>2021-05-29T10:32:21Z</time>
      </trkpt>
      <trkpt lat="43.23819" lon="5.87945">
        <ele>577.6</ele>
        <time>2021-05-29T10:32:22Z</time>
      </trkpt>
      <trkpt lat="43.23814" lon="5.87946">
        <ele>577.2</ele>
        <time>2021-05-29T10:32:23Z</time>
      </trkpt>
      <trkpt lat="43.23809" lon="5.87947">
        <ele>577.2</ele>
        <time>2021-05-29T10:32:24Z</time>
      </trkpt>
      <trkpt lat="43.238" lon="5.87948">
        <ele>576.8</ele>
        <time>2021-05-29T10:32:26Z</time>
      </trkpt>
      <trkpt lat="43.23796" lon="5.87949">
        <ele>576.8</ele>
        <time>2021-05-29T10:32:27Z</time>
      </trkpt>
      <trkpt lat="43.23785" lon="5.87955">
        <ele>577.2</ele>
        <time>2021-05-29T10:32:30Z</time>
      </trkpt>
      <trkpt lat="43.23778" lon="5.87957">
        <ele>577.2</ele>
        <time>2021-05-29T10:32:32Z</time>
      </trkpt>
      <trkpt lat="43.23775" lon="5.87958">
        <ele>577.4</ele>
        <time>2021-05-29T10:32:33Z</time>
      </trkpt>
      <trkpt lat="43.23773" lon="5.87958">
        <ele>577.4</ele>
        <time>2021-05-29T10:32:34Z</time>
      </trkpt>
      <trkpt lat="43.23771" lon="5.87958">
        <ele>577.4</ele>
        <time>2021-05-29T10:32:35Z</time>
      </trkpt>
      <trkpt lat="43.23769" lon="5.87957">
        <ele>577.6</ele>
        <time>2021-05-29T10:32:36Z</time>
      </trkpt>
      <trkpt lat="43.23765" lon="5.87956">
        <ele>577.8</ele>
        <time>2021-05-29T10:32:38Z</time>
      </trkpt>
      <trkpt lat="43.23763" lon="5.87956">
        <ele>578</ele>
        <time>2021-05-29T10:32:39Z</time>
      </trkpt>
      <trkpt lat="43.23762" lon="5.87955">
        <ele>578</ele>
        <time>2021-05-29T10:32:40Z</time>
      </trkpt>
      <trkpt lat="43.2376" lon="5.87954">
        <ele>578</ele>
        <time>2021-05-29T10:32:41Z</time>
      </trkpt>
      <trkpt lat="43.23759" lon="5.87953">
        <ele>578.2</ele>
        <time>2021-05-29T10:32:42Z</time>
      </trkpt>
      <trkpt lat="43.23758" lon="5.87951">
        <ele>578.2</ele>
        <time>2021-05-29T10:32:43Z</time>
      </trkpt>
      <trkpt lat="43.23756" lon="5.8795">
        <ele>578.4</ele>
        <time>2021-05-29T10:32:44Z</time>
      </trkpt>
      <trkpt lat="43.23755" lon="5.87947">
        <ele>578.6</ele>
        <time>2021-05-29T10:32:45Z</time>
      </trkpt>
      <trkpt lat="43.23754" lon="5.87945">
        <ele>578.6</ele>
        <time>2021-05-29T10:32:46Z</time>
      </trkpt>
      <trkpt lat="43.23753" lon="5.87943">
        <ele>578.6</ele>
        <time>2021-05-29T10:32:47Z</time>
      </trkpt>
      <trkpt lat="43.23749" lon="5.87933">
        <ele>579.2</ele>
        <time>2021-05-29T10:32:52Z</time>
      </trkpt>
      <trkpt lat="43.23748" lon="5.87931">
        <ele>579.4</ele>
        <time>2021-05-29T10:32:53Z</time>
      </trkpt>
      <trkpt lat="43.23748" lon="5.87929">
        <ele>579.6</ele>
        <time>2021-05-29T10:32:54Z</time>
      </trkpt>
      <trkpt lat="43.23747" lon="5.87927">
        <ele>579.8</ele>
        <time>2021-05-29T10:32:55Z</time>
      </trkpt>
      <trkpt lat="43.23747" lon="5.87925">
        <ele>579.8</ele>
        <time>2021-05-29T10:32:56Z</time>
      </trkpt>
      <trkpt lat="43.23746" lon="5.87923">
        <ele>580</ele>
        <time>2021-05-29T10:32:57Z</time>
      </trkpt>
      <trkpt lat="43.23746" lon="5.87918">
        <ele>580.4</ele>
        <time>2021-05-29T10:32:59Z</time>
      </trkpt>
      <trkpt lat="43.23746" lon="5.879">
        <ele>581.2</ele>
        <time>2021-05-29T10:33:06Z</time>
      </trkpt>
      <trkpt lat="43.23746" lon="5.87895">
        <ele>581.6</ele>
        <time>2021-05-29T10:33:08Z</time>
      </trkpt>
      <trkpt lat="43.23747" lon="5.87884">
        <ele>582</ele>
        <time>2021-05-29T10:33:12Z</time>
      </trkpt>
      <trkpt lat="43.23747" lon="5.87879">
        <ele>582.2</ele>
        <time>2021-05-29T10:33:14Z</time>
      </trkpt>
      <trkpt lat="43.23748" lon="5.87867">
        <ele>582.6</ele>
        <time>2021-05-29T10:33:19Z</time>
      </trkpt>
      <trkpt lat="43.23747" lon="5.87862">
        <ele>582.8</ele>
        <time>2021-05-29T10:33:21Z</time>
      </trkpt>
      <trkpt lat="43.23747" lon="5.87859">
        <ele>583</ele>
        <time>2021-05-29T10:33:22Z</time>
      </trkpt>
      <trkpt lat="43.23746" lon="5.87852">
        <ele>583.4</ele>
        <time>2021-05-29T10:33:25Z</time>
      </trkpt>
      <trkpt lat="43.23745" lon="5.87847">
        <ele>583.6</ele>
        <time>2021-05-29T10:33:27Z</time>
      </trkpt>
      <trkpt lat="43.23744" lon="5.87842">
        <ele>583.8</ele>
        <time>2021-05-29T10:33:29Z</time>
      </trkpt>
      <trkpt lat="43.23743" lon="5.87839">
        <ele>584</ele>
        <time>2021-05-29T10:33:30Z</time>
      </trkpt>
      <trkpt lat="43.23742" lon="5.87837">
        <ele>584</ele>
        <time>2021-05-29T10:33:31Z</time>
      </trkpt>
      <trkpt lat="43.23742" lon="5.87834">
        <ele>584.2</ele>
        <time>2021-05-29T10:33:32Z</time>
      </trkpt>
      <trkpt lat="43.2374" lon="5.87825">
        <ele>584.8</ele>
        <time>2021-05-29T10:33:35Z</time>
      </trkpt>
      <trkpt lat="43.23739" lon="5.87822">
        <ele>584.8</ele>
        <time>2021-05-29T10:33:36Z</time>
      </trkpt>
      <trkpt lat="43.23737" lon="5.87809">
        <ele>585.4</ele>
        <time>2021-05-29T10:33:41Z</time>
      </trkpt>
      <trkpt lat="43.23737" lon="5.87803">
        <ele>585.6</ele>
        <time>2021-05-29T10:33:43Z</time>
      </trkpt>
      <trkpt lat="43.23736" lon="5.87801">
        <ele>585.8</ele>
        <time>2021-05-29T10:33:44Z</time>
      </trkpt>
      <trkpt lat="43.23734" lon="5.8779">
        <ele>586.2</ele>
        <time>2021-05-29T10:33:48Z</time>
      </trkpt>
      <trkpt lat="43.23734" lon="5.87788">
        <ele>586.4</ele>
        <time>2021-05-29T10:33:49Z</time>
      </trkpt>
      <trkpt lat="43.23733" lon="5.87785">
        <ele>586.4</ele>
        <time>2021-05-29T10:33:50Z</time>
      </trkpt>
      <trkpt lat="43.23732" lon="5.87782">
        <ele>586.6</ele>
        <time>2021-05-29T10:33:51Z</time>
      </trkpt>
      <trkpt lat="43.23731" lon="5.87777">
        <ele>586.8</ele>
        <time>2021-05-29T10:33:53Z</time>
      </trkpt>
      <trkpt lat="43.23731" lon="5.87774">
        <ele>586.8</ele>
        <time>2021-05-29T10:33:54Z</time>
      </trkpt>
      <trkpt lat="43.23725" lon="5.87749">
        <ele>587.6</ele>
        <time>2021-05-29T10:34:03Z</time>
      </trkpt>
      <trkpt lat="43.23722" lon="5.87733">
        <ele>587.8</ele>
        <time>2021-05-29T10:34:09Z</time>
      </trkpt>
      <trkpt lat="43.23721" lon="5.87724">
        <ele>588</ele>
        <time>2021-05-29T10:34:12Z</time>
      </trkpt>
      <trkpt lat="43.23718" lon="5.87714">
        <ele>588.2</ele>
        <time>2021-05-29T10:34:15Z</time>
      </trkpt>
      <trkpt lat="43.23716" lon="5.87708">
        <ele>588.4</ele>
        <time>2021-05-29T10:34:17Z</time>
      </trkpt>
      <trkpt lat="43.23715" lon="5.87704">
        <ele>588.4</ele>
        <time>2021-05-29T10:34:18Z</time>
      </trkpt>
      <trkpt lat="43.23715" lon="5.87701">
        <ele>588.6</ele>
        <time>2021-05-29T10:34:19Z</time>
      </trkpt>
      <trkpt lat="43.23714" lon="5.87697">
        <ele>588.8</ele>
        <time>2021-05-29T10:34:20Z</time>
      </trkpt>
      <trkpt lat="43.23712" lon="5.8769">
        <ele>588.8</ele>
        <time>2021-05-29T10:34:22Z</time>
      </trkpt>
      <trkpt lat="43.23711" lon="5.87686">
        <ele>588.8</ele>
        <time>2021-05-29T10:34:23Z</time>
      </trkpt>
      <trkpt lat="43.2371" lon="5.87683">
        <ele>588.8</ele>
        <time>2021-05-29T10:34:24Z</time>
      </trkpt>
      <trkpt lat="43.2371" lon="5.87676">
        <ele>588.8</ele>
        <time>2021-05-29T10:34:26Z</time>
      </trkpt>
      <trkpt lat="43.23709" lon="5.87658">
        <ele>589</ele>
        <time>2021-05-29T10:34:31Z</time>
      </trkpt>
      <trkpt lat="43.23708" lon="5.8765">
        <ele>588.8</ele>
        <time>2021-05-29T10:34:33Z</time>
      </trkpt>
      <trkpt lat="43.23708" lon="5.87639">
        <ele>588.8</ele>
        <time>2021-05-29T10:34:36Z</time>
      </trkpt>
      <trkpt lat="43.23709" lon="5.87631">
        <ele>588.8</ele>
        <time>2021-05-29T10:34:38Z</time>
      </trkpt>
      <trkpt lat="43.23708" lon="5.87609">
        <ele>588.8</ele>
        <time>2021-05-29T10:34:44Z</time>
      </trkpt>
      <trkpt lat="43.23707" lon="5.87588">
        <ele>588.8</ele>
        <time>2021-05-29T10:34:51Z</time>
      </trkpt>
      <trkpt lat="43.23706" lon="5.87572">
        <ele>589.8</ele>
        <time>2021-05-29T10:34:56Z</time>
      </trkpt>
      <trkpt lat="43.23705" lon="5.87563">
        <ele>590.2</ele>
        <time>2021-05-29T10:34:59Z</time>
      </trkpt>
      <trkpt lat="43.23705" lon="5.87557">
        <ele>590.2</ele>
        <time>2021-05-29T10:35:01Z</time>
      </trkpt>
      <trkpt lat="43.23706" lon="5.87543">
        <ele>590.4</ele>
        <time>2021-05-29T10:35:05Z</time>
      </trkpt>
      <trkpt lat="43.23705" lon="5.8754">
        <ele>590.6</ele>
        <time>2021-05-29T10:35:06Z</time>
      </trkpt>
      <trkpt lat="43.23701" lon="5.87519">
        <ele>591</ele>
        <time>2021-05-29T10:35:12Z</time>
      </trkpt>
      <trkpt lat="43.23698" lon="5.87504">
        <ele>591</ele>
        <time>2021-05-29T10:35:16Z</time>
      </trkpt>
      <trkpt lat="43.23696" lon="5.87488">
        <ele>591.2</ele>
        <time>2021-05-29T10:35:20Z</time>
      </trkpt>
      <trkpt lat="43.2369" lon="5.87467">
        <ele>591.6</ele>
        <time>2021-05-29T10:35:26Z</time>
      </trkpt>
      <trkpt lat="43.23687" lon="5.87452">
        <ele>592</ele>
        <time>2021-05-29T10:35:30Z</time>
      </trkpt>
      <trkpt lat="43.23685" lon="5.87445">
        <ele>592.2</ele>
        <time>2021-05-29T10:35:32Z</time>
      </trkpt>
      <trkpt lat="43.23678" lon="5.87419">
        <ele>593</ele>
        <time>2021-05-29T10:35:38Z</time>
      </trkpt>
      <trkpt lat="43.23676" lon="5.87415">
        <ele>593.2</ele>
        <time>2021-05-29T10:35:39Z</time>
      </trkpt>
      <trkpt lat="43.23674" lon="5.87406">
        <ele>593.6</ele>
        <time>2021-05-29T10:35:41Z</time>
      </trkpt>
      <trkpt lat="43.23673" lon="5.87394">
        <ele>593.8</ele>
        <time>2021-05-29T10:35:44Z</time>
      </trkpt>
      <trkpt lat="43.23667" lon="5.87367">
        <ele>594</ele>
        <time>2021-05-29T10:35:50Z</time>
      </trkpt>
      <trkpt lat="43.23665" lon="5.87358">
        <ele>593.8</ele>
        <time>2021-05-29T10:35:52Z</time>
      </trkpt>
      <trkpt lat="43.23659" lon="5.87332">
        <ele>593.6</ele>
        <time>2021-05-29T10:35:57Z</time>
      </trkpt>
      <trkpt lat="43.23654" lon="5.87313">
        <ele>593.4</ele>
        <time>2021-05-29T10:36:01Z</time>
      </trkpt>
      <trkpt lat="43.23651" lon="5.87309">
        <ele>593.2</ele>
        <time>2021-05-29T10:36:02Z</time>
      </trkpt>
      <trkpt lat="43.2364" lon="5.87282">
        <ele>593</ele>
        <time>2021-05-29T10:36:08Z</time>
      </trkpt>
      <trkpt lat="43.23631" lon="5.87266">
        <ele>592.8</ele>
        <time>2021-05-29T10:36:12Z</time>
      </trkpt>
      <trkpt lat="43.23611" lon="5.87232">
        <ele>593</ele>
        <time>2021-05-29T10:36:21Z</time>
      </trkpt>
      <trkpt lat="43.23594" lon="5.872">
        <ele>593</ele>
        <time>2021-05-29T10:36:29Z</time>
      </trkpt>
      <trkpt lat="43.2359" lon="5.87191">
        <ele>593</ele>
        <time>2021-05-29T10:36:31Z</time>
      </trkpt>
      <trkpt lat="43.23584" lon="5.87174">
        <ele>592.8</ele>
        <time>2021-05-29T10:36:34Z</time>
      </trkpt>
      <trkpt lat="43.23576" lon="5.87158">
        <ele>592.8</ele>
        <time>2021-05-29T10:36:37Z</time>
      </trkpt>
      <trkpt lat="43.23569" lon="5.87148">
        <ele>592.4</ele>
        <time>2021-05-29T10:36:39Z</time>
      </trkpt>
      <trkpt lat="43.23562" lon="5.87138">
        <ele>592.2</ele>
        <time>2021-05-29T10:36:41Z</time>
      </trkpt>
      <trkpt lat="43.2356" lon="5.87134">
        <ele>592</ele>
        <time>2021-05-29T10:36:42Z</time>
      </trkpt>
      <trkpt lat="43.23551" lon="5.87121">
        <ele>591.8</ele>
        <time>2021-05-29T10:36:45Z</time>
      </trkpt>
      <trkpt lat="43.23549" lon="5.87116">
        <ele>591.6</ele>
        <time>2021-05-29T10:36:46Z</time>
      </trkpt>
      <trkpt lat="43.23545" lon="5.87106">
        <ele>591.6</ele>
        <time>2021-05-29T10:36:48Z</time>
      </trkpt>
      <trkpt lat="43.23541" lon="5.87089">
        <ele>591.6</ele>
        <time>2021-05-29T10:36:51Z</time>
      </trkpt>
      <trkpt lat="43.23532" lon="5.87066">
        <ele>591</ele>
        <time>2021-05-29T10:36:55Z</time>
      </trkpt>
      <trkpt lat="43.2353" lon="5.8706">
        <ele>590.8</ele>
        <time>2021-05-29T10:36:56Z</time>
      </trkpt>
      <trkpt lat="43.23524" lon="5.87043">
        <ele>590.4</ele>
        <time>2021-05-29T10:36:59Z</time>
      </trkpt>
      <trkpt lat="43.2352" lon="5.87032">
        <ele>589.8</ele>
        <time>2021-05-29T10:37:01Z</time>
      </trkpt>
      <trkpt lat="43.23513" lon="5.8701">
        <ele>588.8</ele>
        <time>2021-05-29T10:37:05Z</time>
      </trkpt>
      <trkpt lat="43.2351" lon="5.87005">
        <ele>588.6</ele>
        <time>2021-05-29T10:37:06Z</time>
      </trkpt>
      <trkpt lat="43.23508" lon="5.86999">
        <ele>588.4</ele>
        <time>2021-05-29T10:37:07Z</time>
      </trkpt>
      <trkpt lat="43.23506" lon="5.86988">
        <ele>588</ele>
        <time>2021-05-29T10:37:09Z</time>
      </trkpt>
      <trkpt lat="43.23503" lon="5.8697">
        <ele>587.4</ele>
        <time>2021-05-29T10:37:12Z</time>
      </trkpt>
      <trkpt lat="43.235" lon="5.86956">
        <ele>587</ele>
        <time>2021-05-29T10:37:14Z</time>
      </trkpt>
      <trkpt lat="43.23499" lon="5.8695">
        <ele>586.2</ele>
        <time>2021-05-29T10:37:15Z</time>
      </trkpt>
      <trkpt lat="43.23495" lon="5.86937">
        <ele>585.2</ele>
        <time>2021-05-29T10:37:17Z</time>
      </trkpt>
      <trkpt lat="43.23492" lon="5.86924">
        <ele>584.4</ele>
        <time>2021-05-29T10:37:19Z</time>
      </trkpt>
      <trkpt lat="43.2349" lon="5.86917">
        <ele>583.8</ele>
        <time>2021-05-29T10:37:20Z</time>
      </trkpt>
      <trkpt lat="43.23488" lon="5.8691">
        <ele>583.6</ele>
        <time>2021-05-29T10:37:21Z</time>
      </trkpt>
      <trkpt lat="43.23481" lon="5.86886">
        <ele>582.6</ele>
        <time>2021-05-29T10:37:24Z</time>
      </trkpt>
      <trkpt lat="43.23476" lon="5.8687">
        <ele>581.4</ele>
        <time>2021-05-29T10:37:26Z</time>
      </trkpt>
      <trkpt lat="43.23473" lon="5.8686">
        <ele>580.4</ele>
        <time>2021-05-29T10:37:27Z</time>
      </trkpt>
      <trkpt lat="43.23471" lon="5.86852">
        <ele>580.2</ele>
        <time>2021-05-29T10:37:28Z</time>
      </trkpt>
      <trkpt lat="43.23466" lon="5.86835">
        <ele>579</ele>
        <time>2021-05-29T10:37:30Z</time>
      </trkpt>
      <trkpt lat="43.2346" lon="5.86819">
        <ele>578</ele>
        <time>2021-05-29T10:37:32Z</time>
      </trkpt>
      <trkpt lat="43.23449" lon="5.86794">
        <ele>576.4</ele>
        <time>2021-05-29T10:37:35Z</time>
      </trkpt>
      <trkpt lat="43.23445" lon="5.86786">
        <ele>576.2</ele>
        <time>2021-05-29T10:37:36Z</time>
      </trkpt>
      <trkpt lat="43.23439" lon="5.86779">
        <ele>575.8</ele>
        <time>2021-05-29T10:37:37Z</time>
      </trkpt>
      <trkpt lat="43.23429" lon="5.86767">
        <ele>574.2</ele>
        <time>2021-05-29T10:37:39Z</time>
      </trkpt>
      <trkpt lat="43.23419" lon="5.86758">
        <ele>572.6</ele>
        <time>2021-05-29T10:37:41Z</time>
      </trkpt>
      <trkpt lat="43.23415" lon="5.86753">
        <ele>571.8</ele>
        <time>2021-05-29T10:37:42Z</time>
      </trkpt>
      <trkpt lat="43.2341" lon="5.86747">
        <ele>571.4</ele>
        <time>2021-05-29T10:37:43Z</time>
      </trkpt>
      <trkpt lat="43.23406" lon="5.8674">
        <ele>570.8</ele>
        <time>2021-05-29T10:37:44Z</time>
      </trkpt>
      <trkpt lat="43.234" lon="5.86725">
        <ele>570</ele>
        <time>2021-05-29T10:37:46Z</time>
      </trkpt>
      <trkpt lat="43.23396" lon="5.86717">
        <ele>568.4</ele>
        <time>2021-05-29T10:37:47Z</time>
      </trkpt>
      <trkpt lat="43.23391" lon="5.86701">
        <ele>566.2</ele>
        <time>2021-05-29T10:37:49Z</time>
      </trkpt>
      <trkpt lat="43.23385" lon="5.86686">
        <ele>565</ele>
        <time>2021-05-29T10:37:51Z</time>
      </trkpt>
      <trkpt lat="43.2338" lon="5.86672">
        <ele>564</ele>
        <time>2021-05-29T10:37:53Z</time>
      </trkpt>
      <trkpt lat="43.23375" lon="5.86659">
        <ele>563.4</ele>
        <time>2021-05-29T10:37:55Z</time>
      </trkpt>
      <trkpt lat="43.23372" lon="5.86653">
        <ele>562.2</ele>
        <time>2021-05-29T10:37:56Z</time>
      </trkpt>
      <trkpt lat="43.23366" lon="5.86642">
        <ele>560.6</ele>
        <time>2021-05-29T10:37:58Z</time>
      </trkpt>
      <trkpt lat="43.23358" lon="5.86623">
        <ele>559.4</ele>
        <time>2021-05-29T10:38:01Z</time>
      </trkpt>
      <trkpt lat="43.23356" lon="5.86618">
        <ele>559</ele>
        <time>2021-05-29T10:38:02Z</time>
      </trkpt>
      <trkpt lat="43.23354" lon="5.86612">
        <ele>558.2</ele>
        <time>2021-05-29T10:38:03Z</time>
      </trkpt>
      <trkpt lat="43.23352" lon="5.86607">
        <ele>557.2</ele>
        <time>2021-05-29T10:38:04Z</time>
      </trkpt>
      <trkpt lat="43.2335" lon="5.86597">
        <ele>556</ele>
        <time>2021-05-29T10:38:06Z</time>
      </trkpt>
      <trkpt lat="43.23348" lon="5.86585">
        <ele>554.4</ele>
        <time>2021-05-29T10:38:08Z</time>
      </trkpt>
      <trkpt lat="43.23347" lon="5.86572">
        <ele>553</ele>
        <time>2021-05-29T10:38:10Z</time>
      </trkpt>
      <trkpt lat="43.23341" lon="5.86549">
        <ele>551.8</ele>
        <time>2021-05-29T10:38:13Z</time>
      </trkpt>
      <trkpt lat="43.23339" lon="5.86542">
        <ele>551.6</ele>
        <time>2021-05-29T10:38:14Z</time>
      </trkpt>
      <trkpt lat="43.23337" lon="5.86536">
        <ele>551.2</ele>
        <time>2021-05-29T10:38:15Z</time>
      </trkpt>
      <trkpt lat="43.23331" lon="5.86525">
        <ele>550.6</ele>
        <time>2021-05-29T10:38:17Z</time>
      </trkpt>
      <trkpt lat="43.23325" lon="5.86517">
        <ele>549.8</ele>
        <time>2021-05-29T10:38:19Z</time>
      </trkpt>
      <trkpt lat="43.23323" lon="5.86514">
        <ele>549</ele>
        <time>2021-05-29T10:38:20Z</time>
      </trkpt>
      <trkpt lat="43.2332" lon="5.86512">
        <ele>548</ele>
        <time>2021-05-29T10:38:21Z</time>
      </trkpt>
      <trkpt lat="43.23314" lon="5.86503">
        <ele>546.8</ele>
        <time>2021-05-29T10:38:24Z</time>
      </trkpt>
      <trkpt lat="43.2331" lon="5.86496">
        <ele>546.2</ele>
        <time>2021-05-29T10:38:26Z</time>
      </trkpt>
      <trkpt lat="43.23306" lon="5.86489">
        <ele>545.2</ele>
        <time>2021-05-29T10:38:28Z</time>
      </trkpt>
      <trkpt lat="43.23299" lon="5.86474">
        <ele>544</ele>
        <time>2021-05-29T10:38:32Z</time>
      </trkpt>
      <trkpt lat="43.23297" lon="5.86467">
        <ele>542.8</ele>
        <time>2021-05-29T10:38:34Z</time>
      </trkpt>
      <trkpt lat="43.23294" lon="5.86453">
        <ele>541.4</ele>
        <time>2021-05-29T10:38:37Z</time>
      </trkpt>
      <trkpt lat="43.23291" lon="5.86444">
        <ele>540.6</ele>
        <time>2021-05-29T10:38:39Z</time>
      </trkpt>
      <trkpt lat="43.2329" lon="5.86438">
        <ele>540</ele>
        <time>2021-05-29T10:38:40Z</time>
      </trkpt>
      <trkpt lat="43.23289" lon="5.86428">
        <ele>539.2</ele>
        <time>2021-05-29T10:38:42Z</time>
      </trkpt>
      <trkpt lat="43.23288" lon="5.86422">
        <ele>538.8</ele>
        <time>2021-05-29T10:38:43Z</time>
      </trkpt>
      <trkpt lat="43.23287" lon="5.86416">
        <ele>538.4</ele>
        <time>2021-05-29T10:38:44Z</time>
      </trkpt>
      <trkpt lat="43.23285" lon="5.8641">
        <ele>538.2</ele>
        <time>2021-05-29T10:38:45Z</time>
      </trkpt>
      <trkpt lat="43.23279" lon="5.86398">
        <ele>537.2</ele>
        <time>2021-05-29T10:38:47Z</time>
      </trkpt>
      <trkpt lat="43.23271" lon="5.86382">
        <ele>535.6</ele>
        <time>2021-05-29T10:38:50Z</time>
      </trkpt>
      <trkpt lat="43.23266" lon="5.86368">
        <ele>534.2</ele>
        <time>2021-05-29T10:38:53Z</time>
      </trkpt>
      <trkpt lat="43.23261" lon="5.86359">
        <ele>533</ele>
        <time>2021-05-29T10:38:55Z</time>
      </trkpt>
      <trkpt lat="43.23256" lon="5.86347">
        <ele>532</ele>
        <time>2021-05-29T10:38:57Z</time>
      </trkpt>
      <trkpt lat="43.23252" lon="5.86341">
        <ele>531.4</ele>
        <time>2021-05-29T10:38:58Z</time>
      </trkpt>
      <trkpt lat="43.23248" lon="5.86336">
        <ele>530.4</ele>
        <time>2021-05-29T10:38:59Z</time>
      </trkpt>
      <trkpt lat="43.23243" lon="5.86331">
        <ele>530</ele>
        <time>2021-05-29T10:39:00Z</time>
      </trkpt>
      <trkpt lat="43.23237" lon="5.86328">
        <ele>529.4</ele>
        <time>2021-05-29T10:39:01Z</time>
      </trkpt>
      <trkpt lat="43.23226" lon="5.86322">
        <ele>528.2</ele>
        <time>2021-05-29T10:39:03Z</time>
      </trkpt>
      <trkpt lat="43.2321" lon="5.86313">
        <ele>527</ele>
        <time>2021-05-29T10:39:06Z</time>
      </trkpt>
      <trkpt lat="43.23206" lon="5.8631">
        <ele>526.8</ele>
        <time>2021-05-29T10:39:07Z</time>
      </trkpt>
      <trkpt lat="43.23198" lon="5.86303">
        <ele>526</ele>
        <time>2021-05-29T10:39:09Z</time>
      </trkpt>
      <trkpt lat="43.23189" lon="5.8629">
        <ele>524.4</ele>
        <time>2021-05-29T10:39:12Z</time>
      </trkpt>
      <trkpt lat="43.23178" lon="5.86276">
        <ele>523.4</ele>
        <time>2021-05-29T10:39:15Z</time>
      </trkpt>
      <trkpt lat="43.23175" lon="5.86272">
        <ele>522.6</ele>
        <time>2021-05-29T10:39:16Z</time>
      </trkpt>
      <trkpt lat="43.23171" lon="5.86267">
        <ele>522.2</ele>
        <time>2021-05-29T10:39:17Z</time>
      </trkpt>
      <trkpt lat="43.23168" lon="5.86262">
        <ele>521.4</ele>
        <time>2021-05-29T10:39:18Z</time>
      </trkpt>
      <trkpt lat="43.23164" lon="5.8625">
        <ele>520.8</ele>
        <time>2021-05-29T10:39:20Z</time>
      </trkpt>
      <trkpt lat="43.23158" lon="5.86238">
        <ele>520.4</ele>
        <time>2021-05-29T10:39:22Z</time>
      </trkpt>
      <trkpt lat="43.23155" lon="5.86233">
        <ele>519.6</ele>
        <time>2021-05-29T10:39:23Z</time>
      </trkpt>
      <trkpt lat="43.23151" lon="5.86228">
        <ele>519.2</ele>
        <time>2021-05-29T10:39:24Z</time>
      </trkpt>
      <trkpt lat="43.23148" lon="5.86224">
        <ele>519</ele>
        <time>2021-05-29T10:39:25Z</time>
      </trkpt>
      <trkpt lat="43.23145" lon="5.86219">
        <ele>518.4</ele>
        <time>2021-05-29T10:39:26Z</time>
      </trkpt>
      <trkpt lat="43.23141" lon="5.86216">
        <ele>517.6</ele>
        <time>2021-05-29T10:39:27Z</time>
      </trkpt>
      <trkpt lat="43.23138" lon="5.86212">
        <ele>516.6</ele>
        <time>2021-05-29T10:39:28Z</time>
      </trkpt>
      <trkpt lat="43.23135" lon="5.86208">
        <ele>515.8</ele>
        <time>2021-05-29T10:39:29Z</time>
      </trkpt>
      <trkpt lat="43.23131" lon="5.86204">
        <ele>515.4</ele>
        <time>2021-05-29T10:39:30Z</time>
      </trkpt>
      <trkpt lat="43.23127" lon="5.86201">
        <ele>514.8</ele>
        <time>2021-05-29T10:39:31Z</time>
      </trkpt>
      <trkpt lat="43.23113" lon="5.8619">
        <ele>514.4</ele>
        <time>2021-05-29T10:39:34Z</time>
      </trkpt>
      <trkpt lat="43.23102" lon="5.86184">
        <ele>513.4</ele>
        <time>2021-05-29T10:39:36Z</time>
      </trkpt>
      <trkpt lat="43.23097" lon="5.86182">
        <ele>512.8</ele>
        <time>2021-05-29T10:39:37Z</time>
      </trkpt>
      <trkpt lat="43.23093" lon="5.8618">
        <ele>511.6</ele>
        <time>2021-05-29T10:39:38Z</time>
      </trkpt>
      <trkpt lat="43.23083" lon="5.86177">
        <ele>510</ele>
        <time>2021-05-29T10:39:40Z</time>
      </trkpt>
      <trkpt lat="43.2308" lon="5.86176">
        <ele>509.4</ele>
        <time>2021-05-29T10:39:41Z</time>
      </trkpt>
      <trkpt lat="43.23077" lon="5.86175">
        <ele>508.6</ele>
        <time>2021-05-29T10:39:42Z</time>
      </trkpt>
      <trkpt lat="43.23071" lon="5.86173">
        <ele>507.2</ele>
        <time>2021-05-29T10:39:44Z</time>
      </trkpt>
      <trkpt lat="43.2306" lon="5.86169">
        <ele>506</ele>
        <time>2021-05-29T10:39:47Z</time>
      </trkpt>
      <trkpt lat="43.23053" lon="5.86168">
        <ele>505</ele>
        <time>2021-05-29T10:39:49Z</time>
      </trkpt>
      <trkpt lat="43.23047" lon="5.86167">
        <ele>503.6</ele>
        <time>2021-05-29T10:39:51Z</time>
      </trkpt>
      <trkpt lat="43.2304" lon="5.86164">
        <ele>502.8</ele>
        <time>2021-05-29T10:39:53Z</time>
      </trkpt>
      <trkpt lat="43.23037" lon="5.86163">
        <ele>502.6</ele>
        <time>2021-05-29T10:39:54Z</time>
      </trkpt>
      <trkpt lat="43.23029" lon="5.86159">
        <ele>501</ele>
        <time>2021-05-29T10:39:58Z</time>
      </trkpt>
      <trkpt lat="43.23027" lon="5.86158">
        <ele>500.8</ele>
        <time>2021-05-29T10:39:59Z</time>
      </trkpt>
      <trkpt lat="43.23025" lon="5.86157">
        <ele>499.8</ele>
        <time>2021-05-29T10:40:00Z</time>
      </trkpt>
      <trkpt lat="43.2302" lon="5.86151">
        <ele>498.8</ele>
        <time>2021-05-29T10:40:04Z</time>
      </trkpt>
      <trkpt lat="43.23018" lon="5.86149">
        <ele>498.4</ele>
        <time>2021-05-29T10:40:05Z</time>
      </trkpt>
      <trkpt lat="43.23013" lon="5.86144">
        <ele>497.6</ele>
        <time>2021-05-29T10:40:07Z</time>
      </trkpt>
      <trkpt lat="43.23009" lon="5.86141">
        <ele>497.6</ele>
        <time>2021-05-29T10:40:08Z</time>
      </trkpt>
      <trkpt lat="43.23005" lon="5.86138">
        <ele>497</ele>
        <time>2021-05-29T10:40:09Z</time>
      </trkpt>
      <trkpt lat="43.23" lon="5.86135">
        <ele>496.6</ele>
        <time>2021-05-29T10:40:10Z</time>
      </trkpt>
      <trkpt lat="43.22988" lon="5.86127">
        <ele>495</ele>
        <time>2021-05-29T10:40:12Z</time>
      </trkpt>
      <trkpt lat="43.2298" lon="5.86123">
        <ele>494.6</ele>
        <time>2021-05-29T10:40:13Z</time>
      </trkpt>
      <trkpt lat="43.22972" lon="5.86119">
        <ele>494</ele>
        <time>2021-05-29T10:40:14Z</time>
      </trkpt>
      <trkpt lat="43.22946" lon="5.86107">
        <ele>492.4</ele>
        <time>2021-05-29T10:40:17Z</time>
      </trkpt>
      <trkpt lat="43.22938" lon="5.86103">
        <ele>492</ele>
        <time>2021-05-29T10:40:18Z</time>
      </trkpt>
      <trkpt lat="43.22932" lon="5.861">
        <ele>490.6</ele>
        <time>2021-05-29T10:40:19Z</time>
      </trkpt>
      <trkpt lat="43.22923" lon="5.86095">
        <ele>490</ele>
        <time>2021-05-29T10:40:20Z</time>
      </trkpt>
      <trkpt lat="43.22917" lon="5.8609">
        <ele>489.2</ele>
        <time>2021-05-29T10:40:21Z</time>
      </trkpt>
      <trkpt lat="43.22911" lon="5.86084">
        <ele>488.8</ele>
        <time>2021-05-29T10:40:22Z</time>
      </trkpt>
      <trkpt lat="43.22895" lon="5.86063">
        <ele>488.2</ele>
        <time>2021-05-29T10:40:25Z</time>
      </trkpt>
      <trkpt lat="43.22884" lon="5.86051">
        <ele>487.8</ele>
        <time>2021-05-29T10:40:27Z</time>
      </trkpt>
      <trkpt lat="43.22849" lon="5.8602">
        <ele>487.4</ele>
        <time>2021-05-29T10:40:33Z</time>
      </trkpt>
      <trkpt lat="43.22836" lon="5.86018">
        <ele>487.2</ele>
        <time>2021-05-29T10:40:35Z</time>
      </trkpt>
      <trkpt lat="43.22829" lon="5.8602">
        <ele>486.8</ele>
        <time>2021-05-29T10:40:36Z</time>
      </trkpt>
      <trkpt lat="43.22823" lon="5.86023">
        <ele>486.8</ele>
        <time>2021-05-29T10:40:37Z</time>
      </trkpt>
      <trkpt lat="43.22813" lon="5.8603">
        <ele>485.6</ele>
        <time>2021-05-29T10:40:39Z</time>
      </trkpt>
      <trkpt lat="43.22808" lon="5.86033">
        <ele>485.4</ele>
        <time>2021-05-29T10:40:40Z</time>
      </trkpt>
      <trkpt lat="43.2278" lon="5.86046">
        <ele>485</ele>
        <time>2021-05-29T10:40:46Z</time>
      </trkpt>
      <trkpt lat="43.22765" lon="5.86051">
        <ele>485</ele>
        <time>2021-05-29T10:40:49Z</time>
      </trkpt>
      <trkpt lat="43.22756" lon="5.86057">
        <ele>485.2</ele>
        <time>2021-05-29T10:40:51Z</time>
      </trkpt>
      <trkpt lat="43.22724" lon="5.86079">
        <ele>485.4</ele>
        <time>2021-05-29T10:40:58Z</time>
      </trkpt>
      <trkpt lat="43.22704" lon="5.86088">
        <ele>485.2</ele>
        <time>2021-05-29T10:41:02Z</time>
      </trkpt>
      <trkpt lat="43.22693" lon="5.86089">
        <ele>485</ele>
        <time>2021-05-29T10:41:04Z</time>
      </trkpt>
      <trkpt lat="43.22681" lon="5.8609">
        <ele>484.4</ele>
        <time>2021-05-29T10:41:06Z</time>
      </trkpt>
      <trkpt lat="43.22668" lon="5.86092">
        <ele>484</ele>
        <time>2021-05-29T10:41:08Z</time>
      </trkpt>
      <trkpt lat="43.22658" lon="5.86092">
        <ele>483.6</ele>
        <time>2021-05-29T10:41:10Z</time>
      </trkpt>
      <trkpt lat="43.22647" lon="5.86093">
        <ele>483.4</ele>
        <time>2021-05-29T10:41:12Z</time>
      </trkpt>
      <trkpt lat="43.22637" lon="5.86091">
        <ele>482.6</ele>
        <time>2021-05-29T10:41:14Z</time>
      </trkpt>
      <trkpt lat="43.22633" lon="5.86089">
        <ele>482</ele>
        <time>2021-05-29T10:41:15Z</time>
      </trkpt>
      <trkpt lat="43.22623" lon="5.86086">
        <ele>481.2</ele>
        <time>2021-05-29T10:41:17Z</time>
      </trkpt>
      <trkpt lat="43.22618" lon="5.86087">
        <ele>481.2</ele>
        <time>2021-05-29T10:41:18Z</time>
      </trkpt>
      <trkpt lat="43.22613" lon="5.8609">
        <ele>480.8</ele>
        <time>2021-05-29T10:41:19Z</time>
      </trkpt>
      <trkpt lat="43.22597" lon="5.86101">
        <ele>480</ele>
        <time>2021-05-29T10:41:22Z</time>
      </trkpt>
      <trkpt lat="43.22593" lon="5.86105">
        <ele>479.6</ele>
        <time>2021-05-29T10:41:23Z</time>
      </trkpt>
      <trkpt lat="43.22571" lon="5.86127">
        <ele>478.4</ele>
        <time>2021-05-29T10:41:27Z</time>
      </trkpt>
      <trkpt lat="43.22566" lon="5.86133">
        <ele>478</ele>
        <time>2021-05-29T10:41:28Z</time>
      </trkpt>
      <trkpt lat="43.22558" lon="5.86143">
        <ele>477</ele>
        <time>2021-05-29T10:41:30Z</time>
      </trkpt>
      <trkpt lat="43.2255" lon="5.86156">
        <ele>475.8</ele>
        <time>2021-05-29T10:41:33Z</time>
      </trkpt>
      <trkpt lat="43.22547" lon="5.86159">
        <ele>475</ele>
        <time>2021-05-29T10:41:34Z</time>
      </trkpt>
      <trkpt lat="43.22545" lon="5.86162">
        <ele>474.8</ele>
        <time>2021-05-29T10:41:35Z</time>
      </trkpt>
      <trkpt lat="43.22541" lon="5.86167">
        <ele>473.4</ele>
        <time>2021-05-29T10:41:37Z</time>
      </trkpt>
      <trkpt lat="43.22536" lon="5.86173">
        <ele>473</ele>
        <time>2021-05-29T10:41:39Z</time>
      </trkpt>
      <trkpt lat="43.22531" lon="5.86179">
        <ele>472.8</ele>
        <time>2021-05-29T10:41:41Z</time>
      </trkpt>
      <trkpt lat="43.22529" lon="5.86182">
        <ele>472.4</ele>
        <time>2021-05-29T10:41:42Z</time>
      </trkpt>
      <trkpt lat="43.22526" lon="5.86186">
        <ele>472.4</ele>
        <time>2021-05-29T10:41:43Z</time>
      </trkpt>
      <trkpt lat="43.22523" lon="5.8619">
        <ele>472.2</ele>
        <time>2021-05-29T10:41:44Z</time>
      </trkpt>
      <trkpt lat="43.22521" lon="5.86194">
        <ele>472</ele>
        <time>2021-05-29T10:41:45Z</time>
      </trkpt>
      <trkpt lat="43.2251" lon="5.86209">
        <ele>471</ele>
        <time>2021-05-29T10:41:48Z</time>
      </trkpt>
      <trkpt lat="43.22497" lon="5.86224">
        <ele>469.4</ele>
        <time>2021-05-29T10:41:51Z</time>
      </trkpt>
      <trkpt lat="43.22488" lon="5.86234">
        <ele>468.4</ele>
        <time>2021-05-29T10:41:53Z</time>
      </trkpt>
      <trkpt lat="43.2247" lon="5.86256">
        <ele>467.4</ele>
        <time>2021-05-29T10:41:57Z</time>
      </trkpt>
      <trkpt lat="43.22465" lon="5.86262">
        <ele>466.8</ele>
        <time>2021-05-29T10:41:58Z</time>
      </trkpt>
      <trkpt lat="43.2246" lon="5.86269">
        <ele>466.4</ele>
        <time>2021-05-29T10:41:59Z</time>
      </trkpt>
      <trkpt lat="43.22456" lon="5.86276">
        <ele>466.2</ele>
        <time>2021-05-29T10:42:00Z</time>
      </trkpt>
      <trkpt lat="43.22452" lon="5.86283">
        <ele>465.8</ele>
        <time>2021-05-29T10:42:01Z</time>
      </trkpt>
      <trkpt lat="43.22448" lon="5.8629">
        <ele>465.6</ele>
        <time>2021-05-29T10:42:02Z</time>
      </trkpt>
      <trkpt lat="43.22444" lon="5.86297">
        <ele>465.4</ele>
        <time>2021-05-29T10:42:03Z</time>
      </trkpt>
      <trkpt lat="43.2244" lon="5.86302">
        <ele>465.4</ele>
        <time>2021-05-29T10:42:04Z</time>
      </trkpt>
      <trkpt lat="43.22435" lon="5.8631">
        <ele>465.2</ele>
        <time>2021-05-29T10:42:05Z</time>
      </trkpt>
      <trkpt lat="43.22427" lon="5.86323">
        <ele>464.8</ele>
        <time>2021-05-29T10:42:07Z</time>
      </trkpt>
      <trkpt lat="43.22422" lon="5.86329">
        <ele>464.2</ele>
        <time>2021-05-29T10:42:08Z</time>
      </trkpt>
      <trkpt lat="43.22416" lon="5.86335">
        <ele>464</ele>
        <time>2021-05-29T10:42:09Z</time>
      </trkpt>
      <trkpt lat="43.22411" lon="5.86339">
        <ele>463.8</ele>
        <time>2021-05-29T10:42:10Z</time>
      </trkpt>
      <trkpt lat="43.22406" lon="5.86344">
        <ele>463.6</ele>
        <time>2021-05-29T10:42:11Z</time>
      </trkpt>
      <trkpt lat="43.22401" lon="5.8635">
        <ele>463.6</ele>
        <time>2021-05-29T10:42:12Z</time>
      </trkpt>
      <trkpt lat="43.22396" lon="5.86357">
        <ele>463.2</ele>
        <time>2021-05-29T10:42:13Z</time>
      </trkpt>
      <trkpt lat="43.22392" lon="5.86365">
        <ele>463.2</ele>
        <time>2021-05-29T10:42:14Z</time>
      </trkpt>
      <trkpt lat="43.22388" lon="5.86373">
        <ele>462.8</ele>
        <time>2021-05-29T10:42:15Z</time>
      </trkpt>
      <trkpt lat="43.22385" lon="5.86382">
        <ele>462.6</ele>
        <time>2021-05-29T10:42:16Z</time>
      </trkpt>
      <trkpt lat="43.22376" lon="5.86408">
        <ele>462.2</ele>
        <time>2021-05-29T10:42:19Z</time>
      </trkpt>
      <trkpt lat="43.22372" lon="5.86415">
        <ele>461.8</ele>
        <time>2021-05-29T10:42:20Z</time>
      </trkpt>
      <trkpt lat="43.22368" lon="5.86422">
        <ele>461.4</ele>
        <time>2021-05-29T10:42:21Z</time>
      </trkpt>
      <trkpt lat="43.22358" lon="5.86436">
        <ele>460.6</ele>
        <time>2021-05-29T10:42:23Z</time>
      </trkpt>
      <trkpt lat="43.22344" lon="5.86459">
        <ele>460.2</ele>
        <time>2021-05-29T10:42:26Z</time>
      </trkpt>
      <trkpt lat="43.22327" lon="5.86494">
        <ele>459.4</ele>
        <time>2021-05-29T10:42:30Z</time>
      </trkpt>
      <trkpt lat="43.22319" lon="5.8651">
        <ele>459.2</ele>
        <time>2021-05-29T10:42:32Z</time>
      </trkpt>
      <trkpt lat="43.22301" lon="5.8654">
        <ele>458.4</ele>
        <time>2021-05-29T10:42:36Z</time>
      </trkpt>
      <trkpt lat="43.22292" lon="5.86553">
        <ele>458</ele>
        <time>2021-05-29T10:42:38Z</time>
      </trkpt>
      <trkpt lat="43.22288" lon="5.8656">
        <ele>457.8</ele>
        <time>2021-05-29T10:42:39Z</time>
      </trkpt>
      <trkpt lat="43.22276" lon="5.86582">
        <ele>457.4</ele>
        <time>2021-05-29T10:42:42Z</time>
      </trkpt>
      <trkpt lat="43.22272" lon="5.86589">
        <ele>457.4</ele>
        <time>2021-05-29T10:42:43Z</time>
      </trkpt>
      <trkpt lat="43.22268" lon="5.86595">
        <ele>457.4</ele>
        <time>2021-05-29T10:42:44Z</time>
      </trkpt>
      <trkpt lat="43.2226" lon="5.86607">
        <ele>457.2</ele>
        <time>2021-05-29T10:42:46Z</time>
      </trkpt>
      <trkpt lat="43.22255" lon="5.86613">
        <ele>457.2</ele>
        <time>2021-05-29T10:42:47Z</time>
      </trkpt>
      <trkpt lat="43.22248" lon="5.86623">
        <ele>456.8</ele>
        <time>2021-05-29T10:42:49Z</time>
      </trkpt>
      <trkpt lat="43.22243" lon="5.8663">
        <ele>456.8</ele>
        <time>2021-05-29T10:42:50Z</time>
      </trkpt>
      <trkpt lat="43.22239" lon="5.86635">
        <ele>456.6</ele>
        <time>2021-05-29T10:42:51Z</time>
      </trkpt>
      <trkpt lat="43.22234" lon="5.86639">
        <ele>456.2</ele>
        <time>2021-05-29T10:42:52Z</time>
      </trkpt>
      <trkpt lat="43.22229" lon="5.86643">
        <ele>456.2</ele>
        <time>2021-05-29T10:42:53Z</time>
      </trkpt>
      <trkpt lat="43.22225" lon="5.86648">
        <ele>456.4</ele>
        <time>2021-05-29T10:42:54Z</time>
      </trkpt>
      <trkpt lat="43.22211" lon="5.8667">
        <ele>456</ele>
        <time>2021-05-29T10:42:58Z</time>
      </trkpt>
      <trkpt lat="43.22189" lon="5.86698">
        <ele>456</ele>
        <time>2021-05-29T10:43:04Z</time>
      </trkpt>
      <trkpt lat="43.22185" lon="5.86704">
        <ele>456</ele>
        <time>2021-05-29T10:43:05Z</time>
      </trkpt>
      <trkpt lat="43.22175" lon="5.86721">
        <ele>455.8</ele>
        <time>2021-05-29T10:43:08Z</time>
      </trkpt>
      <trkpt lat="43.22169" lon="5.86735">
        <ele>455.8</ele>
        <time>2021-05-29T10:43:10Z</time>
      </trkpt>
      <trkpt lat="43.22165" lon="5.86752">
        <ele>455.8</ele>
        <time>2021-05-29T10:43:12Z</time>
      </trkpt>
      <trkpt lat="43.22164" lon="5.86769">
        <ele>455.8</ele>
        <time>2021-05-29T10:43:14Z</time>
      </trkpt>
      <trkpt lat="43.2216" lon="5.86826">
        <ele>455</ele>
        <time>2021-05-29T10:43:20Z</time>
      </trkpt>
      <trkpt lat="43.22158" lon="5.86854">
        <ele>453.8</ele>
        <time>2021-05-29T10:43:23Z</time>
      </trkpt>
      <trkpt lat="43.22154" lon="5.86891">
        <ele>453</ele>
        <time>2021-05-29T10:43:27Z</time>
      </trkpt>
      <trkpt lat="43.2215" lon="5.8691">
        <ele>452.6</ele>
        <time>2021-05-29T10:43:29Z</time>
      </trkpt>
      <trkpt lat="43.22143" lon="5.86928">
        <ele>452.2</ele>
        <time>2021-05-29T10:43:31Z</time>
      </trkpt>
      <trkpt lat="43.22131" lon="5.86948">
        <ele>451.4</ele>
        <time>2021-05-29T10:43:34Z</time>
      </trkpt>
      <trkpt lat="43.22124" lon="5.86953">
        <ele>451.2</ele>
        <time>2021-05-29T10:43:35Z</time>
      </trkpt>
      <trkpt lat="43.22099" lon="5.86963">
        <ele>450.8</ele>
        <time>2021-05-29T10:43:39Z</time>
      </trkpt>
      <trkpt lat="43.22087" lon="5.86969">
        <ele>450.6</ele>
        <time>2021-05-29T10:43:41Z</time>
      </trkpt>
      <trkpt lat="43.2208" lon="5.8697">
        <ele>450.4</ele>
        <time>2021-05-29T10:43:42Z</time>
      </trkpt>
      <trkpt lat="43.22074" lon="5.86971">
        <ele>450.2</ele>
        <time>2021-05-29T10:43:43Z</time>
      </trkpt>
      <trkpt lat="43.22062" lon="5.86973">
        <ele>449.8</ele>
        <time>2021-05-29T10:43:45Z</time>
      </trkpt>
      <trkpt lat="43.22049" lon="5.86978">
        <ele>449.6</ele>
        <time>2021-05-29T10:43:47Z</time>
      </trkpt>
      <trkpt lat="43.22043" lon="5.86981">
        <ele>449.6</ele>
        <time>2021-05-29T10:43:48Z</time>
      </trkpt>
      <trkpt lat="43.22031" lon="5.86986">
        <ele>449.4</ele>
        <time>2021-05-29T10:43:50Z</time>
      </trkpt>
      <trkpt lat="43.22024" lon="5.86988">
        <ele>449.4</ele>
        <time>2021-05-29T10:43:51Z</time>
      </trkpt>
      <trkpt lat="43.22019" lon="5.86989">
        <ele>449.4</ele>
        <time>2021-05-29T10:43:52Z</time>
      </trkpt>
      <trkpt lat="43.22007" lon="5.86991">
        <ele>449</ele>
        <time>2021-05-29T10:43:54Z</time>
      </trkpt>
      <trkpt lat="43.21997" lon="5.86994">
        <ele>449</ele>
        <time>2021-05-29T10:43:56Z</time>
      </trkpt>
      <trkpt lat="43.21981" lon="5.87004">
        <ele>448.6</ele>
        <time>2021-05-29T10:43:59Z</time>
      </trkpt>
      <trkpt lat="43.21968" lon="5.87019">
        <ele>448.6</ele>
        <time>2021-05-29T10:44:02Z</time>
      </trkpt>
      <trkpt lat="43.21961" lon="5.8703">
        <ele>448.4</ele>
        <time>2021-05-29T10:44:04Z</time>
      </trkpt>
      <trkpt lat="43.21941" lon="5.87059">
        <ele>448.4</ele>
        <time>2021-05-29T10:44:09Z</time>
      </trkpt>
      <trkpt lat="43.21937" lon="5.87064">
        <ele>448.2</ele>
        <time>2021-05-29T10:44:10Z</time>
      </trkpt>
      <trkpt lat="43.21919" lon="5.87079">
        <ele>448.2</ele>
        <time>2021-05-29T10:44:14Z</time>
      </trkpt>
      <trkpt lat="43.21912" lon="5.87088">
        <ele>448</ele>
        <time>2021-05-29T10:44:16Z</time>
      </trkpt>
      <trkpt lat="43.21908" lon="5.87092">
        <ele>447.8</ele>
        <time>2021-05-29T10:44:17Z</time>
      </trkpt>
      <trkpt lat="43.21905" lon="5.87097">
        <ele>448</ele>
        <time>2021-05-29T10:44:18Z</time>
      </trkpt>
      <trkpt lat="43.219" lon="5.87106">
        <ele>448</ele>
        <time>2021-05-29T10:44:20Z</time>
      </trkpt>
      <trkpt lat="43.21894" lon="5.87116">
        <ele>448.2</ele>
        <time>2021-05-29T10:44:22Z</time>
      </trkpt>
      <trkpt lat="43.21885" lon="5.8713">
        <ele>448.2</ele>
        <time>2021-05-29T10:44:25Z</time>
      </trkpt>
      <trkpt lat="43.21874" lon="5.8714">
        <ele>448.4</ele>
        <time>2021-05-29T10:44:28Z</time>
      </trkpt>
      <trkpt lat="43.21861" lon="5.87151">
        <ele>448.6</ele>
        <time>2021-05-29T10:44:31Z</time>
      </trkpt>
      <trkpt lat="43.21857" lon="5.87154">
        <ele>448.8</ele>
        <time>2021-05-29T10:44:32Z</time>
      </trkpt>
      <trkpt lat="43.21854" lon="5.87157">
        <ele>448.8</ele>
        <time>2021-05-29T10:44:33Z</time>
      </trkpt>
      <trkpt lat="43.2185" lon="5.8716">
        <ele>448.8</ele>
        <time>2021-05-29T10:44:34Z</time>
      </trkpt>
      <trkpt lat="43.21847" lon="5.87164">
        <ele>448.8</ele>
        <time>2021-05-29T10:44:35Z</time>
      </trkpt>
      <trkpt lat="43.21843" lon="5.87167">
        <ele>448.8</ele>
        <time>2021-05-29T10:44:36Z</time>
      </trkpt>
      <trkpt lat="43.21829" lon="5.87189">
        <ele>448.6</ele>
        <time>2021-05-29T10:44:40Z</time>
      </trkpt>
      <trkpt lat="43.21825" lon="5.87195">
        <ele>448.6</ele>
        <time>2021-05-29T10:44:41Z</time>
      </trkpt>
      <trkpt lat="43.21821" lon="5.87202">
        <ele>448.6</ele>
        <time>2021-05-29T10:44:42Z</time>
      </trkpt>
      <trkpt lat="43.21816" lon="5.87209">
        <ele>448.4</ele>
        <time>2021-05-29T10:44:43Z</time>
      </trkpt>
      <trkpt lat="43.21806" lon="5.87222">
        <ele>447.6</ele>
        <time>2021-05-29T10:44:45Z</time>
      </trkpt>
      <trkpt lat="43.21801" lon="5.87228">
        <ele>447.2</ele>
        <time>2021-05-29T10:44:46Z</time>
      </trkpt>
      <trkpt lat="43.21784" lon="5.87245">
        <ele>446</ele>
        <time>2021-05-29T10:44:49Z</time>
      </trkpt>
      <trkpt lat="43.21772" lon="5.87255">
        <ele>445.2</ele>
        <time>2021-05-29T10:44:51Z</time>
      </trkpt>
      <trkpt lat="43.2176" lon="5.87267">
        <ele>444.6</ele>
        <time>2021-05-29T10:44:53Z</time>
      </trkpt>
      <trkpt lat="43.21749" lon="5.87278">
        <ele>443.2</ele>
        <time>2021-05-29T10:44:55Z</time>
      </trkpt>
      <trkpt lat="43.21738" lon="5.87289">
        <ele>442.6</ele>
        <time>2021-05-29T10:44:57Z</time>
      </trkpt>
      <trkpt lat="43.21723" lon="5.87306">
        <ele>441.8</ele>
        <time>2021-05-29T10:45:00Z</time>
      </trkpt>
      <trkpt lat="43.21707" lon="5.87322">
        <ele>440.6</ele>
        <time>2021-05-29T10:45:03Z</time>
      </trkpt>
      <trkpt lat="43.21701" lon="5.87327">
        <ele>440.4</ele>
        <time>2021-05-29T10:45:04Z</time>
      </trkpt>
      <trkpt lat="43.21696" lon="5.87332">
        <ele>440.2</ele>
        <time>2021-05-29T10:45:05Z</time>
      </trkpt>
      <trkpt lat="43.21683" lon="5.8734">
        <ele>439.8</ele>
        <time>2021-05-29T10:45:07Z</time>
      </trkpt>
      <trkpt lat="43.21677" lon="5.87343">
        <ele>439.2</ele>
        <time>2021-05-29T10:45:08Z</time>
      </trkpt>
      <trkpt lat="43.21666" lon="5.87349">
        <ele>438.4</ele>
        <time>2021-05-29T10:45:10Z</time>
      </trkpt>
      <trkpt lat="43.2166" lon="5.87354">
        <ele>437.8</ele>
        <time>2021-05-29T10:45:11Z</time>
      </trkpt>
      <trkpt lat="43.21651" lon="5.87361">
        <ele>436.4</ele>
        <time>2021-05-29T10:45:13Z</time>
      </trkpt>
      <trkpt lat="43.21645" lon="5.87364">
        <ele>436.2</ele>
        <time>2021-05-29T10:45:14Z</time>
      </trkpt>
      <trkpt lat="43.21633" lon="5.87368">
        <ele>435.8</ele>
        <time>2021-05-29T10:45:16Z</time>
      </trkpt>
      <trkpt lat="43.21626" lon="5.87368">
        <ele>435.8</ele>
        <time>2021-05-29T10:45:17Z</time>
      </trkpt>
      <trkpt lat="43.21619" lon="5.87368">
        <ele>435.6</ele>
        <time>2021-05-29T10:45:18Z</time>
      </trkpt>
      <trkpt lat="43.21605" lon="5.87367">
        <ele>434.4</ele>
        <time>2021-05-29T10:45:20Z</time>
      </trkpt>
      <trkpt lat="43.2159" lon="5.87367">
        <ele>432.6</ele>
        <time>2021-05-29T10:45:22Z</time>
      </trkpt>
      <trkpt lat="43.21574" lon="5.87368">
        <ele>431.4</ele>
        <time>2021-05-29T10:45:24Z</time>
      </trkpt>
      <trkpt lat="43.21551" lon="5.87371">
        <ele>430</ele>
        <time>2021-05-29T10:45:27Z</time>
      </trkpt>
      <trkpt lat="43.21543" lon="5.87372">
        <ele>429.8</ele>
        <time>2021-05-29T10:45:28Z</time>
      </trkpt>
      <trkpt lat="43.21521" lon="5.87376">
        <ele>428.8</ele>
        <time>2021-05-29T10:45:31Z</time>
      </trkpt>
      <trkpt lat="43.21508" lon="5.87379">
        <ele>428.2</ele>
        <time>2021-05-29T10:45:33Z</time>
      </trkpt>
      <trkpt lat="43.21501" lon="5.87377">
        <ele>428</ele>
        <time>2021-05-29T10:45:34Z</time>
      </trkpt>
      <trkpt lat="43.21494" lon="5.87373">
        <ele>427.8</ele>
        <time>2021-05-29T10:45:35Z</time>
      </trkpt>
      <trkpt lat="43.21489" lon="5.87368">
        <ele>427.4</ele>
        <time>2021-05-29T10:45:36Z</time>
      </trkpt>
      <trkpt lat="43.21483" lon="5.87362">
        <ele>427.2</ele>
        <time>2021-05-29T10:45:37Z</time>
      </trkpt>
      <trkpt lat="43.21478" lon="5.87356">
        <ele>426.8</ele>
        <time>2021-05-29T10:45:38Z</time>
      </trkpt>
      <trkpt lat="43.21472" lon="5.87352">
        <ele>426</ele>
        <time>2021-05-29T10:45:39Z</time>
      </trkpt>
      <trkpt lat="43.21466" lon="5.87349">
        <ele>425.8</ele>
        <time>2021-05-29T10:45:40Z</time>
      </trkpt>
      <trkpt lat="43.21462" lon="5.87347">
        <ele>425.2</ele>
        <time>2021-05-29T10:45:41Z</time>
      </trkpt>
      <trkpt lat="43.21456" lon="5.87345">
        <ele>425.2</ele>
        <time>2021-05-29T10:45:42Z</time>
      </trkpt>
      <trkpt lat="43.21452" lon="5.87342">
        <ele>425</ele>
        <time>2021-05-29T10:45:43Z</time>
      </trkpt>
      <trkpt lat="43.21447" lon="5.87338">
        <ele>424.4</ele>
        <time>2021-05-29T10:45:44Z</time>
      </trkpt>
      <trkpt lat="43.21439" lon="5.87328">
        <ele>423.4</ele>
        <time>2021-05-29T10:45:46Z</time>
      </trkpt>
      <trkpt lat="43.21429" lon="5.87317">
        <ele>422.4</ele>
        <time>2021-05-29T10:45:48Z</time>
      </trkpt>
      <trkpt lat="43.21417" lon="5.87306">
        <ele>421.2</ele>
        <time>2021-05-29T10:45:50Z</time>
      </trkpt>
      <trkpt lat="43.21412" lon="5.87302">
        <ele>420.4</ele>
        <time>2021-05-29T10:45:51Z</time>
      </trkpt>
      <trkpt lat="43.21405" lon="5.87297">
        <ele>420</ele>
        <time>2021-05-29T10:45:52Z</time>
      </trkpt>
      <trkpt lat="43.21397" lon="5.87291">
        <ele>419.8</ele>
        <time>2021-05-29T10:45:53Z</time>
      </trkpt>
      <trkpt lat="43.21391" lon="5.87287">
        <ele>419.6</ele>
        <time>2021-05-29T10:45:54Z</time>
      </trkpt>
      <trkpt lat="43.21376" lon="5.87276">
        <ele>419</ele>
        <time>2021-05-29T10:45:56Z</time>
      </trkpt>
      <trkpt lat="43.21364" lon="5.87268">
        <ele>417.6</ele>
        <time>2021-05-29T10:45:58Z</time>
      </trkpt>
      <trkpt lat="43.21357" lon="5.87264">
        <ele>417.2</ele>
        <time>2021-05-29T10:45:59Z</time>
      </trkpt>
      <trkpt lat="43.2135" lon="5.87261">
        <ele>417</ele>
        <time>2021-05-29T10:46:00Z</time>
      </trkpt>
      <trkpt lat="43.21341" lon="5.87258">
        <ele>416.8</ele>
        <time>2021-05-29T10:46:01Z</time>
      </trkpt>
      <trkpt lat="43.21334" lon="5.87257">
        <ele>416.4</ele>
        <time>2021-05-29T10:46:02Z</time>
      </trkpt>
      <trkpt lat="43.21327" lon="5.87256">
        <ele>415.8</ele>
        <time>2021-05-29T10:46:03Z</time>
      </trkpt>
      <trkpt lat="43.21311" lon="5.87251">
        <ele>415.2</ele>
        <time>2021-05-29T10:46:05Z</time>
      </trkpt>
      <trkpt lat="43.21286" lon="5.87247">
        <ele>414.2</ele>
        <time>2021-05-29T10:46:08Z</time>
      </trkpt>
      <trkpt lat="43.21278" lon="5.87245">
        <ele>413.6</ele>
        <time>2021-05-29T10:46:09Z</time>
      </trkpt>
      <trkpt lat="43.21262" lon="5.8724">
        <ele>412.4</ele>
        <time>2021-05-29T10:46:11Z</time>
      </trkpt>
      <trkpt lat="43.2124" lon="5.87234">
        <ele>411.4</ele>
        <time>2021-05-29T10:46:14Z</time>
      </trkpt>
      <trkpt lat="43.21233" lon="5.87232">
        <ele>411.2</ele>
        <time>2021-05-29T10:46:15Z</time>
      </trkpt>
      <trkpt lat="43.21219" lon="5.87227">
        <ele>410.8</ele>
        <time>2021-05-29T10:46:17Z</time>
      </trkpt>
      <trkpt lat="43.21208" lon="5.87224">
        <ele>409.8</ele>
        <time>2021-05-29T10:46:19Z</time>
      </trkpt>
      <trkpt lat="43.21187" lon="5.87217">
        <ele>408.2</ele>
        <time>2021-05-29T10:46:22Z</time>
      </trkpt>
      <trkpt lat="43.21173" lon="5.87212">
        <ele>407</ele>
        <time>2021-05-29T10:46:24Z</time>
      </trkpt>
      <trkpt lat="43.21164" lon="5.87207">
        <ele>406.6</ele>
        <time>2021-05-29T10:46:25Z</time>
      </trkpt>
      <trkpt lat="43.21158" lon="5.87204">
        <ele>405.8</ele>
        <time>2021-05-29T10:46:26Z</time>
      </trkpt>
      <trkpt lat="43.21135" lon="5.87192">
        <ele>404.8</ele>
        <time>2021-05-29T10:46:29Z</time>
      </trkpt>
      <trkpt lat="43.21119" lon="5.87186">
        <ele>404</ele>
        <time>2021-05-29T10:46:31Z</time>
      </trkpt>
      <trkpt lat="43.21104" lon="5.8718">
        <ele>403.6</ele>
        <time>2021-05-29T10:46:33Z</time>
      </trkpt>
      <trkpt lat="43.21098" lon="5.87177">
        <ele>403.2</ele>
        <time>2021-05-29T10:46:34Z</time>
      </trkpt>
      <trkpt lat="43.21092" lon="5.87174">
        <ele>403</ele>
        <time>2021-05-29T10:46:35Z</time>
      </trkpt>
      <trkpt lat="43.21087" lon="5.8717">
        <ele>402.8</ele>
        <time>2021-05-29T10:46:36Z</time>
      </trkpt>
      <trkpt lat="43.21082" lon="5.87165">
        <ele>402.4</ele>
        <time>2021-05-29T10:46:37Z</time>
      </trkpt>
      <trkpt lat="43.21074" lon="5.87152">
        <ele>401.8</ele>
        <time>2021-05-29T10:46:39Z</time>
      </trkpt>
      <trkpt lat="43.21069" lon="5.87147">
        <ele>401.4</ele>
        <time>2021-05-29T10:46:40Z</time>
      </trkpt>
      <trkpt lat="43.21065" lon="5.87143">
        <ele>401</ele>
        <time>2021-05-29T10:46:41Z</time>
      </trkpt>
      <trkpt lat="43.21059" lon="5.87141">
        <ele>400.8</ele>
        <time>2021-05-29T10:46:42Z</time>
      </trkpt>
      <trkpt lat="43.21054" lon="5.8714">
        <ele>400</ele>
        <time>2021-05-29T10:46:43Z</time>
      </trkpt>
      <trkpt lat="43.21047" lon="5.87139">
        <ele>399.6</ele>
        <time>2021-05-29T10:46:44Z</time>
      </trkpt>
      <trkpt lat="43.21034" lon="5.87139">
        <ele>398.8</ele>
        <time>2021-05-29T10:46:46Z</time>
      </trkpt>
      <trkpt lat="43.2102" lon="5.87138">
        <ele>397.6</ele>
        <time>2021-05-29T10:46:48Z</time>
      </trkpt>
      <trkpt lat="43.2098" lon="5.87132">
        <ele>396.4</ele>
        <time>2021-05-29T10:46:54Z</time>
      </trkpt>
      <trkpt lat="43.20975" lon="5.87128">
        <ele>396</ele>
        <time>2021-05-29T10:46:55Z</time>
      </trkpt>
      <trkpt lat="43.2097" lon="5.87123">
        <ele>396</ele>
        <time>2021-05-29T10:46:56Z</time>
      </trkpt>
      <trkpt lat="43.20961" lon="5.87111">
        <ele>395.6</ele>
        <time>2021-05-29T10:46:58Z</time>
      </trkpt>
      <trkpt lat="43.20957" lon="5.87104">
        <ele>395.4</ele>
        <time>2021-05-29T10:46:59Z</time>
      </trkpt>
      <trkpt lat="43.20943" lon="5.87085">
        <ele>394.2</ele>
        <time>2021-05-29T10:47:02Z</time>
      </trkpt>
      <trkpt lat="43.2093" lon="5.87077">
        <ele>393.8</ele>
        <time>2021-05-29T10:47:04Z</time>
      </trkpt>
      <trkpt lat="43.20917" lon="5.87076">
        <ele>393.2</ele>
        <time>2021-05-29T10:47:06Z</time>
      </trkpt>
      <trkpt lat="43.20911" lon="5.87079">
        <ele>392.8</ele>
        <time>2021-05-29T10:47:07Z</time>
      </trkpt>
      <trkpt lat="43.20884" lon="5.87091">
        <ele>392.2</ele>
        <time>2021-05-29T10:47:11Z</time>
      </trkpt>
      <trkpt lat="43.2087" lon="5.87096">
        <ele>391.6</ele>
        <time>2021-05-29T10:47:13Z</time>
      </trkpt>
      <trkpt lat="43.20863" lon="5.87097">
        <ele>391</ele>
        <time>2021-05-29T10:47:14Z</time>
      </trkpt>
      <trkpt lat="43.2085" lon="5.87098">
        <ele>390.8</ele>
        <time>2021-05-29T10:47:16Z</time>
      </trkpt>
      <trkpt lat="43.20844" lon="5.87098">
        <ele>390.8</ele>
        <time>2021-05-29T10:47:17Z</time>
      </trkpt>
      <trkpt lat="43.20838" lon="5.87096">
        <ele>390.4</ele>
        <time>2021-05-29T10:47:18Z</time>
      </trkpt>
      <trkpt lat="43.20829" lon="5.87091">
        <ele>390</ele>
        <time>2021-05-29T10:47:20Z</time>
      </trkpt>
      <trkpt lat="43.20825" lon="5.87088">
        <ele>389.8</ele>
        <time>2021-05-29T10:47:21Z</time>
      </trkpt>
      <trkpt lat="43.20816" lon="5.87079">
        <ele>389.6</ele>
        <time>2021-05-29T10:47:23Z</time>
      </trkpt>
      <trkpt lat="43.20813" lon="5.87077">
        <ele>389.4</ele>
        <time>2021-05-29T10:47:24Z</time>
      </trkpt>
      <trkpt lat="43.20808" lon="5.87074">
        <ele>389.4</ele>
        <time>2021-05-29T10:47:25Z</time>
      </trkpt>
      <trkpt lat="43.20799" lon="5.8707">
        <ele>389</ele>
        <time>2021-05-29T10:47:27Z</time>
      </trkpt>
      <trkpt lat="43.20795" lon="5.87069">
        <ele>388.8</ele>
        <time>2021-05-29T10:47:28Z</time>
      </trkpt>
      <trkpt lat="43.20782" lon="5.87067">
        <ele>388.6</ele>
        <time>2021-05-29T10:47:31Z</time>
      </trkpt>
      <trkpt lat="43.20774" lon="5.87069">
        <ele>388.6</ele>
        <time>2021-05-29T10:47:33Z</time>
      </trkpt>
      <trkpt lat="43.20764" lon="5.87071">
        <ele>388.6</ele>
        <time>2021-05-29T10:47:36Z</time>
      </trkpt>
      <trkpt lat="43.20758" lon="5.87076">
        <ele>388.6</ele>
        <time>2021-05-29T10:47:38Z</time>
      </trkpt>
      <trkpt lat="43.20754" lon="5.87078">
        <ele>388.6</ele>
        <time>2021-05-29T10:47:39Z</time>
      </trkpt>
      <trkpt lat="43.20745" lon="5.87084">
        <ele>388.4</ele>
        <time>2021-05-29T10:47:41Z</time>
      </trkpt>
      <trkpt lat="43.20741" lon="5.87087">
        <ele>388.2</ele>
        <time>2021-05-29T10:47:42Z</time>
      </trkpt>
      <trkpt lat="43.20733" lon="5.87095">
        <ele>387.8</ele>
        <time>2021-05-29T10:47:44Z</time>
      </trkpt>
      <trkpt lat="43.20729" lon="5.87099">
        <ele>387.2</ele>
        <time>2021-05-29T10:47:45Z</time>
      </trkpt>
      <trkpt lat="43.20722" lon="5.87108">
        <ele>385.8</ele>
        <time>2021-05-29T10:47:47Z</time>
      </trkpt>
      <trkpt lat="43.20719" lon="5.87112">
        <ele>385.6</ele>
        <time>2021-05-29T10:47:48Z</time>
      </trkpt>
      <trkpt lat="43.20712" lon="5.87122">
        <ele>384.8</ele>
        <time>2021-05-29T10:47:50Z</time>
      </trkpt>
      <trkpt lat="43.20708" lon="5.87126">
        <ele>384.6</ele>
        <time>2021-05-29T10:47:51Z</time>
      </trkpt>
      <trkpt lat="43.20701" lon="5.87139">
        <ele>384.4</ele>
        <time>2021-05-29T10:47:53Z</time>
      </trkpt>
      <trkpt lat="43.207" lon="5.87145">
        <ele>384.2</ele>
        <time>2021-05-29T10:47:54Z</time>
      </trkpt>
      <trkpt lat="43.20698" lon="5.8716">
        <ele>384</ele>
        <time>2021-05-29T10:47:56Z</time>
      </trkpt>
      <trkpt lat="43.20695" lon="5.87175">
        <ele>383.8</ele>
        <time>2021-05-29T10:47:58Z</time>
      </trkpt>
      <trkpt lat="43.20693" lon="5.87183">
        <ele>383.6</ele>
        <time>2021-05-29T10:47:59Z</time>
      </trkpt>
      <trkpt lat="43.20689" lon="5.87199">
        <ele>383.4</ele>
        <time>2021-05-29T10:48:01Z</time>
      </trkpt>
      <trkpt lat="43.20687" lon="5.87207">
        <ele>383</ele>
        <time>2021-05-29T10:48:02Z</time>
      </trkpt>
      <trkpt lat="43.20684" lon="5.87224">
        <ele>382.6</ele>
        <time>2021-05-29T10:48:04Z</time>
      </trkpt>
      <trkpt lat="43.20682" lon="5.87232">
        <ele>382.6</ele>
        <time>2021-05-29T10:48:05Z</time>
      </trkpt>
      <trkpt lat="43.2068" lon="5.87241">
        <ele>382</ele>
        <time>2021-05-29T10:48:06Z</time>
      </trkpt>
      <trkpt lat="43.20676" lon="5.87249">
        <ele>381.6</ele>
        <time>2021-05-29T10:48:07Z</time>
      </trkpt>
      <trkpt lat="43.20673" lon="5.87257">
        <ele>381.4</ele>
        <time>2021-05-29T10:48:08Z</time>
      </trkpt>
      <trkpt lat="43.2067" lon="5.87266">
        <ele>381</ele>
        <time>2021-05-29T10:48:09Z</time>
      </trkpt>
      <trkpt lat="43.20664" lon="5.87283">
        <ele>380.4</ele>
        <time>2021-05-29T10:48:11Z</time>
      </trkpt>
      <trkpt lat="43.20655" lon="5.87309">
        <ele>379.8</ele>
        <time>2021-05-29T10:48:14Z</time>
      </trkpt>
      <trkpt lat="43.20651" lon="5.87317">
        <ele>379.4</ele>
        <time>2021-05-29T10:48:15Z</time>
      </trkpt>
      <trkpt lat="43.20647" lon="5.87324">
        <ele>379.2</ele>
        <time>2021-05-29T10:48:16Z</time>
      </trkpt>
      <trkpt lat="43.20637" lon="5.87338">
        <ele>379</ele>
        <time>2021-05-29T10:48:18Z</time>
      </trkpt>
      <trkpt lat="43.20627" lon="5.87349">
        <ele>379</ele>
        <time>2021-05-29T10:48:20Z</time>
      </trkpt>
      <trkpt lat="43.20622" lon="5.87354">
        <ele>379</ele>
        <time>2021-05-29T10:48:21Z</time>
      </trkpt>
      <trkpt lat="43.20596" lon="5.87382">
        <ele>378.4</ele>
        <time>2021-05-29T10:48:26Z</time>
      </trkpt>
      <trkpt lat="43.20586" lon="5.87393">
        <ele>378.2</ele>
        <time>2021-05-29T10:48:28Z</time>
      </trkpt>
      <trkpt lat="43.20581" lon="5.87398">
        <ele>378.2</ele>
        <time>2021-05-29T10:48:29Z</time>
      </trkpt>
      <trkpt lat="43.20569" lon="5.87406">
        <ele>377.8</ele>
        <time>2021-05-29T10:48:31Z</time>
      </trkpt>
      <trkpt lat="43.20562" lon="5.8741">
        <ele>377.6</ele>
        <time>2021-05-29T10:48:32Z</time>
      </trkpt>
      <trkpt lat="43.20548" lon="5.87416">
        <ele>377.4</ele>
        <time>2021-05-29T10:48:34Z</time>
      </trkpt>
      <trkpt lat="43.2053" lon="5.87423">
        <ele>377.2</ele>
        <time>2021-05-29T10:48:37Z</time>
      </trkpt>
      <trkpt lat="43.20518" lon="5.87429">
        <ele>377</ele>
        <time>2021-05-29T10:48:39Z</time>
      </trkpt>
      <trkpt lat="43.205" lon="5.87439">
        <ele>376.6</ele>
        <time>2021-05-29T10:48:42Z</time>
      </trkpt>
      <trkpt lat="43.20482" lon="5.8745">
        <ele>376.4</ele>
        <time>2021-05-29T10:48:45Z</time>
      </trkpt>
      <trkpt lat="43.20471" lon="5.87458">
        <ele>375.6</ele>
        <time>2021-05-29T10:48:47Z</time>
      </trkpt>
      <trkpt lat="43.20467" lon="5.87461">
        <ele>375.8</ele>
        <time>2021-05-29T10:48:48Z</time>
      </trkpt>
      <trkpt lat="43.20458" lon="5.87469">
        <ele>375.6</ele>
        <time>2021-05-29T10:48:51Z</time>
      </trkpt>
      <trkpt lat="43.20454" lon="5.87472">
        <ele>375.2</ele>
        <time>2021-05-29T10:48:52Z</time>
      </trkpt>
      <trkpt lat="43.20445" lon="5.87477">
        <ele>374</ele>
        <time>2021-05-29T10:48:54Z</time>
      </trkpt>
      <trkpt lat="43.20437" lon="5.87481">
        <ele>373.4</ele>
        <time>2021-05-29T10:48:56Z</time>
      </trkpt>
      <trkpt lat="43.20433" lon="5.87482">
        <ele>373.2</ele>
        <time>2021-05-29T10:48:57Z</time>
      </trkpt>
      <trkpt lat="43.20429" lon="5.87482">
        <ele>373.2</ele>
        <time>2021-05-29T10:48:58Z</time>
      </trkpt>
      <trkpt lat="43.20425" lon="5.87482">
        <ele>373</ele>
        <time>2021-05-29T10:48:59Z</time>
      </trkpt>
      <trkpt lat="43.20415" lon="5.87483">
        <ele>372.8</ele>
        <time>2021-05-29T10:49:01Z</time>
      </trkpt>
      <trkpt lat="43.20402" lon="5.8749">
        <ele>372.8</ele>
        <time>2021-05-29T10:49:03Z</time>
      </trkpt>
      <trkpt lat="43.20386" lon="5.87501">
        <ele>372</ele>
        <time>2021-05-29T10:49:06Z</time>
      </trkpt>
      <trkpt lat="43.2038" lon="5.87504">
        <ele>372</ele>
        <time>2021-05-29T10:49:07Z</time>
      </trkpt>
      <trkpt lat="43.20369" lon="5.8751">
        <ele>371</ele>
        <time>2021-05-29T10:49:09Z</time>
      </trkpt>
      <trkpt lat="43.20364" lon="5.87513">
        <ele>371</ele>
        <time>2021-05-29T10:49:10Z</time>
      </trkpt>
      <trkpt lat="43.20358" lon="5.87516">
        <ele>370.8</ele>
        <time>2021-05-29T10:49:11Z</time>
      </trkpt>
      <trkpt lat="43.20348" lon="5.87522">
        <ele>370.6</ele>
        <time>2021-05-29T10:49:13Z</time>
      </trkpt>
      <trkpt lat="43.20342" lon="5.87523">
        <ele>370.6</ele>
        <time>2021-05-29T10:49:14Z</time>
      </trkpt>
      <trkpt lat="43.20338" lon="5.87524">
        <ele>370.4</ele>
        <time>2021-05-29T10:49:15Z</time>
      </trkpt>
      <trkpt lat="43.20332" lon="5.87524">
        <ele>370.2</ele>
        <time>2021-05-29T10:49:16Z</time>
      </trkpt>
      <trkpt lat="43.20322" lon="5.87525">
        <ele>370.2</ele>
        <time>2021-05-29T10:49:18Z</time>
      </trkpt>
      <trkpt lat="43.20317" lon="5.87524">
        <ele>370.2</ele>
        <time>2021-05-29T10:49:19Z</time>
      </trkpt>
      <trkpt lat="43.20312" lon="5.87525">
        <ele>370.2</ele>
        <time>2021-05-29T10:49:20Z</time>
      </trkpt>
      <trkpt lat="43.20304" lon="5.87526">
        <ele>370.2</ele>
        <time>2021-05-29T10:49:22Z</time>
      </trkpt>
      <trkpt lat="43.20296" lon="5.87527">
        <ele>370.2</ele>
        <time>2021-05-29T10:49:24Z</time>
      </trkpt>
      <trkpt lat="43.20288" lon="5.8753">
        <ele>370.4</ele>
        <time>2021-05-29T10:49:26Z</time>
      </trkpt>
      <trkpt lat="43.20284" lon="5.87531">
        <ele>370.4</ele>
        <time>2021-05-29T10:49:27Z</time>
      </trkpt>
      <trkpt lat="43.20271" lon="5.87533">
        <ele>370.8</ele>
        <time>2021-05-29T10:49:30Z</time>
      </trkpt>
      <trkpt lat="43.20258" lon="5.87535">
        <ele>370.8</ele>
        <time>2021-05-29T10:49:33Z</time>
      </trkpt>
      <trkpt lat="43.20218" lon="5.87539">
        <ele>370.4</ele>
        <time>2021-05-29T10:49:41Z</time>
      </trkpt>
      <trkpt lat="43.20213" lon="5.87541">
        <ele>370.4</ele>
        <time>2021-05-29T10:49:42Z</time>
      </trkpt>
      <trkpt lat="43.20196" lon="5.8755">
        <ele>370</ele>
        <time>2021-05-29T10:49:46Z</time>
      </trkpt>
      <trkpt lat="43.20189" lon="5.87556">
        <ele>370.4</ele>
        <time>2021-05-29T10:49:48Z</time>
      </trkpt>
      <trkpt lat="43.20177" lon="5.87564">
        <ele>370.6</ele>
        <time>2021-05-29T10:49:51Z</time>
      </trkpt>
      <trkpt lat="43.20172" lon="5.87567">
        <ele>370.6</ele>
        <time>2021-05-29T10:49:52Z</time>
      </trkpt>
      <trkpt lat="43.20167" lon="5.87569">
        <ele>370.8</ele>
        <time>2021-05-29T10:49:53Z</time>
      </trkpt>
      <trkpt lat="43.20164" lon="5.8757">
        <ele>371</ele>
        <time>2021-05-29T10:49:54Z</time>
      </trkpt>
      <trkpt lat="43.20153" lon="5.87573">
        <ele>371</ele>
        <time>2021-05-29T10:49:56Z</time>
      </trkpt>
      <trkpt lat="43.20144" lon="5.87577">
        <ele>371</ele>
        <time>2021-05-29T10:49:58Z</time>
      </trkpt>
      <trkpt lat="43.20125" lon="5.87584">
        <ele>370.2</ele>
        <time>2021-05-29T10:50:02Z</time>
      </trkpt>
      <trkpt lat="43.2012" lon="5.87585">
        <ele>369.6</ele>
        <time>2021-05-29T10:50:03Z</time>
      </trkpt>
      <trkpt lat="43.20117" lon="5.87587">
        <ele>369.4</ele>
        <time>2021-05-29T10:50:04Z</time>
      </trkpt>
      <trkpt lat="43.20114" lon="5.87588">
        <ele>369.2</ele>
        <time>2021-05-29T10:50:05Z</time>
      </trkpt>
      <trkpt lat="43.20109" lon="5.8759">
        <ele>368.4</ele>
        <time>2021-05-29T10:50:07Z</time>
      </trkpt>
      <trkpt lat="43.20106" lon="5.87591">
        <ele>368.4</ele>
        <time>2021-05-29T10:50:08Z</time>
      </trkpt>
      <trkpt lat="43.20104" lon="5.87593">
        <ele>368</ele>
        <time>2021-05-29T10:50:09Z</time>
      </trkpt>
      <trkpt lat="43.201" lon="5.87595">
        <ele>367.8</ele>
        <time>2021-05-29T10:50:10Z</time>
      </trkpt>
      <trkpt lat="43.20097" lon="5.87596">
        <ele>367.8</ele>
        <time>2021-05-29T10:50:11Z</time>
      </trkpt>
      <trkpt lat="43.20093" lon="5.87597">
        <ele>367.4</ele>
        <time>2021-05-29T10:50:12Z</time>
      </trkpt>
      <trkpt lat="43.20089" lon="5.87598">
        <ele>367</ele>
        <time>2021-05-29T10:50:13Z</time>
      </trkpt>
      <trkpt lat="43.20084" lon="5.876">
        <ele>367.2</ele>
        <time>2021-05-29T10:50:14Z</time>
      </trkpt>
      <trkpt lat="43.20079" lon="5.87601">
        <ele>366.8</ele>
        <time>2021-05-29T10:50:15Z</time>
      </trkpt>
      <trkpt lat="43.20075" lon="5.87602">
        <ele>366.8</ele>
        <time>2021-05-29T10:50:16Z</time>
      </trkpt>
      <trkpt lat="43.20064" lon="5.87606">
        <ele>365.8</ele>
        <time>2021-05-29T10:50:18Z</time>
      </trkpt>
      <trkpt lat="43.20052" lon="5.87612">
        <ele>365.2</ele>
        <time>2021-05-29T10:50:20Z</time>
      </trkpt>
      <trkpt lat="43.2004" lon="5.87617">
        <ele>365</ele>
        <time>2021-05-29T10:50:22Z</time>
      </trkpt>
      <trkpt lat="43.20028" lon="5.87623">
        <ele>364.6</ele>
        <time>2021-05-29T10:50:24Z</time>
      </trkpt>
      <trkpt lat="43.20023" lon="5.87625">
        <ele>364.6</ele>
        <time>2021-05-29T10:50:25Z</time>
      </trkpt>
      <trkpt lat="43.20018" lon="5.87628">
        <ele>364.6</ele>
        <time>2021-05-29T10:50:26Z</time>
      </trkpt>
      <trkpt lat="43.2001" lon="5.87635">
        <ele>364.4</ele>
        <time>2021-05-29T10:50:28Z</time>
      </trkpt>
      <trkpt lat="43.20006" lon="5.87639">
        <ele>364.2</ele>
        <time>2021-05-29T10:50:29Z</time>
      </trkpt>
      <trkpt lat="43.20002" lon="5.87642">
        <ele>364.2</ele>
        <time>2021-05-29T10:50:30Z</time>
      </trkpt>
      <trkpt lat="43.19998" lon="5.87644">
        <ele>364</ele>
        <time>2021-05-29T10:50:31Z</time>
      </trkpt>
      <trkpt lat="43.19982" lon="5.8765">
        <ele>364.2</ele>
        <time>2021-05-29T10:50:35Z</time>
      </trkpt>
      <trkpt lat="43.19979" lon="5.87652">
        <ele>364.4</ele>
        <time>2021-05-29T10:50:36Z</time>
      </trkpt>
      <trkpt lat="43.19951" lon="5.87664">
        <ele>365</ele>
        <time>2021-05-29T10:50:43Z</time>
      </trkpt>
      <trkpt lat="43.19943" lon="5.87665">
        <ele>365.2</ele>
        <time>2021-05-29T10:50:45Z</time>
      </trkpt>
      <trkpt lat="43.19939" lon="5.87666">
        <ele>365.4</ele>
        <time>2021-05-29T10:50:46Z</time>
      </trkpt>
      <trkpt lat="43.19931" lon="5.87667">
        <ele>365.6</ele>
        <time>2021-05-29T10:50:48Z</time>
      </trkpt>
      <trkpt lat="43.19921" lon="5.87672">
        <ele>365.6</ele>
        <time>2021-05-29T10:50:51Z</time>
      </trkpt>
      <trkpt lat="43.199" lon="5.87678">
        <ele>365.6</ele>
        <time>2021-05-29T10:50:57Z</time>
      </trkpt>
      <trkpt lat="43.19896" lon="5.87679">
        <ele>365.6</ele>
        <time>2021-05-29T10:50:58Z</time>
      </trkpt>
      <trkpt lat="43.19886" lon="5.87682">
        <ele>365.6</ele>
        <time>2021-05-29T10:51:00Z</time>
      </trkpt>
      <trkpt lat="43.19877" lon="5.87684">
        <ele>365.8</ele>
        <time>2021-05-29T10:51:02Z</time>
      </trkpt>
      <trkpt lat="43.19872" lon="5.87685">
        <ele>365.8</ele>
        <time>2021-05-29T10:51:03Z</time>
      </trkpt>
      <trkpt lat="43.19864" lon="5.87685">
        <ele>366</ele>
        <time>2021-05-29T10:51:05Z</time>
      </trkpt>
      <trkpt lat="43.19845" lon="5.87689">
        <ele>365.8</ele>
        <time>2021-05-29T10:51:09Z</time>
      </trkpt>
      <trkpt lat="43.19825" lon="5.87699">
        <ele>365.8</ele>
        <time>2021-05-29T10:51:14Z</time>
      </trkpt>
      <trkpt lat="43.19812" lon="5.87706">
        <ele>365.6</ele>
        <time>2021-05-29T10:51:17Z</time>
      </trkpt>
      <trkpt lat="43.19784" lon="5.87715">
        <ele>365.8</ele>
        <time>2021-05-29T10:51:23Z</time>
      </trkpt>
      <trkpt lat="43.1978" lon="5.87717">
        <ele>365.4</ele>
        <time>2021-05-29T10:51:24Z</time>
      </trkpt>
      <trkpt lat="43.19754" lon="5.87729">
        <ele>365</ele>
        <time>2021-05-29T10:51:30Z</time>
      </trkpt>
      <trkpt lat="43.19749" lon="5.87731">
        <ele>364.8</ele>
        <time>2021-05-29T10:51:31Z</time>
      </trkpt>
      <trkpt lat="43.19745" lon="5.87733">
        <ele>364.8</ele>
        <time>2021-05-29T10:51:32Z</time>
      </trkpt>
      <trkpt lat="43.19741" lon="5.87735">
        <ele>364.8</ele>
        <time>2021-05-29T10:51:33Z</time>
      </trkpt>
      <trkpt lat="43.19733" lon="5.87741">
        <ele>364.6</ele>
        <time>2021-05-29T10:51:35Z</time>
      </trkpt>
      <trkpt lat="43.1973" lon="5.87745">
        <ele>364.6</ele>
        <time>2021-05-29T10:51:36Z</time>
      </trkpt>
      <trkpt lat="43.19726" lon="5.87749">
        <ele>364.4</ele>
        <time>2021-05-29T10:51:37Z</time>
      </trkpt>
      <trkpt lat="43.19705" lon="5.87765">
        <ele>364</ele>
        <time>2021-05-29T10:51:42Z</time>
      </trkpt>
      <trkpt lat="43.19695" lon="5.87773">
        <ele>364</ele>
        <time>2021-05-29T10:51:44Z</time>
      </trkpt>
      <trkpt lat="43.19687" lon="5.8778">
        <ele>363.6</ele>
        <time>2021-05-29T10:51:46Z</time>
      </trkpt>
      <trkpt lat="43.19682" lon="5.87785">
        <ele>363.4</ele>
        <time>2021-05-29T10:51:47Z</time>
      </trkpt>
      <trkpt lat="43.19675" lon="5.87792">
        <ele>362.2</ele>
        <time>2021-05-29T10:51:49Z</time>
      </trkpt>
      <trkpt lat="43.19664" lon="5.87805">
        <ele>361</ele>
        <time>2021-05-29T10:51:53Z</time>
      </trkpt>
      <trkpt lat="43.19662" lon="5.8781">
        <ele>360.8</ele>
        <time>2021-05-29T10:51:54Z</time>
      </trkpt>
      <trkpt lat="43.19654" lon="5.87818">
        <ele>360.2</ele>
        <time>2021-05-29T10:51:56Z</time>
      </trkpt>
      <trkpt lat="43.19649" lon="5.87822">
        <ele>360</ele>
        <time>2021-05-29T10:51:57Z</time>
      </trkpt>
      <trkpt lat="43.19644" lon="5.87826">
        <ele>359.6</ele>
        <time>2021-05-29T10:51:58Z</time>
      </trkpt>
      <trkpt lat="43.1964" lon="5.87827">
        <ele>359.6</ele>
        <time>2021-05-29T10:51:59Z</time>
      </trkpt>
      <trkpt lat="43.19635" lon="5.87829">
        <ele>359.4</ele>
        <time>2021-05-29T10:52:00Z</time>
      </trkpt>
      <trkpt lat="43.19619" lon="5.87835">
        <ele>359</ele>
        <time>2021-05-29T10:52:03Z</time>
      </trkpt>
      <trkpt lat="43.19616" lon="5.87835">
        <ele>358.4</ele>
        <time>2021-05-29T10:52:04Z</time>
      </trkpt>
      <trkpt lat="43.19611" lon="5.87836">
        <ele>358</ele>
        <time>2021-05-29T10:52:05Z</time>
      </trkpt>
      <trkpt lat="43.19603" lon="5.87838">
        <ele>357.2</ele>
        <time>2021-05-29T10:52:07Z</time>
      </trkpt>
      <trkpt lat="43.19601" lon="5.87839">
        <ele>357</ele>
        <time>2021-05-29T10:52:08Z</time>
      </trkpt>
      <trkpt lat="43.19597" lon="5.87841">
        <ele>356.2</ele>
        <time>2021-05-29T10:52:09Z</time>
      </trkpt>
      <trkpt lat="43.19593" lon="5.87845">
        <ele>356</ele>
        <time>2021-05-29T10:52:10Z</time>
      </trkpt>
      <trkpt lat="43.1959" lon="5.87849">
        <ele>355.6</ele>
        <time>2021-05-29T10:52:11Z</time>
      </trkpt>
      <trkpt lat="43.19587" lon="5.87853">
        <ele>355</ele>
        <time>2021-05-29T10:52:12Z</time>
      </trkpt>
      <trkpt lat="43.19578" lon="5.87881">
        <ele>353.6</ele>
        <time>2021-05-29T10:52:17Z</time>
      </trkpt>
      <trkpt lat="43.19576" lon="5.87889">
        <ele>353.2</ele>
        <time>2021-05-29T10:52:18Z</time>
      </trkpt>
      <trkpt lat="43.19575" lon="5.87895">
        <ele>352.6</ele>
        <time>2021-05-29T10:52:19Z</time>
      </trkpt>
      <trkpt lat="43.19574" lon="5.87901">
        <ele>352.4</ele>
        <time>2021-05-29T10:52:20Z</time>
      </trkpt>
      <trkpt lat="43.19572" lon="5.87913">
        <ele>351.2</ele>
        <time>2021-05-29T10:52:22Z</time>
      </trkpt>
      <trkpt lat="43.1957" lon="5.87927">
        <ele>350.4</ele>
        <time>2021-05-29T10:52:24Z</time>
      </trkpt>
      <trkpt lat="43.19569" lon="5.87935">
        <ele>350</ele>
        <time>2021-05-29T10:52:25Z</time>
      </trkpt>
      <trkpt lat="43.19565" lon="5.87947">
        <ele>349</ele>
        <time>2021-05-29T10:52:27Z</time>
      </trkpt>
      <trkpt lat="43.19561" lon="5.87953">
        <ele>348.4</ele>
        <time>2021-05-29T10:52:28Z</time>
      </trkpt>
      <trkpt lat="43.19556" lon="5.87958">
        <ele>347.6</ele>
        <time>2021-05-29T10:52:29Z</time>
      </trkpt>
      <trkpt lat="43.19552" lon="5.87961">
        <ele>347.2</ele>
        <time>2021-05-29T10:52:30Z</time>
      </trkpt>
      <trkpt lat="43.19547" lon="5.87965">
        <ele>347</ele>
        <time>2021-05-29T10:52:31Z</time>
      </trkpt>
      <trkpt lat="43.19542" lon="5.87967">
        <ele>346.8</ele>
        <time>2021-05-29T10:52:32Z</time>
      </trkpt>
      <trkpt lat="43.19537" lon="5.87967">
        <ele>346.4</ele>
        <time>2021-05-29T10:52:33Z</time>
      </trkpt>
      <trkpt lat="43.19534" lon="5.87965">
        <ele>346.2</ele>
        <time>2021-05-29T10:52:34Z</time>
      </trkpt>
      <trkpt lat="43.1953" lon="5.87963">
        <ele>345.8</ele>
        <time>2021-05-29T10:52:35Z</time>
      </trkpt>
      <trkpt lat="43.19527" lon="5.87959">
        <ele>345.4</ele>
        <time>2021-05-29T10:52:36Z</time>
      </trkpt>
      <trkpt lat="43.19518" lon="5.87948">
        <ele>345</ele>
        <time>2021-05-29T10:52:38Z</time>
      </trkpt>
      <trkpt lat="43.19514" lon="5.87944">
        <ele>345</ele>
        <time>2021-05-29T10:52:39Z</time>
      </trkpt>
      <trkpt lat="43.1951" lon="5.87942">
        <ele>345</ele>
        <time>2021-05-29T10:52:40Z</time>
      </trkpt>
      <trkpt lat="43.19487" lon="5.87931">
        <ele>344.8</ele>
        <time>2021-05-29T10:52:44Z</time>
      </trkpt>
      <trkpt lat="43.19474" lon="5.87929">
        <ele>344.6</ele>
        <time>2021-05-29T10:52:46Z</time>
      </trkpt>
      <trkpt lat="43.19461" lon="5.87929">
        <ele>344.4</ele>
        <time>2021-05-29T10:52:48Z</time>
      </trkpt>
      <trkpt lat="43.19454" lon="5.87931">
        <ele>344.4</ele>
        <time>2021-05-29T10:52:49Z</time>
      </trkpt>
      <trkpt lat="43.19447" lon="5.87936">
        <ele>344.4</ele>
        <time>2021-05-29T10:52:50Z</time>
      </trkpt>
      <trkpt lat="43.19441" lon="5.87939">
        <ele>344.4</ele>
        <time>2021-05-29T10:52:51Z</time>
      </trkpt>
      <trkpt lat="43.19434" lon="5.87942">
        <ele>344.2</ele>
        <time>2021-05-29T10:52:52Z</time>
      </trkpt>
      <trkpt lat="43.19426" lon="5.87945">
        <ele>344.2</ele>
        <time>2021-05-29T10:52:53Z</time>
      </trkpt>
      <trkpt lat="43.19418" lon="5.87949">
        <ele>344.2</ele>
        <time>2021-05-29T10:52:54Z</time>
      </trkpt>
      <trkpt lat="43.19388" lon="5.87963">
        <ele>343.8</ele>
        <time>2021-05-29T10:52:58Z</time>
      </trkpt>
      <trkpt lat="43.19373" lon="5.87965">
        <ele>343.4</ele>
        <time>2021-05-29T10:53:00Z</time>
      </trkpt>
      <trkpt lat="43.19357" lon="5.87969">
        <ele>343</ele>
        <time>2021-05-29T10:53:02Z</time>
      </trkpt>
      <trkpt lat="43.19335" lon="5.87969">
        <ele>342.4</ele>
        <time>2021-05-29T10:53:05Z</time>
      </trkpt>
      <trkpt lat="43.19313" lon="5.87971">
        <ele>342</ele>
        <time>2021-05-29T10:53:08Z</time>
      </trkpt>
      <trkpt lat="43.19295" lon="5.87979">
        <ele>341.6</ele>
        <time>2021-05-29T10:53:11Z</time>
      </trkpt>
      <trkpt lat="43.19285" lon="5.87995">
        <ele>341.2</ele>
        <time>2021-05-29T10:53:13Z</time>
      </trkpt>
      <trkpt lat="43.19281" lon="5.88003">
        <ele>341</ele>
        <time>2021-05-29T10:53:14Z</time>
      </trkpt>
      <trkpt lat="43.19278" lon="5.8801">
        <ele>341</ele>
        <time>2021-05-29T10:53:15Z</time>
      </trkpt>
      <trkpt lat="43.19271" lon="5.88024">
        <ele>340.8</ele>
        <time>2021-05-29T10:53:17Z</time>
      </trkpt>
      <trkpt lat="43.19267" lon="5.88029">
        <ele>340.6</ele>
        <time>2021-05-29T10:53:18Z</time>
      </trkpt>
      <trkpt lat="43.19261" lon="5.88032">
        <ele>340.6</ele>
        <time>2021-05-29T10:53:19Z</time>
      </trkpt>
      <trkpt lat="43.1925" lon="5.88028">
        <ele>340.6</ele>
        <time>2021-05-29T10:53:21Z</time>
      </trkpt>
      <trkpt lat="43.19234" lon="5.88014">
        <ele>340.4</ele>
        <time>2021-05-29T10:53:24Z</time>
      </trkpt>
      <trkpt lat="43.19223" lon="5.88006">
        <ele>340.2</ele>
        <time>2021-05-29T10:53:26Z</time>
      </trkpt>
      <trkpt lat="43.19209" lon="5.87999">
        <ele>340</ele>
        <time>2021-05-29T10:53:28Z</time>
      </trkpt>
      <trkpt lat="43.19196" lon="5.87991">
        <ele>340</ele>
        <time>2021-05-29T10:53:30Z</time>
      </trkpt>
      <trkpt lat="43.19191" lon="5.87987">
        <ele>340</ele>
        <time>2021-05-29T10:53:31Z</time>
      </trkpt>
      <trkpt lat="43.19176" lon="5.87979">
        <ele>339.4</ele>
        <time>2021-05-29T10:53:33Z</time>
      </trkpt>
      <trkpt lat="43.19156" lon="5.87966">
        <ele>339.2</ele>
        <time>2021-05-29T10:53:36Z</time>
      </trkpt>
      <trkpt lat="43.19141" lon="5.87958">
        <ele>338.8</ele>
        <time>2021-05-29T10:53:38Z</time>
      </trkpt>
      <trkpt lat="43.19117" lon="5.87944">
        <ele>338.2</ele>
        <time>2021-05-29T10:53:41Z</time>
      </trkpt>
      <trkpt lat="43.19111" lon="5.87938">
        <ele>337.6</ele>
        <time>2021-05-29T10:53:42Z</time>
      </trkpt>
      <trkpt lat="43.19106" lon="5.87932">
        <ele>337.4</ele>
        <time>2021-05-29T10:53:43Z</time>
      </trkpt>
      <trkpt lat="43.19101" lon="5.87929">
        <ele>337.2</ele>
        <time>2021-05-29T10:53:44Z</time>
      </trkpt>
      <trkpt lat="43.19093" lon="5.87926">
        <ele>337</ele>
        <time>2021-05-29T10:53:45Z</time>
      </trkpt>
      <trkpt lat="43.19077" lon="5.87926">
        <ele>336.8</ele>
        <time>2021-05-29T10:53:47Z</time>
      </trkpt>
      <trkpt lat="43.19063" lon="5.87924">
        <ele>336.6</ele>
        <time>2021-05-29T10:53:49Z</time>
      </trkpt>
      <trkpt lat="43.19043" lon="5.87921">
        <ele>336.4</ele>
        <time>2021-05-29T10:53:52Z</time>
      </trkpt>
      <trkpt lat="43.19024" lon="5.87913">
        <ele>336.4</ele>
        <time>2021-05-29T10:53:55Z</time>
      </trkpt>
      <trkpt lat="43.19012" lon="5.87908">
        <ele>336.2</ele>
        <time>2021-05-29T10:53:57Z</time>
      </trkpt>
      <trkpt lat="43.19005" lon="5.87907">
        <ele>336.2</ele>
        <time>2021-05-29T10:53:58Z</time>
      </trkpt>
      <trkpt lat="43.18992" lon="5.87906">
        <ele>336</ele>
        <time>2021-05-29T10:54:00Z</time>
      </trkpt>
      <trkpt lat="43.18977" lon="5.8791">
        <ele>335.8</ele>
        <time>2021-05-29T10:54:02Z</time>
      </trkpt>
      <trkpt lat="43.18963" lon="5.87913">
        <ele>335.4</ele>
        <time>2021-05-29T10:54:04Z</time>
      </trkpt>
      <trkpt lat="43.18956" lon="5.87914">
        <ele>335.2</ele>
        <time>2021-05-29T10:54:05Z</time>
      </trkpt>
      <trkpt lat="43.18948" lon="5.87912">
        <ele>334.8</ele>
        <time>2021-05-29T10:54:06Z</time>
      </trkpt>
      <trkpt lat="43.1894" lon="5.87907">
        <ele>334.6</ele>
        <time>2021-05-29T10:54:07Z</time>
      </trkpt>
      <trkpt lat="43.18932" lon="5.87902">
        <ele>333.8</ele>
        <time>2021-05-29T10:54:08Z</time>
      </trkpt>
      <trkpt lat="43.18915" lon="5.87892">
        <ele>333</ele>
        <time>2021-05-29T10:54:10Z</time>
      </trkpt>
      <trkpt lat="43.18907" lon="5.87887">
        <ele>332.2</ele>
        <time>2021-05-29T10:54:11Z</time>
      </trkpt>
      <trkpt lat="43.18891" lon="5.87874">
        <ele>331</ele>
        <time>2021-05-29T10:54:13Z</time>
      </trkpt>
      <trkpt lat="43.18876" lon="5.87862">
        <ele>329</ele>
        <time>2021-05-29T10:54:15Z</time>
      </trkpt>
      <trkpt lat="43.18869" lon="5.87855">
        <ele>328.2</ele>
        <time>2021-05-29T10:54:16Z</time>
      </trkpt>
      <trkpt lat="43.18855" lon="5.87842">
        <ele>327.8</ele>
        <time>2021-05-29T10:54:18Z</time>
      </trkpt>
      <trkpt lat="43.18848" lon="5.87836">
        <ele>327.6</ele>
        <time>2021-05-29T10:54:19Z</time>
      </trkpt>
      <trkpt lat="43.18823" lon="5.8782">
        <ele>327.4</ele>
        <time>2021-05-29T10:54:23Z</time>
      </trkpt>
      <trkpt lat="43.18795" lon="5.87816">
        <ele>327.2</ele>
        <time>2021-05-29T10:54:27Z</time>
      </trkpt>
      <trkpt lat="43.18787" lon="5.87816">
        <ele>327.2</ele>
        <time>2021-05-29T10:54:28Z</time>
      </trkpt>
      <trkpt lat="43.1876" lon="5.87825">
        <ele>326.8</ele>
        <time>2021-05-29T10:54:31Z</time>
      </trkpt>
      <trkpt lat="43.1875" lon="5.87828">
        <ele>326.6</ele>
        <time>2021-05-29T10:54:32Z</time>
      </trkpt>
      <trkpt lat="43.18735" lon="5.87834">
        <ele>326</ele>
        <time>2021-05-29T10:54:34Z</time>
      </trkpt>
      <trkpt lat="43.18726" lon="5.87836">
        <ele>325.4</ele>
        <time>2021-05-29T10:54:35Z</time>
      </trkpt>
      <trkpt lat="43.1869" lon="5.87839">
        <ele>324.4</ele>
        <time>2021-05-29T10:54:39Z</time>
      </trkpt>
      <trkpt lat="43.18684" lon="5.87834">
        <ele>324.2</ele>
        <time>2021-05-29T10:54:40Z</time>
      </trkpt>
      <trkpt lat="43.18673" lon="5.87823">
        <ele>324</ele>
        <time>2021-05-29T10:54:42Z</time>
      </trkpt>
      <trkpt lat="43.18662" lon="5.87812">
        <ele>323.8</ele>
        <time>2021-05-29T10:54:44Z</time>
      </trkpt>
      <trkpt lat="43.18657" lon="5.87802">
        <ele>324.2</ele>
        <time>2021-05-29T10:54:46Z</time>
      </trkpt>
      <trkpt lat="43.18654" lon="5.87791">
        <ele>324.2</ele>
        <time>2021-05-29T10:54:48Z</time>
      </trkpt>
      <trkpt lat="43.18651" lon="5.87767">
        <ele>324.4</ele>
        <time>2021-05-29T10:54:52Z</time>
      </trkpt>
      <trkpt lat="43.18649" lon="5.87743">
        <ele>324.8</ele>
        <time>2021-05-29T10:54:56Z</time>
      </trkpt>
      <trkpt lat="43.18653" lon="5.87708">
        <ele>324.6</ele>
        <time>2021-05-29T10:55:00Z</time>
      </trkpt>
      <trkpt lat="43.1866" lon="5.87658">
        <ele>323.6</ele>
        <time>2021-05-29T10:55:04Z</time>
      </trkpt>
      <trkpt lat="43.1866" lon="5.87643">
        <ele>323</ele>
        <time>2021-05-29T10:55:05Z</time>
      </trkpt>
      <trkpt lat="43.18658" lon="5.87614">
        <ele>321</ele>
        <time>2021-05-29T10:55:07Z</time>
      </trkpt>
      <trkpt lat="43.18657" lon="5.87602">
        <ele>319.8</ele>
        <time>2021-05-29T10:55:08Z</time>
      </trkpt>
      <trkpt lat="43.18656" lon="5.8759">
        <ele>319.4</ele>
        <time>2021-05-29T10:55:09Z</time>
      </trkpt>
      <trkpt lat="43.18654" lon="5.87577">
        <ele>318.6</ele>
        <time>2021-05-29T10:55:10Z</time>
      </trkpt>
      <trkpt lat="43.1865" lon="5.87543">
        <ele>317.8</ele>
        <time>2021-05-29T10:55:13Z</time>
      </trkpt>
      <trkpt lat="43.18651" lon="5.87534">
        <ele>317.8</ele>
        <time>2021-05-29T10:55:14Z</time>
      </trkpt>
      <trkpt lat="43.18652" lon="5.87527">
        <ele>317.6</ele>
        <time>2021-05-29T10:55:15Z</time>
      </trkpt>
      <trkpt lat="43.18653" lon="5.8751">
        <ele>317</ele>
        <time>2021-05-29T10:55:18Z</time>
      </trkpt>
      <trkpt lat="43.18653" lon="5.87501">
        <ele>316.6</ele>
        <time>2021-05-29T10:55:20Z</time>
      </trkpt>
      <trkpt lat="43.18653" lon="5.87496">
        <ele>316.4</ele>
        <time>2021-05-29T10:55:21Z</time>
      </trkpt>
      <trkpt lat="43.18655" lon="5.87486">
        <ele>316</ele>
        <time>2021-05-29T10:55:23Z</time>
      </trkpt>
      <trkpt lat="43.18651" lon="5.87462">
        <ele>315.6</ele>
        <time>2021-05-29T10:55:26Z</time>
      </trkpt>
      <trkpt lat="43.18646" lon="5.87447">
        <ele>315.6</ele>
        <time>2021-05-29T10:55:28Z</time>
      </trkpt>
      <trkpt lat="43.18639" lon="5.87431">
        <ele>315.4</ele>
        <time>2021-05-29T10:55:30Z</time>
      </trkpt>
      <trkpt lat="43.18635" lon="5.87423">
        <ele>315.2</ele>
        <time>2021-05-29T10:55:31Z</time>
      </trkpt>
      <trkpt lat="43.18632" lon="5.87416">
        <ele>314.8</ele>
        <time>2021-05-29T10:55:32Z</time>
      </trkpt>
      <trkpt lat="43.18628" lon="5.87408">
        <ele>314.6</ele>
        <time>2021-05-29T10:55:33Z</time>
      </trkpt>
      <trkpt lat="43.18624" lon="5.87399">
        <ele>314.4</ele>
        <time>2021-05-29T10:55:34Z</time>
      </trkpt>
      <trkpt lat="43.1862" lon="5.87391">
        <ele>314.4</ele>
        <time>2021-05-29T10:55:35Z</time>
      </trkpt>
      <trkpt lat="43.18608" lon="5.87369">
        <ele>313.6</ele>
        <time>2021-05-29T10:55:38Z</time>
      </trkpt>
      <trkpt lat="43.18596" lon="5.8735">
        <ele>313.2</ele>
        <time>2021-05-29T10:55:41Z</time>
      </trkpt>
      <trkpt lat="43.18573" lon="5.87326">
        <ele>312.4</ele>
        <time>2021-05-29T10:55:45Z</time>
      </trkpt>
      <trkpt lat="43.18568" lon="5.8732">
        <ele>312</ele>
        <time>2021-05-29T10:55:46Z</time>
      </trkpt>
      <trkpt lat="43.18541" lon="5.87295">
        <ele>311.4</ele>
        <time>2021-05-29T10:55:51Z</time>
      </trkpt>
      <trkpt lat="43.18521" lon="5.87275">
        <ele>310.8</ele>
        <time>2021-05-29T10:55:55Z</time>
      </trkpt>
      <trkpt lat="43.18516" lon="5.87269">
        <ele>310.8</ele>
        <time>2021-05-29T10:55:56Z</time>
      </trkpt>
      <trkpt lat="43.18496" lon="5.87244">
        <ele>310.2</ele>
        <time>2021-05-29T10:56:00Z</time>
      </trkpt>
      <trkpt lat="43.1849" lon="5.87236">
        <ele>310</ele>
        <time>2021-05-29T10:56:01Z</time>
      </trkpt>
      <trkpt lat="43.1848" lon="5.87224">
        <ele>309.8</ele>
        <time>2021-05-29T10:56:03Z</time>
      </trkpt>
      <trkpt lat="43.18468" lon="5.87214">
        <ele>309.4</ele>
        <time>2021-05-29T10:56:05Z</time>
      </trkpt>
      <trkpt lat="43.18461" lon="5.8721">
        <ele>309.2</ele>
        <time>2021-05-29T10:56:06Z</time>
      </trkpt>
      <trkpt lat="43.18454" lon="5.87208">
        <ele>308.8</ele>
        <time>2021-05-29T10:56:07Z</time>
      </trkpt>
      <trkpt lat="43.18447" lon="5.87207">
        <ele>308.8</ele>
        <time>2021-05-29T10:56:08Z</time>
      </trkpt>
      <trkpt lat="43.18432" lon="5.87207">
        <ele>308.6</ele>
        <time>2021-05-29T10:56:10Z</time>
      </trkpt>
      <trkpt lat="43.18425" lon="5.87207">
        <ele>308.4</ele>
        <time>2021-05-29T10:56:11Z</time>
      </trkpt>
      <trkpt lat="43.18406" lon="5.87212">
        <ele>308.2</ele>
        <time>2021-05-29T10:56:14Z</time>
      </trkpt>
      <trkpt lat="43.184" lon="5.87216">
        <ele>308.2</ele>
        <time>2021-05-29T10:56:15Z</time>
      </trkpt>
      <trkpt lat="43.18363" lon="5.87242">
        <ele>307.4</ele>
        <time>2021-05-29T10:56:21Z</time>
      </trkpt>
      <trkpt lat="43.18353" lon="5.87249">
        <ele>307.2</ele>
        <time>2021-05-29T10:56:23Z</time>
      </trkpt>
      <trkpt lat="43.18335" lon="5.87261">
        <ele>306.8</ele>
        <time>2021-05-29T10:56:26Z</time>
      </trkpt>
      <trkpt lat="43.18325" lon="5.87265">
        <ele>306.6</ele>
        <time>2021-05-29T10:56:28Z</time>
      </trkpt>
      <trkpt lat="43.18319" lon="5.87266">
        <ele>306.6</ele>
        <time>2021-05-29T10:56:29Z</time>
      </trkpt>
      <trkpt lat="43.18308" lon="5.87266">
        <ele>306.4</ele>
        <time>2021-05-29T10:56:31Z</time>
      </trkpt>
      <trkpt lat="43.18302" lon="5.87266">
        <ele>306.4</ele>
        <time>2021-05-29T10:56:32Z</time>
      </trkpt>
      <trkpt lat="43.18296" lon="5.87264">
        <ele>306.2</ele>
        <time>2021-05-29T10:56:33Z</time>
      </trkpt>
      <trkpt lat="43.18285" lon="5.87254">
        <ele>306</ele>
        <time>2021-05-29T10:56:35Z</time>
      </trkpt>
      <trkpt lat="43.18274" lon="5.87228">
        <ele>305.6</ele>
        <time>2021-05-29T10:56:38Z</time>
      </trkpt>
      <trkpt lat="43.18264" lon="5.87209">
        <ele>305</ele>
        <time>2021-05-29T10:56:40Z</time>
      </trkpt>
      <trkpt lat="43.18261" lon="5.87203">
        <ele>305</ele>
        <time>2021-05-29T10:56:41Z</time>
      </trkpt>
      <trkpt lat="43.18251" lon="5.87189">
        <ele>304.4</ele>
        <time>2021-05-29T10:56:43Z</time>
      </trkpt>
      <trkpt lat="43.18239" lon="5.87176">
        <ele>304</ele>
        <time>2021-05-29T10:56:45Z</time>
      </trkpt>
      <trkpt lat="43.18231" lon="5.87173">
        <ele>303.8</ele>
        <time>2021-05-29T10:56:46Z</time>
      </trkpt>
      <trkpt lat="43.18227" lon="5.8717">
        <ele>303.6</ele>
        <time>2021-05-29T10:56:47Z</time>
      </trkpt>
      <trkpt lat="43.18204" lon="5.8716">
        <ele>302.8</ele>
        <time>2021-05-29T10:56:50Z</time>
      </trkpt>
      <trkpt lat="43.1819" lon="5.87156">
        <ele>302.6</ele>
        <time>2021-05-29T10:56:52Z</time>
      </trkpt>
      <trkpt lat="43.18176" lon="5.87155">
        <ele>302.4</ele>
        <time>2021-05-29T10:56:54Z</time>
      </trkpt>
      <trkpt lat="43.1817" lon="5.87155">
        <ele>302.4</ele>
        <time>2021-05-29T10:56:55Z</time>
      </trkpt>
      <trkpt lat="43.18165" lon="5.87154">
        <ele>302.2</ele>
        <time>2021-05-29T10:56:56Z</time>
      </trkpt>
      <trkpt lat="43.18143" lon="5.87158">
        <ele>301.8</ele>
        <time>2021-05-29T10:56:59Z</time>
      </trkpt>
      <trkpt lat="43.18136" lon="5.87158">
        <ele>301.8</ele>
        <time>2021-05-29T10:57:00Z</time>
      </trkpt>
      <trkpt lat="43.18129" lon="5.8716">
        <ele>301.8</ele>
        <time>2021-05-29T10:57:01Z</time>
      </trkpt>
      <trkpt lat="43.18122" lon="5.87161">
        <ele>301.6</ele>
        <time>2021-05-29T10:57:02Z</time>
      </trkpt>
      <trkpt lat="43.18109" lon="5.87163">
        <ele>301.4</ele>
        <time>2021-05-29T10:57:04Z</time>
      </trkpt>
      <trkpt lat="43.18103" lon="5.87164">
        <ele>301.4</ele>
        <time>2021-05-29T10:57:05Z</time>
      </trkpt>
      <trkpt lat="43.18096" lon="5.87167">
        <ele>301.2</ele>
        <time>2021-05-29T10:57:06Z</time>
      </trkpt>
      <trkpt lat="43.1809" lon="5.8717">
        <ele>301</ele>
        <time>2021-05-29T10:57:07Z</time>
      </trkpt>
      <trkpt lat="43.18085" lon="5.87173">
        <ele>300.8</ele>
        <time>2021-05-29T10:57:08Z</time>
      </trkpt>
      <trkpt lat="43.1807" lon="5.8718">
        <ele>300.6</ele>
        <time>2021-05-29T10:57:11Z</time>
      </trkpt>
      <trkpt lat="43.18055" lon="5.87188">
        <ele>300.8</ele>
        <time>2021-05-29T10:57:15Z</time>
      </trkpt>
      <trkpt lat="43.18051" lon="5.87188">
        <ele>301</ele>
        <time>2021-05-29T10:57:16Z</time>
      </trkpt>
      <trkpt lat="43.18047" lon="5.87187">
        <ele>301</ele>
        <time>2021-05-29T10:57:17Z</time>
      </trkpt>
      <trkpt lat="43.18038" lon="5.87178">
        <ele>301.6</ele>
        <time>2021-05-29T10:57:20Z</time>
      </trkpt>
      <trkpt lat="43.18036" lon="5.87175">
        <ele>302</ele>
        <time>2021-05-29T10:57:21Z</time>
      </trkpt>
      <trkpt lat="43.1803" lon="5.87168">
        <ele>302.8</ele>
        <time>2021-05-29T10:57:23Z</time>
      </trkpt>
      <trkpt lat="43.18027" lon="5.87166">
        <ele>303</ele>
        <time>2021-05-29T10:57:24Z</time>
      </trkpt>
      <trkpt lat="43.18024" lon="5.87164">
        <ele>303.4</ele>
        <time>2021-05-29T10:57:25Z</time>
      </trkpt>
      <trkpt lat="43.1802" lon="5.87163">
        <ele>303.6</ele>
        <time>2021-05-29T10:57:26Z</time>
      </trkpt>
      <trkpt lat="43.18017" lon="5.87163">
        <ele>304</ele>
        <time>2021-05-29T10:57:27Z</time>
      </trkpt>
      <trkpt lat="43.18013" lon="5.87163">
        <ele>304.4</ele>
        <time>2021-05-29T10:57:28Z</time>
      </trkpt>
      <trkpt lat="43.18009" lon="5.87164">
        <ele>304.8</ele>
        <time>2021-05-29T10:57:29Z</time>
      </trkpt>
      <trkpt lat="43.18" lon="5.87166">
        <ele>305.2</ele>
        <time>2021-05-29T10:57:31Z</time>
      </trkpt>
      <trkpt lat="43.17995" lon="5.87168">
        <ele>305.6</ele>
        <time>2021-05-29T10:57:32Z</time>
      </trkpt>
      <trkpt lat="43.17991" lon="5.87169">
        <ele>305.8</ele>
        <time>2021-05-29T10:57:33Z</time>
      </trkpt>
      <trkpt lat="43.17986" lon="5.8717">
        <ele>306</ele>
        <time>2021-05-29T10:57:34Z</time>
      </trkpt>
      <trkpt lat="43.17981" lon="5.87172">
        <ele>306.6</ele>
        <time>2021-05-29T10:57:35Z</time>
      </trkpt>
      <trkpt lat="43.17977" lon="5.87173">
        <ele>306.8</ele>
        <time>2021-05-29T10:57:36Z</time>
      </trkpt>
      <trkpt lat="43.17972" lon="5.87176">
        <ele>307.2</ele>
        <time>2021-05-29T10:57:37Z</time>
      </trkpt>
      <trkpt lat="43.17963" lon="5.87182">
        <ele>307.2</ele>
        <time>2021-05-29T10:57:39Z</time>
      </trkpt>
      <trkpt lat="43.17947" lon="5.87195">
        <ele>307.2</ele>
        <time>2021-05-29T10:57:42Z</time>
      </trkpt>
      <trkpt lat="43.17934" lon="5.872">
        <ele>307</ele>
        <time>2021-05-29T10:57:44Z</time>
      </trkpt>
      <trkpt lat="43.1791" lon="5.87201">
        <ele>306</ele>
        <time>2021-05-29T10:57:48Z</time>
      </trkpt>
      <trkpt lat="43.17905" lon="5.87203">
        <ele>306</ele>
        <time>2021-05-29T10:57:49Z</time>
      </trkpt>
      <trkpt lat="43.17901" lon="5.87204">
        <ele>305.8</ele>
        <time>2021-05-29T10:57:50Z</time>
      </trkpt>
      <trkpt lat="43.17896" lon="5.87207">
        <ele>305.8</ele>
        <time>2021-05-29T10:57:51Z</time>
      </trkpt>
      <trkpt lat="43.17892" lon="5.8721">
        <ele>305.8</ele>
        <time>2021-05-29T10:57:52Z</time>
      </trkpt>
      <trkpt lat="43.17884" lon="5.87219">
        <ele>305.8</ele>
        <time>2021-05-29T10:57:54Z</time>
      </trkpt>
      <trkpt lat="43.17872" lon="5.87233">
        <ele>306</ele>
        <time>2021-05-29T10:57:57Z</time>
      </trkpt>
      <trkpt lat="43.17868" lon="5.87237">
        <ele>306</ele>
        <time>2021-05-29T10:57:58Z</time>
      </trkpt>
      <trkpt lat="43.17859" lon="5.87246">
        <ele>306</ele>
        <time>2021-05-29T10:58:00Z</time>
      </trkpt>
      <trkpt lat="43.17841" lon="5.87261">
        <ele>306</ele>
        <time>2021-05-29T10:58:04Z</time>
      </trkpt>
      <trkpt lat="43.17829" lon="5.87271">
        <ele>306</ele>
        <time>2021-05-29T10:58:07Z</time>
      </trkpt>
      <trkpt lat="43.17825" lon="5.87274">
        <ele>306.2</ele>
        <time>2021-05-29T10:58:08Z</time>
      </trkpt>
      <trkpt lat="43.17821" lon="5.87277">
        <ele>306.2</ele>
        <time>2021-05-29T10:58:09Z</time>
      </trkpt>
      <trkpt lat="43.17813" lon="5.87282">
        <ele>306.4</ele>
        <time>2021-05-29T10:58:11Z</time>
      </trkpt>
      <trkpt lat="43.17809" lon="5.87286">
        <ele>306.4</ele>
        <time>2021-05-29T10:58:12Z</time>
      </trkpt>
      <trkpt lat="43.17805" lon="5.87288">
        <ele>306.6</ele>
        <time>2021-05-29T10:58:13Z</time>
      </trkpt>
      <trkpt lat="43.17784" lon="5.87306">
        <ele>307.4</ele>
        <time>2021-05-29T10:58:19Z</time>
      </trkpt>
      <trkpt lat="43.1778" lon="5.8731">
        <ele>307.4</ele>
        <time>2021-05-29T10:58:20Z</time>
      </trkpt>
      <trkpt lat="43.17772" lon="5.87317">
        <ele>307.6</ele>
        <time>2021-05-29T10:58:22Z</time>
      </trkpt>
      <trkpt lat="43.17764" lon="5.87325">
        <ele>307.6</ele>
        <time>2021-05-29T10:58:24Z</time>
      </trkpt>
      <trkpt lat="43.17761" lon="5.87329">
        <ele>307.8</ele>
        <time>2021-05-29T10:58:25Z</time>
      </trkpt>
      <trkpt lat="43.17757" lon="5.87339">
        <ele>307.8</ele>
        <time>2021-05-29T10:58:27Z</time>
      </trkpt>
      <trkpt lat="43.17754" lon="5.87355">
        <ele>308</ele>
        <time>2021-05-29T10:58:30Z</time>
      </trkpt>
      <trkpt lat="43.17752" lon="5.8736">
        <ele>308.2</ele>
        <time>2021-05-29T10:58:31Z</time>
      </trkpt>
      <trkpt lat="43.17748" lon="5.87371">
        <ele>308.4</ele>
        <time>2021-05-29T10:58:33Z</time>
      </trkpt>
      <trkpt lat="43.17746" lon="5.87375">
        <ele>308.6</ele>
        <time>2021-05-29T10:58:34Z</time>
      </trkpt>
      <trkpt lat="43.17743" lon="5.8738">
        <ele>308.8</ele>
        <time>2021-05-29T10:58:35Z</time>
      </trkpt>
      <trkpt lat="43.1774" lon="5.87383">
        <ele>309</ele>
        <time>2021-05-29T10:58:36Z</time>
      </trkpt>
      <trkpt lat="43.17736" lon="5.87387">
        <ele>309.2</ele>
        <time>2021-05-29T10:58:37Z</time>
      </trkpt>
      <trkpt lat="43.1772" lon="5.87405">
        <ele>309.2</ele>
        <time>2021-05-29T10:58:41Z</time>
      </trkpt>
      <trkpt lat="43.17697" lon="5.87421">
        <ele>309.2</ele>
        <time>2021-05-29T10:58:46Z</time>
      </trkpt>
      <trkpt lat="43.17693" lon="5.87424">
        <ele>309.2</ele>
        <time>2021-05-29T10:58:47Z</time>
      </trkpt>
      <trkpt lat="43.17679" lon="5.87432">
        <ele>309.2</ele>
        <time>2021-05-29T10:58:50Z</time>
      </trkpt>
      <trkpt lat="43.17667" lon="5.8744">
        <ele>309.4</ele>
        <time>2021-05-29T10:58:53Z</time>
      </trkpt>
      <trkpt lat="43.17663" lon="5.87442">
        <ele>309.4</ele>
        <time>2021-05-29T10:58:54Z</time>
      </trkpt>
      <trkpt lat="43.1766" lon="5.87444">
        <ele>309.4</ele>
        <time>2021-05-29T10:58:55Z</time>
      </trkpt>
      <trkpt lat="43.17657" lon="5.87446">
        <ele>309.6</ele>
        <time>2021-05-29T10:58:56Z</time>
      </trkpt>
      <trkpt lat="43.17653" lon="5.87448">
        <ele>309.6</ele>
        <time>2021-05-29T10:58:57Z</time>
      </trkpt>
      <trkpt lat="43.1765" lon="5.8745">
        <ele>309.8</ele>
        <time>2021-05-29T10:58:58Z</time>
      </trkpt>
      <trkpt lat="43.17647" lon="5.87452">
        <ele>310</ele>
        <time>2021-05-29T10:58:59Z</time>
      </trkpt>
      <trkpt lat="43.1764" lon="5.87456">
        <ele>310.6</ele>
        <time>2021-05-29T10:59:01Z</time>
      </trkpt>
      <trkpt lat="43.17637" lon="5.87458">
        <ele>310.8</ele>
        <time>2021-05-29T10:59:02Z</time>
      </trkpt>
      <trkpt lat="43.17634" lon="5.8746">
        <ele>311</ele>
        <time>2021-05-29T10:59:03Z</time>
      </trkpt>
      <trkpt lat="43.17631" lon="5.87462">
        <ele>311.2</ele>
        <time>2021-05-29T10:59:04Z</time>
      </trkpt>
      <trkpt lat="43.17627" lon="5.87468">
        <ele>311.4</ele>
        <time>2021-05-29T10:59:06Z</time>
      </trkpt>
      <trkpt lat="43.17623" lon="5.87471">
        <ele>311.6</ele>
        <time>2021-05-29T10:59:07Z</time>
      </trkpt>
      <trkpt lat="43.1762" lon="5.87476">
        <ele>311.8</ele>
        <time>2021-05-29T10:59:08Z</time>
      </trkpt>
      <trkpt lat="43.17609" lon="5.87486">
        <ele>312.2</ele>
        <time>2021-05-29T10:59:11Z</time>
      </trkpt>
      <trkpt lat="43.17599" lon="5.87488">
        <ele>312.4</ele>
        <time>2021-05-29T10:59:13Z</time>
      </trkpt>
      <trkpt lat="43.17584" lon="5.87488">
        <ele>312.6</ele>
        <time>2021-05-29T10:59:16Z</time>
      </trkpt>
      <trkpt lat="43.17575" lon="5.87488">
        <ele>312.6</ele>
        <time>2021-05-29T10:59:18Z</time>
      </trkpt>
      <trkpt lat="43.17565" lon="5.87485">
        <ele>312.6</ele>
        <time>2021-05-29T10:59:20Z</time>
      </trkpt>
      <trkpt lat="43.17555" lon="5.87481">
        <ele>312.4</ele>
        <time>2021-05-29T10:59:22Z</time>
      </trkpt>
      <trkpt lat="43.17549" lon="5.87477">
        <ele>312.4</ele>
        <time>2021-05-29T10:59:23Z</time>
      </trkpt>
      <trkpt lat="43.17545" lon="5.87472">
        <ele>312.4</ele>
        <time>2021-05-29T10:59:24Z</time>
      </trkpt>
      <trkpt lat="43.17532" lon="5.87454">
        <ele>311.6</ele>
        <time>2021-05-29T10:59:27Z</time>
      </trkpt>
      <trkpt lat="43.17529" lon="5.87447">
        <ele>311.6</ele>
        <time>2021-05-29T10:59:28Z</time>
      </trkpt>
      <trkpt lat="43.17526" lon="5.8744">
        <ele>311.6</ele>
        <time>2021-05-29T10:59:29Z</time>
      </trkpt>
      <trkpt lat="43.17522" lon="5.87427">
        <ele>311.4</ele>
        <time>2021-05-29T10:59:31Z</time>
      </trkpt>
      <trkpt lat="43.1752" lon="5.87411">
        <ele>311</ele>
        <time>2021-05-29T10:59:33Z</time>
      </trkpt>
      <trkpt lat="43.17519" lon="5.87404">
        <ele>311</ele>
        <time>2021-05-29T10:59:34Z</time>
      </trkpt>
      <trkpt lat="43.17519" lon="5.87389">
        <ele>310.8</ele>
        <time>2021-05-29T10:59:36Z</time>
      </trkpt>
      <trkpt lat="43.17518" lon="5.87376">
        <ele>310.6</ele>
        <time>2021-05-29T10:59:38Z</time>
      </trkpt>
      <trkpt lat="43.17518" lon="5.87347">
        <ele>310.2</ele>
        <time>2021-05-29T10:59:42Z</time>
      </trkpt>
      <trkpt lat="43.17518" lon="5.87308">
        <ele>309.8</ele>
        <time>2021-05-29T10:59:47Z</time>
      </trkpt>
      <trkpt lat="43.17515" lon="5.8729">
        <ele>309.6</ele>
        <time>2021-05-29T10:59:49Z</time>
      </trkpt>
      <trkpt lat="43.17507" lon="5.87274">
        <ele>309</ele>
        <time>2021-05-29T10:59:51Z</time>
      </trkpt>
      <trkpt lat="43.17496" lon="5.8726">
        <ele>308.6</ele>
        <time>2021-05-29T10:59:53Z</time>
      </trkpt>
      <trkpt lat="43.17473" lon="5.87231">
        <ele>307.6</ele>
        <time>2021-05-29T10:59:57Z</time>
      </trkpt>
      <trkpt lat="43.17448" lon="5.87203">
        <ele>306.4</ele>
        <time>2021-05-29T11:00:01Z</time>
      </trkpt>
      <trkpt lat="43.17434" lon="5.87188">
        <ele>305.4</ele>
        <time>2021-05-29T11:00:04Z</time>
      </trkpt>
      <trkpt lat="43.17412" lon="5.87166">
        <ele>304.2</ele>
        <time>2021-05-29T11:00:07Z</time>
      </trkpt>
      <trkpt lat="43.17405" lon="5.87158">
        <ele>303.6</ele>
        <time>2021-05-29T11:00:08Z</time>
      </trkpt>
      <trkpt lat="43.17392" lon="5.87138">
        <ele>303</ele>
        <time>2021-05-29T11:00:10Z</time>
      </trkpt>
      <trkpt lat="43.17377" lon="5.87108">
        <ele>302</ele>
        <time>2021-05-29T11:00:13Z</time>
      </trkpt>
      <trkpt lat="43.17371" lon="5.8709">
        <ele>301.2</ele>
        <time>2021-05-29T11:00:15Z</time>
      </trkpt>
      <trkpt lat="43.17368" lon="5.8708">
        <ele>300.4</ele>
        <time>2021-05-29T11:00:16Z</time>
      </trkpt>
      <trkpt lat="43.17366" lon="5.87071">
        <ele>300</ele>
        <time>2021-05-29T11:00:17Z</time>
      </trkpt>
      <trkpt lat="43.17362" lon="5.87062">
        <ele>299.8</ele>
        <time>2021-05-29T11:00:18Z</time>
      </trkpt>
      <trkpt lat="43.17357" lon="5.87053">
        <ele>299.6</ele>
        <time>2021-05-29T11:00:19Z</time>
      </trkpt>
      <trkpt lat="43.17351" lon="5.87044">
        <ele>299.2</ele>
        <time>2021-05-29T11:00:20Z</time>
      </trkpt>
      <trkpt lat="43.17344" lon="5.87029">
        <ele>298.8</ele>
        <time>2021-05-29T11:00:22Z</time>
      </trkpt>
      <trkpt lat="43.17334" lon="5.87003">
        <ele>297.8</ele>
        <time>2021-05-29T11:00:25Z</time>
      </trkpt>
      <trkpt lat="43.17332" lon="5.86994">
        <ele>297.4</ele>
        <time>2021-05-29T11:00:26Z</time>
      </trkpt>
      <trkpt lat="43.17321" lon="5.86954">
        <ele>296.6</ele>
        <time>2021-05-29T11:00:30Z</time>
      </trkpt>
      <trkpt lat="43.17314" lon="5.86927">
        <ele>296.2</ele>
        <time>2021-05-29T11:00:33Z</time>
      </trkpt>
      <trkpt lat="43.17309" lon="5.86907">
        <ele>295.8</ele>
        <time>2021-05-29T11:00:35Z</time>
      </trkpt>
      <trkpt lat="43.173" lon="5.8687">
        <ele>294.8</ele>
        <time>2021-05-29T11:00:39Z</time>
      </trkpt>
      <trkpt lat="43.17298" lon="5.8686">
        <ele>294.6</ele>
        <time>2021-05-29T11:00:40Z</time>
      </trkpt>
      <trkpt lat="43.17288" lon="5.86808">
        <ele>293.6</ele>
        <time>2021-05-29T11:00:45Z</time>
      </trkpt>
      <trkpt lat="43.17284" lon="5.86786">
        <ele>292.8</ele>
        <time>2021-05-29T11:00:47Z</time>
      </trkpt>
      <trkpt lat="43.1728" lon="5.86762">
        <ele>292.2</ele>
        <time>2021-05-29T11:00:49Z</time>
      </trkpt>
      <trkpt lat="43.17273" lon="5.86728">
        <ele>291.2</ele>
        <time>2021-05-29T11:00:52Z</time>
      </trkpt>
      <trkpt lat="43.1727" lon="5.86717">
        <ele>291</ele>
        <time>2021-05-29T11:00:53Z</time>
      </trkpt>
      <trkpt lat="43.17263" lon="5.867">
        <ele>290.8</ele>
        <time>2021-05-29T11:00:55Z</time>
      </trkpt>
      <trkpt lat="43.17259" lon="5.86693">
        <ele>290.6</ele>
        <time>2021-05-29T11:00:56Z</time>
      </trkpt>
      <trkpt lat="43.17254" lon="5.86688">
        <ele>290.6</ele>
        <time>2021-05-29T11:00:57Z</time>
      </trkpt>
      <trkpt lat="43.17241" lon="5.86677">
        <ele>290.6</ele>
        <time>2021-05-29T11:01:00Z</time>
      </trkpt>
      <trkpt lat="43.17222" lon="5.86668">
        <ele>290.8</ele>
        <time>2021-05-29T11:01:04Z</time>
      </trkpt>
      <trkpt lat="43.1721" lon="5.86661">
        <ele>291.4</ele>
        <time>2021-05-29T11:01:07Z</time>
      </trkpt>
      <trkpt lat="43.17198" lon="5.86655">
        <ele>292.2</ele>
        <time>2021-05-29T11:01:10Z</time>
      </trkpt>
      <trkpt lat="43.17195" lon="5.86654">
        <ele>292.4</ele>
        <time>2021-05-29T11:01:11Z</time>
      </trkpt>
      <trkpt lat="43.17191" lon="5.86652">
        <ele>292.4</ele>
        <time>2021-05-29T11:01:12Z</time>
      </trkpt>
      <trkpt lat="43.17173" lon="5.86642">
        <ele>293</ele>
        <time>2021-05-29T11:01:17Z</time>
      </trkpt>
      <trkpt lat="43.17162" lon="5.86637">
        <ele>293.6</ele>
        <time>2021-05-29T11:01:20Z</time>
      </trkpt>
      <trkpt lat="43.17155" lon="5.86634">
        <ele>293.8</ele>
        <time>2021-05-29T11:01:22Z</time>
      </trkpt>
      <trkpt lat="43.1714" lon="5.86635">
        <ele>294</ele>
        <time>2021-05-29T11:01:26Z</time>
      </trkpt>
      <trkpt lat="43.17137" lon="5.86637">
        <ele>294.2</ele>
        <time>2021-05-29T11:01:27Z</time>
      </trkpt>
      <trkpt lat="43.1713" lon="5.86642">
        <ele>294.4</ele>
        <time>2021-05-29T11:01:29Z</time>
      </trkpt>
      <trkpt lat="43.17127" lon="5.86645">
        <ele>294.6</ele>
        <time>2021-05-29T11:01:30Z</time>
      </trkpt>
      <trkpt lat="43.17124" lon="5.86649">
        <ele>294.6</ele>
        <time>2021-05-29T11:01:31Z</time>
      </trkpt>
      <trkpt lat="43.17122" lon="5.86653">
        <ele>295</ele>
        <time>2021-05-29T11:01:32Z</time>
      </trkpt>
      <trkpt lat="43.17118" lon="5.86667">
        <ele>295</ele>
        <time>2021-05-29T11:01:35Z</time>
      </trkpt>
      <trkpt lat="43.17116" lon="5.86674">
        <ele>295.4</ele>
        <time>2021-05-29T11:01:37Z</time>
      </trkpt>
      <trkpt lat="43.17112" lon="5.86688">
        <ele>295.8</ele>
        <time>2021-05-29T11:01:41Z</time>
      </trkpt>
      <trkpt lat="43.17112" lon="5.86692">
        <ele>296.2</ele>
        <time>2021-05-29T11:01:42Z</time>
      </trkpt>
      <trkpt lat="43.17108" lon="5.86705">
        <ele>296.4</ele>
        <time>2021-05-29T11:01:45Z</time>
      </trkpt>
      <trkpt lat="43.17107" lon="5.86708">
        <ele>296.6</ele>
        <time>2021-05-29T11:01:46Z</time>
      </trkpt>
      <trkpt lat="43.17106" lon="5.86712">
        <ele>296.6</ele>
        <time>2021-05-29T11:01:47Z</time>
      </trkpt>
      <trkpt lat="43.17105" lon="5.86716">
        <ele>296.8</ele>
        <time>2021-05-29T11:01:48Z</time>
      </trkpt>
      <trkpt lat="43.17103" lon="5.86719">
        <ele>296.8</ele>
        <time>2021-05-29T11:01:49Z</time>
      </trkpt>
      <trkpt lat="43.17102" lon="5.86722">
        <ele>297</ele>
        <time>2021-05-29T11:01:51Z</time>
      </trkpt>
      <trkpt lat="43.17102" lon="5.86722">
        <ele>297</ele>
        <time>2021-05-29T11:01:52Z</time>
      </trkpt>
      <trkpt lat="43.17102" lon="5.86722">
        <ele>297</ele>
        <time>2021-05-29T11:01:53Z</time>
      </trkpt>
      <trkpt lat="43.17102" lon="5.86722">
        <ele>297</ele>
        <time>2021-05-29T11:01:54Z</time>
      </trkpt>
      <trkpt lat="43.17102" lon="5.86722">
        <ele>297</ele>
        <time>2021-05-29T11:01:55Z</time>
      </trkpt>
      <trkpt lat="43.17102" lon="5.86722">
        <ele>297</ele>
        <time>2021-05-29T11:01:56Z</time>
      </trkpt>
      <trkpt lat="43.17102" lon="5.86722">
        <ele>297</ele>
        <time>2021-05-29T11:02:29Z</time>
      </trkpt>
      <trkpt lat="43.17102" lon="5.86722">
        <ele>297</ele>
        <time>2021-05-29T11:02:30Z</time>
      </trkpt>
      <trkpt lat="43.17099" lon="5.86727">
        <ele>297.2</ele>
        <time>2021-05-29T11:02:32Z</time>
      </trkpt>
      <trkpt lat="43.17089" lon="5.86746">
        <ele>297.4</ele>
        <time>2021-05-29T11:02:37Z</time>
      </trkpt>
      <trkpt lat="43.17076" lon="5.86774">
        <ele>297.8</ele>
        <time>2021-05-29T11:02:45Z</time>
      </trkpt>
      <trkpt lat="43.17074" lon="5.86777">
        <ele>298</ele>
        <time>2021-05-29T11:02:46Z</time>
      </trkpt>
      <trkpt lat="43.17072" lon="5.86782">
        <ele>298.2</ele>
        <time>2021-05-29T11:02:48Z</time>
      </trkpt>
      <trkpt lat="43.17066" lon="5.86794">
        <ele>298.8</ele>
        <time>2021-05-29T11:02:53Z</time>
      </trkpt>
      <trkpt lat="43.17062" lon="5.86801">
        <ele>299.4</ele>
        <time>2021-05-29T11:02:56Z</time>
      </trkpt>
      <trkpt lat="43.17056" lon="5.8681">
        <ele>299.8</ele>
        <time>2021-05-29T11:03:00Z</time>
      </trkpt>
      <trkpt lat="43.17049" lon="5.86819">
        <ele>300.2</ele>
        <time>2021-05-29T11:03:04Z</time>
      </trkpt>
      <trkpt lat="43.17047" lon="5.86821">
        <ele>300.6</ele>
        <time>2021-05-29T11:03:05Z</time>
      </trkpt>
      <trkpt lat="43.17045" lon="5.86822">
        <ele>300.8</ele>
        <time>2021-05-29T11:03:06Z</time>
      </trkpt>
      <trkpt lat="43.17043" lon="5.86823">
        <ele>300.8</ele>
        <time>2021-05-29T11:03:07Z</time>
      </trkpt>
      <trkpt lat="43.17041" lon="5.86824">
        <ele>301</ele>
        <time>2021-05-29T11:03:08Z</time>
      </trkpt>
      <trkpt lat="43.1703" lon="5.86821">
        <ele>301.6</ele>
        <time>2021-05-29T11:03:13Z</time>
      </trkpt>
      <trkpt lat="43.17019" lon="5.86804">
        <ele>302.6</ele>
        <time>2021-05-29T11:03:20Z</time>
      </trkpt>
      <trkpt lat="43.17016" lon="5.86798">
        <ele>303</ele>
        <time>2021-05-29T11:03:22Z</time>
      </trkpt>
      <trkpt lat="43.1701" lon="5.86778">
        <ele>303.6</ele>
        <time>2021-05-29T11:03:29Z</time>
      </trkpt>
      <trkpt lat="43.17" lon="5.86751">
        <ele>304</ele>
        <time>2021-05-29T11:03:37Z</time>
      </trkpt>
      <trkpt lat="43.16999" lon="5.86748">
        <ele>304.2</ele>
        <time>2021-05-29T11:03:38Z</time>
      </trkpt>
      <trkpt lat="43.16991" lon="5.86727">
        <ele>304.8</ele>
        <time>2021-05-29T11:03:44Z</time>
      </trkpt>
      <trkpt lat="43.16989" lon="5.8672">
        <ele>305</ele>
        <time>2021-05-29T11:03:46Z</time>
      </trkpt>
      <trkpt lat="43.16988" lon="5.86717">
        <ele>305.4</ele>
        <time>2021-05-29T11:03:47Z</time>
      </trkpt>
      <trkpt lat="43.16976" lon="5.86688">
        <ele>306.2</ele>
        <time>2021-05-29T11:03:56Z</time>
      </trkpt>
      <trkpt lat="43.16973" lon="5.86681">
        <ele>306.2</ele>
        <time>2021-05-29T11:03:58Z</time>
      </trkpt>
      <trkpt lat="43.16967" lon="5.8666">
        <ele>307</ele>
        <time>2021-05-29T11:04:04Z</time>
      </trkpt>
      <trkpt lat="43.16961" lon="5.86642">
        <ele>307.4</ele>
        <time>2021-05-29T11:04:09Z</time>
      </trkpt>
      <trkpt lat="43.16958" lon="5.86635">
        <ele>307.6</ele>
        <time>2021-05-29T11:04:11Z</time>
      </trkpt>
      <trkpt lat="43.16956" lon="5.86628">
        <ele>308.4</ele>
        <time>2021-05-29T11:04:13Z</time>
      </trkpt>
      <trkpt lat="43.16947" lon="5.86608">
        <ele>309.2</ele>
        <time>2021-05-29T11:04:19Z</time>
      </trkpt>
      <trkpt lat="43.16945" lon="5.86605">
        <ele>309.4</ele>
        <time>2021-05-29T11:04:20Z</time>
      </trkpt>
      <trkpt lat="43.16935" lon="5.86592">
        <ele>310</ele>
        <time>2021-05-29T11:04:25Z</time>
      </trkpt>
      <trkpt lat="43.16923" lon="5.86578">
        <ele>310.6</ele>
        <time>2021-05-29T11:04:30Z</time>
      </trkpt>
      <trkpt lat="43.16918" lon="5.86572">
        <ele>310.6</ele>
        <time>2021-05-29T11:04:32Z</time>
      </trkpt>
      <trkpt lat="43.16904" lon="5.86548">
        <ele>311.6</ele>
        <time>2021-05-29T11:04:39Z</time>
      </trkpt>
      <trkpt lat="43.16902" lon="5.86545">
        <ele>311.6</ele>
        <time>2021-05-29T11:04:40Z</time>
      </trkpt>
      <trkpt lat="43.169" lon="5.86542">
        <ele>311.8</ele>
        <time>2021-05-29T11:04:41Z</time>
      </trkpt>
      <trkpt lat="43.1689" lon="5.86521">
        <ele>312.4</ele>
        <time>2021-05-29T11:04:47Z</time>
      </trkpt>
      <trkpt lat="43.16885" lon="5.86509">
        <ele>313</ele>
        <time>2021-05-29T11:04:50Z</time>
      </trkpt>
      <trkpt lat="43.1688" lon="5.86493">
        <ele>313.2</ele>
        <time>2021-05-29T11:04:54Z</time>
      </trkpt>
      <trkpt lat="43.16879" lon="5.86489">
        <ele>313.2</ele>
        <time>2021-05-29T11:04:55Z</time>
      </trkpt>
      <trkpt lat="43.16878" lon="5.86477">
        <ele>313.6</ele>
        <time>2021-05-29T11:04:58Z</time>
      </trkpt>
      <trkpt lat="43.16878" lon="5.86465">
        <ele>314.2</ele>
        <time>2021-05-29T11:05:01Z</time>
      </trkpt>
      <trkpt lat="43.16877" lon="5.86444">
        <ele>315</ele>
        <time>2021-05-29T11:05:06Z</time>
      </trkpt>
      <trkpt lat="43.16875" lon="5.86432">
        <ele>315.2</ele>
        <time>2021-05-29T11:05:09Z</time>
      </trkpt>
      <trkpt lat="43.16874" lon="5.86427">
        <ele>315.2</ele>
        <time>2021-05-29T11:05:10Z</time>
      </trkpt>
      <trkpt lat="43.16863" lon="5.86401">
        <ele>315.8</ele>
        <time>2021-05-29T11:05:16Z</time>
      </trkpt>
      <trkpt lat="43.16857" lon="5.86388">
        <ele>316.4</ele>
        <time>2021-05-29T11:05:19Z</time>
      </trkpt>
      <trkpt lat="43.16854" lon="5.86379">
        <ele>316.4</ele>
        <time>2021-05-29T11:05:21Z</time>
      </trkpt>
      <trkpt lat="43.16853" lon="5.8637">
        <ele>316.6</ele>
        <time>2021-05-29T11:05:23Z</time>
      </trkpt>
      <trkpt lat="43.16853" lon="5.86341">
        <ele>317.2</ele>
        <time>2021-05-29T11:05:29Z</time>
      </trkpt>
      <trkpt lat="43.16853" lon="5.8633">
        <ele>317.4</ele>
        <time>2021-05-29T11:05:31Z</time>
      </trkpt>
      <trkpt lat="43.16855" lon="5.86306">
        <ele>317.6</ele>
        <time>2021-05-29T11:05:35Z</time>
      </trkpt>
      <trkpt lat="43.16857" lon="5.86294">
        <ele>317.6</ele>
        <time>2021-05-29T11:05:37Z</time>
      </trkpt>
      <trkpt lat="43.16858" lon="5.86288">
        <ele>317.8</ele>
        <time>2021-05-29T11:05:38Z</time>
      </trkpt>
      <trkpt lat="43.1686" lon="5.86283">
        <ele>317.8</ele>
        <time>2021-05-29T11:05:39Z</time>
      </trkpt>
      <trkpt lat="43.16862" lon="5.86271">
        <ele>317.8</ele>
        <time>2021-05-29T11:05:41Z</time>
      </trkpt>
      <trkpt lat="43.16862" lon="5.86257">
        <ele>317.8</ele>
        <time>2021-05-29T11:05:43Z</time>
      </trkpt>
      <trkpt lat="43.16861" lon="5.8625">
        <ele>317.8</ele>
        <time>2021-05-29T11:05:44Z</time>
      </trkpt>
      <trkpt lat="43.16859" lon="5.86243">
        <ele>317.8</ele>
        <time>2021-05-29T11:05:45Z</time>
      </trkpt>
      <trkpt lat="43.16854" lon="5.86223">
        <ele>317.8</ele>
        <time>2021-05-29T11:05:48Z</time>
      </trkpt>
      <trkpt lat="43.16852" lon="5.86216">
        <ele>317.8</ele>
        <time>2021-05-29T11:05:49Z</time>
      </trkpt>
      <trkpt lat="43.16833" lon="5.86171">
        <ele>318</ele>
        <time>2021-05-29T11:05:56Z</time>
      </trkpt>
      <trkpt lat="43.16824" lon="5.86153">
        <ele>318</ele>
        <time>2021-05-29T11:05:59Z</time>
      </trkpt>
      <trkpt lat="43.16818" lon="5.86141">
        <ele>318</ele>
        <time>2021-05-29T11:06:01Z</time>
      </trkpt>
      <trkpt lat="43.16815" lon="5.86135">
        <ele>318</ele>
        <time>2021-05-29T11:06:02Z</time>
      </trkpt>
      <trkpt lat="43.16807" lon="5.86116">
        <ele>318</ele>
        <time>2021-05-29T11:06:05Z</time>
      </trkpt>
      <trkpt lat="43.16806" lon="5.86109">
        <ele>318</ele>
        <time>2021-05-29T11:06:06Z</time>
      </trkpt>
      <trkpt lat="43.16805" lon="5.86094">
        <ele>318</ele>
        <time>2021-05-29T11:06:08Z</time>
      </trkpt>
      <trkpt lat="43.16808" lon="5.86065">
        <ele>318.2</ele>
        <time>2021-05-29T11:06:12Z</time>
      </trkpt>
      <trkpt lat="43.16809" lon="5.86058">
        <ele>318.2</ele>
        <time>2021-05-29T11:06:13Z</time>
      </trkpt>
      <trkpt lat="43.16811" lon="5.86042">
        <ele>317.8</ele>
        <time>2021-05-29T11:06:15Z</time>
      </trkpt>
      <trkpt lat="43.16812" lon="5.86035">
        <ele>317.8</ele>
        <time>2021-05-29T11:06:16Z</time>
      </trkpt>
      <trkpt lat="43.16815" lon="5.86005">
        <ele>318</ele>
        <time>2021-05-29T11:06:20Z</time>
      </trkpt>
      <trkpt lat="43.16816" lon="5.85997">
        <ele>318</ele>
        <time>2021-05-29T11:06:21Z</time>
      </trkpt>
      <trkpt lat="43.16816" lon="5.85982">
        <ele>318</ele>
        <time>2021-05-29T11:06:23Z</time>
      </trkpt>
      <trkpt lat="43.16815" lon="5.85974">
        <ele>318.2</ele>
        <time>2021-05-29T11:06:24Z</time>
      </trkpt>
      <trkpt lat="43.16813" lon="5.85966">
        <ele>318.2</ele>
        <time>2021-05-29T11:06:25Z</time>
      </trkpt>
      <trkpt lat="43.16807" lon="5.8595">
        <ele>318.2</ele>
        <time>2021-05-29T11:06:27Z</time>
      </trkpt>
      <trkpt lat="43.16804" lon="5.85943">
        <ele>318.2</ele>
        <time>2021-05-29T11:06:28Z</time>
      </trkpt>
      <trkpt lat="43.168" lon="5.85936">
        <ele>318.2</ele>
        <time>2021-05-29T11:06:29Z</time>
      </trkpt>
      <trkpt lat="43.16785" lon="5.8591">
        <ele>318.2</ele>
        <time>2021-05-29T11:06:33Z</time>
      </trkpt>
      <trkpt lat="43.16782" lon="5.85903">
        <ele>318.2</ele>
        <time>2021-05-29T11:06:34Z</time>
      </trkpt>
      <trkpt lat="43.16763" lon="5.85867">
        <ele>318.2</ele>
        <time>2021-05-29T11:06:39Z</time>
      </trkpt>
      <trkpt lat="43.16761" lon="5.85859">
        <ele>318.2</ele>
        <time>2021-05-29T11:06:40Z</time>
      </trkpt>
      <trkpt lat="43.1676" lon="5.85852">
        <ele>318.2</ele>
        <time>2021-05-29T11:06:41Z</time>
      </trkpt>
      <trkpt lat="43.16761" lon="5.85828">
        <ele>318</ele>
        <time>2021-05-29T11:06:44Z</time>
      </trkpt>
      <trkpt lat="43.16764" lon="5.85811">
        <ele>317.8</ele>
        <time>2021-05-29T11:06:46Z</time>
      </trkpt>
      <trkpt lat="43.1677" lon="5.85776">
        <ele>317.8</ele>
        <time>2021-05-29T11:06:50Z</time>
      </trkpt>
      <trkpt lat="43.16772" lon="5.85767">
        <ele>317.8</ele>
        <time>2021-05-29T11:06:51Z</time>
      </trkpt>
      <trkpt lat="43.16774" lon="5.85758">
        <ele>317.8</ele>
        <time>2021-05-29T11:06:52Z</time>
      </trkpt>
      <trkpt lat="43.16775" lon="5.8575">
        <ele>317.8</ele>
        <time>2021-05-29T11:06:53Z</time>
      </trkpt>
      <trkpt lat="43.16779" lon="5.85723">
        <ele>317.8</ele>
        <time>2021-05-29T11:06:56Z</time>
      </trkpt>
      <trkpt lat="43.16781" lon="5.85705">
        <ele>317.8</ele>
        <time>2021-05-29T11:06:58Z</time>
      </trkpt>
      <trkpt lat="43.16778" lon="5.85685">
        <ele>317.6</ele>
        <time>2021-05-29T11:07:00Z</time>
      </trkpt>
      <trkpt lat="43.16771" lon="5.85667">
        <ele>317.6</ele>
        <time>2021-05-29T11:07:02Z</time>
      </trkpt>
      <trkpt lat="43.16763" lon="5.85655">
        <ele>317.6</ele>
        <time>2021-05-29T11:07:04Z</time>
      </trkpt>
      <trkpt lat="43.16759" lon="5.8565">
        <ele>317.6</ele>
        <time>2021-05-29T11:07:05Z</time>
      </trkpt>
      <trkpt lat="43.16749" lon="5.85641">
        <ele>317.6</ele>
        <time>2021-05-29T11:07:07Z</time>
      </trkpt>
      <trkpt lat="43.16738" lon="5.85633">
        <ele>317.6</ele>
        <time>2021-05-29T11:07:09Z</time>
      </trkpt>
      <trkpt lat="43.16733" lon="5.85628">
        <ele>317.6</ele>
        <time>2021-05-29T11:07:10Z</time>
      </trkpt>
      <trkpt lat="43.16723" lon="5.85617">
        <ele>317.6</ele>
        <time>2021-05-29T11:07:12Z</time>
      </trkpt>
      <trkpt lat="43.16716" lon="5.85613">
        <ele>317.6</ele>
        <time>2021-05-29T11:07:13Z</time>
      </trkpt>
      <trkpt lat="43.16709" lon="5.85611">
        <ele>317.8</ele>
        <time>2021-05-29T11:07:14Z</time>
      </trkpt>
      <trkpt lat="43.16694" lon="5.85608">
        <ele>317.8</ele>
        <time>2021-05-29T11:07:16Z</time>
      </trkpt>
      <trkpt lat="43.16686" lon="5.85607">
        <ele>317.6</ele>
        <time>2021-05-29T11:07:17Z</time>
      </trkpt>
      <trkpt lat="43.16671" lon="5.8561">
        <ele>317.6</ele>
        <time>2021-05-29T11:07:19Z</time>
      </trkpt>
      <trkpt lat="43.16649" lon="5.85616">
        <ele>317.6</ele>
        <time>2021-05-29T11:07:22Z</time>
      </trkpt>
      <trkpt lat="43.16633" lon="5.85617">
        <ele>317.6</ele>
        <time>2021-05-29T11:07:24Z</time>
      </trkpt>
      <trkpt lat="43.16609" lon="5.85616">
        <ele>317.6</ele>
        <time>2021-05-29T11:07:27Z</time>
      </trkpt>
      <trkpt lat="43.16581" lon="5.856">
        <ele>317.4</ele>
        <time>2021-05-29T11:07:32Z</time>
      </trkpt>
      <trkpt lat="43.16549" lon="5.85582">
        <ele>317.2</ele>
        <time>2021-05-29T11:07:38Z</time>
      </trkpt>
      <trkpt lat="43.16544" lon="5.85579">
        <ele>317</ele>
        <time>2021-05-29T11:07:39Z</time>
      </trkpt>
      <trkpt lat="43.16538" lon="5.85576">
        <ele>317</ele>
        <time>2021-05-29T11:07:40Z</time>
      </trkpt>
      <trkpt lat="43.16534" lon="5.85574">
        <ele>316.8</ele>
        <time>2021-05-29T11:07:41Z</time>
      </trkpt>
      <trkpt lat="43.16528" lon="5.8557">
        <ele>316.8</ele>
        <time>2021-05-29T11:07:42Z</time>
      </trkpt>
      <trkpt lat="43.16513" lon="5.85562">
        <ele>316.8</ele>
        <time>2021-05-29T11:07:45Z</time>
      </trkpt>
      <trkpt lat="43.16499" lon="5.85555">
        <ele>316.8</ele>
        <time>2021-05-29T11:07:48Z</time>
      </trkpt>
      <trkpt lat="43.16489" lon="5.85549">
        <ele>316.8</ele>
        <time>2021-05-29T11:07:50Z</time>
      </trkpt>
      <trkpt lat="43.16478" lon="5.85544">
        <ele>317</ele>
        <time>2021-05-29T11:07:52Z</time>
      </trkpt>
      <trkpt lat="43.16467" lon="5.8554">
        <ele>317.4</ele>
        <time>2021-05-29T11:07:54Z</time>
      </trkpt>
      <trkpt lat="43.16461" lon="5.85537">
        <ele>317.4</ele>
        <time>2021-05-29T11:07:55Z</time>
      </trkpt>
      <trkpt lat="43.16456" lon="5.85534">
        <ele>317.4</ele>
        <time>2021-05-29T11:07:56Z</time>
      </trkpt>
      <trkpt lat="43.16446" lon="5.85526">
        <ele>317.4</ele>
        <time>2021-05-29T11:07:58Z</time>
      </trkpt>
      <trkpt lat="43.16441" lon="5.85521">
        <ele>317.4</ele>
        <time>2021-05-29T11:07:59Z</time>
      </trkpt>
      <trkpt lat="43.16414" lon="5.85493">
        <ele>317.2</ele>
        <time>2021-05-29T11:08:05Z</time>
      </trkpt>
      <trkpt lat="43.164" lon="5.85478">
        <ele>317.2</ele>
        <time>2021-05-29T11:08:08Z</time>
      </trkpt>
      <trkpt lat="43.16396" lon="5.85473">
        <ele>317.2</ele>
        <time>2021-05-29T11:08:09Z</time>
      </trkpt>
      <trkpt lat="43.16392" lon="5.85467">
        <ele>317.2</ele>
        <time>2021-05-29T11:08:10Z</time>
      </trkpt>
      <trkpt lat="43.16386" lon="5.85453">
        <ele>317.2</ele>
        <time>2021-05-29T11:08:12Z</time>
      </trkpt>
      <trkpt lat="43.16382" lon="5.85429">
        <ele>317.2</ele>
        <time>2021-05-29T11:08:15Z</time>
      </trkpt>
      <trkpt lat="43.16383" lon="5.85412">
        <ele>317.2</ele>
        <time>2021-05-29T11:08:17Z</time>
      </trkpt>
      <trkpt lat="43.16388" lon="5.85397">
        <ele>317.2</ele>
        <time>2021-05-29T11:08:19Z</time>
      </trkpt>
      <trkpt lat="43.16394" lon="5.85383">
        <ele>317.4</ele>
        <time>2021-05-29T11:08:21Z</time>
      </trkpt>
      <trkpt lat="43.164" lon="5.85369">
        <ele>317.4</ele>
        <time>2021-05-29T11:08:23Z</time>
      </trkpt>
      <trkpt lat="43.16413" lon="5.8534">
        <ele>317.2</ele>
        <time>2021-05-29T11:08:27Z</time>
      </trkpt>
      <trkpt lat="43.16419" lon="5.85326">
        <ele>317.2</ele>
        <time>2021-05-29T11:08:29Z</time>
      </trkpt>
      <trkpt lat="43.16424" lon="5.85311">
        <ele>317.2</ele>
        <time>2021-05-29T11:08:31Z</time>
      </trkpt>
      <trkpt lat="43.16426" lon="5.85303">
        <ele>317.2</ele>
        <time>2021-05-29T11:08:32Z</time>
      </trkpt>
      <trkpt lat="43.16428" lon="5.85295">
        <ele>317.2</ele>
        <time>2021-05-29T11:08:33Z</time>
      </trkpt>
      <trkpt lat="43.16429" lon="5.85288">
        <ele>317.2</ele>
        <time>2021-05-29T11:08:34Z</time>
      </trkpt>
      <trkpt lat="43.16427" lon="5.85272">
        <ele>317.2</ele>
        <time>2021-05-29T11:08:36Z</time>
      </trkpt>
      <trkpt lat="43.16424" lon="5.85264">
        <ele>317.2</ele>
        <time>2021-05-29T11:08:37Z</time>
      </trkpt>
      <trkpt lat="43.16397" lon="5.85227">
        <ele>317.4</ele>
        <time>2021-05-29T11:08:43Z</time>
      </trkpt>
      <trkpt lat="43.16383" lon="5.85208">
        <ele>317.4</ele>
        <time>2021-05-29T11:08:46Z</time>
      </trkpt>
      <trkpt lat="43.16377" lon="5.85193">
        <ele>317.4</ele>
        <time>2021-05-29T11:08:48Z</time>
      </trkpt>
      <trkpt lat="43.16379" lon="5.85178">
        <ele>317.4</ele>
        <time>2021-05-29T11:08:50Z</time>
      </trkpt>
      <trkpt lat="43.16381" lon="5.85171">
        <ele>317.4</ele>
        <time>2021-05-29T11:08:51Z</time>
      </trkpt>
      <trkpt lat="43.16388" lon="5.85158">
        <ele>317.6</ele>
        <time>2021-05-29T11:08:53Z</time>
      </trkpt>
      <trkpt lat="43.16401" lon="5.85137">
        <ele>317.8</ele>
        <time>2021-05-29T11:08:56Z</time>
      </trkpt>
      <trkpt lat="43.16413" lon="5.85114">
        <ele>317.8</ele>
        <time>2021-05-29T11:08:59Z</time>
      </trkpt>
      <trkpt lat="43.16418" lon="5.85107">
        <ele>317.8</ele>
        <time>2021-05-29T11:09:00Z</time>
      </trkpt>
      <trkpt lat="43.16427" lon="5.85091">
        <ele>317.6</ele>
        <time>2021-05-29T11:09:02Z</time>
      </trkpt>
      <trkpt lat="43.16432" lon="5.85082">
        <ele>317.6</ele>
        <time>2021-05-29T11:09:03Z</time>
      </trkpt>
      <trkpt lat="43.16437" lon="5.85073">
        <ele>317.4</ele>
        <time>2021-05-29T11:09:04Z</time>
      </trkpt>
      <trkpt lat="43.16446" lon="5.85056">
        <ele>316.6</ele>
        <time>2021-05-29T11:09:06Z</time>
      </trkpt>
      <trkpt lat="43.16451" lon="5.85048">
        <ele>316.4</ele>
        <time>2021-05-29T11:09:07Z</time>
      </trkpt>
      <trkpt lat="43.16467" lon="5.8502">
        <ele>314.8</ele>
        <time>2021-05-29T11:09:10Z</time>
      </trkpt>
      <trkpt lat="43.16472" lon="5.8501">
        <ele>314.4</ele>
        <time>2021-05-29T11:09:11Z</time>
      </trkpt>
      <trkpt lat="43.16487" lon="5.8498">
        <ele>314.2</ele>
        <time>2021-05-29T11:09:14Z</time>
      </trkpt>
      <trkpt lat="43.165" lon="5.84959">
        <ele>313.6</ele>
        <time>2021-05-29T11:09:16Z</time>
      </trkpt>
      <trkpt lat="43.16524" lon="5.84926">
        <ele>312.2</ele>
        <time>2021-05-29T11:09:20Z</time>
      </trkpt>
      <trkpt lat="43.16542" lon="5.84903">
        <ele>311.8</ele>
        <time>2021-05-29T11:09:23Z</time>
      </trkpt>
      <trkpt lat="43.16553" lon="5.84888">
        <ele>311.2</ele>
        <time>2021-05-29T11:09:25Z</time>
      </trkpt>
      <trkpt lat="43.16576" lon="5.8486">
        <ele>311</ele>
        <time>2021-05-29T11:09:29Z</time>
      </trkpt>
      <trkpt lat="43.16581" lon="5.84855">
        <ele>310.8</ele>
        <time>2021-05-29T11:09:30Z</time>
      </trkpt>
      <trkpt lat="43.16587" lon="5.84848">
        <ele>310.6</ele>
        <time>2021-05-29T11:09:31Z</time>
      </trkpt>
      <trkpt lat="43.16606" lon="5.8482">
        <ele>310.4</ele>
        <time>2021-05-29T11:09:35Z</time>
      </trkpt>
      <trkpt lat="43.16616" lon="5.84808">
        <ele>310.4</ele>
        <time>2021-05-29T11:09:37Z</time>
      </trkpt>
      <trkpt lat="43.16637" lon="5.84781">
        <ele>310.4</ele>
        <time>2021-05-29T11:09:41Z</time>
      </trkpt>
      <trkpt lat="43.16643" lon="5.84775">
        <ele>310.4</ele>
        <time>2021-05-29T11:09:42Z</time>
      </trkpt>
      <trkpt lat="43.16649" lon="5.84771">
        <ele>310.4</ele>
        <time>2021-05-29T11:09:43Z</time>
      </trkpt>
      <trkpt lat="43.16655" lon="5.84767">
        <ele>310.4</ele>
        <time>2021-05-29T11:09:44Z</time>
      </trkpt>
      <trkpt lat="43.16676" lon="5.84758">
        <ele>310.2</ele>
        <time>2021-05-29T11:09:47Z</time>
      </trkpt>
      <trkpt lat="43.16683" lon="5.84757">
        <ele>310.2</ele>
        <time>2021-05-29T11:09:48Z</time>
      </trkpt>
      <trkpt lat="43.16702" lon="5.84757">
        <ele>309.8</ele>
        <time>2021-05-29T11:09:51Z</time>
      </trkpt>
      <trkpt lat="43.16715" lon="5.84758">
        <ele>309.8</ele>
        <time>2021-05-29T11:09:53Z</time>
      </trkpt>
      <trkpt lat="43.16721" lon="5.84759">
        <ele>309.8</ele>
        <time>2021-05-29T11:09:54Z</time>
      </trkpt>
      <trkpt lat="43.16762" lon="5.84766">
        <ele>309.6</ele>
        <time>2021-05-29T11:10:01Z</time>
      </trkpt>
      <trkpt lat="43.16788" lon="5.84769">
        <ele>309.6</ele>
        <time>2021-05-29T11:10:06Z</time>
      </trkpt>
      <trkpt lat="43.16806" lon="5.84773">
        <ele>309.6</ele>
        <time>2021-05-29T11:10:09Z</time>
      </trkpt>
      <trkpt lat="43.16811" lon="5.84774">
        <ele>309.6</ele>
        <time>2021-05-29T11:10:10Z</time>
      </trkpt>
      <trkpt lat="43.16823" lon="5.84775">
        <ele>309.6</ele>
        <time>2021-05-29T11:10:12Z</time>
      </trkpt>
      <trkpt lat="43.16851" lon="5.84781">
        <ele>309.2</ele>
        <time>2021-05-29T11:10:17Z</time>
      </trkpt>
      <trkpt lat="43.16868" lon="5.84784">
        <ele>309.2</ele>
        <time>2021-05-29T11:10:20Z</time>
      </trkpt>
      <trkpt lat="43.16895" lon="5.84786">
        <ele>309</ele>
        <time>2021-05-29T11:10:25Z</time>
      </trkpt>
      <trkpt lat="43.16906" lon="5.84784">
        <ele>309</ele>
        <time>2021-05-29T11:10:27Z</time>
      </trkpt>
      <trkpt lat="43.16915" lon="5.84777">
        <ele>309.2</ele>
        <time>2021-05-29T11:10:29Z</time>
      </trkpt>
      <trkpt lat="43.16924" lon="5.84763">
        <ele>309.4</ele>
        <time>2021-05-29T11:10:32Z</time>
      </trkpt>
      <trkpt lat="43.16925" lon="5.84757">
        <ele>309.6</ele>
        <time>2021-05-29T11:10:33Z</time>
      </trkpt>
      <trkpt lat="43.1693" lon="5.84736">
        <ele>310.4</ele>
        <time>2021-05-29T11:10:37Z</time>
      </trkpt>
      <trkpt lat="43.1693" lon="5.84732">
        <ele>310.6</ele>
        <time>2021-05-29T11:10:38Z</time>
      </trkpt>
      <trkpt lat="43.16934" lon="5.84711">
        <ele>311.8</ele>
        <time>2021-05-29T11:10:43Z</time>
      </trkpt>
      <trkpt lat="43.16935" lon="5.84708">
        <ele>312</ele>
        <time>2021-05-29T11:10:44Z</time>
      </trkpt>
      <trkpt lat="43.16939" lon="5.84697">
        <ele>313</ele>
        <time>2021-05-29T11:10:47Z</time>
      </trkpt>
      <trkpt lat="43.16941" lon="5.84694">
        <ele>313.2</ele>
        <time>2021-05-29T11:10:48Z</time>
      </trkpt>
      <trkpt lat="43.16948" lon="5.84687">
        <ele>314.2</ele>
        <time>2021-05-29T11:10:51Z</time>
      </trkpt>
      <trkpt lat="43.16956" lon="5.84683">
        <ele>315.4</ele>
        <time>2021-05-29T11:10:54Z</time>
      </trkpt>
      <trkpt lat="43.16962" lon="5.8468">
        <ele>316</ele>
        <time>2021-05-29T11:10:56Z</time>
      </trkpt>
      <trkpt lat="43.16969" lon="5.84673">
        <ele>316.8</ele>
        <time>2021-05-29T11:10:59Z</time>
      </trkpt>
      <trkpt lat="43.16974" lon="5.84666">
        <ele>317.4</ele>
        <time>2021-05-29T11:11:01Z</time>
      </trkpt>
      <trkpt lat="43.16976" lon="5.84663">
        <ele>318</ele>
        <time>2021-05-29T11:11:02Z</time>
      </trkpt>
      <trkpt lat="43.16984" lon="5.84651">
        <ele>319.2</ele>
        <time>2021-05-29T11:11:06Z</time>
      </trkpt>
      <trkpt lat="43.16985" lon="5.84648">
        <ele>319.4</ele>
        <time>2021-05-29T11:11:07Z</time>
      </trkpt>
      <trkpt lat="43.16991" lon="5.84639">
        <ele>320.4</ele>
        <time>2021-05-29T11:11:10Z</time>
      </trkpt>
      <trkpt lat="43.16998" lon="5.84634">
        <ele>321.2</ele>
        <time>2021-05-29T11:11:12Z</time>
      </trkpt>
      <trkpt lat="43.1701" lon="5.84632">
        <ele>321.4</ele>
        <time>2021-05-29T11:11:15Z</time>
      </trkpt>
      <trkpt lat="43.17014" lon="5.84633">
        <ele>321.4</ele>
        <time>2021-05-29T11:11:16Z</time>
      </trkpt>
      <trkpt lat="43.17035" lon="5.84637">
        <ele>321.4</ele>
        <time>2021-05-29T11:11:21Z</time>
      </trkpt>
      <trkpt lat="43.17044" lon="5.8464">
        <ele>321.4</ele>
        <time>2021-05-29T11:11:23Z</time>
      </trkpt>
      <trkpt lat="43.17048" lon="5.84641">
        <ele>321.4</ele>
        <time>2021-05-29T11:11:24Z</time>
      </trkpt>
      <trkpt lat="43.17062" lon="5.84645">
        <ele>321.2</ele>
        <time>2021-05-29T11:11:27Z</time>
      </trkpt>
      <trkpt lat="43.17071" lon="5.84648">
        <ele>321.2</ele>
        <time>2021-05-29T11:11:29Z</time>
      </trkpt>
      <trkpt lat="43.17094" lon="5.84654">
        <ele>321</ele>
        <time>2021-05-29T11:11:34Z</time>
      </trkpt>
      <trkpt lat="43.17099" lon="5.84655">
        <ele>320.8</ele>
        <time>2021-05-29T11:11:35Z</time>
      </trkpt>
      <trkpt lat="43.17103" lon="5.84657">
        <ele>320.8</ele>
        <time>2021-05-29T11:11:36Z</time>
      </trkpt>
      <trkpt lat="43.17107" lon="5.84658">
        <ele>320.8</ele>
        <time>2021-05-29T11:11:37Z</time>
      </trkpt>
      <trkpt lat="43.17112" lon="5.84659">
        <ele>321</ele>
        <time>2021-05-29T11:11:38Z</time>
      </trkpt>
      <trkpt lat="43.17115" lon="5.8466">
        <ele>320.8</ele>
        <time>2021-05-29T11:11:39Z</time>
      </trkpt>
      <trkpt lat="43.17126" lon="5.84662">
        <ele>320.8</ele>
        <time>2021-05-29T11:11:42Z</time>
      </trkpt>
      <trkpt lat="43.17134" lon="5.84662">
        <ele>320.8</ele>
        <time>2021-05-29T11:11:44Z</time>
      </trkpt>
      <trkpt lat="43.17138" lon="5.84663">
        <ele>321</ele>
        <time>2021-05-29T11:11:45Z</time>
      </trkpt>
      <trkpt lat="43.17146" lon="5.84665">
        <ele>321.2</ele>
        <time>2021-05-29T11:11:47Z</time>
      </trkpt>
      <trkpt lat="43.17151" lon="5.84666">
        <ele>321.2</ele>
        <time>2021-05-29T11:11:48Z</time>
      </trkpt>
      <trkpt lat="43.17155" lon="5.84667">
        <ele>321.2</ele>
        <time>2021-05-29T11:11:49Z</time>
      </trkpt>
      <trkpt lat="43.17164" lon="5.84669">
        <ele>321.4</ele>
        <time>2021-05-29T11:11:51Z</time>
      </trkpt>
      <trkpt lat="43.17173" lon="5.84672">
        <ele>321.4</ele>
        <time>2021-05-29T11:11:53Z</time>
      </trkpt>
      <trkpt lat="43.17178" lon="5.84674">
        <ele>321.4</ele>
        <time>2021-05-29T11:11:54Z</time>
      </trkpt>
      <trkpt lat="43.17182" lon="5.84674">
        <ele>321.6</ele>
        <time>2021-05-29T11:11:55Z</time>
      </trkpt>
      <trkpt lat="43.17188" lon="5.84673">
        <ele>321.6</ele>
        <time>2021-05-29T11:11:56Z</time>
      </trkpt>
      <trkpt lat="43.17197" lon="5.84674">
        <ele>321.6</ele>
        <time>2021-05-29T11:11:58Z</time>
      </trkpt>
      <trkpt lat="43.17202" lon="5.84675">
        <ele>321.8</ele>
        <time>2021-05-29T11:11:59Z</time>
      </trkpt>
      <trkpt lat="43.17206" lon="5.84676">
        <ele>321.8</ele>
        <time>2021-05-29T11:12:00Z</time>
      </trkpt>
      <trkpt lat="43.17214" lon="5.84677">
        <ele>322.2</ele>
        <time>2021-05-29T11:12:02Z</time>
      </trkpt>
      <trkpt lat="43.17224" lon="5.8468">
        <ele>322.4</ele>
        <time>2021-05-29T11:12:04Z</time>
      </trkpt>
      <trkpt lat="43.17239" lon="5.84685">
        <ele>322.6</ele>
        <time>2021-05-29T11:12:07Z</time>
      </trkpt>
      <trkpt lat="43.1725" lon="5.84684">
        <ele>322.8</ele>
        <time>2021-05-29T11:12:09Z</time>
      </trkpt>
      <trkpt lat="43.17264" lon="5.84685">
        <ele>323.2</ele>
        <time>2021-05-29T11:12:12Z</time>
      </trkpt>
      <trkpt lat="43.17274" lon="5.84686">
        <ele>323.4</ele>
        <time>2021-05-29T11:12:14Z</time>
      </trkpt>
      <trkpt lat="43.17288" lon="5.84685">
        <ele>323.4</ele>
        <time>2021-05-29T11:12:17Z</time>
      </trkpt>
      <trkpt lat="43.17294" lon="5.84686">
        <ele>323.4</ele>
        <time>2021-05-29T11:12:18Z</time>
      </trkpt>
      <trkpt lat="43.17308" lon="5.84694">
        <ele>323.6</ele>
        <time>2021-05-29T11:12:20Z</time>
      </trkpt>
      <trkpt lat="43.1732" lon="5.84697">
        <ele>323.6</ele>
        <time>2021-05-29T11:12:22Z</time>
      </trkpt>
      <trkpt lat="43.17324" lon="5.84697">
        <ele>323.6</ele>
        <time>2021-05-29T11:12:23Z</time>
      </trkpt>
      <trkpt lat="43.17335" lon="5.84699">
        <ele>323.6</ele>
        <time>2021-05-29T11:12:25Z</time>
      </trkpt>
      <trkpt lat="43.17367" lon="5.84703">
        <ele>323.2</ele>
        <time>2021-05-29T11:12:30Z</time>
      </trkpt>
      <trkpt lat="43.17407" lon="5.84711">
        <ele>321.8</ele>
        <time>2021-05-29T11:12:35Z</time>
      </trkpt>
      <trkpt lat="43.17415" lon="5.84711">
        <ele>321.4</ele>
        <time>2021-05-29T11:12:36Z</time>
      </trkpt>
      <trkpt lat="43.17423" lon="5.84712">
        <ele>321.2</ele>
        <time>2021-05-29T11:12:37Z</time>
      </trkpt>
      <trkpt lat="43.1744" lon="5.84716">
        <ele>321</ele>
        <time>2021-05-29T11:12:39Z</time>
      </trkpt>
      <trkpt lat="43.17448" lon="5.84719">
        <ele>320.6</ele>
        <time>2021-05-29T11:12:40Z</time>
      </trkpt>
      <trkpt lat="43.17456" lon="5.84724">
        <ele>320</ele>
        <time>2021-05-29T11:12:41Z</time>
      </trkpt>
      <trkpt lat="43.17471" lon="5.84737">
        <ele>319.2</ele>
        <time>2021-05-29T11:12:43Z</time>
      </trkpt>
      <trkpt lat="43.17478" lon="5.84744">
        <ele>319</ele>
        <time>2021-05-29T11:12:44Z</time>
      </trkpt>
      <trkpt lat="43.17484" lon="5.84753">
        <ele>318.6</ele>
        <time>2021-05-29T11:12:45Z</time>
      </trkpt>
      <trkpt lat="43.17488" lon="5.84764">
        <ele>318.2</ele>
        <time>2021-05-29T11:12:46Z</time>
      </trkpt>
      <trkpt lat="43.17491" lon="5.84789">
        <ele>317.2</ele>
        <time>2021-05-29T11:12:48Z</time>
      </trkpt>
      <trkpt lat="43.17491" lon="5.84802">
        <ele>316.6</ele>
        <time>2021-05-29T11:12:49Z</time>
      </trkpt>
      <trkpt lat="43.17491" lon="5.84816">
        <ele>316</ele>
        <time>2021-05-29T11:12:50Z</time>
      </trkpt>
      <trkpt lat="43.17492" lon="5.84829">
        <ele>315.8</ele>
        <time>2021-05-29T11:12:51Z</time>
      </trkpt>
      <trkpt lat="43.17495" lon="5.84843">
        <ele>315</ele>
        <time>2021-05-29T11:12:52Z</time>
      </trkpt>
      <trkpt lat="43.175" lon="5.84857">
        <ele>314.2</ele>
        <time>2021-05-29T11:12:53Z</time>
      </trkpt>
      <trkpt lat="43.17507" lon="5.84871">
        <ele>313.8</ele>
        <time>2021-05-29T11:12:54Z</time>
      </trkpt>
      <trkpt lat="43.17514" lon="5.84883">
        <ele>312.6</ele>
        <time>2021-05-29T11:12:55Z</time>
      </trkpt>
      <trkpt lat="43.1753" lon="5.84909">
        <ele>310.8</ele>
        <time>2021-05-29T11:12:57Z</time>
      </trkpt>
      <trkpt lat="43.17547" lon="5.84936">
        <ele>309.2</ele>
        <time>2021-05-29T11:12:59Z</time>
      </trkpt>
      <trkpt lat="43.17556" lon="5.84949">
        <ele>308.2</ele>
        <time>2021-05-29T11:13:00Z</time>
      </trkpt>
      <trkpt lat="43.17575" lon="5.84974">
        <ele>306.4</ele>
        <time>2021-05-29T11:13:02Z</time>
      </trkpt>
      <trkpt lat="43.17596" lon="5.84997">
        <ele>305</ele>
        <time>2021-05-29T11:13:04Z</time>
      </trkpt>
      <trkpt lat="43.17607" lon="5.85008">
        <ele>303.6</ele>
        <time>2021-05-29T11:13:05Z</time>
      </trkpt>
      <trkpt lat="43.17626" lon="5.8503">
        <ele>301.8</ele>
        <time>2021-05-29T11:13:07Z</time>
      </trkpt>
      <trkpt lat="43.17642" lon="5.85052">
        <ele>300.4</ele>
        <time>2021-05-29T11:13:09Z</time>
      </trkpt>
      <trkpt lat="43.17657" lon="5.85068">
        <ele>299</ele>
        <time>2021-05-29T11:13:11Z</time>
      </trkpt>
      <trkpt lat="43.17666" lon="5.85073">
        <ele>297.6</ele>
        <time>2021-05-29T11:13:12Z</time>
      </trkpt>
      <trkpt lat="43.17674" lon="5.85075">
        <ele>297.2</ele>
        <time>2021-05-29T11:13:13Z</time>
      </trkpt>
      <trkpt lat="43.17683" lon="5.85073">
        <ele>295.6</ele>
        <time>2021-05-29T11:13:14Z</time>
      </trkpt>
      <trkpt lat="43.17689" lon="5.85067">
        <ele>295</ele>
        <time>2021-05-29T11:13:15Z</time>
      </trkpt>
      <trkpt lat="43.17693" lon="5.85058">
        <ele>293.6</ele>
        <time>2021-05-29T11:13:16Z</time>
      </trkpt>
      <trkpt lat="43.17694" lon="5.85046">
        <ele>292.4</ele>
        <time>2021-05-29T11:13:17Z</time>
      </trkpt>
      <trkpt lat="43.17693" lon="5.85034">
        <ele>291.8</ele>
        <time>2021-05-29T11:13:18Z</time>
      </trkpt>
      <trkpt lat="43.1769" lon="5.85021">
        <ele>290.6</ele>
        <time>2021-05-29T11:13:19Z</time>
      </trkpt>
      <trkpt lat="43.17685" lon="5.84996">
        <ele>289.6</ele>
        <time>2021-05-29T11:13:21Z</time>
      </trkpt>
      <trkpt lat="43.17683" lon="5.84985">
        <ele>288.8</ele>
        <time>2021-05-29T11:13:22Z</time>
      </trkpt>
      <trkpt lat="43.17684" lon="5.84973">
        <ele>288.2</ele>
        <time>2021-05-29T11:13:23Z</time>
      </trkpt>
      <trkpt lat="43.17686" lon="5.84961">
        <ele>287</ele>
        <time>2021-05-29T11:13:24Z</time>
      </trkpt>
      <trkpt lat="43.17691" lon="5.84951">
        <ele>286.2</ele>
        <time>2021-05-29T11:13:25Z</time>
      </trkpt>
      <trkpt lat="43.17699" lon="5.84943">
        <ele>284.8</ele>
        <time>2021-05-29T11:13:26Z</time>
      </trkpt>
      <trkpt lat="43.17707" lon="5.84937">
        <ele>284</ele>
        <time>2021-05-29T11:13:27Z</time>
      </trkpt>
      <trkpt lat="43.17716" lon="5.84935">
        <ele>282.8</ele>
        <time>2021-05-29T11:13:28Z</time>
      </trkpt>
      <trkpt lat="43.17725" lon="5.84936">
        <ele>281.2</ele>
        <time>2021-05-29T11:13:29Z</time>
      </trkpt>
      <trkpt lat="43.17734" lon="5.84942">
        <ele>280.6</ele>
        <time>2021-05-29T11:13:30Z</time>
      </trkpt>
      <trkpt lat="43.17743" lon="5.84951">
        <ele>279.6</ele>
        <time>2021-05-29T11:13:31Z</time>
      </trkpt>
      <trkpt lat="43.17753" lon="5.8496">
        <ele>279</ele>
        <time>2021-05-29T11:13:32Z</time>
      </trkpt>
      <trkpt lat="43.17763" lon="5.84971">
        <ele>277.8</ele>
        <time>2021-05-29T11:13:33Z</time>
      </trkpt>
      <trkpt lat="43.17773" lon="5.84981">
        <ele>276.4</ele>
        <time>2021-05-29T11:13:34Z</time>
      </trkpt>
      <trkpt lat="43.17795" lon="5.85001">
        <ele>274.4</ele>
        <time>2021-05-29T11:13:36Z</time>
      </trkpt>
      <trkpt lat="43.17814" lon="5.85016">
        <ele>272.8</ele>
        <time>2021-05-29T11:13:38Z</time>
      </trkpt>
      <trkpt lat="43.1783" lon="5.85027">
        <ele>270.6</ele>
        <time>2021-05-29T11:13:40Z</time>
      </trkpt>
      <trkpt lat="43.17838" lon="5.85028">
        <ele>269</ele>
        <time>2021-05-29T11:13:41Z</time>
      </trkpt>
      <trkpt lat="43.17846" lon="5.85025">
        <ele>268</ele>
        <time>2021-05-29T11:13:42Z</time>
      </trkpt>
      <trkpt lat="43.17852" lon="5.85017">
        <ele>266.4</ele>
        <time>2021-05-29T11:13:43Z</time>
      </trkpt>
      <trkpt lat="43.17855" lon="5.85007">
        <ele>265.8</ele>
        <time>2021-05-29T11:13:44Z</time>
      </trkpt>
      <trkpt lat="43.17855" lon="5.84996">
        <ele>264.8</ele>
        <time>2021-05-29T11:13:45Z</time>
      </trkpt>
      <trkpt lat="43.17853" lon="5.84985">
        <ele>263.6</ele>
        <time>2021-05-29T11:13:46Z</time>
      </trkpt>
      <trkpt lat="43.17837" lon="5.84959">
        <ele>262.4</ele>
        <time>2021-05-29T11:13:49Z</time>
      </trkpt>
      <trkpt lat="43.17831" lon="5.8495">
        <ele>261.8</ele>
        <time>2021-05-29T11:13:50Z</time>
      </trkpt>
      <trkpt lat="43.17812" lon="5.84924">
        <ele>261</ele>
        <time>2021-05-29T11:13:53Z</time>
      </trkpt>
      <trkpt lat="43.17799" lon="5.84906">
        <ele>260.4</ele>
        <time>2021-05-29T11:13:55Z</time>
      </trkpt>
      <trkpt lat="43.17778" lon="5.84878">
        <ele>259.8</ele>
        <time>2021-05-29T11:13:58Z</time>
      </trkpt>
      <trkpt lat="43.1775" lon="5.8484">
        <ele>259.2</ele>
        <time>2021-05-29T11:14:02Z</time>
      </trkpt>
      <trkpt lat="43.1773" lon="5.84812">
        <ele>258.4</ele>
        <time>2021-05-29T11:14:05Z</time>
      </trkpt>
      <trkpt lat="43.17723" lon="5.84803">
        <ele>258.4</ele>
        <time>2021-05-29T11:14:06Z</time>
      </trkpt>
      <trkpt lat="43.17716" lon="5.84794">
        <ele>258</ele>
        <time>2021-05-29T11:14:07Z</time>
      </trkpt>
      <trkpt lat="43.17702" lon="5.84773">
        <ele>257.2</ele>
        <time>2021-05-29T11:14:09Z</time>
      </trkpt>
      <trkpt lat="43.17695" lon="5.84762">
        <ele>256.8</ele>
        <time>2021-05-29T11:14:10Z</time>
      </trkpt>
      <trkpt lat="43.17688" lon="5.84751">
        <ele>255.8</ele>
        <time>2021-05-29T11:14:11Z</time>
      </trkpt>
      <trkpt lat="43.17682" lon="5.84739">
        <ele>255</ele>
        <time>2021-05-29T11:14:12Z</time>
      </trkpt>
      <trkpt lat="43.17676" lon="5.84726">
        <ele>254.6</ele>
        <time>2021-05-29T11:14:13Z</time>
      </trkpt>
      <trkpt lat="43.17671" lon="5.84712">
        <ele>254</ele>
        <time>2021-05-29T11:14:14Z</time>
      </trkpt>
      <trkpt lat="43.17659" lon="5.84682">
        <ele>253.2</ele>
        <time>2021-05-29T11:14:16Z</time>
      </trkpt>
      <trkpt lat="43.17653" lon="5.84667">
        <ele>251.8</ele>
        <time>2021-05-29T11:14:17Z</time>
      </trkpt>
      <trkpt lat="43.17647" lon="5.84652">
        <ele>251.2</ele>
        <time>2021-05-29T11:14:18Z</time>
      </trkpt>
      <trkpt lat="43.17641" lon="5.84636">
        <ele>250</ele>
        <time>2021-05-29T11:14:19Z</time>
      </trkpt>
      <trkpt lat="43.17631" lon="5.84601">
        <ele>247.6</ele>
        <time>2021-05-29T11:14:21Z</time>
      </trkpt>
      <trkpt lat="43.17622" lon="5.84563">
        <ele>245.2</ele>
        <time>2021-05-29T11:14:23Z</time>
      </trkpt>
      <trkpt lat="43.17617" lon="5.84544">
        <ele>243.4</ele>
        <time>2021-05-29T11:14:24Z</time>
      </trkpt>
      <trkpt lat="43.1761" lon="5.84527">
        <ele>242</ele>
        <time>2021-05-29T11:14:25Z</time>
      </trkpt>
      <trkpt lat="43.17602" lon="5.8451">
        <ele>239.8</ele>
        <time>2021-05-29T11:14:26Z</time>
      </trkpt>
      <trkpt lat="43.17594" lon="5.84493">
        <ele>238.6</ele>
        <time>2021-05-29T11:14:27Z</time>
      </trkpt>
      <trkpt lat="43.17586" lon="5.84477">
        <ele>237.2</ele>
        <time>2021-05-29T11:14:28Z</time>
      </trkpt>
      <trkpt lat="43.17577" lon="5.84462">
        <ele>235</ele>
        <time>2021-05-29T11:14:29Z</time>
      </trkpt>
      <trkpt lat="43.17568" lon="5.84448">
        <ele>234.2</ele>
        <time>2021-05-29T11:14:30Z</time>
      </trkpt>
      <trkpt lat="43.17559" lon="5.84435">
        <ele>232.8</ele>
        <time>2021-05-29T11:14:31Z</time>
      </trkpt>
      <trkpt lat="43.1755" lon="5.84422">
        <ele>231.8</ele>
        <time>2021-05-29T11:14:32Z</time>
      </trkpt>
      <trkpt lat="43.17542" lon="5.84409">
        <ele>230</ele>
        <time>2021-05-29T11:14:33Z</time>
      </trkpt>
      <trkpt lat="43.17534" lon="5.84396">
        <ele>229</ele>
        <time>2021-05-29T11:14:34Z</time>
      </trkpt>
      <trkpt lat="43.17527" lon="5.84381">
        <ele>227</ele>
        <time>2021-05-29T11:14:35Z</time>
      </trkpt>
      <trkpt lat="43.17522" lon="5.84365">
        <ele>225</ele>
        <time>2021-05-29T11:14:36Z</time>
      </trkpt>
      <trkpt lat="43.17516" lon="5.84349">
        <ele>224</ele>
        <time>2021-05-29T11:14:37Z</time>
      </trkpt>
      <trkpt lat="43.1751" lon="5.84332">
        <ele>222</ele>
        <time>2021-05-29T11:14:38Z</time>
      </trkpt>
      <trkpt lat="43.17505" lon="5.84315">
        <ele>220.8</ele>
        <time>2021-05-29T11:14:39Z</time>
      </trkpt>
      <trkpt lat="43.175" lon="5.84296">
        <ele>219</ele>
        <time>2021-05-29T11:14:40Z</time>
      </trkpt>
      <trkpt lat="43.17496" lon="5.84278">
        <ele>217.6</ele>
        <time>2021-05-29T11:14:41Z</time>
      </trkpt>
      <trkpt lat="43.17494" lon="5.84259">
        <ele>216.4</ele>
        <time>2021-05-29T11:14:42Z</time>
      </trkpt>
      <trkpt lat="43.17493" lon="5.84239">
        <ele>214.2</ele>
        <time>2021-05-29T11:14:43Z</time>
      </trkpt>
      <trkpt lat="43.17492" lon="5.84219">
        <ele>213.4</ele>
        <time>2021-05-29T11:14:44Z</time>
      </trkpt>
      <trkpt lat="43.17492" lon="5.84199">
        <ele>211.8</ele>
        <time>2021-05-29T11:14:45Z</time>
      </trkpt>
      <trkpt lat="43.17489" lon="5.84164">
        <ele>208.8</ele>
        <time>2021-05-29T11:14:47Z</time>
      </trkpt>
      <trkpt lat="43.17485" lon="5.84149">
        <ele>207.4</ele>
        <time>2021-05-29T11:14:48Z</time>
      </trkpt>
      <trkpt lat="43.17479" lon="5.84134">
        <ele>206.4</ele>
        <time>2021-05-29T11:14:49Z</time>
      </trkpt>
      <trkpt lat="43.17471" lon="5.8412">
        <ele>205.2</ele>
        <time>2021-05-29T11:14:50Z</time>
      </trkpt>
      <trkpt lat="43.17463" lon="5.84107">
        <ele>204.8</ele>
        <time>2021-05-29T11:14:51Z</time>
      </trkpt>
      <trkpt lat="43.17454" lon="5.84094">
        <ele>203.8</ele>
        <time>2021-05-29T11:14:52Z</time>
      </trkpt>
      <trkpt lat="43.17437" lon="5.84067">
        <ele>201.6</ele>
        <time>2021-05-29T11:14:54Z</time>
      </trkpt>
      <trkpt lat="43.17428" lon="5.84053">
        <ele>200</ele>
        <time>2021-05-29T11:14:55Z</time>
      </trkpt>
      <trkpt lat="43.17421" lon="5.84038">
        <ele>199</ele>
        <time>2021-05-29T11:14:56Z</time>
      </trkpt>
      <trkpt lat="43.17413" lon="5.84022">
        <ele>197.4</ele>
        <time>2021-05-29T11:14:57Z</time>
      </trkpt>
      <trkpt lat="43.174" lon="5.83989">
        <ele>195</ele>
        <time>2021-05-29T11:14:59Z</time>
      </trkpt>
      <trkpt lat="43.17394" lon="5.83972">
        <ele>193.8</ele>
        <time>2021-05-29T11:15:00Z</time>
      </trkpt>
      <trkpt lat="43.17383" lon="5.83939">
        <ele>191.6</ele>
        <time>2021-05-29T11:15:02Z</time>
      </trkpt>
      <trkpt lat="43.1738" lon="5.83923">
        <ele>190.8</ele>
        <time>2021-05-29T11:15:03Z</time>
      </trkpt>
      <trkpt lat="43.17378" lon="5.83905">
        <ele>189.2</ele>
        <time>2021-05-29T11:15:04Z</time>
      </trkpt>
      <trkpt lat="43.17377" lon="5.83873">
        <ele>187.6</ele>
        <time>2021-05-29T11:15:06Z</time>
      </trkpt>
      <trkpt lat="43.1737" lon="5.83845">
        <ele>186.8</ele>
        <time>2021-05-29T11:15:08Z</time>
      </trkpt>
      <trkpt lat="43.17365" lon="5.83833">
        <ele>186.2</ele>
        <time>2021-05-29T11:15:09Z</time>
      </trkpt>
      <trkpt lat="43.17358" lon="5.83822">
        <ele>186</ele>
        <time>2021-05-29T11:15:10Z</time>
      </trkpt>
      <trkpt lat="43.17344" lon="5.83799">
        <ele>185.2</ele>
        <time>2021-05-29T11:15:12Z</time>
      </trkpt>
      <trkpt lat="43.17316" lon="5.8375">
        <ele>183.8</ele>
        <time>2021-05-29T11:15:16Z</time>
      </trkpt>
      <trkpt lat="43.17296" lon="5.83711">
        <ele>182</ele>
        <time>2021-05-29T11:15:19Z</time>
      </trkpt>
      <trkpt lat="43.17283" lon="5.83684">
        <ele>180.8</ele>
        <time>2021-05-29T11:15:21Z</time>
      </trkpt>
      <trkpt lat="43.17277" lon="5.83671">
        <ele>180.2</ele>
        <time>2021-05-29T11:15:22Z</time>
      </trkpt>
      <trkpt lat="43.17274" lon="5.83656">
        <ele>179.4</ele>
        <time>2021-05-29T11:15:23Z</time>
      </trkpt>
      <trkpt lat="43.17273" lon="5.83641">
        <ele>178.8</ele>
        <time>2021-05-29T11:15:24Z</time>
      </trkpt>
      <trkpt lat="43.17273" lon="5.83626">
        <ele>178</ele>
        <time>2021-05-29T11:15:25Z</time>
      </trkpt>
      <trkpt lat="43.17273" lon="5.8361">
        <ele>177</ele>
        <time>2021-05-29T11:15:26Z</time>
      </trkpt>
      <trkpt lat="43.17273" lon="5.83581">
        <ele>175.6</ele>
        <time>2021-05-29T11:15:28Z</time>
      </trkpt>
      <trkpt lat="43.17271" lon="5.83567">
        <ele>175.2</ele>
        <time>2021-05-29T11:15:29Z</time>
      </trkpt>
      <trkpt lat="43.17268" lon="5.83553">
        <ele>174.4</ele>
        <time>2021-05-29T11:15:30Z</time>
      </trkpt>
      <trkpt lat="43.17261" lon="5.83527">
        <ele>173.8</ele>
        <time>2021-05-29T11:15:32Z</time>
      </trkpt>
      <trkpt lat="43.17257" lon="5.83516">
        <ele>173.2</ele>
        <time>2021-05-29T11:15:33Z</time>
      </trkpt>
      <trkpt lat="43.17253" lon="5.83504">
        <ele>173</ele>
        <time>2021-05-29T11:15:34Z</time>
      </trkpt>
      <trkpt lat="43.17237" lon="5.83446">
        <ele>172.2</ele>
        <time>2021-05-29T11:15:39Z</time>
      </trkpt>
      <trkpt lat="43.17224" lon="5.83373">
        <ele>171.2</ele>
        <time>2021-05-29T11:15:45Z</time>
      </trkpt>
      <trkpt lat="43.17223" lon="5.8336">
        <ele>171</ele>
        <time>2021-05-29T11:15:46Z</time>
      </trkpt>
      <trkpt lat="43.1722" lon="5.83334">
        <ele>170</ele>
        <time>2021-05-29T11:15:48Z</time>
      </trkpt>
      <trkpt lat="43.17219" lon="5.83308">
        <ele>169</ele>
        <time>2021-05-29T11:15:50Z</time>
      </trkpt>
      <trkpt lat="43.1722" lon="5.83296">
        <ele>168.8</ele>
        <time>2021-05-29T11:15:51Z</time>
      </trkpt>
      <trkpt lat="43.17222" lon="5.83272">
        <ele>168</ele>
        <time>2021-05-29T11:15:53Z</time>
      </trkpt>
      <trkpt lat="43.17226" lon="5.8325">
        <ele>166.6</ele>
        <time>2021-05-29T11:15:55Z</time>
      </trkpt>
      <trkpt lat="43.17229" lon="5.83231">
        <ele>165</ele>
        <time>2021-05-29T11:15:57Z</time>
      </trkpt>
      <trkpt lat="43.17233" lon="5.83215">
        <ele>164</ele>
        <time>2021-05-29T11:15:59Z</time>
      </trkpt>
      <trkpt lat="43.17236" lon="5.83205">
        <ele>163.8</ele>
        <time>2021-05-29T11:16:00Z</time>
      </trkpt>
      <trkpt lat="43.17237" lon="5.8319">
        <ele>162.4</ele>
        <time>2021-05-29T11:16:02Z</time>
      </trkpt>
      <trkpt lat="43.17236" lon="5.83182">
        <ele>161.8</ele>
        <time>2021-05-29T11:16:03Z</time>
      </trkpt>
      <trkpt lat="43.17235" lon="5.83174">
        <ele>161.2</ele>
        <time>2021-05-29T11:16:04Z</time>
      </trkpt>
      <trkpt lat="43.17232" lon="5.83154">
        <ele>160.4</ele>
        <time>2021-05-29T11:16:07Z</time>
      </trkpt>
      <trkpt lat="43.17231" lon="5.83142">
        <ele>159</ele>
        <time>2021-05-29T11:16:09Z</time>
      </trkpt>
      <trkpt lat="43.17231" lon="5.83138">
        <ele>158.8</ele>
        <time>2021-05-29T11:16:10Z</time>
      </trkpt>
      <trkpt lat="43.17232" lon="5.83134">
        <ele>158</ele>
        <time>2021-05-29T11:16:11Z</time>
      </trkpt>
      <trkpt lat="43.17234" lon="5.83129">
        <ele>156.8</ele>
        <time>2021-05-29T11:16:15Z</time>
      </trkpt>
    </trkseg>
  </trk>
</gpx>